<?xml version='1.0' encoding='UTF-8'?><gpx version="1.1" creator="JPX - https://github.com/jenetics/jpx" xmlns="http://www.topografix.com/GPX/1/1"><trk><trkseg><trkpt lat="44.3216959" lon="8.3241339"><ele>409.00000000000006</ele><time>2026-03-24T09:15:55.948Z</time></trkpt><trkpt lat="44.3217517" lon="8.3240429"><ele>409.0</ele><time>2026-03-24T09:16:20.946Z</time></trkpt><trkpt lat="44.3218381" lon="8.324072"><ele>409.0</ele><time>2026-03-24T09:16:24.948Z</time></trkpt><trkpt lat="44.3219049" lon="8.3241445"><ele>409.0</ele><time>2026-03-24T09:16:27.948Z</time></trkpt><trkpt lat="44.3219753" lon="8.3242404"><ele>409.00000000000006</ele><time>2026-03-24T09:16:30.931Z</time></trkpt><trkpt lat="44.3220212" lon="8.3243221"><ele>409.0</ele><time>2026-03-24T09:16:32.949Z</time></trkpt><trkpt lat="44.3220652" lon="8.324408"><ele>409.0</ele><time>2026-03-24T09:16:34.949Z</time></trkpt><trkpt lat="44.3221408" lon="8.3245412"><ele>409.0</ele><time>2026-03-24T09:16:37.948Z</time></trkpt><trkpt lat="44.3222124" lon="8.3246124"><ele>409.0</ele><time>2026-03-24T09:16:39.947Z</time></trkpt><trkpt lat="44.322291" lon="8.3246645"><ele>409.0</ele><time>2026-03-24T09:16:41.885Z</time></trkpt><trkpt lat="44.3223861" lon="8.3246654"><ele>409.0</ele><time>2026-03-24T09:16:43.947Z</time></trkpt><trkpt lat="44.3224821" lon="8.3246698"><ele>409.4</ele><time>2026-03-24T09:16:45.948Z</time></trkpt><trkpt lat="44.3225785" lon="8.3246442"><ele>409.79999999999995</ele><time>2026-03-24T09:16:47.947Z</time></trkpt><trkpt lat="44.3226718" lon="8.3245854"><ele>410.20000000000005</ele><time>2026-03-24T09:16:49.948Z</time></trkpt><trkpt lat="44.3227584" lon="8.3245124"><ele>410.6</ele><time>2026-03-24T09:16:51.948Z</time></trkpt><trkpt lat="44.3228449" lon="8.324439"><ele>411.0</ele><time>2026-03-24T09:16:53.948Z</time></trkpt><trkpt lat="44.3229275" lon="8.3243618"><ele>411.0</ele><time>2026-03-24T09:16:55.949Z</time></trkpt><trkpt lat="44.3230128" lon="8.3242788"><ele>411.0</ele><time>2026-03-24T09:16:57.948Z</time></trkpt><trkpt lat="44.323094" lon="8.324201"><ele>411.0</ele><time>2026-03-24T09:16:59.948Z</time></trkpt><trkpt lat="44.3231824" lon="8.3241257"><ele>411.0</ele><time>2026-03-24T09:17:01.949Z</time></trkpt><trkpt lat="44.3232777" lon="8.3240595"><ele>411.0</ele><time>2026-03-24T09:17:03.948Z</time></trkpt><trkpt lat="44.3233814" lon="8.3240196"><ele>411.0</ele><time>2026-03-24T09:17:05.949Z</time></trkpt><trkpt lat="44.3234956" lon="8.3240057"><ele>411.0</ele><time>2026-03-24T09:17:07.948Z</time></trkpt><trkpt lat="44.3236023" lon="8.3240673"><ele>411.0</ele><time>2026-03-24T09:17:09.949Z</time></trkpt><trkpt lat="44.3236916" lon="8.324182"><ele>411.0</ele><time>2026-03-24T09:17:11.948Z</time></trkpt><trkpt lat="44.3237335" lon="8.3242503"><ele>411.0</ele><time>2026-03-24T09:17:12.947Z</time></trkpt><trkpt lat="44.3237978" lon="8.3243819"><ele>411.0</ele><time>2026-03-24T09:17:14.948Z</time></trkpt><trkpt lat="44.3238392" lon="8.3245188"><ele>411.0</ele><time>2026-03-24T09:17:16.948Z</time></trkpt><trkpt lat="44.3238784" lon="8.3246606"><ele>411.0</ele><time>2026-03-24T09:17:18.947Z</time></trkpt><trkpt lat="44.3238946" lon="8.324817"><ele>411.0</ele><time>2026-03-24T09:17:20.946Z</time></trkpt><trkpt lat="44.3239152" lon="8.3249758"><ele>411.0</ele><time>2026-03-24T09:17:22.947Z</time></trkpt><trkpt lat="44.3239426" lon="8.325127"><ele>410.75</ele><time>2026-03-24T09:17:24.948Z</time></trkpt><trkpt lat="44.3239689" lon="8.3252764"><ele>410.5</ele><time>2026-03-24T09:17:26.947Z</time></trkpt><trkpt lat="44.3239909" lon="8.3254358"><ele>410.25</ele><time>2026-03-24T09:17:28.948Z</time></trkpt><trkpt lat="44.3239998" lon="8.3255999"><ele>410.0</ele><time>2026-03-24T09:17:30.948Z</time></trkpt><trkpt lat="44.3240208" lon="8.3257467"><ele>410.0</ele><time>2026-03-24T09:17:32.948Z</time></trkpt><trkpt lat="44.3240463" lon="8.3258939"><ele>410.0</ele><time>2026-03-24T09:17:34.948Z</time></trkpt><trkpt lat="44.3240644" lon="8.3260556"><ele>410.0</ele><time>2026-03-24T09:17:36.948Z</time></trkpt><trkpt lat="44.3240791" lon="8.3261447"><ele>410.0</ele><time>2026-03-24T09:17:37.946Z</time></trkpt><trkpt lat="44.3240969" lon="8.3263112"><ele>410.0</ele><time>2026-03-24T09:17:39.948Z</time></trkpt><trkpt lat="44.3241333" lon="8.3264742"><ele>413.25</ele><time>2026-03-24T09:17:41.948Z</time></trkpt><trkpt lat="44.3241649" lon="8.3266297"><ele>416.5</ele><time>2026-03-24T09:17:43.948Z</time></trkpt><trkpt lat="44.3242325" lon="8.3267751"><ele>419.75</ele><time>2026-03-24T09:17:45.948Z</time></trkpt><trkpt lat="44.3243195" lon="8.3268858"><ele>423.0</ele><time>2026-03-24T09:17:47.948Z</time></trkpt><trkpt lat="44.324418" lon="8.3269651"><ele>423.0</ele><time>2026-03-24T09:17:49.948Z</time></trkpt><trkpt lat="44.3245215" lon="8.3270211"><ele>423.0</ele><time>2026-03-24T09:17:51.948Z</time></trkpt><trkpt lat="44.324636" lon="8.3270572"><ele>423.0</ele><time>2026-03-24T09:17:53.947Z</time></trkpt><trkpt lat="44.3247475" lon="8.327081"><ele>423.0</ele><time>2026-03-24T09:17:55.948Z</time></trkpt><trkpt lat="44.3248556" lon="8.3271008"><ele>420.4</ele><time>2026-03-24T09:17:57.947Z</time></trkpt><trkpt lat="44.3249618" lon="8.3271107"><ele>417.79999999999995</ele><time>2026-03-24T09:17:59.948Z</time></trkpt><trkpt lat="44.3250688" lon="8.3271159"><ele>415.2</ele><time>2026-03-24T09:18:01.948Z</time></trkpt><trkpt lat="44.3251698" lon="8.3271359"><ele>412.6</ele><time>2026-03-24T09:18:03.948Z</time></trkpt><trkpt lat="44.325278" lon="8.3271459"><ele>410.0</ele><time>2026-03-24T09:18:05.948Z</time></trkpt><trkpt lat="44.3253847" lon="8.3271718"><ele>410.0</ele><time>2026-03-24T09:18:07.948Z</time></trkpt><trkpt lat="44.3254752" lon="8.3272071"><ele>410.0</ele><time>2026-03-24T09:18:09.948Z</time></trkpt><trkpt lat="44.3255776" lon="8.3272562"><ele>410.0</ele><time>2026-03-24T09:18:11.948Z</time></trkpt><trkpt lat="44.3256785" lon="8.3273215"><ele>410.0</ele><time>2026-03-24T09:18:13.947Z</time></trkpt><trkpt lat="44.3257789" lon="8.3273731"><ele>410.0</ele><time>2026-03-24T09:18:15.947Z</time></trkpt><trkpt lat="44.3258675" lon="8.3274365"><ele>409.2</ele><time>2026-03-24T09:18:17.948Z</time></trkpt><trkpt lat="44.3259631" lon="8.3275042"><ele>408.4</ele><time>2026-03-24T09:18:19.948Z</time></trkpt><trkpt lat="44.3260519" lon="8.3275853"><ele>407.6</ele><time>2026-03-24T09:18:21.948Z</time></trkpt><trkpt lat="44.3261358" lon="8.327662"><ele>406.8</ele><time>2026-03-24T09:18:23.948Z</time></trkpt><trkpt lat="44.326205" lon="8.3277525"><ele>406.0</ele><time>2026-03-24T09:18:25.947Z</time></trkpt><trkpt lat="44.3262675" lon="8.3278315"><ele>406.0</ele><time>2026-03-24T09:18:27.948Z</time></trkpt><trkpt lat="44.3263061" lon="8.3279377"><ele>406.0</ele><time>2026-03-24T09:18:29.947Z</time></trkpt><trkpt lat="44.3263315" lon="8.3280609"><ele>406.0</ele><time>2026-03-24T09:18:31.948Z</time></trkpt><trkpt lat="44.3263424" lon="8.3281968"><ele>406.0</ele><time>2026-03-24T09:18:33.947Z</time></trkpt><trkpt lat="44.3263465" lon="8.3283262"><ele>406.0</ele><time>2026-03-24T09:18:35.948Z</time></trkpt><trkpt lat="44.3263494" lon="8.3284595"><ele>406.20000000000005</ele><time>2026-03-24T09:18:37.947Z</time></trkpt><trkpt lat="44.3263613" lon="8.3286011"><ele>406.40000000000003</ele><time>2026-03-24T09:18:39.947Z</time></trkpt><trkpt lat="44.3263665" lon="8.3287363"><ele>406.6</ele><time>2026-03-24T09:18:41.948Z</time></trkpt><trkpt lat="44.3263663" lon="8.3288618"><ele>406.8</ele><time>2026-03-24T09:18:43.947Z</time></trkpt><trkpt lat="44.3263603" lon="8.3289973"><ele>407.0</ele><time>2026-03-24T09:18:45.948Z</time></trkpt><trkpt lat="44.3263585" lon="8.3291255"><ele>407.0</ele><time>2026-03-24T09:18:47.947Z</time></trkpt><trkpt lat="44.326363" lon="8.3292518"><ele>407.0</ele><time>2026-03-24T09:18:49.948Z</time></trkpt><trkpt lat="44.3263664" lon="8.3293732"><ele>407.0</ele><time>2026-03-24T09:18:51.948Z</time></trkpt><trkpt lat="44.3263765" lon="8.3294924"><ele>407.0</ele><time>2026-03-24T09:18:53.948Z</time></trkpt><trkpt lat="44.3263954" lon="8.3296001"><ele>407.0</ele><time>2026-03-24T09:18:55.947Z</time></trkpt><trkpt lat="44.3264237" lon="8.3297448"><ele>405.49999999999994</ele><time>2026-03-24T09:18:57.947Z</time></trkpt><trkpt lat="44.3264542" lon="8.3298411"><ele>404.0</ele><time>2026-03-24T09:18:59.948Z</time></trkpt><trkpt lat="44.3264813" lon="8.3299586"><ele>402.5</ele><time>2026-03-24T09:19:01.947Z</time></trkpt><trkpt lat="44.3265102" lon="8.3300787"><ele>401.0</ele><time>2026-03-24T09:19:03.948Z</time></trkpt><trkpt lat="44.326536" lon="8.3302053"><ele>399.49999999999994</ele><time>2026-03-24T09:19:05.948Z</time></trkpt><trkpt lat="44.3265594" lon="8.3303181"><ele>398.0</ele><time>2026-03-24T09:19:07.948Z</time></trkpt><trkpt lat="44.3265952" lon="8.3304485"><ele>398.59999999999997</ele><time>2026-03-24T09:19:09.947Z</time></trkpt><trkpt lat="44.3266426" lon="8.3305697"><ele>399.2</ele><time>2026-03-24T09:19:11.948Z</time></trkpt><trkpt lat="44.3266899" lon="8.3306854"><ele>399.8</ele><time>2026-03-24T09:19:13.948Z</time></trkpt><trkpt lat="44.3267339" lon="8.3308032"><ele>400.4</ele><time>2026-03-24T09:19:15.948Z</time></trkpt><trkpt lat="44.3267743" lon="8.3309207"><ele>401.0</ele><time>2026-03-24T09:19:17.948Z</time></trkpt><trkpt lat="44.326816" lon="8.3310364"><ele>400.99999999999994</ele><time>2026-03-24T09:19:19.947Z</time></trkpt><trkpt lat="44.3268512" lon="8.3311458"><ele>401.0</ele><time>2026-03-24T09:19:21.947Z</time></trkpt><trkpt lat="44.3268946" lon="8.3312608"><ele>401.0</ele><time>2026-03-24T09:19:23.948Z</time></trkpt><trkpt lat="44.3269451" lon="8.3313579"><ele>401.0</ele><time>2026-03-24T09:19:25.948Z</time></trkpt><trkpt lat="44.3269934" lon="8.3314656"><ele>400.99999999999994</ele><time>2026-03-24T09:19:27.948Z</time></trkpt><trkpt lat="44.3270398" lon="8.3315602"><ele>401.0</ele><time>2026-03-24T09:19:29.947Z</time></trkpt><trkpt lat="44.3270792" lon="8.3316565"><ele>401.20000000000005</ele><time>2026-03-24T09:19:31.948Z</time></trkpt><trkpt lat="44.3271372" lon="8.3318233"><ele>401.40000000000003</ele><time>2026-03-24T09:19:34.949Z</time></trkpt><trkpt lat="44.3271564" lon="8.3319255"><ele>401.6</ele><time>2026-03-24T09:19:36.947Z</time></trkpt><trkpt lat="44.3271785" lon="8.3320388"><ele>401.8</ele><time>2026-03-24T09:19:38.948Z</time></trkpt><trkpt lat="44.3272056" lon="8.3321464"><ele>402.0</ele><time>2026-03-24T09:19:40.948Z</time></trkpt><trkpt lat="44.3272311" lon="8.3322574"><ele>401.1666666666667</ele><time>2026-03-24T09:19:42.951Z</time></trkpt><trkpt lat="44.3272579" lon="8.332362"><ele>400.33333333333337</ele><time>2026-03-24T09:19:44.947Z</time></trkpt><trkpt lat="44.3272786" lon="8.3324715"><ele>399.5</ele><time>2026-03-24T09:19:46.947Z</time></trkpt><trkpt lat="44.3272987" lon="8.332587"><ele>398.6666666666667</ele><time>2026-03-24T09:19:48.948Z</time></trkpt><trkpt lat="44.3273221" lon="8.3327015"><ele>397.83333333333337</ele><time>2026-03-24T09:19:50.947Z</time></trkpt><trkpt lat="44.3273474" lon="8.3328201"><ele>397.0</ele><time>2026-03-24T09:19:52.948Z</time></trkpt><trkpt lat="44.3273677" lon="8.3329254"><ele>397.00000000000006</ele><time>2026-03-24T09:19:54.869Z</time></trkpt><trkpt lat="44.327388" lon="8.3330319"><ele>397.0</ele><time>2026-03-24T09:19:56.749Z</time></trkpt><trkpt lat="44.3274073" lon="8.333158"><ele>397.0</ele><time>2026-03-24T09:19:58.948Z</time></trkpt><trkpt lat="44.3274209" lon="8.3332744"><ele>397.0</ele><time>2026-03-24T09:20:00.955Z</time></trkpt><trkpt lat="44.3274198" lon="8.3333895"><ele>397.00000000000006</ele><time>2026-03-24T09:20:02.909Z</time></trkpt><trkpt lat="44.3274056" lon="8.3334952"><ele>397.0</ele><time>2026-03-24T09:20:04.947Z</time></trkpt><trkpt lat="44.3274057" lon="8.3336053"><ele>397.33333333333337</ele><time>2026-03-24T09:20:06.947Z</time></trkpt><trkpt lat="44.3274061" lon="8.3337154"><ele>397.6666666666667</ele><time>2026-03-24T09:20:08.947Z</time></trkpt><trkpt lat="44.3274055" lon="8.3338264"><ele>398.0</ele><time>2026-03-24T09:20:10.931Z</time></trkpt><trkpt lat="44.327413" lon="8.3339253"><ele>398.33333333333337</ele><time>2026-03-24T09:20:12.948Z</time></trkpt><trkpt lat="44.3274252" lon="8.3340397"><ele>398.6666666666667</ele><time>2026-03-24T09:20:14.948Z</time></trkpt><trkpt lat="44.327442" lon="8.3341503"><ele>399.0</ele><time>2026-03-24T09:20:16.947Z</time></trkpt><trkpt lat="44.3274765" lon="8.3342491"><ele>400.3333333333333</ele><time>2026-03-24T09:20:18.948Z</time></trkpt><trkpt lat="44.327522" lon="8.3343266"><ele>401.66666666666663</ele><time>2026-03-24T09:20:20.948Z</time></trkpt><trkpt lat="44.3275695" lon="8.3344096"><ele>403.0</ele><time>2026-03-24T09:20:22.948Z</time></trkpt><trkpt lat="44.3276275" lon="8.3344834"><ele>404.3333333333333</ele><time>2026-03-24T09:20:24.947Z</time></trkpt><trkpt lat="44.3276893" lon="8.3345497"><ele>405.66666666666663</ele><time>2026-03-24T09:20:26.947Z</time></trkpt><trkpt lat="44.3277556" lon="8.3346064"><ele>407.0</ele><time>2026-03-24T09:20:28.948Z</time></trkpt><trkpt lat="44.3278305" lon="8.3346527"><ele>406.99999999999994</ele><time>2026-03-24T09:20:30.947Z</time></trkpt><trkpt lat="44.3279092" lon="8.3346989"><ele>407.0</ele><time>2026-03-24T09:20:32.948Z</time></trkpt><trkpt lat="44.3279785" lon="8.3347473"><ele>407.0</ele><time>2026-03-24T09:20:34.948Z</time></trkpt><trkpt lat="44.3280546" lon="8.3347967"><ele>407.0</ele><time>2026-03-24T09:20:36.948Z</time></trkpt><trkpt lat="44.3281324" lon="8.3348421"><ele>406.99999999999994</ele><time>2026-03-24T09:20:38.946Z</time></trkpt><trkpt lat="44.3282037" lon="8.3348893"><ele>407.0</ele><time>2026-03-24T09:20:40.947Z</time></trkpt><trkpt lat="44.3282797" lon="8.3349442"><ele>407.16666666666663</ele><time>2026-03-24T09:20:42.947Z</time></trkpt><trkpt lat="44.3283547" lon="8.3349982"><ele>407.3333333333333</ele><time>2026-03-24T09:20:44.947Z</time></trkpt><trkpt lat="44.3284333" lon="8.3350606"><ele>407.5</ele><time>2026-03-24T09:20:46.947Z</time></trkpt><trkpt lat="44.3285118" lon="8.3351098"><ele>407.66666666666663</ele><time>2026-03-24T09:20:48.948Z</time></trkpt><trkpt lat="44.3285864" lon="8.3351519"><ele>407.8333333333333</ele><time>2026-03-24T09:20:50.948Z</time></trkpt><trkpt lat="44.3286538" lon="8.335189"><ele>408.0</ele><time>2026-03-24T09:20:52.947Z</time></trkpt><trkpt lat="44.3287266" lon="8.3352301"><ele>408.0</ele><time>2026-03-24T09:20:54.947Z</time></trkpt><trkpt lat="44.3288053" lon="8.3352846"><ele>408.0</ele><time>2026-03-24T09:20:56.948Z</time></trkpt><trkpt lat="44.3288766" lon="8.3353315"><ele>408.0</ele><time>2026-03-24T09:20:58.948Z</time></trkpt><trkpt lat="44.3289536" lon="8.3353804"><ele>408.0</ele><time>2026-03-24T09:21:00.947Z</time></trkpt><trkpt lat="44.3290308" lon="8.3354225"><ele>408.0</ele><time>2026-03-24T09:21:02.947Z</time></trkpt><trkpt lat="44.3291086" lon="8.3354581"><ele>408.0</ele><time>2026-03-24T09:21:04.948Z</time></trkpt><trkpt lat="44.3291858" lon="8.3354855"><ele>407.7142857142857</ele><time>2026-03-24T09:21:06.947Z</time></trkpt><trkpt lat="44.3292557" lon="8.3355034"><ele>407.42857142857144</ele><time>2026-03-24T09:21:08.948Z</time></trkpt><trkpt lat="44.3293243" lon="8.3355049"><ele>407.1428571428571</ele><time>2026-03-24T09:21:10.947Z</time></trkpt><trkpt lat="44.3294156" lon="8.3354793"><ele>406.8571428571429</ele><time>2026-03-24T09:21:13.948Z</time></trkpt><trkpt lat="44.3294801" lon="8.3354485"><ele>406.57142857142856</ele><time>2026-03-24T09:21:15.948Z</time></trkpt><trkpt lat="44.3295429" lon="8.3354314"><ele>406.2857142857143</ele><time>2026-03-24T09:21:17.948Z</time></trkpt><trkpt lat="44.3296103" lon="8.3354042"><ele>406.0</ele><time>2026-03-24T09:21:19.947Z</time></trkpt><trkpt lat="44.3296716" lon="8.3353764"><ele>407.50000000000006</ele><time>2026-03-24T09:21:21.947Z</time></trkpt><trkpt lat="44.3297546" lon="8.33533"><ele>409.0</ele><time>2026-03-24T09:21:24.948Z</time></trkpt><trkpt lat="44.3298383" lon="8.3353007"><ele>410.5</ele><time>2026-03-24T09:21:27.948Z</time></trkpt><trkpt lat="44.3299064" lon="8.3352721"><ele>412.0</ele><time>2026-03-24T09:21:30.947Z</time></trkpt><trkpt lat="44.3299902" lon="8.3352393"><ele>413.50000000000006</ele><time>2026-03-24T09:21:33.948Z</time></trkpt><trkpt lat="44.3300583" lon="8.3351963"><ele>415.0</ele><time>2026-03-24T09:21:36.947Z</time></trkpt><trkpt lat="44.3301342" lon="8.335156"><ele>415.00000000000006</ele><time>2026-03-24T09:21:39.948Z</time></trkpt><trkpt lat="44.3302124" lon="8.3351251"><ele>415.0</ele><time>2026-03-24T09:21:42.947Z</time></trkpt><trkpt lat="44.3302896" lon="8.3350873"><ele>415.0</ele><time>2026-03-24T09:21:45.947Z</time></trkpt><trkpt lat="44.3303729" lon="8.3350525"><ele>415.0</ele><time>2026-03-24T09:21:48.947Z</time></trkpt><trkpt lat="44.3304443" lon="8.3350192"><ele>415.00000000000006</ele><time>2026-03-24T09:21:51.948Z</time></trkpt><trkpt lat="44.3305144" lon="8.3349735"><ele>415.0</ele><time>2026-03-24T09:21:54.948Z</time></trkpt><trkpt lat="44.3305793" lon="8.3349166"><ele>414.33333333333337</ele><time>2026-03-24T09:21:57.947Z</time></trkpt><trkpt lat="44.3306554" lon="8.3348623"><ele>413.6666666666667</ele><time>2026-03-24T09:22:00.948Z</time></trkpt><trkpt lat="44.3307246" lon="8.3348028"><ele>413.0</ele><time>2026-03-24T09:22:03.948Z</time></trkpt><trkpt lat="44.3307903" lon="8.3347367"><ele>412.33333333333337</ele><time>2026-03-24T09:22:06.948Z</time></trkpt><trkpt lat="44.3308544" lon="8.3346669"><ele>411.6666666666667</ele><time>2026-03-24T09:22:09.947Z</time></trkpt><trkpt lat="44.3309218" lon="8.3346011"><ele>411.0</ele><time>2026-03-24T09:22:12.948Z</time></trkpt><trkpt lat="44.3309758" lon="8.3345426"><ele>411.0</ele><time>2026-03-24T09:22:15.948Z</time></trkpt><trkpt lat="44.3310334" lon="8.3344896"><ele>411.0</ele><time>2026-03-24T09:22:18.947Z</time></trkpt><trkpt lat="44.3310927" lon="8.3344351"><ele>411.0</ele><time>2026-03-24T09:22:21.948Z</time></trkpt><trkpt lat="44.3311538" lon="8.3343774"><ele>411.0</ele><time>2026-03-24T09:22:24.948Z</time></trkpt><trkpt lat="44.3312142" lon="8.3343189"><ele>411.0</ele><time>2026-03-24T09:22:27.947Z</time></trkpt><trkpt lat="44.3312667" lon="8.3342431"><ele>411.0</ele><time>2026-03-24T09:22:30.948Z</time></trkpt><trkpt lat="44.3313216" lon="8.3341668"><ele>411.0</ele><time>2026-03-24T09:22:33.947Z</time></trkpt><trkpt lat="44.3313725" lon="8.3340809"><ele>411.8333333333333</ele><time>2026-03-24T09:22:36.948Z</time></trkpt><trkpt lat="44.331429" lon="8.3339866"><ele>412.66666666666663</ele><time>2026-03-24T09:22:39.947Z</time></trkpt><trkpt lat="44.3314913" lon="8.3339071"><ele>413.5</ele><time>2026-03-24T09:22:43.947Z</time></trkpt><trkpt lat="44.3315367" lon="8.3338262"><ele>414.3333333333333</ele><time>2026-03-24T09:22:46.948Z</time></trkpt><trkpt lat="44.3315944" lon="8.3337438"><ele>415.16666666666663</ele><time>2026-03-24T09:22:50.947Z</time></trkpt><trkpt lat="44.3316522" lon="8.3336713"><ele>416.0</ele><time>2026-03-24T09:22:53.948Z</time></trkpt><trkpt lat="44.3317027" lon="8.3335992"><ele>415.99999999999994</ele><time>2026-03-24T09:22:56.947Z</time></trkpt><trkpt lat="44.331746" lon="8.3335292"><ele>416.0</ele><time>2026-03-24T09:22:59.946Z</time></trkpt><trkpt lat="44.33179" lon="8.3334523"><ele>416.0</ele><time>2026-03-24T09:23:02.947Z</time></trkpt><trkpt lat="44.3318486" lon="8.3333671"><ele>416.0</ele><time>2026-03-24T09:23:05.948Z</time></trkpt><trkpt lat="44.3318965" lon="8.3332791"><ele>415.99999999999994</ele><time>2026-03-24T09:23:08.947Z</time></trkpt><trkpt lat="44.3319667" lon="8.3332067"><ele>416.0</ele><time>2026-03-24T09:23:11.948Z</time></trkpt><trkpt lat="44.3320351" lon="8.333138"><ele>416.0</ele><time>2026-03-24T09:23:14.948Z</time></trkpt><trkpt lat="44.3320966" lon="8.3330775"><ele>416.0</ele><time>2026-03-24T09:23:17.948Z</time></trkpt><trkpt lat="44.3321594" lon="8.3329817"><ele>416.0</ele><time>2026-03-24T09:23:20.948Z</time></trkpt><trkpt lat="44.3322183" lon="8.3328867"><ele>416.0</ele><time>2026-03-24T09:23:23.948Z</time></trkpt><trkpt lat="44.3322832" lon="8.3327884"><ele>416.0</ele><time>2026-03-24T09:23:26.948Z</time></trkpt><trkpt lat="44.3323726" lon="8.3327349"><ele>418.8</ele><time>2026-03-24T09:23:29.947Z</time></trkpt><trkpt lat="44.3324368" lon="8.3327323"><ele>421.6</ele><time>2026-03-24T09:23:31.948Z</time></trkpt><trkpt lat="44.3325178" lon="8.3327752"><ele>424.4</ele><time>2026-03-24T09:23:33.948Z</time></trkpt><trkpt lat="44.3326062" lon="8.3328472"><ele>427.2</ele><time>2026-03-24T09:23:35.946Z</time></trkpt><trkpt lat="44.3326628" lon="8.3328924"><ele>430.0</ele><time>2026-03-24T09:23:36.947Z</time></trkpt><trkpt lat="44.3328008" lon="8.3329473"><ele>430.00000000000006</ele><time>2026-03-24T09:23:38.947Z</time></trkpt><trkpt lat="44.3328665" lon="8.3329568"><ele>430.0</ele><time>2026-03-24T09:23:39.947Z</time></trkpt><trkpt lat="44.3329417" lon="8.3329453"><ele>430.0</ele><time>2026-03-24T09:23:40.948Z</time></trkpt><trkpt lat="44.3330337" lon="8.3329426"><ele>430.0</ele><time>2026-03-24T09:23:41.948Z</time></trkpt><trkpt lat="44.3331166" lon="8.3329307"><ele>430.00000000000006</ele><time>2026-03-24T09:23:42.947Z</time></trkpt><trkpt lat="44.3332041" lon="8.332914"><ele>430.0</ele><time>2026-03-24T09:23:43.946Z</time></trkpt><trkpt lat="44.3332768" lon="8.3328644"><ele>431.2</ele><time>2026-03-24T09:23:44.947Z</time></trkpt><trkpt lat="44.333363" lon="8.3328246"><ele>432.4</ele><time>2026-03-24T09:23:45.947Z</time></trkpt><trkpt lat="44.3334456" lon="8.3327789"><ele>433.6</ele><time>2026-03-24T09:23:46.948Z</time></trkpt><trkpt lat="44.3335323" lon="8.3327356"><ele>434.8</ele><time>2026-03-24T09:23:47.947Z</time></trkpt><trkpt lat="44.3336243" lon="8.3326852"><ele>436.0</ele><time>2026-03-24T09:23:48.947Z</time></trkpt><trkpt lat="44.3337211" lon="8.3326411"><ele>436.0</ele><time>2026-03-24T09:23:49.947Z</time></trkpt><trkpt lat="44.333824" lon="8.3325951"><ele>436.0</ele><time>2026-03-24T09:23:50.948Z</time></trkpt><trkpt lat="44.3339411" lon="8.332568"><ele>436.0</ele><time>2026-03-24T09:23:51.948Z</time></trkpt><trkpt lat="44.3340505" lon="8.3325297"><ele>436.0</ele><time>2026-03-24T09:23:52.948Z</time></trkpt><trkpt lat="44.3341671" lon="8.3324858"><ele>431.75</ele><time>2026-03-24T09:23:53.946Z</time></trkpt><trkpt lat="44.33429" lon="8.332458"><ele>427.5</ele><time>2026-03-24T09:23:54.948Z</time></trkpt><trkpt lat="44.3344049" lon="8.3324146"><ele>423.25</ele><time>2026-03-24T09:23:55.946Z</time></trkpt><trkpt lat="44.334522" lon="8.3323745"><ele>419.0</ele><time>2026-03-24T09:23:56.948Z</time></trkpt><trkpt lat="44.3346305" lon="8.3323371"><ele>416.6</ele><time>2026-03-24T09:23:57.949Z</time></trkpt><trkpt lat="44.3347408" lon="8.3323074"><ele>414.2</ele><time>2026-03-24T09:23:58.948Z</time></trkpt><trkpt lat="44.3348396" lon="8.3322756"><ele>411.8</ele><time>2026-03-24T09:23:59.948Z</time></trkpt><trkpt lat="44.3349367" lon="8.3322568"><ele>409.40000000000003</ele><time>2026-03-24T09:24:00.948Z</time></trkpt><trkpt lat="44.3350377" lon="8.3322286"><ele>407.0</ele><time>2026-03-24T09:24:01.946Z</time></trkpt><trkpt lat="44.3351423" lon="8.3322012"><ele>406.99999999999994</ele><time>2026-03-24T09:24:02.948Z</time></trkpt><trkpt lat="44.3352271" lon="8.3321787"><ele>407.0</ele><time>2026-03-24T09:24:03.949Z</time></trkpt><trkpt lat="44.3353147" lon="8.3321774"><ele>407.0</ele><time>2026-03-24T09:24:04.947Z</time></trkpt><trkpt lat="44.3354052" lon="8.332195"><ele>407.0</ele><time>2026-03-24T09:24:05.948Z</time></trkpt><trkpt lat="44.3354922" lon="8.3322282"><ele>406.99999999999994</ele><time>2026-03-24T09:24:06.948Z</time></trkpt><trkpt lat="44.3355608" lon="8.3322795"><ele>407.0</ele><time>2026-03-24T09:24:07.948Z</time></trkpt><trkpt lat="44.3356344" lon="8.3323682"><ele>405.16666666666663</ele><time>2026-03-24T09:24:08.948Z</time></trkpt><trkpt lat="44.3356706" lon="8.3324861"><ele>403.3333333333333</ele><time>2026-03-24T09:24:09.948Z</time></trkpt><trkpt lat="44.3356687" lon="8.332588"><ele>401.5</ele><time>2026-03-24T09:24:10.948Z</time></trkpt><trkpt lat="44.3356613" lon="8.3326953"><ele>399.66666666666663</ele><time>2026-03-24T09:24:11.947Z</time></trkpt><trkpt lat="44.33563" lon="8.3327938"><ele>397.8333333333333</ele><time>2026-03-24T09:24:12.948Z</time></trkpt><trkpt lat="44.3356176" lon="8.3328963"><ele>396.0</ele><time>2026-03-24T09:24:13.948Z</time></trkpt><trkpt lat="44.3355966" lon="8.3329885"><ele>396.20000000000005</ele><time>2026-03-24T09:24:14.948Z</time></trkpt><trkpt lat="44.3355766" lon="8.3330829"><ele>396.40000000000003</ele><time>2026-03-24T09:24:15.947Z</time></trkpt><trkpt lat="44.3355501" lon="8.3331712"><ele>396.6</ele><time>2026-03-24T09:24:16.947Z</time></trkpt><trkpt lat="44.3355258" lon="8.3333403"><ele>396.8</ele><time>2026-03-24T09:24:18.947Z</time></trkpt><trkpt lat="44.3354936" lon="8.3335072"><ele>397.0</ele><time>2026-03-24T09:24:20.947Z</time></trkpt><trkpt lat="44.3354756" lon="8.3336625"><ele>399.6</ele><time>2026-03-24T09:24:22.947Z</time></trkpt><trkpt lat="44.3354556" lon="8.3338062"><ele>402.20000000000005</ele><time>2026-03-24T09:24:24.948Z</time></trkpt><trkpt lat="44.3354462" lon="8.3339427"><ele>404.8</ele><time>2026-03-24T09:24:26.948Z</time></trkpt><trkpt lat="44.3353972" lon="8.334063"><ele>407.4</ele><time>2026-03-24T09:24:28.948Z</time></trkpt><trkpt lat="44.3353796" lon="8.334176"><ele>410.0</ele><time>2026-03-24T09:24:30.947Z</time></trkpt><trkpt lat="44.335357" lon="8.3342809"><ele>409.99999999999994</ele><time>2026-03-24T09:24:32.948Z</time></trkpt><trkpt lat="44.3353302" lon="8.3343888"><ele>410.0</ele><time>2026-03-24T09:24:34.948Z</time></trkpt><trkpt lat="44.3353146" lon="8.3344813"><ele>410.0</ele><time>2026-03-24T09:24:36.881Z</time></trkpt><trkpt lat="44.3352859" lon="8.3346212"><ele>410.0</ele><time>2026-03-24T09:24:38.948Z</time></trkpt><trkpt lat="44.3352783" lon="8.3347429"><ele>409.99999999999994</ele><time>2026-03-24T09:24:40.947Z</time></trkpt><trkpt lat="44.3352661" lon="8.3348611"><ele>410.0</ele><time>2026-03-24T09:24:42.947Z</time></trkpt><trkpt lat="44.3352466" lon="8.3349747"><ele>409.66666666666663</ele><time>2026-03-24T09:24:44.948Z</time></trkpt><trkpt lat="44.3352247" lon="8.335087"><ele>409.3333333333333</ele><time>2026-03-24T09:24:46.948Z</time></trkpt><trkpt lat="44.3351993" lon="8.335197"><ele>409.0</ele><time>2026-03-24T09:24:48.923Z</time></trkpt><trkpt lat="44.3351655" lon="8.3353142"><ele>408.66666666666663</ele><time>2026-03-24T09:24:50.948Z</time></trkpt><trkpt lat="44.3351445" lon="8.3354355"><ele>408.3333333333333</ele><time>2026-03-24T09:24:52.948Z</time></trkpt><trkpt lat="44.3351304" lon="8.3355461"><ele>408.0</ele><time>2026-03-24T09:24:54.948Z</time></trkpt><trkpt lat="44.3351019" lon="8.3356714"><ele>407.3333333333333</ele><time>2026-03-24T09:24:56.948Z</time></trkpt><trkpt lat="44.3350883" lon="8.3357894"><ele>406.66666666666663</ele><time>2026-03-24T09:24:58.948Z</time></trkpt><trkpt lat="44.3350502" lon="8.3359201"><ele>406.0</ele><time>2026-03-24T09:25:00.947Z</time></trkpt><trkpt lat="44.3350266" lon="8.3360435"><ele>405.3333333333333</ele><time>2026-03-24T09:25:02.948Z</time></trkpt><trkpt lat="44.3350061" lon="8.3361525"><ele>404.66666666666663</ele><time>2026-03-24T09:25:04.948Z</time></trkpt><trkpt lat="44.3349923" lon="8.3362657"><ele>404.0</ele><time>2026-03-24T09:25:06.947Z</time></trkpt><trkpt lat="44.3349828" lon="8.3363825"><ele>403.8333333333333</ele><time>2026-03-24T09:25:08.947Z</time></trkpt><trkpt lat="44.3349892" lon="8.336493"><ele>403.66666666666663</ele><time>2026-03-24T09:25:10.948Z</time></trkpt><trkpt lat="44.3349985" lon="8.3365996"><ele>403.5</ele><time>2026-03-24T09:25:12.947Z</time></trkpt><trkpt lat="44.3350092" lon="8.3367083"><ele>403.33333333333337</ele><time>2026-03-24T09:25:14.948Z</time></trkpt><trkpt lat="44.3350367" lon="8.3368154"><ele>403.1666666666667</ele><time>2026-03-24T09:25:16.947Z</time></trkpt><trkpt lat="44.3350659" lon="8.3369103"><ele>403.0</ele><time>2026-03-24T09:25:18.947Z</time></trkpt><trkpt lat="44.3350903" lon="8.3370072"><ele>403.0</ele><time>2026-03-24T09:25:20.947Z</time></trkpt><trkpt lat="44.3351105" lon="8.337104"><ele>403.0</ele><time>2026-03-24T09:25:22.948Z</time></trkpt><trkpt lat="44.3351188" lon="8.3371952"><ele>403.0</ele><time>2026-03-24T09:25:24.948Z</time></trkpt><trkpt lat="44.3351275" lon="8.3372885"><ele>403.0</ele><time>2026-03-24T09:25:26.948Z</time></trkpt><trkpt lat="44.3351268" lon="8.3373787"><ele>403.0</ele><time>2026-03-24T09:25:28.948Z</time></trkpt><trkpt lat="44.3351159" lon="8.3374656"><ele>403.0</ele><time>2026-03-24T09:25:30.948Z</time></trkpt><trkpt lat="44.3350924" lon="8.3375584"><ele>403.0</ele><time>2026-03-24T09:25:32.948Z</time></trkpt><trkpt lat="44.3350798" lon="8.3376878"><ele>404.42857142857144</ele><time>2026-03-24T09:25:35.948Z</time></trkpt><trkpt lat="44.3350725" lon="8.3378151"><ele>405.85714285714283</ele><time>2026-03-24T09:25:38.948Z</time></trkpt><trkpt lat="44.3350609" lon="8.3379072"><ele>407.2857142857143</ele><time>2026-03-24T09:25:40.948Z</time></trkpt><trkpt lat="44.3350547" lon="8.3380014"><ele>408.7142857142857</ele><time>2026-03-24T09:25:42.948Z</time></trkpt><trkpt lat="44.3350485" lon="8.3380985"><ele>410.1428571428571</ele><time>2026-03-24T09:25:44.947Z</time></trkpt><trkpt lat="44.3350584" lon="8.3381932"><ele>411.57142857142856</ele><time>2026-03-24T09:25:46.948Z</time></trkpt><trkpt lat="44.335086" lon="8.3382866"><ele>413.0</ele><time>2026-03-24T09:25:48.948Z</time></trkpt><trkpt lat="44.3351312" lon="8.3383893"><ele>413.8333333333333</ele><time>2026-03-24T09:25:50.947Z</time></trkpt><trkpt lat="44.3352057" lon="8.3384727"><ele>414.66666666666663</ele><time>2026-03-24T09:25:52.948Z</time></trkpt><trkpt lat="44.3352692" lon="8.3384925"><ele>415.5</ele><time>2026-03-24T09:25:53.948Z</time></trkpt><trkpt lat="44.3353695" lon="8.3384977"><ele>416.33333333333337</ele><time>2026-03-24T09:25:55.948Z</time></trkpt><trkpt lat="44.3354616" lon="8.3384816"><ele>417.1666666666667</ele><time>2026-03-24T09:25:57.948Z</time></trkpt><trkpt lat="44.3355537" lon="8.3384479"><ele>418.0</ele><time>2026-03-24T09:25:59.948Z</time></trkpt><trkpt lat="44.3356232" lon="8.3384459"><ele>415.83333333333337</ele><time>2026-03-24T09:26:01.946Z</time></trkpt><trkpt lat="44.335689" lon="8.3384571"><ele>413.6666666666667</ele><time>2026-03-24T09:26:04.947Z</time></trkpt><trkpt lat="44.3357727" lon="8.3384387"><ele>411.5</ele><time>2026-03-24T09:26:08.948Z</time></trkpt><trkpt lat="44.3358034" lon="8.3383475"><ele>409.33333333333337</ele><time>2026-03-24T09:26:10.948Z</time></trkpt><trkpt lat="44.3357939" lon="8.3382277"><ele>407.1666666666667</ele><time>2026-03-24T09:26:12.948Z</time></trkpt><trkpt lat="44.3357796" lon="8.3381106"><ele>405.0</ele><time>2026-03-24T09:26:14.947Z</time></trkpt><trkpt lat="44.3357741" lon="8.3379923"><ele>405.0</ele><time>2026-03-24T09:26:16.948Z</time></trkpt><trkpt lat="44.3357685" lon="8.3378738"><ele>405.0</ele><time>2026-03-24T09:26:18.948Z</time></trkpt><trkpt lat="44.3357672" lon="8.3377558"><ele>405.0</ele><time>2026-03-24T09:26:20.948Z</time></trkpt><trkpt lat="44.3357718" lon="8.3376385"><ele>405.0</ele><time>2026-03-24T09:26:22.948Z</time></trkpt><trkpt lat="44.3357762" lon="8.337521"><ele>405.0</ele><time>2026-03-24T09:26:24.947Z</time></trkpt><trkpt lat="44.3358008" lon="8.3373976"><ele>405.0</ele><time>2026-03-24T09:26:26.948Z</time></trkpt><trkpt lat="44.3358299" lon="8.3372731"><ele>404.6666666666667</ele><time>2026-03-24T09:26:28.948Z</time></trkpt><trkpt lat="44.3358598" lon="8.3371564"><ele>404.33333333333337</ele><time>2026-03-24T09:26:30.948Z</time></trkpt><trkpt lat="44.3358834" lon="8.3370381"><ele>404.0</ele><time>2026-03-24T09:26:32.948Z</time></trkpt><trkpt lat="44.3359147" lon="8.336928"><ele>403.6666666666667</ele><time>2026-03-24T09:26:34.948Z</time></trkpt><trkpt lat="44.3359403" lon="8.3368157"><ele>403.33333333333337</ele><time>2026-03-24T09:26:36.948Z</time></trkpt><trkpt lat="44.3359679" lon="8.3367072"><ele>403.0</ele><time>2026-03-24T09:26:38.948Z</time></trkpt><trkpt lat="44.3360092" lon="8.3366039"><ele>403.00000000000006</ele><time>2026-03-24T09:26:40.947Z</time></trkpt><trkpt lat="44.3360403" lon="8.3364925"><ele>403.0</ele><time>2026-03-24T09:26:42.948Z</time></trkpt><trkpt lat="44.3360715" lon="8.3363762"><ele>403.0</ele><time>2026-03-24T09:26:44.947Z</time></trkpt><trkpt lat="44.336094" lon="8.3362616"><ele>403.0</ele><time>2026-03-24T09:26:46.948Z</time></trkpt><trkpt lat="44.3361284" lon="8.336141"><ele>403.00000000000006</ele><time>2026-03-24T09:26:48.948Z</time></trkpt><trkpt lat="44.3361645" lon="8.3360327"><ele>403.0</ele><time>2026-03-24T09:26:50.947Z</time></trkpt><trkpt lat="44.3362015" lon="8.335929"><ele>402.33333333333337</ele><time>2026-03-24T09:26:52.948Z</time></trkpt><trkpt lat="44.3362338" lon="8.3358201"><ele>401.6666666666667</ele><time>2026-03-24T09:26:54.948Z</time></trkpt><trkpt lat="44.3362636" lon="8.3357002"><ele>401.0</ele><time>2026-03-24T09:26:56.948Z</time></trkpt><trkpt lat="44.3362937" lon="8.3355792"><ele>400.33333333333337</ele><time>2026-03-24T09:26:58.948Z</time></trkpt><trkpt lat="44.3363257" lon="8.335457"><ele>399.6666666666667</ele><time>2026-03-24T09:27:00.948Z</time></trkpt><trkpt lat="44.3363542" lon="8.3353389"><ele>399.0</ele><time>2026-03-24T09:27:02.947Z</time></trkpt><trkpt lat="44.3363827" lon="8.3352156"><ele>400.2</ele><time>2026-03-24T09:27:04.948Z</time></trkpt><trkpt lat="44.3364154" lon="8.335089"><ele>401.4</ele><time>2026-03-24T09:27:06.948Z</time></trkpt><trkpt lat="44.3364398" lon="8.3349591"><ele>402.6</ele><time>2026-03-24T09:27:08.947Z</time></trkpt><trkpt lat="44.3364738" lon="8.3348449"><ele>403.8</ele><time>2026-03-24T09:27:10.948Z</time></trkpt><trkpt lat="44.3364964" lon="8.3347165"><ele>405.0</ele><time>2026-03-24T09:27:12.948Z</time></trkpt><trkpt lat="44.3365216" lon="8.334582"><ele>405.0</ele><time>2026-03-24T09:27:14.948Z</time></trkpt><trkpt lat="44.3365548" lon="8.3344481"><ele>405.0</ele><time>2026-03-24T09:27:16.947Z</time></trkpt><trkpt lat="44.3365879" lon="8.3343172"><ele>405.0</ele><time>2026-03-24T09:27:18.948Z</time></trkpt><trkpt lat="44.3366229" lon="8.3341851"><ele>405.0</ele><time>2026-03-24T09:27:20.946Z</time></trkpt><trkpt lat="44.3366567" lon="8.3340542"><ele>405.0</ele><time>2026-03-24T09:27:22.948Z</time></trkpt><trkpt lat="44.3366853" lon="8.3339218"><ele>404.2</ele><time>2026-03-24T09:27:24.948Z</time></trkpt><trkpt lat="44.3366761" lon="8.333807"><ele>403.4</ele><time>2026-03-24T09:27:25.947Z</time></trkpt><trkpt lat="44.336707" lon="8.3336765"><ele>402.6</ele><time>2026-03-24T09:27:27.948Z</time></trkpt><trkpt lat="44.3367354" lon="8.3335452"><ele>401.8</ele><time>2026-03-24T09:27:29.948Z</time></trkpt><trkpt lat="44.3367708" lon="8.3334104"><ele>401.0</ele><time>2026-03-24T09:27:31.947Z</time></trkpt><trkpt lat="44.3368225" lon="8.3332995"><ele>401.0</ele><time>2026-03-24T09:27:33.947Z</time></trkpt><trkpt lat="44.336882" lon="8.3331906"><ele>401.0</ele><time>2026-03-24T09:27:35.948Z</time></trkpt><trkpt lat="44.3369099" lon="8.3330466"><ele>401.0</ele><time>2026-03-24T09:27:37.948Z</time></trkpt><trkpt lat="44.3369389" lon="8.3328939"><ele>401.0</ele><time>2026-03-24T09:27:39.947Z</time></trkpt><trkpt lat="44.3369718" lon="8.3327371"><ele>401.0</ele><time>2026-03-24T09:27:41.948Z</time></trkpt><trkpt lat="44.336993" lon="8.3325888"><ele>400.5</ele><time>2026-03-24T09:27:43.946Z</time></trkpt><trkpt lat="44.3370192" lon="8.3324307"><ele>400.0</ele><time>2026-03-24T09:27:45.947Z</time></trkpt><trkpt lat="44.3370471" lon="8.332271"><ele>399.5</ele><time>2026-03-24T09:27:47.947Z</time></trkpt><trkpt lat="44.3370718" lon="8.3321168"><ele>399.0</ele><time>2026-03-24T09:27:49.948Z</time></trkpt><trkpt lat="44.3370809" lon="8.3319492"><ele>398.0</ele><time>2026-03-24T09:27:51.947Z</time></trkpt><trkpt lat="44.3371105" lon="8.3317815"><ele>397.0</ele><time>2026-03-24T09:27:53.947Z</time></trkpt><trkpt lat="44.3371299" lon="8.3316144"><ele>396.0</ele><time>2026-03-24T09:27:55.947Z</time></trkpt><trkpt lat="44.3371623" lon="8.3314639"><ele>395.0</ele><time>2026-03-24T09:27:57.947Z</time></trkpt><trkpt lat="44.3371802" lon="8.3312924"><ele>394.66666666666663</ele><time>2026-03-24T09:27:59.947Z</time></trkpt><trkpt lat="44.337208" lon="8.3311231"><ele>394.3333333333333</ele><time>2026-03-24T09:28:01.948Z</time></trkpt><trkpt lat="44.3372199" lon="8.3310286"><ele>394.0</ele><time>2026-03-24T09:28:02.948Z</time></trkpt><trkpt lat="44.3372343" lon="8.3309381"><ele>393.66666666666663</ele><time>2026-03-24T09:28:03.948Z</time></trkpt><trkpt lat="44.3372448" lon="8.3308431"><ele>393.3333333333333</ele><time>2026-03-24T09:28:04.947Z</time></trkpt><trkpt lat="44.3372595" lon="8.3307393"><ele>393.0</ele><time>2026-03-24T09:28:05.947Z</time></trkpt><trkpt lat="44.3372722" lon="8.3306405"><ele>393.00000000000006</ele><time>2026-03-24T09:28:06.948Z</time></trkpt><trkpt lat="44.337284" lon="8.330546"><ele>393.0</ele><time>2026-03-24T09:28:07.947Z</time></trkpt><trkpt lat="44.3372943" lon="8.3304527"><ele>393.0</ele><time>2026-03-24T09:28:08.948Z</time></trkpt><trkpt lat="44.3373031" lon="8.3303624"><ele>393.0</ele><time>2026-03-24T09:28:09.947Z</time></trkpt><trkpt lat="44.3373301" lon="8.3302702"><ele>393.0</ele><time>2026-03-24T09:28:10.948Z</time></trkpt><trkpt lat="44.3373495" lon="8.3301853"><ele>393.00000000000006</ele><time>2026-03-24T09:28:11.947Z</time></trkpt><trkpt lat="44.3373742" lon="8.3301019"><ele>393.0</ele><time>2026-03-24T09:28:12.948Z</time></trkpt><trkpt lat="44.3373955" lon="8.330013"><ele>393.0</ele><time>2026-03-24T09:28:13.946Z</time></trkpt><trkpt lat="44.3374586" lon="8.329858"><ele>393.0</ele><time>2026-03-24T09:28:15.948Z</time></trkpt><trkpt lat="44.3374852" lon="8.3297733"><ele>393.0</ele><time>2026-03-24T09:28:16.948Z</time></trkpt><trkpt lat="44.3375154" lon="8.3296925"><ele>393.0</ele><time>2026-03-24T09:28:17.948Z</time></trkpt><trkpt lat="44.337542" lon="8.3296084"><ele>393.0</ele><time>2026-03-24T09:28:18.947Z</time></trkpt><trkpt lat="44.3375698" lon="8.329522"><ele>393.0</ele><time>2026-03-24T09:28:19.946Z</time></trkpt><trkpt lat="44.3376336" lon="8.329379"><ele>392.2</ele><time>2026-03-24T09:28:21.948Z</time></trkpt><trkpt lat="44.3377042" lon="8.3292584"><ele>391.4</ele><time>2026-03-24T09:28:23.948Z</time></trkpt><trkpt lat="44.3377836" lon="8.3291661"><ele>390.59999999999997</ele><time>2026-03-24T09:28:25.948Z</time></trkpt><trkpt lat="44.3378446" lon="8.3290514"><ele>389.79999999999995</ele><time>2026-03-24T09:28:27.948Z</time></trkpt><trkpt lat="44.3378918" lon="8.3289265"><ele>389.0</ele><time>2026-03-24T09:28:29.947Z</time></trkpt><trkpt lat="44.3379582" lon="8.3287994"><ele>389.0</ele><time>2026-03-24T09:28:31.948Z</time></trkpt><trkpt lat="44.3380322" lon="8.3286933"><ele>389.0</ele><time>2026-03-24T09:28:33.948Z</time></trkpt><trkpt lat="44.3381089" lon="8.3285957"><ele>389.0</ele><time>2026-03-24T09:28:35.948Z</time></trkpt><trkpt lat="44.3381912" lon="8.3284967"><ele>389.0</ele><time>2026-03-24T09:28:37.948Z</time></trkpt><trkpt lat="44.3382798" lon="8.3283963"><ele>389.0</ele><time>2026-03-24T09:28:39.948Z</time></trkpt><trkpt lat="44.3383678" lon="8.3283013"><ele>389.0</ele><time>2026-03-24T09:28:41.948Z</time></trkpt><trkpt lat="44.338451" lon="8.3282099"><ele>389.0</ele><time>2026-03-24T09:28:43.948Z</time></trkpt><trkpt lat="44.3385348" lon="8.328121"><ele>389.0</ele><time>2026-03-24T09:28:45.948Z</time></trkpt><trkpt lat="44.3386171" lon="8.3280323"><ele>389.0</ele><time>2026-03-24T09:28:47.946Z</time></trkpt><trkpt lat="44.3386808" lon="8.3279329"><ele>389.0</ele><time>2026-03-24T09:28:49.948Z</time></trkpt><trkpt lat="44.3387706" lon="8.3278523"><ele>389.0</ele><time>2026-03-24T09:28:51.948Z</time></trkpt><trkpt lat="44.3388534" lon="8.3277827"><ele>389.0</ele><time>2026-03-24T09:28:53.946Z</time></trkpt><trkpt lat="44.3389465" lon="8.3277192"><ele>389.0</ele><time>2026-03-24T09:28:55.948Z</time></trkpt><trkpt lat="44.3390425" lon="8.3276542"><ele>389.0</ele><time>2026-03-24T09:28:57.947Z</time></trkpt><trkpt lat="44.3391339" lon="8.3275659"><ele>389.0</ele><time>2026-03-24T09:28:59.948Z</time></trkpt><trkpt lat="44.3392195" lon="8.3274638"><ele>388.79999999999995</ele><time>2026-03-24T09:29:01.946Z</time></trkpt><trkpt lat="44.3392998" lon="8.3273875"><ele>388.59999999999997</ele><time>2026-03-24T09:29:03.946Z</time></trkpt><trkpt lat="44.3393956" lon="8.3273005"><ele>388.4</ele><time>2026-03-24T09:29:05.947Z</time></trkpt><trkpt lat="44.3395016" lon="8.3272111"><ele>388.2</ele><time>2026-03-24T09:29:07.948Z</time></trkpt><trkpt lat="44.33958" lon="8.3271613"><ele>388.0</ele><time>2026-03-24T09:29:09.948Z</time></trkpt><trkpt lat="44.3396745" lon="8.3270841"><ele>387.4</ele><time>2026-03-24T09:29:11.948Z</time></trkpt><trkpt lat="44.3397442" lon="8.3269877"><ele>386.79999999999995</ele><time>2026-03-24T09:29:13.948Z</time></trkpt><trkpt lat="44.3398179" lon="8.3268827"><ele>386.2</ele><time>2026-03-24T09:29:15.948Z</time></trkpt><trkpt lat="44.3398746" lon="8.3268414"><ele>385.6</ele><time>2026-03-24T09:29:16.948Z</time></trkpt><trkpt lat="44.3399818" lon="8.3267397"><ele>385.0</ele><time>2026-03-24T09:29:18.948Z</time></trkpt><trkpt lat="44.340043" lon="8.3266815"><ele>385.0</ele><time>2026-03-24T09:29:19.947Z</time></trkpt><trkpt lat="44.3400966" lon="8.3266298"><ele>385.0</ele><time>2026-03-24T09:29:20.948Z</time></trkpt><trkpt lat="44.3401784" lon="8.3265539"><ele>385.0</ele><time>2026-03-24T09:29:22.947Z</time></trkpt><trkpt lat="44.3402592" lon="8.3264783"><ele>385.0</ele><time>2026-03-24T09:29:24.948Z</time></trkpt><trkpt lat="44.3403526" lon="8.3263653"><ele>385.0</ele><time>2026-03-24T09:29:26.948Z</time></trkpt><trkpt lat="44.3404484" lon="8.3262742"><ele>384.6</ele><time>2026-03-24T09:29:28.947Z</time></trkpt><trkpt lat="44.3405339" lon="8.3261969"><ele>384.2</ele><time>2026-03-24T09:29:30.947Z</time></trkpt><trkpt lat="44.3406237" lon="8.3261218"><ele>383.79999999999995</ele><time>2026-03-24T09:29:32.948Z</time></trkpt><trkpt lat="44.3406773" lon="8.3260599"><ele>383.4</ele><time>2026-03-24T09:29:33.947Z</time></trkpt><trkpt lat="44.3407607" lon="8.3259657"><ele>383.0</ele><time>2026-03-24T09:29:35.948Z</time></trkpt><trkpt lat="44.3408414" lon="8.3258883"><ele>383.0</ele><time>2026-03-24T09:29:37.947Z</time></trkpt><trkpt lat="44.3409214" lon="8.3258029"><ele>383.0</ele><time>2026-03-24T09:29:39.947Z</time></trkpt><trkpt lat="44.3409959" lon="8.3257079"><ele>383.0</ele><time>2026-03-24T09:29:41.948Z</time></trkpt><trkpt lat="44.3410704" lon="8.3256273"><ele>383.0</ele><time>2026-03-24T09:29:43.947Z</time></trkpt><trkpt lat="44.3411589" lon="8.3255445"><ele>383.0</ele><time>2026-03-24T09:29:45.948Z</time></trkpt><trkpt lat="44.3412336" lon="8.3254495"><ele>382.59999999999997</ele><time>2026-03-24T09:29:47.947Z</time></trkpt><trkpt lat="44.3413058" lon="8.325363"><ele>382.2</ele><time>2026-03-24T09:29:49.946Z</time></trkpt><trkpt lat="44.3413933" lon="8.3252755"><ele>381.8</ele><time>2026-03-24T09:29:51.947Z</time></trkpt><trkpt lat="44.3414794" lon="8.3251887"><ele>381.4</ele><time>2026-03-24T09:29:53.947Z</time></trkpt><trkpt lat="44.3415624" lon="8.325101"><ele>381.0</ele><time>2026-03-24T09:29:55.948Z</time></trkpt><trkpt lat="44.3416554" lon="8.3250281"><ele>380.8</ele><time>2026-03-24T09:29:57.948Z</time></trkpt><trkpt lat="44.3417543" lon="8.3249557"><ele>380.6</ele><time>2026-03-24T09:29:59.948Z</time></trkpt><trkpt lat="44.3418441" lon="8.3248675"><ele>380.4</ele><time>2026-03-24T09:30:01.948Z</time></trkpt><trkpt lat="44.3419096" lon="8.3247502"><ele>380.2</ele><time>2026-03-24T09:30:03.948Z</time></trkpt><trkpt lat="44.3419553" lon="8.3246232"><ele>380.0</ele><time>2026-03-24T09:30:05.947Z</time></trkpt><trkpt lat="44.3419896" lon="8.3244996"><ele>380.8</ele><time>2026-03-24T09:30:07.946Z</time></trkpt><trkpt lat="44.3420255" lon="8.3243523"><ele>381.6</ele><time>2026-03-24T09:30:09.948Z</time></trkpt><trkpt lat="44.3420642" lon="8.3242033"><ele>382.4</ele><time>2026-03-24T09:30:11.948Z</time></trkpt><trkpt lat="44.3421251" lon="8.3240803"><ele>383.2</ele><time>2026-03-24T09:30:13.948Z</time></trkpt><trkpt lat="44.3421801" lon="8.3239568"><ele>384.0</ele><time>2026-03-24T09:30:15.948Z</time></trkpt><trkpt lat="44.3422469" lon="8.3238492"><ele>383.4</ele><time>2026-03-24T09:30:17.948Z</time></trkpt><trkpt lat="44.3423213" lon="8.3237622"><ele>382.79999999999995</ele><time>2026-03-24T09:30:19.948Z</time></trkpt><trkpt lat="44.3424094" lon="8.3237118"><ele>382.20000000000005</ele><time>2026-03-24T09:30:21.947Z</time></trkpt><trkpt lat="44.3425027" lon="8.323709"><ele>381.6</ele><time>2026-03-24T09:30:23.947Z</time></trkpt><trkpt lat="44.3425796" lon="8.3237985"><ele>381.0</ele><time>2026-03-24T09:30:25.948Z</time></trkpt><trkpt lat="44.34259" lon="8.3239417"><ele>381.0</ele><time>2026-03-24T09:30:27.947Z</time></trkpt><trkpt lat="44.3425552" lon="8.3240705"><ele>381.0</ele><time>2026-03-24T09:30:29.948Z</time></trkpt><trkpt lat="44.3424851" lon="8.3241815"><ele>381.0</ele><time>2026-03-24T09:30:31.948Z</time></trkpt><trkpt lat="44.3424298" lon="8.3243045"><ele>381.0</ele><time>2026-03-24T09:30:33.948Z</time></trkpt><trkpt lat="44.3423917" lon="8.3244408"><ele>381.0</ele><time>2026-03-24T09:30:35.947Z</time></trkpt><trkpt lat="44.3423611" lon="8.3246005"><ele>380.4</ele><time>2026-03-24T09:30:37.947Z</time></trkpt><trkpt lat="44.342384" lon="8.3247358"><ele>379.8</ele><time>2026-03-24T09:30:39.948Z</time></trkpt><trkpt lat="44.3424458" lon="8.3248372"><ele>379.2</ele><time>2026-03-24T09:30:41.948Z</time></trkpt><trkpt lat="44.3425245" lon="8.3249053"><ele>378.59999999999997</ele><time>2026-03-24T09:30:43.948Z</time></trkpt><trkpt lat="44.3426169" lon="8.3249272"><ele>378.0</ele><time>2026-03-24T09:30:45.948Z</time></trkpt><trkpt lat="44.3427088" lon="8.3249204"><ele>378.0</ele><time>2026-03-24T09:30:47.948Z</time></trkpt><trkpt lat="44.3427967" lon="8.3248893"><ele>378.0</ele><time>2026-03-24T09:30:49.947Z</time></trkpt><trkpt lat="44.3428875" lon="8.3248482"><ele>378.0</ele><time>2026-03-24T09:30:51.946Z</time></trkpt><trkpt lat="44.3429848" lon="8.3248027"><ele>378.0</ele><time>2026-03-24T09:30:53.947Z</time></trkpt><trkpt lat="44.3430777" lon="8.3247571"><ele>378.0</ele><time>2026-03-24T09:30:55.948Z</time></trkpt><trkpt lat="44.3431716" lon="8.3247212"><ele>377.79999999999995</ele><time>2026-03-24T09:30:57.946Z</time></trkpt><trkpt lat="44.3432741" lon="8.3246846"><ele>377.6</ele><time>2026-03-24T09:30:59.947Z</time></trkpt><trkpt lat="44.3433759" lon="8.3246432"><ele>377.4</ele><time>2026-03-24T09:31:01.948Z</time></trkpt><trkpt lat="44.3434742" lon="8.3245959"><ele>377.20000000000005</ele><time>2026-03-24T09:31:03.948Z</time></trkpt><trkpt lat="44.3435654" lon="8.324535"><ele>377.0</ele><time>2026-03-24T09:31:05.948Z</time></trkpt><trkpt lat="44.3436389" lon="8.3244238"><ele>377.0</ele><time>2026-03-24T09:31:07.947Z</time></trkpt><trkpt lat="44.343701" lon="8.3242868"><ele>377.0</ele><time>2026-03-24T09:31:09.947Z</time></trkpt><trkpt lat="44.3437161" lon="8.3241266"><ele>377.0</ele><time>2026-03-24T09:31:11.947Z</time></trkpt><trkpt lat="44.3436821" lon="8.3239562"><ele>377.0</ele><time>2026-03-24T09:31:13.948Z</time></trkpt><trkpt lat="44.3436539" lon="8.3238688"><ele>377.0</ele><time>2026-03-24T09:31:14.946Z</time></trkpt><trkpt lat="44.3436237" lon="8.3237857"><ele>377.4285714285714</ele><time>2026-03-24T09:31:15.948Z</time></trkpt><trkpt lat="44.3435925" lon="8.3237043"><ele>377.85714285714283</ele><time>2026-03-24T09:31:16.948Z</time></trkpt><trkpt lat="44.3435612" lon="8.323621"><ele>378.2857142857143</ele><time>2026-03-24T09:31:17.947Z</time></trkpt><trkpt lat="44.3435372" lon="8.323533"><ele>378.71428571428567</ele><time>2026-03-24T09:31:18.948Z</time></trkpt><trkpt lat="44.3435316" lon="8.3234402"><ele>379.14285714285717</ele><time>2026-03-24T09:31:19.948Z</time></trkpt><trkpt lat="44.3435444" lon="8.3233534"><ele>379.57142857142856</ele><time>2026-03-24T09:31:20.948Z</time></trkpt><trkpt lat="44.3435662" lon="8.3232708"><ele>380.0</ele><time>2026-03-24T09:31:21.948Z</time></trkpt><trkpt lat="44.3436" lon="8.3231917"><ele>380.0</ele><time>2026-03-24T09:31:22.948Z</time></trkpt><trkpt lat="44.3436432" lon="8.3231228"><ele>380.0</ele><time>2026-03-24T09:31:23.947Z</time></trkpt><trkpt lat="44.3436942" lon="8.3230617"><ele>380.0</ele><time>2026-03-24T09:31:24.948Z</time></trkpt><trkpt lat="44.3437501" lon="8.3230064"><ele>380.0</ele><time>2026-03-24T09:31:25.948Z</time></trkpt><trkpt lat="44.3438024" lon="8.3229517"><ele>380.0</ele><time>2026-03-24T09:31:26.947Z</time></trkpt><trkpt lat="44.3438543" lon="8.3229006"><ele>380.0</ele><time>2026-03-24T09:31:27.947Z</time></trkpt><trkpt lat="44.3439102" lon="8.3228537"><ele>380.0</ele><time>2026-03-24T09:31:28.948Z</time></trkpt><trkpt lat="44.3439661" lon="8.3228041"><ele>380.2</ele><time>2026-03-24T09:31:29.948Z</time></trkpt><trkpt lat="44.3440189" lon="8.3227551"><ele>380.4</ele><time>2026-03-24T09:31:30.948Z</time></trkpt><trkpt lat="44.3440731" lon="8.3227042"><ele>380.6</ele><time>2026-03-24T09:31:31.948Z</time></trkpt><trkpt lat="44.3441736" lon="8.3225969"><ele>380.8</ele><time>2026-03-24T09:31:33.947Z</time></trkpt><trkpt lat="44.3442792" lon="8.3224941"><ele>381.0</ele><time>2026-03-24T09:31:35.947Z</time></trkpt><trkpt lat="44.3443338" lon="8.322442"><ele>381.0</ele><time>2026-03-24T09:31:36.947Z</time></trkpt><trkpt lat="44.344417" lon="8.3223425"><ele>381.0</ele><time>2026-03-24T09:31:38.948Z</time></trkpt><trkpt lat="44.344508" lon="8.322246"><ele>381.0</ele><time>2026-03-24T09:31:40.948Z</time></trkpt><trkpt lat="44.3446035" lon="8.3221426"><ele>381.0</ele><time>2026-03-24T09:31:42.948Z</time></trkpt><trkpt lat="44.3446597" lon="8.3220833"><ele>381.0</ele><time>2026-03-24T09:31:43.948Z</time></trkpt><trkpt lat="44.3447113" lon="8.3220306"><ele>381.8</ele><time>2026-03-24T09:31:44.948Z</time></trkpt><trkpt lat="44.3448041" lon="8.3219168"><ele>382.6</ele><time>2026-03-24T09:31:46.947Z</time></trkpt><trkpt lat="44.344903" lon="8.3218179"><ele>383.4</ele><time>2026-03-24T09:31:48.947Z</time></trkpt><trkpt lat="44.3449547" lon="8.3217645"><ele>384.2</ele><time>2026-03-24T09:31:49.948Z</time></trkpt><trkpt lat="44.3450532" lon="8.3216694"><ele>385.0</ele><time>2026-03-24T09:31:51.948Z</time></trkpt><trkpt lat="44.3451428" lon="8.3215614"><ele>385.0</ele><time>2026-03-24T09:31:53.948Z</time></trkpt><trkpt lat="44.3452229" lon="8.3214635"><ele>385.0</ele><time>2026-03-24T09:31:55.947Z</time></trkpt><trkpt lat="44.3453098" lon="8.3213601"><ele>385.0</ele><time>2026-03-24T09:31:57.948Z</time></trkpt><trkpt lat="44.3453765" lon="8.321255"><ele>385.0</ele><time>2026-03-24T09:31:59.948Z</time></trkpt><trkpt lat="44.3454504" lon="8.3211237"><ele>385.0</ele><time>2026-03-24T09:32:01.946Z</time></trkpt><trkpt lat="44.3455125" lon="8.3209947"><ele>384.25</ele><time>2026-03-24T09:32:03.946Z</time></trkpt><trkpt lat="44.3456175" lon="8.3209242"><ele>383.5</ele><time>2026-03-24T09:32:05.948Z</time></trkpt><trkpt lat="44.3457309" lon="8.320859"><ele>382.75</ele><time>2026-03-24T09:32:07.947Z</time></trkpt><trkpt lat="44.345775" lon="8.3207195"><ele>382.0</ele><time>2026-03-24T09:32:09.948Z</time></trkpt><trkpt lat="44.3457333" lon="8.3205618"><ele>382.0</ele><time>2026-03-24T09:32:11.948Z</time></trkpt><trkpt lat="44.3456594" lon="8.3204208"><ele>382.0</ele><time>2026-03-24T09:32:13.948Z</time></trkpt><trkpt lat="44.3455912" lon="8.3202741"><ele>382.0</ele><time>2026-03-24T09:32:15.947Z</time></trkpt><trkpt lat="44.3455377" lon="8.3201156"><ele>382.0</ele><time>2026-03-24T09:32:17.947Z</time></trkpt><trkpt lat="44.3455117" lon="8.3200297"><ele>382.0</ele><time>2026-03-24T09:32:18.948Z</time></trkpt><trkpt lat="44.3454603" lon="8.3198791"><ele>386.40000000000003</ele><time>2026-03-24T09:32:20.948Z</time></trkpt><trkpt lat="44.3453998" lon="8.3197265"><ele>390.8</ele><time>2026-03-24T09:32:22.947Z</time></trkpt><trkpt lat="44.3453651" lon="8.3195743"><ele>395.2</ele><time>2026-03-24T09:32:24.948Z</time></trkpt><trkpt lat="44.3453277" lon="8.3194181"><ele>399.6</ele><time>2026-03-24T09:32:26.948Z</time></trkpt><trkpt lat="44.3453466" lon="8.3193326"><ele>404.0</ele><time>2026-03-24T09:32:27.948Z</time></trkpt><trkpt lat="44.3453676" lon="8.3191684"><ele>404.0</ele><time>2026-03-24T09:32:29.948Z</time></trkpt><trkpt lat="44.3453715" lon="8.319011"><ele>404.0</ele><time>2026-03-24T09:32:31.948Z</time></trkpt><trkpt lat="44.3453827" lon="8.3188479"><ele>404.0</ele><time>2026-03-24T09:32:33.948Z</time></trkpt><trkpt lat="44.3454073" lon="8.3186843"><ele>404.0</ele><time>2026-03-24T09:32:35.948Z</time></trkpt><trkpt lat="44.3454356" lon="8.3185205"><ele>404.0</ele><time>2026-03-24T09:32:37.948Z</time></trkpt><trkpt lat="44.345461" lon="8.3183553"><ele>404.0</ele><time>2026-03-24T09:32:39.947Z</time></trkpt><trkpt lat="44.3455008" lon="8.3182014"><ele>404.0</ele><time>2026-03-24T09:32:41.948Z</time></trkpt><trkpt lat="44.3455286" lon="8.3180444"><ele>404.0</ele><time>2026-03-24T09:32:43.948Z</time></trkpt><trkpt lat="44.3455431" lon="8.317881"><ele>398.0</ele><time>2026-03-24T09:32:45.947Z</time></trkpt><trkpt lat="44.3455642" lon="8.3177202"><ele>392.0</ele><time>2026-03-24T09:32:47.948Z</time></trkpt><trkpt lat="44.3455914" lon="8.3175639"><ele>386.0</ele><time>2026-03-24T09:32:49.948Z</time></trkpt><trkpt lat="44.3456262" lon="8.3174081"><ele>380.0</ele><time>2026-03-24T09:32:51.948Z</time></trkpt><trkpt lat="44.3456449" lon="8.3172396"><ele>379.5</ele><time>2026-03-24T09:32:53.948Z</time></trkpt><trkpt lat="44.3456689" lon="8.3170759"><ele>379.0</ele><time>2026-03-24T09:32:55.948Z</time></trkpt><trkpt lat="44.3456922" lon="8.3169105"><ele>378.5</ele><time>2026-03-24T09:32:57.947Z</time></trkpt><trkpt lat="44.3457144" lon="8.3167462"><ele>378.0</ele><time>2026-03-24T09:32:59.948Z</time></trkpt><trkpt lat="44.3457445" lon="8.3165823"><ele>378.0</ele><time>2026-03-24T09:33:01.948Z</time></trkpt><trkpt lat="44.3457756" lon="8.316413"><ele>378.0</ele><time>2026-03-24T09:33:03.948Z</time></trkpt><trkpt lat="44.3457907" lon="8.3162522"><ele>378.0</ele><time>2026-03-24T09:33:05.948Z</time></trkpt><trkpt lat="44.3458061" lon="8.3160986"><ele>378.0</ele><time>2026-03-24T09:33:07.948Z</time></trkpt><trkpt lat="44.3458271" lon="8.315955"><ele>379.0</ele><time>2026-03-24T09:33:09.948Z</time></trkpt><trkpt lat="44.3458383" lon="8.3158133"><ele>380.0</ele><time>2026-03-24T09:33:11.947Z</time></trkpt><trkpt lat="44.3458714" lon="8.3156688"><ele>381.0</ele><time>2026-03-24T09:33:13.946Z</time></trkpt><trkpt lat="44.3458954" lon="8.315508"><ele>382.0</ele><time>2026-03-24T09:33:15.946Z</time></trkpt><trkpt lat="44.3459334" lon="8.3153639"><ele>383.0</ele><time>2026-03-24T09:33:17.946Z</time></trkpt><trkpt lat="44.3459633" lon="8.3152134"><ele>383.4</ele><time>2026-03-24T09:33:19.948Z</time></trkpt><trkpt lat="44.3459838" lon="8.3150673"><ele>383.79999999999995</ele><time>2026-03-24T09:33:21.947Z</time></trkpt><trkpt lat="44.3460156" lon="8.314929"><ele>384.2</ele><time>2026-03-24T09:33:23.948Z</time></trkpt><trkpt lat="44.3460632" lon="8.3147989"><ele>384.6</ele><time>2026-03-24T09:33:25.947Z</time></trkpt><trkpt lat="44.3461164" lon="8.3146594"><ele>385.0</ele><time>2026-03-24T09:33:27.948Z</time></trkpt><trkpt lat="44.3461749" lon="8.3145318"><ele>385.8</ele><time>2026-03-24T09:33:29.948Z</time></trkpt><trkpt lat="44.3462391" lon="8.3144145"><ele>386.6</ele><time>2026-03-24T09:33:31.948Z</time></trkpt><trkpt lat="44.3462921" lon="8.3142852"><ele>387.4</ele><time>2026-03-24T09:33:33.947Z</time></trkpt><trkpt lat="44.346354" lon="8.3141616"><ele>388.2</ele><time>2026-03-24T09:33:35.948Z</time></trkpt><trkpt lat="44.3464133" lon="8.3140393"><ele>389.0</ele><time>2026-03-24T09:33:37.948Z</time></trkpt><trkpt lat="44.3464938" lon="8.3139359"><ele>387.4</ele><time>2026-03-24T09:33:39.948Z</time></trkpt><trkpt lat="44.3465462" lon="8.3138218"><ele>385.79999999999995</ele><time>2026-03-24T09:33:41.947Z</time></trkpt><trkpt lat="44.3466018" lon="8.3137291"><ele>384.20000000000005</ele><time>2026-03-24T09:33:43.948Z</time></trkpt><trkpt lat="44.3466608" lon="8.3136037"><ele>382.6</ele><time>2026-03-24T09:33:45.948Z</time></trkpt><trkpt lat="44.3467231" lon="8.3135071"><ele>381.0</ele><time>2026-03-24T09:33:47.948Z</time></trkpt><trkpt lat="44.3467939" lon="8.3134159"><ele>381.0</ele><time>2026-03-24T09:33:49.948Z</time></trkpt><trkpt lat="44.3468845" lon="8.3133522"><ele>381.0</ele><time>2026-03-24T09:33:51.948Z</time></trkpt><trkpt lat="44.3469865" lon="8.3133145"><ele>381.0</ele><time>2026-03-24T09:33:53.947Z</time></trkpt><trkpt lat="44.3470757" lon="8.3132974"><ele>381.0</ele><time>2026-03-24T09:33:55.948Z</time></trkpt><trkpt lat="44.347169" lon="8.3133098"><ele>381.0</ele><time>2026-03-24T09:33:57.947Z</time></trkpt><trkpt lat="44.34726" lon="8.3133506"><ele>381.8</ele><time>2026-03-24T09:33:59.948Z</time></trkpt><trkpt lat="44.3473396" lon="8.3134026"><ele>382.6</ele><time>2026-03-24T09:34:01.948Z</time></trkpt><trkpt lat="44.3474169" lon="8.3134688"><ele>383.4</ele><time>2026-03-24T09:34:03.948Z</time></trkpt><trkpt lat="44.3474946" lon="8.3135567"><ele>384.2</ele><time>2026-03-24T09:34:05.948Z</time></trkpt><trkpt lat="44.3475623" lon="8.3136413"><ele>385.0</ele><time>2026-03-24T09:34:07.949Z</time></trkpt><trkpt lat="44.3476386" lon="8.3137272"><ele>385.0</ele><time>2026-03-24T09:34:09.947Z</time></trkpt><trkpt lat="44.3477168" lon="8.3138255"><ele>385.0</ele><time>2026-03-24T09:34:11.947Z</time></trkpt><trkpt lat="44.3477863" lon="8.313927"><ele>385.0</ele><time>2026-03-24T09:34:13.947Z</time></trkpt><trkpt lat="44.3478505" lon="8.3140257"><ele>385.0</ele><time>2026-03-24T09:34:15.946Z</time></trkpt><trkpt lat="44.3479146" lon="8.3141295"><ele>385.0</ele><time>2026-03-24T09:34:17.947Z</time></trkpt><trkpt lat="44.3479721" lon="8.3142465"><ele>386.2</ele><time>2026-03-24T09:34:19.947Z</time></trkpt><trkpt lat="44.3480264" lon="8.3143441"><ele>387.4</ele><time>2026-03-24T09:34:21.948Z</time></trkpt><trkpt lat="44.3480854" lon="8.3144256"><ele>388.6</ele><time>2026-03-24T09:34:23.947Z</time></trkpt><trkpt lat="44.3481531" lon="8.314502"><ele>389.8</ele><time>2026-03-24T09:34:25.948Z</time></trkpt><trkpt lat="44.3482312" lon="8.3145787"><ele>391.0</ele><time>2026-03-24T09:34:27.948Z</time></trkpt><trkpt lat="44.3483136" lon="8.3146517"><ele>391.0</ele><time>2026-03-24T09:34:29.948Z</time></trkpt><trkpt lat="44.3484043" lon="8.3147154"><ele>391.0</ele><time>2026-03-24T09:34:31.948Z</time></trkpt><trkpt lat="44.3484942" lon="8.3147814"><ele>391.0</ele><time>2026-03-24T09:34:33.948Z</time></trkpt><trkpt lat="44.3485931" lon="8.3148308"><ele>391.0</ele><time>2026-03-24T09:34:35.948Z</time></trkpt><trkpt lat="44.3486886" lon="8.3148817"><ele>391.0</ele><time>2026-03-24T09:34:37.948Z</time></trkpt><trkpt lat="44.3487783" lon="8.3149354"><ele>390.8</ele><time>2026-03-24T09:34:39.948Z</time></trkpt><trkpt lat="44.3488568" lon="8.3149975"><ele>390.6</ele><time>2026-03-24T09:34:41.948Z</time></trkpt><trkpt lat="44.3489359" lon="8.3150586"><ele>390.4</ele><time>2026-03-24T09:34:43.946Z</time></trkpt><trkpt lat="44.349024" lon="8.3151481"><ele>390.2</ele><time>2026-03-24T09:34:45.947Z</time></trkpt><trkpt lat="44.3491023" lon="8.3152203"><ele>390.0</ele><time>2026-03-24T09:34:47.946Z</time></trkpt><trkpt lat="44.3491508" lon="8.3152998"><ele>390.0</ele><time>2026-03-24T09:34:49.948Z</time></trkpt><trkpt lat="44.3492162" lon="8.3153775"><ele>390.0</ele><time>2026-03-24T09:34:51.948Z</time></trkpt><trkpt lat="44.3492847" lon="8.3154667"><ele>390.0</ele><time>2026-03-24T09:34:53.947Z</time></trkpt><trkpt lat="44.3493511" lon="8.3155651"><ele>390.0</ele><time>2026-03-24T09:34:55.948Z</time></trkpt><trkpt lat="44.3494178" lon="8.3156558"><ele>390.0</ele><time>2026-03-24T09:34:57.948Z</time></trkpt><trkpt lat="44.3494837" lon="8.3157447"><ele>390.6</ele><time>2026-03-24T09:34:59.948Z</time></trkpt><trkpt lat="44.349543" lon="8.3158349"><ele>391.2</ele><time>2026-03-24T09:35:01.948Z</time></trkpt><trkpt lat="44.3496061" lon="8.3159245"><ele>391.79999999999995</ele><time>2026-03-24T09:35:03.948Z</time></trkpt><trkpt lat="44.3496658" lon="8.3160179"><ele>392.4</ele><time>2026-03-24T09:35:05.948Z</time></trkpt><trkpt lat="44.349725" lon="8.3161123"><ele>393.0</ele><time>2026-03-24T09:35:07.946Z</time></trkpt><trkpt lat="44.3497878" lon="8.3162087"><ele>393.0</ele><time>2026-03-24T09:35:09.948Z</time></trkpt><trkpt lat="44.349848" lon="8.3162969"><ele>393.0</ele><time>2026-03-24T09:35:11.948Z</time></trkpt><trkpt lat="44.3499101" lon="8.3163735"><ele>393.0</ele><time>2026-03-24T09:35:13.948Z</time></trkpt><trkpt lat="44.3499856" lon="8.3164343"><ele>393.0</ele><time>2026-03-24T09:35:15.948Z</time></trkpt><trkpt lat="44.3500608" lon="8.3164785"><ele>393.0</ele><time>2026-03-24T09:35:17.947Z</time></trkpt><trkpt lat="44.3501335" lon="8.316507"><ele>393.0</ele><time>2026-03-24T09:35:19.948Z</time></trkpt><trkpt lat="44.350207" lon="8.3165238"><ele>390.6666666666667</ele><time>2026-03-24T09:35:21.948Z</time></trkpt><trkpt lat="44.3502807" lon="8.3165485"><ele>388.3333333333333</ele><time>2026-03-24T09:35:23.948Z</time></trkpt><trkpt lat="44.3503544" lon="8.3165479"><ele>386.0</ele><time>2026-03-24T09:35:25.947Z</time></trkpt><trkpt lat="44.3504182" lon="8.3164921"><ele>383.66666666666663</ele><time>2026-03-24T09:35:27.948Z</time></trkpt><trkpt lat="44.3504759" lon="8.316405"><ele>381.3333333333333</ele><time>2026-03-24T09:35:29.948Z</time></trkpt><trkpt lat="44.3505441" lon="8.3163198"><ele>379.0</ele><time>2026-03-24T09:35:31.948Z</time></trkpt><trkpt lat="44.3506062" lon="8.3162245"><ele>379.0</ele><time>2026-03-24T09:35:33.946Z</time></trkpt><trkpt lat="44.3506414" lon="8.3161003"><ele>379.0</ele><time>2026-03-24T09:35:35.947Z</time></trkpt><trkpt lat="44.3506847" lon="8.3159507"><ele>379.0</ele><time>2026-03-24T09:35:37.948Z</time></trkpt><trkpt lat="44.350707" lon="8.31581"><ele>379.0</ele><time>2026-03-24T09:35:39.947Z</time></trkpt><trkpt lat="44.3507219" lon="8.3156581"><ele>379.0</ele><time>2026-03-24T09:35:41.947Z</time></trkpt><trkpt lat="44.3507379" lon="8.315524"><ele>380.0</ele><time>2026-03-24T09:35:43.947Z</time></trkpt><trkpt lat="44.3507509" lon="8.3153969"><ele>381.0</ele><time>2026-03-24T09:35:45.948Z</time></trkpt><trkpt lat="44.3507621" lon="8.3152683"><ele>382.0</ele><time>2026-03-24T09:35:47.948Z</time></trkpt><trkpt lat="44.3507717" lon="8.3151479"><ele>383.0</ele><time>2026-03-24T09:35:49.948Z</time></trkpt><trkpt lat="44.3507816" lon="8.3150367"><ele>384.00000000000006</ele><time>2026-03-24T09:35:51.947Z</time></trkpt><trkpt lat="44.3508041" lon="8.3149104"><ele>385.0</ele><time>2026-03-24T09:35:53.948Z</time></trkpt><trkpt lat="44.3508154" lon="8.3147935"><ele>385.33333333333337</ele><time>2026-03-24T09:35:55.948Z</time></trkpt><trkpt lat="44.3508268" lon="8.3146696"><ele>385.6666666666667</ele><time>2026-03-24T09:35:57.948Z</time></trkpt><trkpt lat="44.3508491" lon="8.3145456"><ele>386.0</ele><time>2026-03-24T09:35:59.948Z</time></trkpt><trkpt lat="44.3508707" lon="8.3144217"><ele>386.33333333333337</ele><time>2026-03-24T09:36:01.947Z</time></trkpt><trkpt lat="44.3508946" lon="8.3143045"><ele>386.6666666666667</ele><time>2026-03-24T09:36:03.947Z</time></trkpt><trkpt lat="44.3509193" lon="8.3141944"><ele>387.0</ele><time>2026-03-24T09:36:05.948Z</time></trkpt><trkpt lat="44.3509486" lon="8.3140872"><ele>387.0</ele><time>2026-03-24T09:36:07.947Z</time></trkpt><trkpt lat="44.3509786" lon="8.3139821"><ele>387.0</ele><time>2026-03-24T09:36:09.948Z</time></trkpt><trkpt lat="44.3510122" lon="8.3138748"><ele>387.0</ele><time>2026-03-24T09:36:11.948Z</time></trkpt><trkpt lat="44.3510488" lon="8.3137601"><ele>387.0</ele><time>2026-03-24T09:36:13.948Z</time></trkpt><trkpt lat="44.351087" lon="8.3136473"><ele>387.0</ele><time>2026-03-24T09:36:15.948Z</time></trkpt><trkpt lat="44.3511187" lon="8.3135314"><ele>387.0</ele><time>2026-03-24T09:36:17.947Z</time></trkpt><trkpt lat="44.3511519" lon="8.313419"><ele>387.1666666666667</ele><time>2026-03-24T09:36:19.948Z</time></trkpt><trkpt lat="44.3511868" lon="8.3133064"><ele>387.33333333333337</ele><time>2026-03-24T09:36:21.948Z</time></trkpt><trkpt lat="44.3512196" lon="8.3131946"><ele>387.5</ele><time>2026-03-24T09:36:23.948Z</time></trkpt><trkpt lat="44.3512544" lon="8.3130897"><ele>387.6666666666667</ele><time>2026-03-24T09:36:25.947Z</time></trkpt><trkpt lat="44.3512887" lon="8.3129825"><ele>387.83333333333337</ele><time>2026-03-24T09:36:27.948Z</time></trkpt><trkpt lat="44.3513206" lon="8.312871"><ele>388.0</ele><time>2026-03-24T09:36:29.948Z</time></trkpt><trkpt lat="44.351349" lon="8.3127536"><ele>387.33333333333337</ele><time>2026-03-24T09:36:31.948Z</time></trkpt><trkpt lat="44.3513774" lon="8.3126379"><ele>386.6666666666667</ele><time>2026-03-24T09:36:33.948Z</time></trkpt><trkpt lat="44.3514113" lon="8.3125235"><ele>386.0</ele><time>2026-03-24T09:36:35.948Z</time></trkpt><trkpt lat="44.3514412" lon="8.3124118"><ele>385.33333333333337</ele><time>2026-03-24T09:36:37.948Z</time></trkpt><trkpt lat="44.3514621" lon="8.3122972"><ele>384.6666666666667</ele><time>2026-03-24T09:36:39.947Z</time></trkpt><trkpt lat="44.3515018" lon="8.312194"><ele>384.0</ele><time>2026-03-24T09:36:41.948Z</time></trkpt><trkpt lat="44.3515615" lon="8.3121062"><ele>384.0</ele><time>2026-03-24T09:36:43.948Z</time></trkpt><trkpt lat="44.3516328" lon="8.3120115"><ele>384.0</ele><time>2026-03-24T09:36:45.948Z</time></trkpt><trkpt lat="44.351706" lon="8.3118996"><ele>384.0</ele><time>2026-03-24T09:36:47.947Z</time></trkpt><trkpt lat="44.3517899" lon="8.3117989"><ele>384.0</ele><time>2026-03-24T09:36:49.947Z</time></trkpt><trkpt lat="44.3518925" lon="8.3117546"><ele>384.0</ele><time>2026-03-24T09:36:51.948Z</time></trkpt><trkpt lat="44.3520017" lon="8.3116913"><ele>384.0</ele><time>2026-03-24T09:36:53.948Z</time></trkpt><trkpt lat="44.3521068" lon="8.3116517"><ele>384.0</ele><time>2026-03-24T09:36:55.947Z</time></trkpt><trkpt lat="44.3522116" lon="8.3116241"><ele>384.0</ele><time>2026-03-24T09:36:57.947Z</time></trkpt><trkpt lat="44.3523144" lon="8.3116094"><ele>384.0</ele><time>2026-03-24T09:36:59.947Z</time></trkpt><trkpt lat="44.3524132" lon="8.3116018"><ele>384.0</ele><time>2026-03-24T09:37:01.948Z</time></trkpt><trkpt lat="44.3525165" lon="8.3115943"><ele>384.0</ele><time>2026-03-24T09:37:03.947Z</time></trkpt><trkpt lat="44.3526195" lon="8.3116144"><ele>384.0</ele><time>2026-03-24T09:37:05.947Z</time></trkpt><trkpt lat="44.3527169" lon="8.3116362"><ele>384.0</ele><time>2026-03-24T09:37:07.947Z</time></trkpt><trkpt lat="44.3528069" lon="8.3116437"><ele>384.0</ele><time>2026-03-24T09:37:09.947Z</time></trkpt><trkpt lat="44.352902" lon="8.3116629"><ele>384.0</ele><time>2026-03-24T09:37:11.948Z</time></trkpt><trkpt lat="44.3529898" lon="8.3116829"><ele>383.0</ele><time>2026-03-24T09:37:13.948Z</time></trkpt><trkpt lat="44.353088" lon="8.3117095"><ele>382.0</ele><time>2026-03-24T09:37:15.947Z</time></trkpt><trkpt lat="44.3531828" lon="8.3117245"><ele>381.0</ele><time>2026-03-24T09:37:17.948Z</time></trkpt><trkpt lat="44.3532813" lon="8.3117434"><ele>380.0</ele><time>2026-03-24T09:37:19.947Z</time></trkpt><trkpt lat="44.353384" lon="8.3117511"><ele>379.0</ele><time>2026-03-24T09:37:21.948Z</time></trkpt><trkpt lat="44.3534937" lon="8.3117709"><ele>379.0</ele><time>2026-03-24T09:37:23.949Z</time></trkpt><trkpt lat="44.3535983" lon="8.3117962"><ele>379.0</ele><time>2026-03-24T09:37:25.948Z</time></trkpt><trkpt lat="44.353715" lon="8.3118211"><ele>379.0</ele><time>2026-03-24T09:37:27.948Z</time></trkpt><trkpt lat="44.3538245" lon="8.3118379"><ele>379.0</ele><time>2026-03-24T09:37:29.948Z</time></trkpt><trkpt lat="44.3539272" lon="8.3118593"><ele>379.0</ele><time>2026-03-24T09:37:31.947Z</time></trkpt><trkpt lat="44.3540366" lon="8.3118754"><ele>379.4</ele><time>2026-03-24T09:37:33.947Z</time></trkpt><trkpt lat="44.3541452" lon="8.3119047"><ele>379.79999999999995</ele><time>2026-03-24T09:37:35.946Z</time></trkpt><trkpt lat="44.3542509" lon="8.3119342"><ele>380.20000000000005</ele><time>2026-03-24T09:37:37.947Z</time></trkpt><trkpt lat="44.3543575" lon="8.3119779"><ele>380.6</ele><time>2026-03-24T09:37:39.948Z</time></trkpt><trkpt lat="44.3544596" lon="8.3120311"><ele>381.0</ele><time>2026-03-24T09:37:41.948Z</time></trkpt><trkpt lat="44.3545608" lon="8.3120973"><ele>381.0</ele><time>2026-03-24T09:37:43.946Z</time></trkpt><trkpt lat="44.3546515" lon="8.3121667"><ele>381.0</ele><time>2026-03-24T09:37:45.948Z</time></trkpt><trkpt lat="44.3547447" lon="8.3122338"><ele>381.0</ele><time>2026-03-24T09:37:47.947Z</time></trkpt><trkpt lat="44.3548349" lon="8.3122995"><ele>381.0</ele><time>2026-03-24T09:37:49.948Z</time></trkpt><trkpt lat="44.3549153" lon="8.3123598"><ele>381.0</ele><time>2026-03-24T09:37:51.948Z</time></trkpt><trkpt lat="44.3549927" lon="8.3124194"><ele>380.5</ele><time>2026-03-24T09:37:53.948Z</time></trkpt><trkpt lat="44.3550693" lon="8.3124785"><ele>380.0</ele><time>2026-03-24T09:37:55.946Z</time></trkpt><trkpt lat="44.355143" lon="8.312535"><ele>379.5</ele><time>2026-03-24T09:37:57.946Z</time></trkpt><trkpt lat="44.3552148" lon="8.3125847"><ele>379.0</ele><time>2026-03-24T09:37:59.948Z</time></trkpt><trkpt lat="44.3552872" lon="8.3126416"><ele>378.5</ele><time>2026-03-24T09:38:01.949Z</time></trkpt><trkpt lat="44.3553628" lon="8.3126975"><ele>378.0</ele><time>2026-03-24T09:38:03.948Z</time></trkpt><trkpt lat="44.3554358" lon="8.3127391"><ele>378.0</ele><time>2026-03-24T09:38:05.948Z</time></trkpt><trkpt lat="44.3555111" lon="8.3127896"><ele>378.0</ele><time>2026-03-24T09:38:07.947Z</time></trkpt><trkpt lat="44.3555939" lon="8.3128451"><ele>378.0</ele><time>2026-03-24T09:38:09.946Z</time></trkpt><trkpt lat="44.3556782" lon="8.3128991"><ele>378.0</ele><time>2026-03-24T09:38:11.948Z</time></trkpt><trkpt lat="44.3557565" lon="8.3129631"><ele>378.0</ele><time>2026-03-24T09:38:13.948Z</time></trkpt><trkpt lat="44.3558389" lon="8.313026"><ele>376.59999999999997</ele><time>2026-03-24T09:38:15.948Z</time></trkpt><trkpt lat="44.3559292" lon="8.3130981"><ele>375.2</ele><time>2026-03-24T09:38:17.948Z</time></trkpt><trkpt lat="44.3560283" lon="8.3131678"><ele>373.8</ele><time>2026-03-24T09:38:19.948Z</time></trkpt><trkpt lat="44.3561239" lon="8.3132378"><ele>372.4</ele><time>2026-03-24T09:38:21.948Z</time></trkpt><trkpt lat="44.3562204" lon="8.3133186"><ele>371.0</ele><time>2026-03-24T09:38:23.948Z</time></trkpt><trkpt lat="44.356327" lon="8.3133866"><ele>371.5</ele><time>2026-03-24T09:38:25.948Z</time></trkpt><trkpt lat="44.3564387" lon="8.3134665"><ele>372.0</ele><time>2026-03-24T09:38:27.948Z</time></trkpt><trkpt lat="44.3564963" lon="8.3135049"><ele>372.5</ele><time>2026-03-24T09:38:28.947Z</time></trkpt><trkpt lat="44.3565539" lon="8.3135464"><ele>373.0</ele><time>2026-03-24T09:38:29.948Z</time></trkpt><trkpt lat="44.3566143" lon="8.313592"><ele>373.5</ele><time>2026-03-24T09:38:30.947Z</time></trkpt><trkpt lat="44.3566811" lon="8.3136304"><ele>374.0</ele><time>2026-03-24T09:38:31.947Z</time></trkpt><trkpt lat="44.356743" lon="8.313675"><ele>374.0</ele><time>2026-03-24T09:38:32.948Z</time></trkpt><trkpt lat="44.3567997" lon="8.3137276"><ele>374.0</ele><time>2026-03-24T09:38:33.947Z</time></trkpt><trkpt lat="44.3568501" lon="8.3137928"><ele>374.0</ele><time>2026-03-24T09:38:34.948Z</time></trkpt><trkpt lat="44.3568876" lon="8.3138746"><ele>374.0</ele><time>2026-03-24T09:38:35.948Z</time></trkpt><trkpt lat="44.3569165" lon="8.3139663"><ele>374.0</ele><time>2026-03-24T09:38:36.948Z</time></trkpt><trkpt lat="44.3569274" lon="8.3140723"><ele>374.0</ele><time>2026-03-24T09:38:37.947Z</time></trkpt><trkpt lat="44.3569237" lon="8.3141849"><ele>374.0</ele><time>2026-03-24T09:38:38.948Z</time></trkpt><trkpt lat="44.3569053" lon="8.314293"><ele>373.4285714285714</ele><time>2026-03-24T09:38:39.947Z</time></trkpt><trkpt lat="44.3568699" lon="8.3143874"><ele>372.8571428571429</ele><time>2026-03-24T09:38:40.948Z</time></trkpt><trkpt lat="44.3568323" lon="8.314465"><ele>372.2857142857143</ele><time>2026-03-24T09:38:41.948Z</time></trkpt><trkpt lat="44.3567919" lon="8.3145506"><ele>371.71428571428567</ele><time>2026-03-24T09:38:42.948Z</time></trkpt><trkpt lat="44.3567487" lon="8.3146314"><ele>371.1428571428571</ele><time>2026-03-24T09:38:43.948Z</time></trkpt><trkpt lat="44.3567086" lon="8.3147093"><ele>370.57142857142856</ele><time>2026-03-24T09:38:44.946Z</time></trkpt><trkpt lat="44.3566623" lon="8.3147875"><ele>370.0</ele><time>2026-03-24T09:38:45.948Z</time></trkpt><trkpt lat="44.3566128" lon="8.3148628"><ele>370.0</ele><time>2026-03-24T09:38:46.947Z</time></trkpt><trkpt lat="44.3565675" lon="8.314941"><ele>370.0</ele><time>2026-03-24T09:38:47.947Z</time></trkpt><trkpt lat="44.3565286" lon="8.3150179"><ele>370.0</ele><time>2026-03-24T09:38:48.948Z</time></trkpt><trkpt lat="44.3564902" lon="8.3150926"><ele>370.0</ele><time>2026-03-24T09:38:49.947Z</time></trkpt><trkpt lat="44.3564153" lon="8.3152314"><ele>370.0</ele><time>2026-03-24T09:38:51.948Z</time></trkpt><trkpt lat="44.3563477" lon="8.3153711"><ele>369.0</ele><time>2026-03-24T09:38:53.947Z</time></trkpt><trkpt lat="44.3562713" lon="8.3155196"><ele>368.0</ele><time>2026-03-24T09:38:55.948Z</time></trkpt><trkpt lat="44.3562042" lon="8.3156513"><ele>367.0</ele><time>2026-03-24T09:38:57.948Z</time></trkpt><trkpt lat="44.3561398" lon="8.3157749"><ele>366.0</ele><time>2026-03-24T09:38:59.947Z</time></trkpt><trkpt lat="44.3560755" lon="8.3158829"><ele>365.8</ele><time>2026-03-24T09:39:01.947Z</time></trkpt><trkpt lat="44.3560361" lon="8.3160064"><ele>365.6</ele><time>2026-03-24T09:39:03.948Z</time></trkpt><trkpt lat="44.3560104" lon="8.316144"><ele>365.4</ele><time>2026-03-24T09:39:05.948Z</time></trkpt><trkpt lat="44.3560066" lon="8.3162845"><ele>365.2</ele><time>2026-03-24T09:39:07.948Z</time></trkpt><trkpt lat="44.3560259" lon="8.316407"><ele>365.0</ele><time>2026-03-24T09:39:09.948Z</time></trkpt><trkpt lat="44.3560902" lon="8.3165434"><ele>365.0</ele><time>2026-03-24T09:39:11.948Z</time></trkpt><trkpt lat="44.3561576" lon="8.3166391"><ele>365.0</ele><time>2026-03-24T09:39:13.948Z</time></trkpt><trkpt lat="44.3562283" lon="8.31673"><ele>365.0</ele><time>2026-03-24T09:39:15.948Z</time></trkpt><trkpt lat="44.356306" lon="8.3168055"><ele>365.0</ele><time>2026-03-24T09:39:17.947Z</time></trkpt><trkpt lat="44.3563779" lon="8.3168824"><ele>365.0</ele><time>2026-03-24T09:39:19.948Z</time></trkpt><trkpt lat="44.3564468" lon="8.3169593"><ele>365.4</ele><time>2026-03-24T09:39:21.948Z</time></trkpt><trkpt lat="44.3565329" lon="8.3170394"><ele>365.8</ele><time>2026-03-24T09:39:23.947Z</time></trkpt><trkpt lat="44.3566105" lon="8.317119"><ele>366.20000000000005</ele><time>2026-03-24T09:39:25.948Z</time></trkpt><trkpt lat="44.3566973" lon="8.3171957"><ele>366.6</ele><time>2026-03-24T09:39:27.948Z</time></trkpt><trkpt lat="44.356789" lon="8.3172749"><ele>367.0</ele><time>2026-03-24T09:39:29.947Z</time></trkpt><trkpt lat="44.3568731" lon="8.3173603"><ele>366.8</ele><time>2026-03-24T09:39:31.947Z</time></trkpt><trkpt lat="44.3569533" lon="8.317452"><ele>366.6</ele><time>2026-03-24T09:39:33.948Z</time></trkpt><trkpt lat="44.3570341" lon="8.3175298"><ele>366.40000000000003</ele><time>2026-03-24T09:39:35.948Z</time></trkpt><trkpt lat="44.3571163" lon="8.3176167"><ele>366.20000000000005</ele><time>2026-03-24T09:39:37.948Z</time></trkpt><trkpt lat="44.3572061" lon="8.3176969"><ele>366.0</ele><time>2026-03-24T09:39:39.948Z</time></trkpt><trkpt lat="44.3572797" lon="8.3177868"><ele>366.0</ele><time>2026-03-24T09:39:41.945Z</time></trkpt><trkpt lat="44.3573495" lon="8.317866"><ele>366.0</ele><time>2026-03-24T09:39:43.948Z</time></trkpt><trkpt lat="44.3574253" lon="8.3179424"><ele>366.0</ele><time>2026-03-24T09:39:45.947Z</time></trkpt><trkpt lat="44.3574999" lon="8.3180178"><ele>366.0</ele><time>2026-03-24T09:39:47.947Z</time></trkpt><trkpt lat="44.3575721" lon="8.318091"><ele>366.0</ele><time>2026-03-24T09:39:49.948Z</time></trkpt><trkpt lat="44.3576536" lon="8.3181728"><ele>365.6</ele><time>2026-03-24T09:39:51.948Z</time></trkpt><trkpt lat="44.3577337" lon="8.3182489"><ele>365.20000000000005</ele><time>2026-03-24T09:39:53.948Z</time></trkpt><trkpt lat="44.3578114" lon="8.3183317"><ele>364.79999999999995</ele><time>2026-03-24T09:39:55.948Z</time></trkpt><trkpt lat="44.3578847" lon="8.3184082"><ele>364.4</ele><time>2026-03-24T09:39:57.947Z</time></trkpt><trkpt lat="44.3579617" lon="8.3185011"><ele>364.0</ele><time>2026-03-24T09:39:59.948Z</time></trkpt><trkpt lat="44.3580515" lon="8.31859"><ele>364.0</ele><time>2026-03-24T09:40:01.948Z</time></trkpt><trkpt lat="44.3581289" lon="8.3186617"><ele>364.0</ele><time>2026-03-24T09:40:03.947Z</time></trkpt><trkpt lat="44.3582173" lon="8.3187535"><ele>364.0</ele><time>2026-03-24T09:40:05.948Z</time></trkpt><trkpt lat="44.3582914" lon="8.3188298"><ele>364.0</ele><time>2026-03-24T09:40:07.947Z</time></trkpt><trkpt lat="44.3583706" lon="8.3189094"><ele>364.0</ele><time>2026-03-24T09:40:09.947Z</time></trkpt><trkpt lat="44.3584386" lon="8.3189986"><ele>364.4</ele><time>2026-03-24T09:40:11.948Z</time></trkpt><trkpt lat="44.3585112" lon="8.3190886"><ele>364.79999999999995</ele><time>2026-03-24T09:40:13.947Z</time></trkpt><trkpt lat="44.3585921" lon="8.3191708"><ele>365.20000000000005</ele><time>2026-03-24T09:40:15.948Z</time></trkpt><trkpt lat="44.3586564" lon="8.3192566"><ele>365.6</ele><time>2026-03-24T09:40:17.948Z</time></trkpt><trkpt lat="44.3587334" lon="8.31933"><ele>366.0</ele><time>2026-03-24T09:40:19.948Z</time></trkpt><trkpt lat="44.3588123" lon="8.3194067"><ele>366.0</ele><time>2026-03-24T09:40:21.948Z</time></trkpt><trkpt lat="44.35888" lon="8.3194867"><ele>366.0</ele><time>2026-03-24T09:40:23.947Z</time></trkpt><trkpt lat="44.3589578" lon="8.3195824"><ele>366.0</ele><time>2026-03-24T09:40:25.948Z</time></trkpt><trkpt lat="44.3590355" lon="8.3196593"><ele>366.0</ele><time>2026-03-24T09:40:27.947Z</time></trkpt><trkpt lat="44.3591222" lon="8.3197343"><ele>366.0</ele><time>2026-03-24T09:40:29.947Z</time></trkpt><trkpt lat="44.3591704" lon="8.3197941"><ele>366.0</ele><time>2026-03-24T09:40:30.948Z</time></trkpt><trkpt lat="44.3592551" lon="8.3198807"><ele>366.0</ele><time>2026-03-24T09:40:32.947Z</time></trkpt><trkpt lat="44.3593379" lon="8.3199701"><ele>366.0</ele><time>2026-03-24T09:40:34.948Z</time></trkpt><trkpt lat="44.3594199" lon="8.3200518"><ele>366.0</ele><time>2026-03-24T09:40:36.948Z</time></trkpt><trkpt lat="44.3595008" lon="8.3201411"><ele>366.0</ele><time>2026-03-24T09:40:38.946Z</time></trkpt><trkpt lat="44.3595734" lon="8.3202173"><ele>366.0</ele><time>2026-03-24T09:40:40.947Z</time></trkpt><trkpt lat="44.359653" lon="8.3202928"><ele>366.0</ele><time>2026-03-24T09:40:42.946Z</time></trkpt><trkpt lat="44.3597215" lon="8.3203736"><ele>366.0</ele><time>2026-03-24T09:40:44.947Z</time></trkpt><trkpt lat="44.3597916" lon="8.3204529"><ele>366.0</ele><time>2026-03-24T09:40:46.948Z</time></trkpt><trkpt lat="44.3598742" lon="8.3205291"><ele>366.0</ele><time>2026-03-24T09:40:48.948Z</time></trkpt><trkpt lat="44.359954" lon="8.3206072"><ele>366.0</ele><time>2026-03-24T09:40:50.947Z</time></trkpt><trkpt lat="44.3600226" lon="8.3206892"><ele>366.0</ele><time>2026-03-24T09:40:52.947Z</time></trkpt><trkpt lat="44.3600891" lon="8.3207666"><ele>366.0</ele><time>2026-03-24T09:40:54.948Z</time></trkpt><trkpt lat="44.360164" lon="8.3208537"><ele>366.0</ele><time>2026-03-24T09:40:56.948Z</time></trkpt><trkpt lat="44.3602352" lon="8.3209347"><ele>366.0</ele><time>2026-03-24T09:40:58.948Z</time></trkpt><trkpt lat="44.3603029" lon="8.3210202"><ele>366.0</ele><time>2026-03-24T09:41:00.948Z</time></trkpt><trkpt lat="44.3603775" lon="8.3210974"><ele>366.0</ele><time>2026-03-24T09:41:02.948Z</time></trkpt><trkpt lat="44.3604527" lon="8.3211793"><ele>366.0</ele><time>2026-03-24T09:41:04.948Z</time></trkpt><trkpt lat="44.3605348" lon="8.3212601"><ele>366.0</ele><time>2026-03-24T09:41:06.948Z</time></trkpt><trkpt lat="44.3606112" lon="8.3213509"><ele>366.0</ele><time>2026-03-24T09:41:08.948Z</time></trkpt><trkpt lat="44.3606934" lon="8.3214428"><ele>366.20000000000005</ele><time>2026-03-24T09:41:10.946Z</time></trkpt><trkpt lat="44.3607713" lon="8.3215108"><ele>366.40000000000003</ele><time>2026-03-24T09:41:12.948Z</time></trkpt><trkpt lat="44.3608436" lon="8.3215829"><ele>366.6</ele><time>2026-03-24T09:41:14.948Z</time></trkpt><trkpt lat="44.3609148" lon="8.3216637"><ele>366.8</ele><time>2026-03-24T09:41:16.948Z</time></trkpt><trkpt lat="44.360993" lon="8.3217482"><ele>367.0</ele><time>2026-03-24T09:41:18.947Z</time></trkpt><trkpt lat="44.3610589" lon="8.3218248"><ele>367.0</ele><time>2026-03-24T09:41:20.948Z</time></trkpt><trkpt lat="44.3611339" lon="8.3219066"><ele>367.0</ele><time>2026-03-24T09:41:22.948Z</time></trkpt><trkpt lat="44.3612112" lon="8.3219758"><ele>367.0</ele><time>2026-03-24T09:41:24.948Z</time></trkpt><trkpt lat="44.3612889" lon="8.3220601"><ele>367.0</ele><time>2026-03-24T09:41:26.947Z</time></trkpt><trkpt lat="44.3613658" lon="8.3221347"><ele>367.0</ele><time>2026-03-24T09:41:28.948Z</time></trkpt><trkpt lat="44.3614349" lon="8.3222234"><ele>366.6</ele><time>2026-03-24T09:41:30.948Z</time></trkpt><trkpt lat="44.3615127" lon="8.3222937"><ele>366.20000000000005</ele><time>2026-03-24T09:41:32.947Z</time></trkpt><trkpt lat="44.3615983" lon="8.3223847"><ele>365.8</ele><time>2026-03-24T09:41:34.948Z</time></trkpt><trkpt lat="44.3616716" lon="8.3224548"><ele>365.4</ele><time>2026-03-24T09:41:36.948Z</time></trkpt><trkpt lat="44.3617394" lon="8.3225186"><ele>365.0</ele><time>2026-03-24T09:41:38.947Z</time></trkpt><trkpt lat="44.3618048" lon="8.322593"><ele>365.0</ele><time>2026-03-24T09:41:40.948Z</time></trkpt><trkpt lat="44.3618692" lon="8.3226692"><ele>365.0</ele><time>2026-03-24T09:41:42.948Z</time></trkpt><trkpt lat="44.361928" lon="8.3227424"><ele>365.0</ele><time>2026-03-24T09:41:44.948Z</time></trkpt><trkpt lat="44.3619875" lon="8.3228062"><ele>365.0</ele><time>2026-03-24T09:41:46.947Z</time></trkpt><trkpt lat="44.3620542" lon="8.3228777"><ele>365.0</ele><time>2026-03-24T09:41:48.948Z</time></trkpt><trkpt lat="44.3621155" lon="8.3229584"><ele>365.0</ele><time>2026-03-24T09:41:50.948Z</time></trkpt><trkpt lat="44.3621886" lon="8.3230491"><ele>364.8</ele><time>2026-03-24T09:41:52.947Z</time></trkpt><trkpt lat="44.3622695" lon="8.3231349"><ele>364.6</ele><time>2026-03-24T09:41:54.948Z</time></trkpt><trkpt lat="44.3623553" lon="8.3232226"><ele>364.4</ele><time>2026-03-24T09:41:56.949Z</time></trkpt><trkpt lat="44.3624393" lon="8.323299"><ele>364.2</ele><time>2026-03-24T09:41:58.948Z</time></trkpt><trkpt lat="44.3625088" lon="8.3233806"><ele>364.0</ele><time>2026-03-24T09:42:00.948Z</time></trkpt><trkpt lat="44.3625828" lon="8.3234534"><ele>364.0</ele><time>2026-03-24T09:42:02.948Z</time></trkpt><trkpt lat="44.3626635" lon="8.3235237"><ele>364.0</ele><time>2026-03-24T09:42:04.948Z</time></trkpt><trkpt lat="44.3627418" lon="8.3236008"><ele>364.0</ele><time>2026-03-24T09:42:06.947Z</time></trkpt><trkpt lat="44.3628119" lon="8.323665"><ele>364.0</ele><time>2026-03-24T09:42:08.948Z</time></trkpt><trkpt lat="44.3628928" lon="8.3237338"><ele>364.0</ele><time>2026-03-24T09:42:10.947Z</time></trkpt><trkpt lat="44.3629709" lon="8.3238243"><ele>363.6</ele><time>2026-03-24T09:42:12.948Z</time></trkpt><trkpt lat="44.3630438" lon="8.3239062"><ele>363.2</ele><time>2026-03-24T09:42:14.948Z</time></trkpt><trkpt lat="44.3631165" lon="8.3239779"><ele>362.8</ele><time>2026-03-24T09:42:16.947Z</time></trkpt><trkpt lat="44.3631871" lon="8.3240525"><ele>362.40000000000003</ele><time>2026-03-24T09:42:18.948Z</time></trkpt><trkpt lat="44.3632637" lon="8.3241345"><ele>362.0</ele><time>2026-03-24T09:42:20.947Z</time></trkpt><trkpt lat="44.3633367" lon="8.3241956"><ele>362.0</ele><time>2026-03-24T09:42:22.948Z</time></trkpt><trkpt lat="44.3634137" lon="8.3242711"><ele>362.0</ele><time>2026-03-24T09:42:24.948Z</time></trkpt><trkpt lat="44.3634917" lon="8.3243632"><ele>362.0</ele><time>2026-03-24T09:42:26.947Z</time></trkpt><trkpt lat="44.3635636" lon="8.3244468"><ele>362.0</ele><time>2026-03-24T09:42:28.948Z</time></trkpt><trkpt lat="44.3636246" lon="8.3245163"><ele>362.0</ele><time>2026-03-24T09:42:30.948Z</time></trkpt><trkpt lat="44.3637085" lon="8.3245719"><ele>362.0</ele><time>2026-03-24T09:42:32.947Z</time></trkpt><trkpt lat="44.3637835" lon="8.3246396"><ele>362.0</ele><time>2026-03-24T09:42:34.948Z</time></trkpt><trkpt lat="44.3638566" lon="8.3247123"><ele>362.0</ele><time>2026-03-24T09:42:36.948Z</time></trkpt><trkpt lat="44.3639242" lon="8.324787"><ele>362.0</ele><time>2026-03-24T09:42:38.948Z</time></trkpt><trkpt lat="44.3639904" lon="8.324864"><ele>362.0</ele><time>2026-03-24T09:42:40.948Z</time></trkpt><trkpt lat="44.3640656" lon="8.324938"><ele>362.0</ele><time>2026-03-24T09:42:42.948Z</time></trkpt><trkpt lat="44.3641397" lon="8.3249989"><ele>362.1666666666667</ele><time>2026-03-24T09:42:44.947Z</time></trkpt><trkpt lat="44.3642041" lon="8.3250676"><ele>362.33333333333337</ele><time>2026-03-24T09:42:46.947Z</time></trkpt><trkpt lat="44.3642633" lon="8.3251186"><ele>362.5</ele><time>2026-03-24T09:42:48.947Z</time></trkpt><trkpt lat="44.3643325" lon="8.3251717"><ele>362.6666666666667</ele><time>2026-03-24T09:42:50.948Z</time></trkpt><trkpt lat="44.3644133" lon="8.3252296"><ele>362.8333333333333</ele><time>2026-03-24T09:42:52.948Z</time></trkpt><trkpt lat="44.3644924" lon="8.3252687"><ele>363.0</ele><time>2026-03-24T09:42:54.948Z</time></trkpt><trkpt lat="44.3645742" lon="8.3252905"><ele>363.0</ele><time>2026-03-24T09:42:56.948Z</time></trkpt><trkpt lat="44.3646534" lon="8.325311"><ele>363.0</ele><time>2026-03-24T09:42:58.948Z</time></trkpt><trkpt lat="44.3647263" lon="8.3253667"><ele>363.0</ele><time>2026-03-24T09:43:00.947Z</time></trkpt><trkpt lat="44.3647951" lon="8.3254197"><ele>363.0</ele><time>2026-03-24T09:43:02.948Z</time></trkpt><trkpt lat="44.3648716" lon="8.3254701"><ele>363.0</ele><time>2026-03-24T09:43:04.948Z</time></trkpt><trkpt lat="44.3649527" lon="8.3255197"><ele>363.0</ele><time>2026-03-24T09:43:06.948Z</time></trkpt><trkpt lat="44.3650293" lon="8.3255709"><ele>363.3333333333333</ele><time>2026-03-24T09:43:08.948Z</time></trkpt><trkpt lat="44.3650987" lon="8.3256099"><ele>363.6666666666667</ele><time>2026-03-24T09:43:10.948Z</time></trkpt><trkpt lat="44.3651759" lon="8.325669"><ele>364.0</ele><time>2026-03-24T09:43:12.947Z</time></trkpt><trkpt lat="44.3652537" lon="8.325716"><ele>364.33333333333337</ele><time>2026-03-24T09:43:14.947Z</time></trkpt><trkpt lat="44.3653356" lon="8.3257535"><ele>364.6666666666667</ele><time>2026-03-24T09:43:16.948Z</time></trkpt><trkpt lat="44.3654027" lon="8.3257849"><ele>365.0</ele><time>2026-03-24T09:43:18.947Z</time></trkpt><trkpt lat="44.3654823" lon="8.3258273"><ele>365.5</ele><time>2026-03-24T09:43:21.948Z</time></trkpt><trkpt lat="44.3655594" lon="8.3258799"><ele>366.0</ele><time>2026-03-24T09:43:24.947Z</time></trkpt><trkpt lat="44.3656244" lon="8.3259336"><ele>366.5</ele><time>2026-03-24T09:43:27.947Z</time></trkpt><trkpt lat="44.3657121" lon="8.325974"><ele>367.0</ele><time>2026-03-24T09:43:30.947Z</time></trkpt><trkpt lat="44.3657867" lon="8.3259517"><ele>367.5</ele><time>2026-03-24T09:43:32.948Z</time></trkpt><trkpt lat="44.3658535" lon="8.3258728"><ele>368.0</ele><time>2026-03-24T09:43:34.948Z</time></trkpt><trkpt lat="44.3659228" lon="8.3257843"><ele>368.0</ele><time>2026-03-24T09:43:36.948Z</time></trkpt><trkpt lat="44.3660007" lon="8.3257088"><ele>368.0</ele><time>2026-03-24T09:43:38.947Z</time></trkpt><trkpt lat="44.3660824" lon="8.3256394"><ele>368.0</ele><time>2026-03-24T09:43:40.947Z</time></trkpt><trkpt lat="44.3661648" lon="8.3255806"><ele>368.0</ele><time>2026-03-24T09:43:42.948Z</time></trkpt><trkpt lat="44.3662417" lon="8.3255188"><ele>368.0</ele><time>2026-03-24T09:43:44.948Z</time></trkpt><trkpt lat="44.3663229" lon="8.3254777"><ele>367.0</ele><time>2026-03-24T09:43:46.948Z</time></trkpt><trkpt lat="44.3664107" lon="8.3254337"><ele>366.0</ele><time>2026-03-24T09:43:48.948Z</time></trkpt><trkpt lat="44.3664926" lon="8.3253967"><ele>365.0</ele><time>2026-03-24T09:43:50.948Z</time></trkpt><trkpt lat="44.3665776" lon="8.3253417"><ele>364.0</ele><time>2026-03-24T09:43:52.947Z</time></trkpt><trkpt lat="44.3666641" lon="8.3252961"><ele>363.0</ele><time>2026-03-24T09:43:54.948Z</time></trkpt><trkpt lat="44.3667456" lon="8.3252397"><ele>363.0</ele><time>2026-03-24T09:43:56.948Z</time></trkpt><trkpt lat="44.3668354" lon="8.3251855"><ele>363.0</ele><time>2026-03-24T09:43:58.948Z</time></trkpt><trkpt lat="44.3669221" lon="8.325133"><ele>363.0</ele><time>2026-03-24T09:44:00.948Z</time></trkpt><trkpt lat="44.367012" lon="8.32509"><ele>363.0</ele><time>2026-03-24T09:44:02.947Z</time></trkpt><trkpt lat="44.3670995" lon="8.3250604"><ele>363.0</ele><time>2026-03-24T09:44:04.948Z</time></trkpt><trkpt lat="44.3671942" lon="8.3250269"><ele>363.59999999999997</ele><time>2026-03-24T09:44:06.947Z</time></trkpt><trkpt lat="44.3672929" lon="8.3250033"><ele>364.2</ele><time>2026-03-24T09:44:08.947Z</time></trkpt><trkpt lat="44.3673902" lon="8.324982"><ele>364.8</ele><time>2026-03-24T09:44:10.948Z</time></trkpt><trkpt lat="44.3674885" lon="8.3249654"><ele>365.4</ele><time>2026-03-24T09:44:12.948Z</time></trkpt><trkpt lat="44.367587" lon="8.3249442"><ele>366.0</ele><time>2026-03-24T09:44:14.947Z</time></trkpt><trkpt lat="44.3676839" lon="8.3249281"><ele>366.0</ele><time>2026-03-24T09:44:16.948Z</time></trkpt><trkpt lat="44.3677892" lon="8.3249143"><ele>366.0</ele><time>2026-03-24T09:44:18.948Z</time></trkpt><trkpt lat="44.3678889" lon="8.3248916"><ele>366.0</ele><time>2026-03-24T09:44:20.948Z</time></trkpt><trkpt lat="44.3679868" lon="8.3248818"><ele>366.0</ele><time>2026-03-24T09:44:22.947Z</time></trkpt><trkpt lat="44.3681035" lon="8.3248655"><ele>366.0</ele><time>2026-03-24T09:44:24.948Z</time></trkpt><trkpt lat="44.3681971" lon="8.3248553"><ele>366.20000000000005</ele><time>2026-03-24T09:44:26.947Z</time></trkpt><trkpt lat="44.3682967" lon="8.3248393"><ele>366.40000000000003</ele><time>2026-03-24T09:44:28.948Z</time></trkpt><trkpt lat="44.3683984" lon="8.3248282"><ele>366.6</ele><time>2026-03-24T09:44:30.948Z</time></trkpt><trkpt lat="44.3684955" lon="8.3248114"><ele>366.8</ele><time>2026-03-24T09:44:32.948Z</time></trkpt><trkpt lat="44.3685905" lon="8.3247992"><ele>367.0</ele><time>2026-03-24T09:44:34.947Z</time></trkpt><trkpt lat="44.3686931" lon="8.3247857"><ele>367.0</ele><time>2026-03-24T09:44:36.947Z</time></trkpt><trkpt lat="44.3687862" lon="8.3247632"><ele>367.0</ele><time>2026-03-24T09:44:38.948Z</time></trkpt><trkpt lat="44.3688832" lon="8.3247409"><ele>367.0</ele><time>2026-03-24T09:44:40.946Z</time></trkpt><trkpt lat="44.3689738" lon="8.3247297"><ele>367.0</ele><time>2026-03-24T09:44:42.948Z</time></trkpt><trkpt lat="44.3690633" lon="8.3247115"><ele>367.0</ele><time>2026-03-24T09:44:44.947Z</time></trkpt><trkpt lat="44.3691517" lon="8.3246795"><ele>365.66666666666663</ele><time>2026-03-24T09:44:46.948Z</time></trkpt><trkpt lat="44.3692371" lon="8.3246545"><ele>364.3333333333333</ele><time>2026-03-24T09:44:48.948Z</time></trkpt><trkpt lat="44.3693164" lon="8.324625"><ele>363.0</ele><time>2026-03-24T09:44:50.948Z</time></trkpt><trkpt lat="44.3693955" lon="8.3245877"><ele>361.6666666666667</ele><time>2026-03-24T09:44:52.948Z</time></trkpt><trkpt lat="44.3694701" lon="8.3245373"><ele>360.33333333333337</ele><time>2026-03-24T09:44:54.948Z</time></trkpt><trkpt lat="44.3695396" lon="8.3244804"><ele>359.0</ele><time>2026-03-24T09:44:56.948Z</time></trkpt><trkpt lat="44.3696069" lon="8.3244157"><ele>359.0</ele><time>2026-03-24T09:44:58.948Z</time></trkpt><trkpt lat="44.3696705" lon="8.3243378"><ele>359.0</ele><time>2026-03-24T09:45:00.947Z</time></trkpt><trkpt lat="44.3697252" lon="8.3242497"><ele>359.0</ele><time>2026-03-24T09:45:02.948Z</time></trkpt><trkpt lat="44.3697779" lon="8.3241531"><ele>359.0</ele><time>2026-03-24T09:45:04.946Z</time></trkpt><trkpt lat="44.3698222" lon="8.3240545"><ele>359.0</ele><time>2026-03-24T09:45:06.947Z</time></trkpt><trkpt lat="44.3698638" lon="8.3239501"><ele>359.0</ele><time>2026-03-24T09:45:08.948Z</time></trkpt><trkpt lat="44.3698966" lon="8.3238375"><ele>360.1666666666667</ele><time>2026-03-24T09:45:10.947Z</time></trkpt><trkpt lat="44.3699256" lon="8.3237236"><ele>361.33333333333337</ele><time>2026-03-24T09:45:12.947Z</time></trkpt><trkpt lat="44.369959" lon="8.3236125"><ele>362.5</ele><time>2026-03-24T09:45:14.948Z</time></trkpt><trkpt lat="44.3699881" lon="8.3235001"><ele>363.6666666666667</ele><time>2026-03-24T09:45:16.948Z</time></trkpt><trkpt lat="44.370013" lon="8.3233873"><ele>364.8333333333333</ele><time>2026-03-24T09:45:18.948Z</time></trkpt><trkpt lat="44.3700394" lon="8.3232758"><ele>366.0</ele><time>2026-03-24T09:45:20.948Z</time></trkpt><trkpt lat="44.3700688" lon="8.323166"><ele>365.0</ele><time>2026-03-24T09:45:22.948Z</time></trkpt><trkpt lat="44.3700969" lon="8.3230565"><ele>364.0</ele><time>2026-03-24T09:45:24.948Z</time></trkpt><trkpt lat="44.3701273" lon="8.3229416"><ele>363.0</ele><time>2026-03-24T09:45:26.948Z</time></trkpt><trkpt lat="44.3701543" lon="8.3228253"><ele>362.0</ele><time>2026-03-24T09:45:28.948Z</time></trkpt><trkpt lat="44.3701829" lon="8.322708"><ele>361.0</ele><time>2026-03-24T09:45:30.947Z</time></trkpt><trkpt lat="44.3702231" lon="8.3226062"><ele>360.0</ele><time>2026-03-24T09:45:32.948Z</time></trkpt><trkpt lat="44.3702831" lon="8.3225099"><ele>360.0</ele><time>2026-03-24T09:45:34.948Z</time></trkpt><trkpt lat="44.370347" lon="8.3224187"><ele>360.0</ele><time>2026-03-24T09:45:36.947Z</time></trkpt><trkpt lat="44.3704275" lon="8.3223404"><ele>360.0</ele><time>2026-03-24T09:45:38.948Z</time></trkpt><trkpt lat="44.3705026" lon="8.3222815"><ele>360.0</ele><time>2026-03-24T09:45:40.948Z</time></trkpt><trkpt lat="44.3705822" lon="8.3222429"><ele>360.0</ele><time>2026-03-24T09:45:42.945Z</time></trkpt><trkpt lat="44.370679" lon="8.322231"><ele>361.6666666666667</ele><time>2026-03-24T09:45:44.948Z</time></trkpt><trkpt lat="44.3707686" lon="8.3222317"><ele>363.3333333333333</ele><time>2026-03-24T09:45:46.947Z</time></trkpt><trkpt lat="44.3708578" lon="8.3222514"><ele>365.0</ele><time>2026-03-24T09:45:48.947Z</time></trkpt><trkpt lat="44.3709423" lon="8.3222749"><ele>366.66666666666663</ele><time>2026-03-24T09:45:50.947Z</time></trkpt><trkpt lat="44.371027" lon="8.3222934"><ele>368.3333333333333</ele><time>2026-03-24T09:45:52.947Z</time></trkpt><trkpt lat="44.3711135" lon="8.3223163"><ele>370.0</ele><time>2026-03-24T09:45:54.948Z</time></trkpt><trkpt lat="44.3712002" lon="8.3223451"><ele>370.0</ele><time>2026-03-24T09:45:56.947Z</time></trkpt><trkpt lat="44.3712908" lon="8.3223649"><ele>370.0</ele><time>2026-03-24T09:45:58.948Z</time></trkpt><trkpt lat="44.371378" lon="8.3223617"><ele>370.0</ele><time>2026-03-24T09:46:00.948Z</time></trkpt><trkpt lat="44.3714643" lon="8.3223391"><ele>370.0</ele><time>2026-03-24T09:46:02.945Z</time></trkpt><trkpt lat="44.3715447" lon="8.322303"><ele>370.0</ele><time>2026-03-24T09:46:04.947Z</time></trkpt><trkpt lat="44.371618" lon="8.3222541"><ele>370.0</ele><time>2026-03-24T09:46:06.946Z</time></trkpt><trkpt lat="44.3716897" lon="8.3221984"><ele>369.3333333333333</ele><time>2026-03-24T09:46:08.947Z</time></trkpt><trkpt lat="44.3717591" lon="8.3221329"><ele>368.66666666666663</ele><time>2026-03-24T09:46:10.946Z</time></trkpt><trkpt lat="44.3718216" lon="8.322055"><ele>368.0</ele><time>2026-03-24T09:46:12.948Z</time></trkpt><trkpt lat="44.3718805" lon="8.321973"><ele>367.3333333333333</ele><time>2026-03-24T09:46:14.948Z</time></trkpt><trkpt lat="44.3719357" lon="8.3218834"><ele>366.6666666666667</ele><time>2026-03-24T09:46:16.948Z</time></trkpt><trkpt lat="44.3719934" lon="8.3217983"><ele>366.0</ele><time>2026-03-24T09:46:18.947Z</time></trkpt><trkpt lat="44.3720502" lon="8.3217096"><ele>366.0</ele><time>2026-03-24T09:46:20.947Z</time></trkpt><trkpt lat="44.3721092" lon="8.3216213"><ele>366.0</ele><time>2026-03-24T09:46:22.947Z</time></trkpt><trkpt lat="44.372161" lon="8.3215294"><ele>366.0</ele><time>2026-03-24T09:46:24.948Z</time></trkpt><trkpt lat="44.3722138" lon="8.3214357"><ele>366.0</ele><time>2026-03-24T09:46:26.948Z</time></trkpt><trkpt lat="44.3722696" lon="8.3213409"><ele>366.0</ele><time>2026-03-24T09:46:28.947Z</time></trkpt><trkpt lat="44.3723258" lon="8.3212444"><ele>366.0</ele><time>2026-03-24T09:46:30.948Z</time></trkpt><trkpt lat="44.3723741" lon="8.3211446"><ele>366.6</ele><time>2026-03-24T09:46:32.948Z</time></trkpt><trkpt lat="44.3724227" lon="8.321026"><ele>367.20000000000005</ele><time>2026-03-24T09:46:34.948Z</time></trkpt><trkpt lat="44.3724663" lon="8.3209098"><ele>367.79999999999995</ele><time>2026-03-24T09:46:36.947Z</time></trkpt><trkpt lat="44.3725017" lon="8.32079"><ele>368.4</ele><time>2026-03-24T09:46:38.947Z</time></trkpt><trkpt lat="44.3725206" lon="8.3206584"><ele>369.0</ele><time>2026-03-24T09:46:40.947Z</time></trkpt><trkpt lat="44.3725468" lon="8.3205424"><ele>369.0</ele><time>2026-03-24T09:46:42.947Z</time></trkpt><trkpt lat="44.3725704" lon="8.3204139"><ele>369.0</ele><time>2026-03-24T09:46:44.948Z</time></trkpt><trkpt lat="44.3725911" lon="8.3202896"><ele>369.0</ele><time>2026-03-24T09:46:46.948Z</time></trkpt><trkpt lat="44.3726076" lon="8.3201633"><ele>369.0</ele><time>2026-03-24T09:46:48.948Z</time></trkpt><trkpt lat="44.3726328" lon="8.3200321"><ele>369.0</ele><time>2026-03-24T09:46:50.948Z</time></trkpt><trkpt lat="44.3726461" lon="8.3199069"><ele>369.0</ele><time>2026-03-24T09:46:52.948Z</time></trkpt><trkpt lat="44.3726699" lon="8.3197678"><ele>369.0</ele><time>2026-03-24T09:46:54.947Z</time></trkpt><trkpt lat="44.3726854" lon="8.3196183"><ele>369.0</ele><time>2026-03-24T09:46:56.947Z</time></trkpt><trkpt lat="44.3727013" lon="8.3194808"><ele>369.0</ele><time>2026-03-24T09:46:58.948Z</time></trkpt><trkpt lat="44.3726988" lon="8.3193301"><ele>369.0</ele><time>2026-03-24T09:47:00.948Z</time></trkpt><trkpt lat="44.3726867" lon="8.3191815"><ele>368.6</ele><time>2026-03-24T09:47:02.948Z</time></trkpt><trkpt lat="44.3726726" lon="8.3190948"><ele>368.2</ele><time>2026-03-24T09:47:03.947Z</time></trkpt><trkpt lat="44.372653" lon="8.3189325"><ele>367.8</ele><time>2026-03-24T09:47:05.948Z</time></trkpt><trkpt lat="44.3726343" lon="8.3187626"><ele>367.40000000000003</ele><time>2026-03-24T09:47:07.947Z</time></trkpt><trkpt lat="44.3726162" lon="8.3185924"><ele>367.0</ele><time>2026-03-24T09:47:09.947Z</time></trkpt><trkpt lat="44.3726022" lon="8.3185057"><ele>367.0</ele><time>2026-03-24T09:47:10.948Z</time></trkpt><trkpt lat="44.3725773" lon="8.3183318"><ele>367.0</ele><time>2026-03-24T09:47:12.948Z</time></trkpt><trkpt lat="44.3725628" lon="8.3182408"><ele>367.0</ele><time>2026-03-24T09:47:13.948Z</time></trkpt><trkpt lat="44.3725544" lon="8.3181517"><ele>367.0</ele><time>2026-03-24T09:47:14.948Z</time></trkpt><trkpt lat="44.3725449" lon="8.3180572"><ele>367.0</ele><time>2026-03-24T09:47:15.947Z</time></trkpt><trkpt lat="44.3725382" lon="8.317961"><ele>367.0</ele><time>2026-03-24T09:47:16.948Z</time></trkpt><trkpt lat="44.372541" lon="8.3178565"><ele>366.66666666666663</ele><time>2026-03-24T09:47:17.948Z</time></trkpt><trkpt lat="44.3725438" lon="8.3177532"><ele>366.3333333333333</ele><time>2026-03-24T09:47:18.947Z</time></trkpt><trkpt lat="44.3725522" lon="8.3176514"><ele>366.0</ele><time>2026-03-24T09:47:19.947Z</time></trkpt><trkpt lat="44.3725621" lon="8.3175479"><ele>365.6666666666667</ele><time>2026-03-24T09:47:20.946Z</time></trkpt><trkpt lat="44.3725793" lon="8.3174456"><ele>365.33333333333337</ele><time>2026-03-24T09:47:21.948Z</time></trkpt><trkpt lat="44.3726038" lon="8.3173416"><ele>365.0</ele><time>2026-03-24T09:47:22.947Z</time></trkpt><trkpt lat="44.3726276" lon="8.3172405"><ele>364.33333333333337</ele><time>2026-03-24T09:47:23.948Z</time></trkpt><trkpt lat="44.3726592" lon="8.3171393"><ele>363.6666666666667</ele><time>2026-03-24T09:47:24.946Z</time></trkpt><trkpt lat="44.372696" lon="8.3170362"><ele>363.0</ele><time>2026-03-24T09:47:25.947Z</time></trkpt><trkpt lat="44.3727323" lon="8.31693"><ele>362.3333333333333</ele><time>2026-03-24T09:47:26.948Z</time></trkpt><trkpt lat="44.3727769" lon="8.3168224"><ele>361.66666666666663</ele><time>2026-03-24T09:47:27.948Z</time></trkpt><trkpt lat="44.3728178" lon="8.3167202"><ele>361.0</ele><time>2026-03-24T09:47:28.948Z</time></trkpt><trkpt lat="44.3728573" lon="8.3166216"><ele>361.0</ele><time>2026-03-24T09:47:29.948Z</time></trkpt><trkpt lat="44.3728989" lon="8.3165193"><ele>361.0</ele><time>2026-03-24T09:47:30.948Z</time></trkpt><trkpt lat="44.3729356" lon="8.3164156"><ele>361.0</ele><time>2026-03-24T09:47:31.948Z</time></trkpt><trkpt lat="44.3729684" lon="8.3163088"><ele>361.0</ele><time>2026-03-24T09:47:32.948Z</time></trkpt><trkpt lat="44.3730015" lon="8.3162087"><ele>361.0</ele><time>2026-03-24T09:47:33.948Z</time></trkpt><trkpt lat="44.3730396" lon="8.316106"><ele>361.0</ele><time>2026-03-24T09:47:34.948Z</time></trkpt><trkpt lat="44.373078" lon="8.3160039"><ele>361.3333333333333</ele><time>2026-03-24T09:47:35.948Z</time></trkpt><trkpt lat="44.3731134" lon="8.3159016"><ele>361.66666666666663</ele><time>2026-03-24T09:47:36.947Z</time></trkpt><trkpt lat="44.373155" lon="8.3158022"><ele>362.0</ele><time>2026-03-24T09:47:37.947Z</time></trkpt><trkpt lat="44.3731904" lon="8.3156999"><ele>362.3333333333333</ele><time>2026-03-24T09:47:38.947Z</time></trkpt><trkpt lat="44.3732254" lon="8.3155933"><ele>362.6666666666667</ele><time>2026-03-24T09:47:39.948Z</time></trkpt><trkpt lat="44.3732619" lon="8.315482"><ele>363.0</ele><time>2026-03-24T09:47:40.948Z</time></trkpt><trkpt lat="44.3733004" lon="8.3153711"><ele>363.0</ele><time>2026-03-24T09:47:41.946Z</time></trkpt><trkpt lat="44.3733407" lon="8.3152622"><ele>363.0</ele><time>2026-03-24T09:47:42.948Z</time></trkpt><trkpt lat="44.3733775" lon="8.3151523"><ele>363.0</ele><time>2026-03-24T09:47:43.948Z</time></trkpt><trkpt lat="44.3734172" lon="8.3150439"><ele>363.0</ele><time>2026-03-24T09:47:44.947Z</time></trkpt><trkpt lat="44.3734578" lon="8.3149297"><ele>363.0</ele><time>2026-03-24T09:47:45.948Z</time></trkpt><trkpt lat="44.3735033" lon="8.3148209"><ele>363.0</ele><time>2026-03-24T09:47:46.947Z</time></trkpt><trkpt lat="44.3735426" lon="8.314715"><ele>361.8333333333333</ele><time>2026-03-24T09:47:47.948Z</time></trkpt><trkpt lat="44.3735802" lon="8.3146124"><ele>360.6666666666667</ele><time>2026-03-24T09:47:48.947Z</time></trkpt><trkpt lat="44.3736157" lon="8.3145091"><ele>359.5</ele><time>2026-03-24T09:47:49.947Z</time></trkpt><trkpt lat="44.3736525" lon="8.3144125"><ele>358.33333333333337</ele><time>2026-03-24T09:47:50.948Z</time></trkpt><trkpt lat="44.3736918" lon="8.3143163"><ele>357.1666666666667</ele><time>2026-03-24T09:47:51.948Z</time></trkpt><trkpt lat="44.3737262" lon="8.314223"><ele>356.0</ele><time>2026-03-24T09:47:52.948Z</time></trkpt><trkpt lat="44.3737572" lon="8.3141291"><ele>355.99999999999994</ele><time>2026-03-24T09:47:53.946Z</time></trkpt><trkpt lat="44.373786" lon="8.3140438"><ele>356.0</ele><time>2026-03-24T09:47:54.948Z</time></trkpt><trkpt lat="44.3738128" lon="8.3139577"><ele>356.0</ele><time>2026-03-24T09:47:55.948Z</time></trkpt><trkpt lat="44.3738408" lon="8.3138749"><ele>356.0</ele><time>2026-03-24T09:47:56.946Z</time></trkpt><trkpt lat="44.3738758" lon="8.3137899"><ele>356.0</ele><time>2026-03-24T09:47:57.947Z</time></trkpt><trkpt lat="44.3739096" lon="8.3137072"><ele>355.99999999999994</ele><time>2026-03-24T09:47:58.948Z</time></trkpt><trkpt lat="44.3739401" lon="8.3136258"><ele>356.0</ele><time>2026-03-24T09:47:59.948Z</time></trkpt><trkpt lat="44.373972" lon="8.3135444"><ele>355.0</ele><time>2026-03-24T09:48:00.948Z</time></trkpt><trkpt lat="44.3740029" lon="8.3134588"><ele>354.0</ele><time>2026-03-24T09:48:01.947Z</time></trkpt><trkpt lat="44.3740332" lon="8.3133719"><ele>353.0</ele><time>2026-03-24T09:48:02.947Z</time></trkpt><trkpt lat="44.374089" lon="8.3132176"><ele>352.0</ele><time>2026-03-24T09:48:04.948Z</time></trkpt><trkpt lat="44.3741425" lon="8.3130687"><ele>351.0</ele><time>2026-03-24T09:48:06.948Z</time></trkpt><trkpt lat="44.3742006" lon="8.3129412"><ele>351.0</ele><time>2026-03-24T09:48:08.947Z</time></trkpt><trkpt lat="44.3742486" lon="8.3128168"><ele>351.0</ele><time>2026-03-24T09:48:10.948Z</time></trkpt><trkpt lat="44.3742986" lon="8.312682"><ele>351.0</ele><time>2026-03-24T09:48:12.947Z</time></trkpt><trkpt lat="44.3743373" lon="8.3125503"><ele>351.0</ele><time>2026-03-24T09:48:14.948Z</time></trkpt><trkpt lat="44.3743829" lon="8.3124178"><ele>351.0</ele><time>2026-03-24T09:48:16.947Z</time></trkpt><trkpt lat="44.3744371" lon="8.312293"><ele>351.0</ele><time>2026-03-24T09:48:18.948Z</time></trkpt><trkpt lat="44.3744833" lon="8.3121685"><ele>351.0</ele><time>2026-03-24T09:48:20.948Z</time></trkpt><trkpt lat="44.3745217" lon="8.3120354"><ele>351.0</ele><time>2026-03-24T09:48:22.947Z</time></trkpt><trkpt lat="44.3745606" lon="8.311906"><ele>351.0</ele><time>2026-03-24T09:48:24.947Z</time></trkpt><trkpt lat="44.3745936" lon="8.3117732"><ele>351.0</ele><time>2026-03-24T09:48:26.948Z</time></trkpt><trkpt lat="44.3746313" lon="8.3116496"><ele>351.0</ele><time>2026-03-24T09:48:28.947Z</time></trkpt><trkpt lat="44.3746612" lon="8.3115269"><ele>351.0</ele><time>2026-03-24T09:48:30.948Z</time></trkpt><trkpt lat="44.3746818" lon="8.3114047"><ele>351.0</ele><time>2026-03-24T09:48:32.947Z</time></trkpt><trkpt lat="44.3747128" lon="8.3112894"><ele>351.0</ele><time>2026-03-24T09:48:34.948Z</time></trkpt><trkpt lat="44.3747412" lon="8.3111749"><ele>351.0</ele><time>2026-03-24T09:48:36.948Z</time></trkpt><trkpt lat="44.3747651" lon="8.311056"><ele>351.0</ele><time>2026-03-24T09:48:38.948Z</time></trkpt><trkpt lat="44.3747983" lon="8.3109341"><ele>351.8</ele><time>2026-03-24T09:48:40.947Z</time></trkpt><trkpt lat="44.3748178" lon="8.3108238"><ele>352.6</ele><time>2026-03-24T09:48:42.947Z</time></trkpt><trkpt lat="44.3748404" lon="8.3107064"><ele>353.4</ele><time>2026-03-24T09:48:44.948Z</time></trkpt><trkpt lat="44.3748515" lon="8.3105795"><ele>354.2</ele><time>2026-03-24T09:48:46.947Z</time></trkpt><trkpt lat="44.3748504" lon="8.3104481"><ele>355.0</ele><time>2026-03-24T09:48:48.947Z</time></trkpt><trkpt lat="44.3748505" lon="8.3103083"><ele>356.0</ele><time>2026-03-24T09:48:50.948Z</time></trkpt><trkpt lat="44.3748521" lon="8.3101709"><ele>357.0</ele><time>2026-03-24T09:48:52.947Z</time></trkpt><trkpt lat="44.3748547" lon="8.310014"><ele>358.0</ele><time>2026-03-24T09:48:54.948Z</time></trkpt><trkpt lat="44.3748603" lon="8.3098654"><ele>359.0</ele><time>2026-03-24T09:48:56.948Z</time></trkpt><trkpt lat="44.3748649" lon="8.309728"><ele>360.0</ele><time>2026-03-24T09:48:58.948Z</time></trkpt><trkpt lat="44.3748583" lon="8.3095846"><ele>360.0</ele><time>2026-03-24T09:49:00.947Z</time></trkpt><trkpt lat="44.3748643" lon="8.3094429"><ele>360.0</ele><time>2026-03-24T09:49:02.947Z</time></trkpt><trkpt lat="44.3748675" lon="8.3093034"><ele>360.0</ele><time>2026-03-24T09:49:04.946Z</time></trkpt><trkpt lat="44.3748669" lon="8.3091787"><ele>360.0</ele><time>2026-03-24T09:49:06.948Z</time></trkpt><trkpt lat="44.3748681" lon="8.3090525"><ele>360.0</ele><time>2026-03-24T09:49:08.947Z</time></trkpt><trkpt lat="44.3748672" lon="8.3089273"><ele>359.0</ele><time>2026-03-24T09:49:10.947Z</time></trkpt><trkpt lat="44.3748786" lon="8.3088058"><ele>358.0</ele><time>2026-03-24T09:49:12.948Z</time></trkpt><trkpt lat="44.3748687" lon="8.3087053"><ele>357.0</ele><time>2026-03-24T09:49:15.203Z</time></trkpt><trkpt lat="44.3748725" lon="8.3085816"><ele>356.0</ele><time>2026-03-24T09:49:16.948Z</time></trkpt><trkpt lat="44.3748733" lon="8.3084739"><ele>355.0</ele><time>2026-03-24T09:49:18.948Z</time></trkpt><trkpt lat="44.3748815" lon="8.3083599"><ele>354.0</ele><time>2026-03-24T09:49:20.948Z</time></trkpt><trkpt lat="44.3749005" lon="8.3082453"><ele>354.0</ele><time>2026-03-24T09:49:22.948Z</time></trkpt><trkpt lat="44.3749183" lon="8.3081329"><ele>354.0</ele><time>2026-03-24T09:49:24.948Z</time></trkpt><trkpt lat="44.3749404" lon="8.3080225"><ele>354.0</ele><time>2026-03-24T09:49:26.948Z</time></trkpt><trkpt lat="44.3749687" lon="8.3079138"><ele>354.0</ele><time>2026-03-24T09:49:28.948Z</time></trkpt><trkpt lat="44.3749939" lon="8.3078084"><ele>354.0</ele><time>2026-03-24T09:49:30.948Z</time></trkpt><trkpt lat="44.3750172" lon="8.3077083"><ele>354.0</ele><time>2026-03-24T09:49:32.948Z</time></trkpt><trkpt lat="44.3750351" lon="8.3076067"><ele>353.5</ele><time>2026-03-24T09:49:34.948Z</time></trkpt><trkpt lat="44.375052" lon="8.307508"><ele>353.0</ele><time>2026-03-24T09:49:36.947Z</time></trkpt><trkpt lat="44.3750715" lon="8.3074092"><ele>352.5</ele><time>2026-03-24T09:49:38.947Z</time></trkpt><trkpt lat="44.3750808" lon="8.307304"><ele>352.0</ele><time>2026-03-24T09:49:40.948Z</time></trkpt><trkpt lat="44.3750836" lon="8.3071921"><ele>351.5</ele><time>2026-03-24T09:49:42.947Z</time></trkpt><trkpt lat="44.3750828" lon="8.30708"><ele>351.0</ele><time>2026-03-24T09:49:44.948Z</time></trkpt><trkpt lat="44.3750796" lon="8.3069674"><ele>350.8333333333333</ele><time>2026-03-24T09:49:46.947Z</time></trkpt><trkpt lat="44.3750639" lon="8.306857"><ele>350.6666666666667</ele><time>2026-03-24T09:49:48.946Z</time></trkpt><trkpt lat="44.3750535" lon="8.3067541"><ele>350.5</ele><time>2026-03-24T09:49:50.948Z</time></trkpt><trkpt lat="44.3750303" lon="8.3066326"><ele>350.33333333333337</ele><time>2026-03-24T09:49:52.948Z</time></trkpt><trkpt lat="44.3750244" lon="8.3065045"><ele>350.1666666666667</ele><time>2026-03-24T09:49:54.946Z</time></trkpt><trkpt lat="44.3750058" lon="8.3063789"><ele>350.0</ele><time>2026-03-24T09:49:56.948Z</time></trkpt><trkpt lat="44.3749832" lon="8.3062427"><ele>349.6</ele><time>2026-03-24T09:49:58.947Z</time></trkpt><trkpt lat="44.374977" lon="8.3061246"><ele>349.2</ele><time>2026-03-24T09:50:00.948Z</time></trkpt><trkpt lat="44.3749729" lon="8.3059827"><ele>348.79999999999995</ele><time>2026-03-24T09:50:02.948Z</time></trkpt><trkpt lat="44.3749717" lon="8.3058421"><ele>348.4</ele><time>2026-03-24T09:50:04.947Z</time></trkpt><trkpt lat="44.3749799" lon="8.305704"><ele>348.0</ele><time>2026-03-24T09:50:06.948Z</time></trkpt><trkpt lat="44.3749886" lon="8.3055642"><ele>347.79999999999995</ele><time>2026-03-24T09:50:08.948Z</time></trkpt><trkpt lat="44.3749881" lon="8.3054251"><ele>347.6</ele><time>2026-03-24T09:50:10.947Z</time></trkpt><trkpt lat="44.3749907" lon="8.3052843"><ele>347.4</ele><time>2026-03-24T09:50:12.948Z</time></trkpt><trkpt lat="44.3750008" lon="8.3051464"><ele>347.20000000000005</ele><time>2026-03-24T09:50:14.947Z</time></trkpt><trkpt lat="44.375011" lon="8.3050224"><ele>347.0</ele><time>2026-03-24T09:50:16.948Z</time></trkpt><trkpt lat="44.3750218" lon="8.3048881"><ele>347.0</ele><time>2026-03-24T09:50:18.947Z</time></trkpt><trkpt lat="44.3750358" lon="8.3047671"><ele>347.0</ele><time>2026-03-24T09:50:20.948Z</time></trkpt><trkpt lat="44.3750551" lon="8.304642"><ele>347.0</ele><time>2026-03-24T09:50:22.946Z</time></trkpt><trkpt lat="44.3750704" lon="8.3045176"><ele>347.0</ele><time>2026-03-24T09:50:24.946Z</time></trkpt><trkpt lat="44.3750864" lon="8.3044037"><ele>347.0</ele><time>2026-03-24T09:50:26.947Z</time></trkpt><trkpt lat="44.3751057" lon="8.3042758"><ele>347.0</ele><time>2026-03-24T09:50:28.948Z</time></trkpt><trkpt lat="44.3751143" lon="8.3041602"><ele>347.0</ele><time>2026-03-24T09:50:30.948Z</time></trkpt><trkpt lat="44.3751354" lon="8.3040482"><ele>347.0</ele><time>2026-03-24T09:50:32.948Z</time></trkpt><trkpt lat="44.3751543" lon="8.3039308"><ele>347.0</ele><time>2026-03-24T09:50:34.948Z</time></trkpt><trkpt lat="44.3751805" lon="8.3038153"><ele>347.0</ele><time>2026-03-24T09:50:36.948Z</time></trkpt><trkpt lat="44.3751982" lon="8.3036954"><ele>347.0</ele><time>2026-03-24T09:50:38.948Z</time></trkpt><trkpt lat="44.3752136" lon="8.3035753"><ele>347.0</ele><time>2026-03-24T09:50:40.948Z</time></trkpt><trkpt lat="44.3752337" lon="8.3034597"><ele>347.0</ele><time>2026-03-24T09:50:42.948Z</time></trkpt><trkpt lat="44.3752554" lon="8.303329"><ele>347.0</ele><time>2026-03-24T09:50:44.948Z</time></trkpt><trkpt lat="44.3752812" lon="8.3032011"><ele>347.0</ele><time>2026-03-24T09:50:46.948Z</time></trkpt><trkpt lat="44.3752977" lon="8.3030887"><ele>347.0</ele><time>2026-03-24T09:50:48.947Z</time></trkpt><trkpt lat="44.375315" lon="8.3029788"><ele>347.0</ele><time>2026-03-24T09:50:50.946Z</time></trkpt><trkpt lat="44.3753289" lon="8.3028706"><ele>347.0</ele><time>2026-03-24T09:50:52.947Z</time></trkpt><trkpt lat="44.3753475" lon="8.302761"><ele>347.0</ele><time>2026-03-24T09:50:54.948Z</time></trkpt><trkpt lat="44.3753653" lon="8.3026462"><ele>347.0</ele><time>2026-03-24T09:50:56.947Z</time></trkpt><trkpt lat="44.3753845" lon="8.3025292"><ele>347.0</ele><time>2026-03-24T09:50:58.947Z</time></trkpt><trkpt lat="44.3753965" lon="8.3024071"><ele>347.0</ele><time>2026-03-24T09:51:00.947Z</time></trkpt><trkpt lat="44.3754133" lon="8.3022873"><ele>347.0</ele><time>2026-03-24T09:51:02.948Z</time></trkpt><trkpt lat="44.3754319" lon="8.3021697"><ele>347.0</ele><time>2026-03-24T09:51:04.948Z</time></trkpt><trkpt lat="44.3754501" lon="8.3020497"><ele>347.0</ele><time>2026-03-24T09:51:06.947Z</time></trkpt><trkpt lat="44.3754684" lon="8.3019261"><ele>347.0</ele><time>2026-03-24T09:51:08.948Z</time></trkpt><trkpt lat="44.3754838" lon="8.3018022"><ele>347.0</ele><time>2026-03-24T09:51:10.948Z</time></trkpt><trkpt lat="44.3754931" lon="8.3016781"><ele>347.0</ele><time>2026-03-24T09:51:12.947Z</time></trkpt><trkpt lat="44.3755008" lon="8.3015505"><ele>347.0</ele><time>2026-03-24T09:51:14.948Z</time></trkpt><trkpt lat="44.3755097" lon="8.3014268"><ele>347.0</ele><time>2026-03-24T09:51:16.948Z</time></trkpt><trkpt lat="44.3755192" lon="8.3013036"><ele>347.0</ele><time>2026-03-24T09:51:18.948Z</time></trkpt><trkpt lat="44.3755238" lon="8.3011902"><ele>347.0</ele><time>2026-03-24T09:51:20.948Z</time></trkpt><trkpt lat="44.3755311" lon="8.3010741"><ele>347.0</ele><time>2026-03-24T09:51:22.948Z</time></trkpt><trkpt lat="44.375534" lon="8.3009586"><ele>347.0</ele><time>2026-03-24T09:51:24.947Z</time></trkpt><trkpt lat="44.375533" lon="8.3008381"><ele>347.0</ele><time>2026-03-24T09:51:26.948Z</time></trkpt><trkpt lat="44.3755326" lon="8.3007142"><ele>347.1666666666667</ele><time>2026-03-24T09:51:28.948Z</time></trkpt><trkpt lat="44.3755331" lon="8.3005893"><ele>347.33333333333337</ele><time>2026-03-24T09:51:30.948Z</time></trkpt><trkpt lat="44.3755279" lon="8.300462"><ele>347.5</ele><time>2026-03-24T09:51:32.948Z</time></trkpt><trkpt lat="44.375531" lon="8.3003421"><ele>347.6666666666667</ele><time>2026-03-24T09:51:34.948Z</time></trkpt><trkpt lat="44.3755307" lon="8.3002297"><ele>347.8333333333333</ele><time>2026-03-24T09:51:36.948Z</time></trkpt><trkpt lat="44.3755368" lon="8.3001172"><ele>348.0</ele><time>2026-03-24T09:51:38.947Z</time></trkpt><trkpt lat="44.3755444" lon="8.3000071"><ele>348.1666666666667</ele><time>2026-03-24T09:51:40.947Z</time></trkpt><trkpt lat="44.3755538" lon="8.2998962"><ele>348.3333333333333</ele><time>2026-03-24T09:51:42.947Z</time></trkpt><trkpt lat="44.375564" lon="8.2997851"><ele>348.5</ele><time>2026-03-24T09:51:44.948Z</time></trkpt><trkpt lat="44.3755734" lon="8.2996703"><ele>348.66666666666663</ele><time>2026-03-24T09:51:46.947Z</time></trkpt><trkpt lat="44.3755809" lon="8.2995543"><ele>348.8333333333333</ele><time>2026-03-24T09:51:48.947Z</time></trkpt><trkpt lat="44.3755893" lon="8.2994386"><ele>349.0</ele><time>2026-03-24T09:51:50.947Z</time></trkpt><trkpt lat="44.375593" lon="8.2993239"><ele>349.16666666666663</ele><time>2026-03-24T09:51:52.946Z</time></trkpt><trkpt lat="44.3755953" lon="8.299212"><ele>349.3333333333333</ele><time>2026-03-24T09:51:54.948Z</time></trkpt><trkpt lat="44.3756029" lon="8.2990997"><ele>349.5</ele><time>2026-03-24T09:51:56.946Z</time></trkpt><trkpt lat="44.375614" lon="8.2989912"><ele>349.6666666666667</ele><time>2026-03-24T09:51:58.948Z</time></trkpt><trkpt lat="44.3756235" lon="8.2988806"><ele>349.83333333333337</ele><time>2026-03-24T09:52:00.947Z</time></trkpt><trkpt lat="44.3756354" lon="8.2987752"><ele>350.0</ele><time>2026-03-24T09:52:02.946Z</time></trkpt><trkpt lat="44.375644" lon="8.2986694"><ele>350.0</ele><time>2026-03-24T09:52:04.946Z</time></trkpt><trkpt lat="44.3756526" lon="8.2985584"><ele>350.0</ele><time>2026-03-24T09:52:06.948Z</time></trkpt><trkpt lat="44.3756592" lon="8.2984419"><ele>350.0</ele><time>2026-03-24T09:52:08.948Z</time></trkpt><trkpt lat="44.3756678" lon="8.2983234"><ele>350.0</ele><time>2026-03-24T09:52:10.947Z</time></trkpt><trkpt lat="44.375671" lon="8.2982037"><ele>350.0</ele><time>2026-03-24T09:52:12.946Z</time></trkpt><trkpt lat="44.3756647" lon="8.2980847"><ele>350.0</ele><time>2026-03-24T09:52:14.947Z</time></trkpt><trkpt lat="44.3756565" lon="8.2979663"><ele>350.5</ele><time>2026-03-24T09:52:16.946Z</time></trkpt><trkpt lat="44.3756493" lon="8.2978466"><ele>351.0</ele><time>2026-03-24T09:52:18.947Z</time></trkpt><trkpt lat="44.3756342" lon="8.2977339"><ele>351.5</ele><time>2026-03-24T09:52:20.946Z</time></trkpt><trkpt lat="44.3756243" lon="8.2976219"><ele>352.0</ele><time>2026-03-24T09:52:22.948Z</time></trkpt><trkpt lat="44.3756135" lon="8.2975129"><ele>352.5</ele><time>2026-03-24T09:52:24.948Z</time></trkpt><trkpt lat="44.3756045" lon="8.2974079"><ele>353.0</ele><time>2026-03-24T09:52:26.947Z</time></trkpt><trkpt lat="44.3755967" lon="8.2972973"><ele>353.83333333333337</ele><time>2026-03-24T09:52:28.948Z</time></trkpt><trkpt lat="44.3755857" lon="8.2971894"><ele>354.6666666666667</ele><time>2026-03-24T09:52:30.947Z</time></trkpt><trkpt lat="44.3755799" lon="8.2970798"><ele>355.5</ele><time>2026-03-24T09:52:32.948Z</time></trkpt><trkpt lat="44.3755741" lon="8.2969729"><ele>356.3333333333333</ele><time>2026-03-24T09:52:34.947Z</time></trkpt><trkpt lat="44.37557" lon="8.296865"><ele>357.16666666666663</ele><time>2026-03-24T09:52:36.948Z</time></trkpt><trkpt lat="44.3755562" lon="8.2967605"><ele>358.0</ele><time>2026-03-24T09:52:38.946Z</time></trkpt><trkpt lat="44.3755378" lon="8.2966597"><ele>358.0</ele><time>2026-03-24T09:52:40.947Z</time></trkpt><trkpt lat="44.3755261" lon="8.2965512"><ele>358.0</ele><time>2026-03-24T09:52:42.948Z</time></trkpt><trkpt lat="44.3755188" lon="8.2964428"><ele>358.0</ele><time>2026-03-24T09:52:44.947Z</time></trkpt><trkpt lat="44.3755147" lon="8.2963329"><ele>358.0</ele><time>2026-03-24T09:52:46.947Z</time></trkpt><trkpt lat="44.3755074" lon="8.2962235"><ele>358.0</ele><time>2026-03-24T09:52:48.948Z</time></trkpt><trkpt lat="44.3755003" lon="8.2961198"><ele>358.0</ele><time>2026-03-24T09:52:50.947Z</time></trkpt><trkpt lat="44.375492" lon="8.2960176"><ele>357.0</ele><time>2026-03-24T09:52:52.947Z</time></trkpt><trkpt lat="44.3754867" lon="8.2959107"><ele>356.0</ele><time>2026-03-24T09:52:54.948Z</time></trkpt><trkpt lat="44.3754804" lon="8.2958041"><ele>355.0</ele><time>2026-03-24T09:52:56.948Z</time></trkpt><trkpt lat="44.3754706" lon="8.2956963"><ele>354.0</ele><time>2026-03-24T09:52:58.945Z</time></trkpt><trkpt lat="44.375467" lon="8.2955859"><ele>353.0</ele><time>2026-03-24T09:53:00.948Z</time></trkpt><trkpt lat="44.3754727" lon="8.2954832"><ele>352.0</ele><time>2026-03-24T09:53:02.946Z</time></trkpt><trkpt lat="44.3754823" lon="8.2953748"><ele>351.66666666666663</ele><time>2026-03-24T09:53:04.948Z</time></trkpt><trkpt lat="44.3754906" lon="8.29526"><ele>351.3333333333333</ele><time>2026-03-24T09:53:06.946Z</time></trkpt><trkpt lat="44.3755005" lon="8.2951522"><ele>351.0</ele><time>2026-03-24T09:53:08.948Z</time></trkpt><trkpt lat="44.3755115" lon="8.2950402"><ele>350.6666666666667</ele><time>2026-03-24T09:53:10.947Z</time></trkpt><trkpt lat="44.3755271" lon="8.2949324"><ele>350.33333333333337</ele><time>2026-03-24T09:53:12.946Z</time></trkpt><trkpt lat="44.3755476" lon="8.2948282"><ele>350.0</ele><time>2026-03-24T09:53:14.947Z</time></trkpt><trkpt lat="44.3755688" lon="8.2947159"><ele>349.8</ele><time>2026-03-24T09:53:16.948Z</time></trkpt><trkpt lat="44.3755847" lon="8.2946063"><ele>349.6</ele><time>2026-03-24T09:53:18.947Z</time></trkpt><trkpt lat="44.3756033" lon="8.2944891"><ele>349.4</ele><time>2026-03-24T09:53:20.948Z</time></trkpt><trkpt lat="44.3756203" lon="8.2943539"><ele>349.2</ele><time>2026-03-24T09:53:22.946Z</time></trkpt><trkpt lat="44.3756456" lon="8.2942019"><ele>349.0</ele><time>2026-03-24T09:53:24.947Z</time></trkpt><trkpt lat="44.3756667" lon="8.2940377"><ele>348.99999999999994</ele><time>2026-03-24T09:53:26.947Z</time></trkpt><trkpt lat="44.375681" lon="8.2939492"><ele>349.0</ele><time>2026-03-24T09:53:27.946Z</time></trkpt><trkpt lat="44.375701" lon="8.2938593"><ele>349.0</ele><time>2026-03-24T09:53:28.946Z</time></trkpt><trkpt lat="44.3757223" lon="8.2937683"><ele>349.0</ele><time>2026-03-24T09:53:29.948Z</time></trkpt><trkpt lat="44.3757477" lon="8.2936685"><ele>349.0</ele><time>2026-03-24T09:53:30.946Z</time></trkpt><trkpt lat="44.3757798" lon="8.2935661"><ele>348.99999999999994</ele><time>2026-03-24T09:53:31.948Z</time></trkpt><trkpt lat="44.3758108" lon="8.29347"><ele>349.0</ele><time>2026-03-24T09:53:32.947Z</time></trkpt><trkpt lat="44.3758539" lon="8.29337"><ele>348.66666666666663</ele><time>2026-03-24T09:53:33.947Z</time></trkpt><trkpt lat="44.3758933" lon="8.2932787"><ele>348.3333333333333</ele><time>2026-03-24T09:53:34.948Z</time></trkpt><trkpt lat="44.3759337" lon="8.2931993"><ele>348.0</ele><time>2026-03-24T09:53:35.947Z</time></trkpt><trkpt lat="44.3759658" lon="8.2931194"><ele>347.6666666666667</ele><time>2026-03-24T09:53:36.947Z</time></trkpt><trkpt lat="44.3760443" lon="8.2929603"><ele>347.33333333333337</ele><time>2026-03-24T09:53:38.946Z</time></trkpt><trkpt lat="44.3760746" lon="8.292871"><ele>347.0</ele><time>2026-03-24T09:53:39.947Z</time></trkpt><trkpt lat="44.3761542" lon="8.2927237"><ele>347.0</ele><time>2026-03-24T09:53:41.948Z</time></trkpt><trkpt lat="44.3761942" lon="8.2926388"><ele>347.0</ele><time>2026-03-24T09:53:42.948Z</time></trkpt><trkpt lat="44.3762279" lon="8.2925529"><ele>347.0</ele><time>2026-03-24T09:53:43.947Z</time></trkpt><trkpt lat="44.3762554" lon="8.2924688"><ele>347.0</ele><time>2026-03-24T09:53:44.946Z</time></trkpt><trkpt lat="44.3762781" lon="8.2923805"><ele>347.0</ele><time>2026-03-24T09:53:45.948Z</time></trkpt><trkpt lat="44.3763009" lon="8.2922949"><ele>347.0</ele><time>2026-03-24T09:53:46.945Z</time></trkpt><trkpt lat="44.3763279" lon="8.2922074"><ele>347.0</ele><time>2026-03-24T09:53:47.948Z</time></trkpt><trkpt lat="44.3763577" lon="8.2921262"><ele>346.25</ele><time>2026-03-24T09:53:48.948Z</time></trkpt><trkpt lat="44.3764385" lon="8.2919885"><ele>345.5</ele><time>2026-03-24T09:53:50.948Z</time></trkpt><trkpt lat="44.3765245" lon="8.2918737"><ele>344.75</ele><time>2026-03-24T09:53:52.947Z</time></trkpt><trkpt lat="44.3766042" lon="8.2917697"><ele>344.0</ele><time>2026-03-24T09:53:54.948Z</time></trkpt><trkpt lat="44.3766823" lon="8.2916678"><ele>344.0</ele><time>2026-03-24T09:53:56.948Z</time></trkpt><trkpt lat="44.37676" lon="8.2915569"><ele>344.0</ele><time>2026-03-24T09:53:58.947Z</time></trkpt><trkpt lat="44.3768329" lon="8.2914572"><ele>344.0</ele><time>2026-03-24T09:54:00.946Z</time></trkpt><trkpt lat="44.376904" lon="8.2913578"><ele>344.0</ele><time>2026-03-24T09:54:02.948Z</time></trkpt><trkpt lat="44.3769702" lon="8.2912642"><ele>344.0</ele><time>2026-03-24T09:54:04.948Z</time></trkpt><trkpt lat="44.3770393" lon="8.2911751"><ele>344.2</ele><time>2026-03-24T09:54:06.946Z</time></trkpt><trkpt lat="44.3771072" lon="8.2910852"><ele>344.4</ele><time>2026-03-24T09:54:08.947Z</time></trkpt><trkpt lat="44.3771776" lon="8.2909884"><ele>344.6</ele><time>2026-03-24T09:54:10.948Z</time></trkpt><trkpt lat="44.3772336" lon="8.2909013"><ele>344.8</ele><time>2026-03-24T09:54:12.947Z</time></trkpt><trkpt lat="44.3773136" lon="8.2908332"><ele>345.0</ele><time>2026-03-24T09:54:14.948Z</time></trkpt><trkpt lat="44.3773808" lon="8.2907609"><ele>345.0</ele><time>2026-03-24T09:54:16.947Z</time></trkpt><trkpt lat="44.3774456" lon="8.2906732"><ele>345.0</ele><time>2026-03-24T09:54:18.948Z</time></trkpt><trkpt lat="44.3775086" lon="8.2905927"><ele>345.0</ele><time>2026-03-24T09:54:20.948Z</time></trkpt><trkpt lat="44.3775721" lon="8.2905095"><ele>345.0</ele><time>2026-03-24T09:54:22.948Z</time></trkpt><trkpt lat="44.3776339" lon="8.2904275"><ele>345.0</ele><time>2026-03-24T09:54:24.946Z</time></trkpt><trkpt lat="44.3776952" lon="8.2903431"><ele>345.0</ele><time>2026-03-24T09:54:26.947Z</time></trkpt><trkpt lat="44.3777581" lon="8.2902556"><ele>344.8333333333333</ele><time>2026-03-24T09:54:28.947Z</time></trkpt><trkpt lat="44.3778208" lon="8.2901637"><ele>344.6666666666667</ele><time>2026-03-24T09:54:30.948Z</time></trkpt><trkpt lat="44.3778821" lon="8.2900757"><ele>344.5</ele><time>2026-03-24T09:54:32.947Z</time></trkpt><trkpt lat="44.3779475" lon="8.2899901"><ele>344.33333333333337</ele><time>2026-03-24T09:54:34.948Z</time></trkpt><trkpt lat="44.3780097" lon="8.2899099"><ele>344.1666666666667</ele><time>2026-03-24T09:54:36.947Z</time></trkpt><trkpt lat="44.3780743" lon="8.2898278"><ele>344.0</ele><time>2026-03-24T09:54:38.947Z</time></trkpt><trkpt lat="44.3781372" lon="8.2897418"><ele>344.0</ele><time>2026-03-24T09:54:40.947Z</time></trkpt><trkpt lat="44.3782003" lon="8.2896567"><ele>344.0</ele><time>2026-03-24T09:54:42.947Z</time></trkpt><trkpt lat="44.3782609" lon="8.2895685"><ele>344.0</ele><time>2026-03-24T09:54:44.946Z</time></trkpt><trkpt lat="44.3783245" lon="8.2894796"><ele>344.0</ele><time>2026-03-24T09:54:46.946Z</time></trkpt><trkpt lat="44.3783822" lon="8.289391"><ele>344.0</ele><time>2026-03-24T09:54:48.947Z</time></trkpt><trkpt lat="44.3784432" lon="8.289297"><ele>344.0</ele><time>2026-03-24T09:54:50.946Z</time></trkpt><trkpt lat="44.3785044" lon="8.289194"><ele>344.0</ele><time>2026-03-24T09:54:52.948Z</time></trkpt><trkpt lat="44.3785692" lon="8.2891066"><ele>344.0</ele><time>2026-03-24T09:54:54.946Z</time></trkpt><trkpt lat="44.3786311" lon="8.2890155"><ele>344.0</ele><time>2026-03-24T09:54:56.948Z</time></trkpt><trkpt lat="44.3786928" lon="8.2889331"><ele>344.0</ele><time>2026-03-24T09:54:58.947Z</time></trkpt><trkpt lat="44.378758" lon="8.2888311"><ele>344.0</ele><time>2026-03-24T09:55:00.948Z</time></trkpt><trkpt lat="44.3788247" lon="8.2887479"><ele>343.5</ele><time>2026-03-24T09:55:02.947Z</time></trkpt><trkpt lat="44.3788926" lon="8.2886742"><ele>343.0</ele><time>2026-03-24T09:55:04.948Z</time></trkpt><trkpt lat="44.3789641" lon="8.2886143"><ele>342.5</ele><time>2026-03-24T09:55:06.948Z</time></trkpt><trkpt lat="44.3790392" lon="8.2885677"><ele>342.0</ele><time>2026-03-24T09:55:08.948Z</time></trkpt><trkpt lat="44.3791161" lon="8.2885228"><ele>341.5</ele><time>2026-03-24T09:55:10.946Z</time></trkpt><trkpt lat="44.3791926" lon="8.2884829"><ele>341.0</ele><time>2026-03-24T09:55:12.947Z</time></trkpt><trkpt lat="44.3792672" lon="8.2884386"><ele>341.0</ele><time>2026-03-24T09:55:14.947Z</time></trkpt><trkpt lat="44.379341" lon="8.2883898"><ele>341.0</ele><time>2026-03-24T09:55:16.948Z</time></trkpt><trkpt lat="44.3794169" lon="8.2883468"><ele>341.0</ele><time>2026-03-24T09:55:18.948Z</time></trkpt><trkpt lat="44.3794942" lon="8.2883065"><ele>341.0</ele><time>2026-03-24T09:55:20.947Z</time></trkpt><trkpt lat="44.3795718" lon="8.2882706"><ele>341.0</ele><time>2026-03-24T09:55:22.947Z</time></trkpt><trkpt lat="44.3796529" lon="8.2882367"><ele>341.0</ele><time>2026-03-24T09:55:24.947Z</time></trkpt><trkpt lat="44.3797334" lon="8.2881975"><ele>340.83333333333337</ele><time>2026-03-24T09:55:26.947Z</time></trkpt><trkpt lat="44.3798214" lon="8.2881472"><ele>340.6666666666667</ele><time>2026-03-24T09:55:28.946Z</time></trkpt><trkpt lat="44.3799015" lon="8.2881022"><ele>340.5</ele><time>2026-03-24T09:55:30.947Z</time></trkpt><trkpt lat="44.3799814" lon="8.2880493"><ele>340.3333333333333</ele><time>2026-03-24T09:55:32.948Z</time></trkpt><trkpt lat="44.3800575" lon="8.2880014"><ele>340.16666666666663</ele><time>2026-03-24T09:55:34.946Z</time></trkpt><trkpt lat="44.3801407" lon="8.287947"><ele>340.0</ele><time>2026-03-24T09:55:36.948Z</time></trkpt><trkpt lat="44.3802244" lon="8.2878896"><ele>340.0</ele><time>2026-03-24T09:55:38.947Z</time></trkpt><trkpt lat="44.3803088" lon="8.2878306"><ele>340.0</ele><time>2026-03-24T09:55:40.947Z</time></trkpt><trkpt lat="44.3803938" lon="8.2877795"><ele>340.0</ele><time>2026-03-24T09:55:42.948Z</time></trkpt><trkpt lat="44.38049" lon="8.2877205"><ele>340.0</ele><time>2026-03-24T09:55:44.947Z</time></trkpt><trkpt lat="44.3805706" lon="8.2876618"><ele>340.0</ele><time>2026-03-24T09:55:46.947Z</time></trkpt><trkpt lat="44.3806513" lon="8.2876102"><ele>340.2</ele><time>2026-03-24T09:55:48.946Z</time></trkpt><trkpt lat="44.3807433" lon="8.2875681"><ele>340.4</ele><time>2026-03-24T09:55:50.946Z</time></trkpt><trkpt lat="44.380819" lon="8.2875087"><ele>340.6</ele><time>2026-03-24T09:55:52.946Z</time></trkpt><trkpt lat="44.3809022" lon="8.2874345"><ele>340.8</ele><time>2026-03-24T09:55:54.947Z</time></trkpt><trkpt lat="44.380988" lon="8.2873576"><ele>341.0</ele><time>2026-03-24T09:55:56.947Z</time></trkpt><trkpt lat="44.3810722" lon="8.2872863"><ele>340.20000000000005</ele><time>2026-03-24T09:55:58.946Z</time></trkpt><trkpt lat="44.3811631" lon="8.2872149"><ele>339.40000000000003</ele><time>2026-03-24T09:56:00.947Z</time></trkpt><trkpt lat="44.381253" lon="8.2871394"><ele>338.6</ele><time>2026-03-24T09:56:02.947Z</time></trkpt><trkpt lat="44.3813413" lon="8.287058"><ele>337.8</ele><time>2026-03-24T09:56:04.947Z</time></trkpt><trkpt lat="44.3814432" lon="8.2870006"><ele>337.0</ele><time>2026-03-24T09:56:06.948Z</time></trkpt><trkpt lat="44.3815304" lon="8.2869192"><ele>337.0</ele><time>2026-03-24T09:56:08.947Z</time></trkpt><trkpt lat="44.381622" lon="8.2868374"><ele>337.0</ele><time>2026-03-24T09:56:10.948Z</time></trkpt><trkpt lat="44.3817029" lon="8.2867397"><ele>337.0</ele><time>2026-03-24T09:56:12.947Z</time></trkpt><trkpt lat="44.3817714" lon="8.2866363"><ele>337.0</ele><time>2026-03-24T09:56:14.947Z</time></trkpt><trkpt lat="44.3818279" lon="8.2865052"><ele>337.0</ele><time>2026-03-24T09:56:16.948Z</time></trkpt><trkpt lat="44.3818668" lon="8.2863622"><ele>335.25</ele><time>2026-03-24T09:56:18.947Z</time></trkpt><trkpt lat="44.381902" lon="8.2862085"><ele>333.5</ele><time>2026-03-24T09:56:20.947Z</time></trkpt><trkpt lat="44.3819408" lon="8.286053"><ele>331.75</ele><time>2026-03-24T09:56:22.947Z</time></trkpt><trkpt lat="44.3819719" lon="8.2858939"><ele>330.0</ele><time>2026-03-24T09:56:24.948Z</time></trkpt><trkpt lat="44.3820025" lon="8.2857292"><ele>330.8</ele><time>2026-03-24T09:56:26.948Z</time></trkpt><trkpt lat="44.3820301" lon="8.2855613"><ele>331.6</ele><time>2026-03-24T09:56:28.947Z</time></trkpt><trkpt lat="44.382067" lon="8.2854029"><ele>332.4</ele><time>2026-03-24T09:56:30.947Z</time></trkpt><trkpt lat="44.3820992" lon="8.2852414"><ele>333.2</ele><time>2026-03-24T09:56:32.946Z</time></trkpt><trkpt lat="44.3821137" lon="8.2851539"><ele>334.0</ele><time>2026-03-24T09:56:33.947Z</time></trkpt><trkpt lat="44.3821497" lon="8.2849972"><ele>334.0</ele><time>2026-03-24T09:56:35.946Z</time></trkpt><trkpt lat="44.3821832" lon="8.2848336"><ele>334.0</ele><time>2026-03-24T09:56:37.947Z</time></trkpt><trkpt lat="44.3822163" lon="8.284682"><ele>334.0</ele><time>2026-03-24T09:56:39.946Z</time></trkpt><trkpt lat="44.3822483" lon="8.284525"><ele>334.0</ele><time>2026-03-24T09:56:41.946Z</time></trkpt><trkpt lat="44.382277" lon="8.2843771"><ele>334.0</ele><time>2026-03-24T09:56:43.948Z</time></trkpt><trkpt lat="44.3823037" lon="8.2842318"><ele>334.0</ele><time>2026-03-24T09:56:45.947Z</time></trkpt><trkpt lat="44.382342" lon="8.2840876"><ele>334.0</ele><time>2026-03-24T09:56:47.947Z</time></trkpt><trkpt lat="44.3823668" lon="8.2839497"><ele>334.0</ele><time>2026-03-24T09:56:49.947Z</time></trkpt><trkpt lat="44.3824133" lon="8.2838231"><ele>334.0</ele><time>2026-03-24T09:56:51.946Z</time></trkpt><trkpt lat="44.3824407" lon="8.2836787"><ele>334.0</ele><time>2026-03-24T09:56:53.946Z</time></trkpt><trkpt lat="44.3824777" lon="8.2835477"><ele>334.0</ele><time>2026-03-24T09:56:55.947Z</time></trkpt><trkpt lat="44.3825112" lon="8.2834225"><ele>334.0</ele><time>2026-03-24T09:56:57.946Z</time></trkpt><trkpt lat="44.3825284" lon="8.2832922"><ele>334.0</ele><time>2026-03-24T09:56:59.946Z</time></trkpt><trkpt lat="44.3825583" lon="8.2831632"><ele>334.0</ele><time>2026-03-24T09:57:01.947Z</time></trkpt><trkpt lat="44.3825827" lon="8.2830341"><ele>334.4</ele><time>2026-03-24T09:57:03.948Z</time></trkpt><trkpt lat="44.3826117" lon="8.2829114"><ele>334.79999999999995</ele><time>2026-03-24T09:57:05.947Z</time></trkpt><trkpt lat="44.3826418" lon="8.2827867"><ele>335.20000000000005</ele><time>2026-03-24T09:57:07.947Z</time></trkpt><trkpt lat="44.382669" lon="8.2826547"><ele>335.6</ele><time>2026-03-24T09:57:09.946Z</time></trkpt><trkpt lat="44.3826938" lon="8.2825073"><ele>336.0</ele><time>2026-03-24T09:57:11.948Z</time></trkpt><trkpt lat="44.3827306" lon="8.282387"><ele>335.6666666666667</ele><time>2026-03-24T09:57:13.947Z</time></trkpt><trkpt lat="44.382756" lon="8.2822468"><ele>335.3333333333333</ele><time>2026-03-24T09:57:15.948Z</time></trkpt><trkpt lat="44.3827846" lon="8.2821433"><ele>335.0</ele><time>2026-03-24T09:57:17.946Z</time></trkpt><trkpt lat="44.3828038" lon="8.2820236"><ele>334.66666666666663</ele><time>2026-03-24T09:57:19.947Z</time></trkpt><trkpt lat="44.3828283" lon="8.2819091"><ele>334.3333333333333</ele><time>2026-03-24T09:57:21.948Z</time></trkpt><trkpt lat="44.3828631" lon="8.2818102"><ele>334.0</ele><time>2026-03-24T09:57:23.946Z</time></trkpt><trkpt lat="44.3828848" lon="8.2816956"><ele>334.0</ele><time>2026-03-24T09:57:25.946Z</time></trkpt><trkpt lat="44.382908" lon="8.2815832"><ele>334.0</ele><time>2026-03-24T09:57:27.948Z</time></trkpt><trkpt lat="44.3829286" lon="8.2814673"><ele>334.0</ele><time>2026-03-24T09:57:29.946Z</time></trkpt><trkpt lat="44.3829536" lon="8.2813518"><ele>334.0</ele><time>2026-03-24T09:57:31.948Z</time></trkpt><trkpt lat="44.3829761" lon="8.2812394"><ele>334.0</ele><time>2026-03-24T09:57:33.948Z</time></trkpt><trkpt lat="44.3829982" lon="8.2811338"><ele>334.0</ele><time>2026-03-24T09:57:35.946Z</time></trkpt><trkpt lat="44.3830539" lon="8.2810573"><ele>334.2</ele><time>2026-03-24T09:57:37.946Z</time></trkpt><trkpt lat="44.3831334" lon="8.2810034"><ele>334.4</ele><time>2026-03-24T09:57:39.947Z</time></trkpt><trkpt lat="44.3832139" lon="8.2809465"><ele>334.6</ele><time>2026-03-24T09:57:41.947Z</time></trkpt><trkpt lat="44.3832986" lon="8.2809002"><ele>334.8</ele><time>2026-03-24T09:57:43.947Z</time></trkpt><trkpt lat="44.3833926" lon="8.2808766"><ele>335.0</ele><time>2026-03-24T09:57:45.947Z</time></trkpt><trkpt lat="44.3834845" lon="8.2808507"><ele>335.0</ele><time>2026-03-24T09:57:47.946Z</time></trkpt><trkpt lat="44.3835693" lon="8.2808199"><ele>335.0</ele><time>2026-03-24T09:57:49.948Z</time></trkpt><trkpt lat="44.3836623" lon="8.2807957"><ele>335.0</ele><time>2026-03-24T09:57:51.948Z</time></trkpt><trkpt lat="44.3837443" lon="8.2807689"><ele>335.0</ele><time>2026-03-24T09:57:53.948Z</time></trkpt><trkpt lat="44.3838382" lon="8.2807495"><ele>335.0</ele><time>2026-03-24T09:57:55.947Z</time></trkpt><trkpt lat="44.38392" lon="8.2807278"><ele>335.0</ele><time>2026-03-24T09:57:57.947Z</time></trkpt><trkpt lat="44.3840086" lon="8.2807052"><ele>334.4</ele><time>2026-03-24T09:57:59.946Z</time></trkpt><trkpt lat="44.3840946" lon="8.2806776"><ele>333.8</ele><time>2026-03-24T09:58:01.946Z</time></trkpt><trkpt lat="44.3841888" lon="8.2806586"><ele>333.20000000000005</ele><time>2026-03-24T09:58:03.947Z</time></trkpt><trkpt lat="44.3842781" lon="8.2806358"><ele>332.6</ele><time>2026-03-24T09:58:05.947Z</time></trkpt><trkpt lat="44.3843684" lon="8.2806115"><ele>332.0</ele><time>2026-03-24T09:58:07.946Z</time></trkpt><trkpt lat="44.3844626" lon="8.2805907"><ele>332.0</ele><time>2026-03-24T09:58:09.947Z</time></trkpt><trkpt lat="44.3845493" lon="8.280565"><ele>332.0</ele><time>2026-03-24T09:58:11.946Z</time></trkpt><trkpt lat="44.3846319" lon="8.28054"><ele>332.0</ele><time>2026-03-24T09:58:13.947Z</time></trkpt><trkpt lat="44.3847252" lon="8.2805129"><ele>332.0</ele><time>2026-03-24T09:58:15.947Z</time></trkpt><trkpt lat="44.3848114" lon="8.2804878"><ele>332.0</ele><time>2026-03-24T09:58:17.948Z</time></trkpt><trkpt lat="44.3848982" lon="8.2804582"><ele>332.0</ele><time>2026-03-24T09:58:19.948Z</time></trkpt><trkpt lat="44.3849873" lon="8.2804261"><ele>332.0</ele><time>2026-03-24T09:58:21.947Z</time></trkpt><trkpt lat="44.3850854" lon="8.2803888"><ele>332.0</ele><time>2026-03-24T09:58:23.946Z</time></trkpt><trkpt lat="44.385184" lon="8.2803563"><ele>332.0</ele><time>2026-03-24T09:58:25.946Z</time></trkpt><trkpt lat="44.3852752" lon="8.2803129"><ele>332.0</ele><time>2026-03-24T09:58:27.947Z</time></trkpt><trkpt lat="44.3853683" lon="8.2802742"><ele>332.0</ele><time>2026-03-24T09:58:29.947Z</time></trkpt><trkpt lat="44.3854625" lon="8.2802342"><ele>332.0</ele><time>2026-03-24T09:58:31.947Z</time></trkpt><trkpt lat="44.3855532" lon="8.2801987"><ele>332.0</ele><time>2026-03-24T09:58:33.947Z</time></trkpt><trkpt lat="44.3856562" lon="8.280168"><ele>332.0</ele><time>2026-03-24T09:58:35.947Z</time></trkpt><trkpt lat="44.3857572" lon="8.2801256"><ele>332.0</ele><time>2026-03-24T09:58:37.947Z</time></trkpt><trkpt lat="44.3858564" lon="8.2800742"><ele>332.0</ele><time>2026-03-24T09:58:39.947Z</time></trkpt><trkpt lat="44.3859569" lon="8.2800306"><ele>332.0</ele><time>2026-03-24T09:58:41.948Z</time></trkpt><trkpt lat="44.3860479" lon="8.2799891"><ele>332.0</ele><time>2026-03-24T09:58:43.948Z</time></trkpt><trkpt lat="44.3861332" lon="8.2799451"><ele>332.0</ele><time>2026-03-24T09:58:45.947Z</time></trkpt><trkpt lat="44.3862209" lon="8.2799063"><ele>332.0</ele><time>2026-03-24T09:58:47.946Z</time></trkpt><trkpt lat="44.3863138" lon="8.2798676"><ele>332.0</ele><time>2026-03-24T09:58:49.948Z</time></trkpt><trkpt lat="44.3864099" lon="8.2798345"><ele>331.6</ele><time>2026-03-24T09:58:51.948Z</time></trkpt><trkpt lat="44.3865002" lon="8.2798069"><ele>331.20000000000005</ele><time>2026-03-24T09:58:53.948Z</time></trkpt><trkpt lat="44.3865925" lon="8.2797723"><ele>330.8</ele><time>2026-03-24T09:58:55.947Z</time></trkpt><trkpt lat="44.3866912" lon="8.279747"><ele>330.4</ele><time>2026-03-24T09:58:57.948Z</time></trkpt><trkpt lat="44.3867811" lon="8.2797219"><ele>330.0</ele><time>2026-03-24T09:58:59.947Z</time></trkpt><trkpt lat="44.3868676" lon="8.2797052"><ele>330.0</ele><time>2026-03-24T09:59:01.947Z</time></trkpt><trkpt lat="44.3869518" lon="8.2797402"><ele>330.0</ele><time>2026-03-24T09:59:04.947Z</time></trkpt><trkpt lat="44.3870335" lon="8.279676"><ele>330.0</ele><time>2026-03-24T09:59:05.948Z</time></trkpt><trkpt lat="44.387131" lon="8.2796404"><ele>330.0</ele><time>2026-03-24T09:59:07.947Z</time></trkpt><trkpt lat="44.3872215" lon="8.2796208"><ele>330.0</ele><time>2026-03-24T09:59:09.947Z</time></trkpt><trkpt lat="44.3873131" lon="8.2796131"><ele>331.0</ele><time>2026-03-24T09:59:11.947Z</time></trkpt><trkpt lat="44.3874011" lon="8.2796027"><ele>332.0</ele><time>2026-03-24T09:59:13.948Z</time></trkpt><trkpt lat="44.3874843" lon="8.2795917"><ele>333.0</ele><time>2026-03-24T09:59:15.947Z</time></trkpt><trkpt lat="44.3875757" lon="8.2795796"><ele>334.0</ele><time>2026-03-24T09:59:17.946Z</time></trkpt><trkpt lat="44.3876668" lon="8.2795659"><ele>335.0</ele><time>2026-03-24T09:59:19.947Z</time></trkpt><trkpt lat="44.3877633" lon="8.2795581"><ele>335.0</ele><time>2026-03-24T09:59:21.946Z</time></trkpt><trkpt lat="44.3878554" lon="8.2795534"><ele>335.0</ele><time>2026-03-24T09:59:23.946Z</time></trkpt><trkpt lat="44.3879371" lon="8.2795472"><ele>335.0</ele><time>2026-03-24T09:59:25.947Z</time></trkpt><trkpt lat="44.3880232" lon="8.2795347"><ele>335.0</ele><time>2026-03-24T09:59:27.947Z</time></trkpt><trkpt lat="44.388115" lon="8.2795333"><ele>335.0</ele><time>2026-03-24T09:59:29.947Z</time></trkpt><trkpt lat="44.3882011" lon="8.2795308"><ele>335.0</ele><time>2026-03-24T09:59:31.947Z</time></trkpt><trkpt lat="44.3882979" lon="8.2795287"><ele>334.6666666666667</ele><time>2026-03-24T09:59:33.947Z</time></trkpt><trkpt lat="44.3883805" lon="8.27953"><ele>334.33333333333337</ele><time>2026-03-24T09:59:35.948Z</time></trkpt><trkpt lat="44.3884688" lon="8.27952"><ele>334.0</ele><time>2026-03-24T09:59:37.947Z</time></trkpt><trkpt lat="44.3885643" lon="8.2795088"><ele>333.6666666666667</ele><time>2026-03-24T09:59:39.948Z</time></trkpt><trkpt lat="44.3886511" lon="8.2795073"><ele>333.3333333333333</ele><time>2026-03-24T09:59:41.947Z</time></trkpt><trkpt lat="44.3887347" lon="8.2794914"><ele>333.0</ele><time>2026-03-24T09:59:43.947Z</time></trkpt><trkpt lat="44.3888239" lon="8.2794771"><ele>333.0</ele><time>2026-03-24T09:59:45.947Z</time></trkpt><trkpt lat="44.3889267" lon="8.27946"><ele>333.0</ele><time>2026-03-24T09:59:47.947Z</time></trkpt><trkpt lat="44.3890074" lon="8.2793992"><ele>333.0</ele><time>2026-03-24T09:59:49.947Z</time></trkpt><trkpt lat="44.3890763" lon="8.2793335"><ele>333.0</ele><time>2026-03-24T09:59:51.947Z</time></trkpt><trkpt lat="44.3891516" lon="8.2792707"><ele>333.0</ele><time>2026-03-24T09:59:53.947Z</time></trkpt><trkpt lat="44.3892251" lon="8.2792061"><ele>333.0</ele><time>2026-03-24T09:59:55.947Z</time></trkpt><trkpt lat="44.3892951" lon="8.279155"><ele>333.0</ele><time>2026-03-24T09:59:57.946Z</time></trkpt><trkpt lat="44.3893704" lon="8.2791367"><ele>333.0</ele><time>2026-03-24T09:59:59.947Z</time></trkpt><trkpt lat="44.3894534" lon="8.2791376"><ele>333.0</ele><time>2026-03-24T10:00:01.947Z</time></trkpt><trkpt lat="44.3895403" lon="8.2791427"><ele>333.0</ele><time>2026-03-24T10:00:03.946Z</time></trkpt><trkpt lat="44.389637" lon="8.2791486"><ele>333.0</ele><time>2026-03-24T10:00:05.947Z</time></trkpt><trkpt lat="44.3897256" lon="8.2791454"><ele>333.0</ele><time>2026-03-24T10:00:07.947Z</time></trkpt><trkpt lat="44.3898206" lon="8.2791414"><ele>333.0</ele><time>2026-03-24T10:00:09.945Z</time></trkpt><trkpt lat="44.389923" lon="8.2791526"><ele>333.0</ele><time>2026-03-24T10:00:11.946Z</time></trkpt><trkpt lat="44.3900199" lon="8.2791474"><ele>333.0</ele><time>2026-03-24T10:00:13.947Z</time></trkpt><trkpt lat="44.3901165" lon="8.27915"><ele>333.0</ele><time>2026-03-24T10:00:15.947Z</time></trkpt><trkpt lat="44.3902107" lon="8.2791446"><ele>333.0</ele><time>2026-03-24T10:00:17.947Z</time></trkpt><trkpt lat="44.3903042" lon="8.2791402"><ele>333.0</ele><time>2026-03-24T10:00:19.946Z</time></trkpt><trkpt lat="44.3903961" lon="8.2791328"><ele>333.0</ele><time>2026-03-24T10:00:21.947Z</time></trkpt><trkpt lat="44.3904917" lon="8.2791217"><ele>333.0</ele><time>2026-03-24T10:00:23.947Z</time></trkpt><trkpt lat="44.3905749" lon="8.2791155"><ele>333.0</ele><time>2026-03-24T10:00:25.947Z</time></trkpt><trkpt lat="44.3906601" lon="8.2791028"><ele>332.79999999999995</ele><time>2026-03-24T10:00:27.946Z</time></trkpt><trkpt lat="44.390752" lon="8.2790996"><ele>332.6</ele><time>2026-03-24T10:00:29.946Z</time></trkpt><trkpt lat="44.3908401" lon="8.2790976"><ele>332.4</ele><time>2026-03-24T10:00:31.947Z</time></trkpt><trkpt lat="44.3909298" lon="8.2790854"><ele>332.20000000000005</ele><time>2026-03-24T10:00:33.947Z</time></trkpt><trkpt lat="44.39103" lon="8.2790916"><ele>332.0</ele><time>2026-03-24T10:00:35.947Z</time></trkpt><trkpt lat="44.3911209" lon="8.2790741"><ele>332.0</ele><time>2026-03-24T10:00:37.948Z</time></trkpt><trkpt lat="44.3912181" lon="8.2790682"><ele>332.0</ele><time>2026-03-24T10:00:39.948Z</time></trkpt><trkpt lat="44.3913143" lon="8.2790594"><ele>332.0</ele><time>2026-03-24T10:00:41.947Z</time></trkpt><trkpt lat="44.3914054" lon="8.2790464"><ele>332.0</ele><time>2026-03-24T10:00:43.948Z</time></trkpt><trkpt lat="44.3915073" lon="8.2790485"><ele>332.0</ele><time>2026-03-24T10:00:45.947Z</time></trkpt><trkpt lat="44.3915995" lon="8.2790292"><ele>332.40000000000003</ele><time>2026-03-24T10:00:47.947Z</time></trkpt><trkpt lat="44.3916999" lon="8.2790115"><ele>332.8</ele><time>2026-03-24T10:00:49.947Z</time></trkpt><trkpt lat="44.391792" lon="8.278998"><ele>333.2</ele><time>2026-03-24T10:00:51.946Z</time></trkpt><trkpt lat="44.3918876" lon="8.2789868"><ele>333.6</ele><time>2026-03-24T10:00:53.947Z</time></trkpt><trkpt lat="44.3919843" lon="8.2789836"><ele>334.0</ele><time>2026-03-24T10:00:55.946Z</time></trkpt><trkpt lat="44.3920685" lon="8.2789671"><ele>334.0</ele><time>2026-03-24T10:00:57.948Z</time></trkpt><trkpt lat="44.3921647" lon="8.2789586"><ele>334.0</ele><time>2026-03-24T10:00:59.948Z</time></trkpt><trkpt lat="44.3922509" lon="8.2789508"><ele>334.0</ele><time>2026-03-24T10:01:01.947Z</time></trkpt><trkpt lat="44.3923472" lon="8.2789558"><ele>334.0</ele><time>2026-03-24T10:01:03.946Z</time></trkpt><trkpt lat="44.3924391" lon="8.2789508"><ele>334.0</ele><time>2026-03-24T10:01:05.947Z</time></trkpt><trkpt lat="44.3925237" lon="8.2789428"><ele>334.5</ele><time>2026-03-24T10:01:07.948Z</time></trkpt><trkpt lat="44.3926246" lon="8.2789403"><ele>335.0</ele><time>2026-03-24T10:01:09.947Z</time></trkpt><trkpt lat="44.3927105" lon="8.2789266"><ele>335.5</ele><time>2026-03-24T10:01:11.947Z</time></trkpt><trkpt lat="44.392802" lon="8.2789199"><ele>336.0</ele><time>2026-03-24T10:01:13.948Z</time></trkpt><trkpt lat="44.3928847" lon="8.2789076"><ele>336.5</ele><time>2026-03-24T10:01:15.946Z</time></trkpt><trkpt lat="44.3929716" lon="8.2788995"><ele>337.0</ele><time>2026-03-24T10:01:17.947Z</time></trkpt><trkpt lat="44.3930634" lon="8.2788766"><ele>338.8</ele><time>2026-03-24T10:01:19.946Z</time></trkpt><trkpt lat="44.3931569" lon="8.2788551"><ele>340.6</ele><time>2026-03-24T10:01:21.945Z</time></trkpt><trkpt lat="44.3932576" lon="8.2788342"><ele>342.40000000000003</ele><time>2026-03-24T10:01:23.946Z</time></trkpt><trkpt lat="44.3933528" lon="8.2788066"><ele>344.20000000000005</ele><time>2026-03-24T10:01:25.947Z</time></trkpt><trkpt lat="44.3934552" lon="8.2787888"><ele>346.0</ele><time>2026-03-24T10:01:27.947Z</time></trkpt><trkpt lat="44.3935427" lon="8.2787579"><ele>346.0</ele><time>2026-03-24T10:01:29.948Z</time></trkpt><trkpt lat="44.3936365" lon="8.2787211"><ele>346.0</ele><time>2026-03-24T10:01:31.947Z</time></trkpt><trkpt lat="44.3937155" lon="8.2786641"><ele>346.0</ele><time>2026-03-24T10:01:33.948Z</time></trkpt><trkpt lat="44.3938037" lon="8.2786307"><ele>346.0</ele><time>2026-03-24T10:01:35.947Z</time></trkpt><trkpt lat="44.3938845" lon="8.2785886"><ele>346.0</ele><time>2026-03-24T10:01:37.947Z</time></trkpt><trkpt lat="44.3939692" lon="8.2785436"><ele>345.16666666666663</ele><time>2026-03-24T10:01:39.947Z</time></trkpt><trkpt lat="44.3940417" lon="8.2785056"><ele>344.3333333333333</ele><time>2026-03-24T10:01:41.946Z</time></trkpt><trkpt lat="44.3941229" lon="8.2784751"><ele>343.5</ele><time>2026-03-24T10:01:43.947Z</time></trkpt><trkpt lat="44.394205" lon="8.2784606"><ele>342.6666666666667</ele><time>2026-03-24T10:01:45.947Z</time></trkpt><trkpt lat="44.3942865" lon="8.2784564"><ele>341.83333333333337</ele><time>2026-03-24T10:01:47.948Z</time></trkpt><trkpt lat="44.3943692" lon="8.2784558"><ele>341.0</ele><time>2026-03-24T10:01:49.946Z</time></trkpt><trkpt lat="44.3944516" lon="8.2784583"><ele>341.0</ele><time>2026-03-24T10:01:51.948Z</time></trkpt><trkpt lat="44.3945417" lon="8.2784636"><ele>341.0</ele><time>2026-03-24T10:01:53.947Z</time></trkpt><trkpt lat="44.3946321" lon="8.2784708"><ele>341.0</ele><time>2026-03-24T10:01:55.947Z</time></trkpt><trkpt lat="44.3947274" lon="8.2784888"><ele>341.0</ele><time>2026-03-24T10:01:57.947Z</time></trkpt><trkpt lat="44.3948341" lon="8.2785093"><ele>341.0</ele><time>2026-03-24T10:01:59.947Z</time></trkpt><trkpt lat="44.3949249" lon="8.2785311"><ele>340.6</ele><time>2026-03-24T10:02:01.947Z</time></trkpt><trkpt lat="44.3950103" lon="8.2785511"><ele>340.20000000000005</ele><time>2026-03-24T10:02:03.947Z</time></trkpt><trkpt lat="44.3951034" lon="8.2785653"><ele>339.79999999999995</ele><time>2026-03-24T10:02:05.947Z</time></trkpt><trkpt lat="44.3951928" lon="8.2785662"><ele>339.4</ele><time>2026-03-24T10:02:07.947Z</time></trkpt><trkpt lat="44.395282" lon="8.2785781"><ele>339.0</ele><time>2026-03-24T10:02:09.947Z</time></trkpt><trkpt lat="44.3953752" lon="8.2785666"><ele>339.0</ele><time>2026-03-24T10:02:11.947Z</time></trkpt><trkpt lat="44.3954753" lon="8.2785637"><ele>339.0</ele><time>2026-03-24T10:02:13.947Z</time></trkpt><trkpt lat="44.3955716" lon="8.2785638"><ele>339.0</ele><time>2026-03-24T10:02:15.948Z</time></trkpt><trkpt lat="44.3956757" lon="8.2785569"><ele>339.0</ele><time>2026-03-24T10:02:17.946Z</time></trkpt><trkpt lat="44.3958032" lon="8.2786039"><ele>339.0</ele><time>2026-03-24T10:02:19.947Z</time></trkpt><trkpt lat="44.3958862" lon="8.2785477"><ele>338.2</ele><time>2026-03-24T10:02:21.947Z</time></trkpt><trkpt lat="44.3959643" lon="8.278539"><ele>337.4</ele><time>2026-03-24T10:02:23.948Z</time></trkpt><trkpt lat="44.396062" lon="8.2784968"><ele>336.6</ele><time>2026-03-24T10:02:25.947Z</time></trkpt><trkpt lat="44.3961448" lon="8.2784563"><ele>335.8</ele><time>2026-03-24T10:02:27.947Z</time></trkpt><trkpt lat="44.3962305" lon="8.2783775"><ele>335.0</ele><time>2026-03-24T10:02:29.947Z</time></trkpt><trkpt lat="44.3963244" lon="8.2783156"><ele>334.6</ele><time>2026-03-24T10:02:31.948Z</time></trkpt><trkpt lat="44.3964149" lon="8.278264"><ele>334.2</ele><time>2026-03-24T10:02:33.947Z</time></trkpt><trkpt lat="44.396501" lon="8.2781708"><ele>333.79999999999995</ele><time>2026-03-24T10:02:35.947Z</time></trkpt><trkpt lat="44.3965955" lon="8.2781152"><ele>333.4</ele><time>2026-03-24T10:02:37.947Z</time></trkpt><trkpt lat="44.3966524" lon="8.2780351"><ele>333.0</ele><time>2026-03-24T10:02:39.948Z</time></trkpt><trkpt lat="44.3967202" lon="8.2779396"><ele>333.0</ele><time>2026-03-24T10:02:41.947Z</time></trkpt><trkpt lat="44.396791" lon="8.2778737"><ele>333.0</ele><time>2026-03-24T10:02:43.947Z</time></trkpt><trkpt lat="44.396865" lon="8.2778099"><ele>333.0</ele><time>2026-03-24T10:02:45.948Z</time></trkpt><trkpt lat="44.3969332" lon="8.2777101"><ele>333.0</ele><time>2026-03-24T10:02:47.947Z</time></trkpt><trkpt lat="44.3970054" lon="8.2776192"><ele>333.0</ele><time>2026-03-24T10:02:49.946Z</time></trkpt><trkpt lat="44.3970776" lon="8.2775409"><ele>333.0</ele><time>2026-03-24T10:02:51.947Z</time></trkpt><trkpt lat="44.3971269" lon="8.2774689"><ele>333.0</ele><time>2026-03-24T10:02:53.946Z</time></trkpt><trkpt lat="44.3971699" lon="8.2773932"><ele>333.0</ele><time>2026-03-24T10:02:55.948Z</time></trkpt><trkpt lat="44.3972208" lon="8.2773354"><ele>333.0</ele><time>2026-03-24T10:02:57.946Z</time></trkpt><trkpt lat="44.3972695" lon="8.2772747"><ele>333.0</ele><time>2026-03-24T10:02:59.947Z</time></trkpt><trkpt lat="44.3973487" lon="8.2772637"><ele>333.0</ele><time>2026-03-24T10:03:01.948Z</time></trkpt><trkpt lat="44.3974335" lon="8.2773203"><ele>333.0</ele><time>2026-03-24T10:03:03.945Z</time></trkpt><trkpt lat="44.3975149" lon="8.2774248"><ele>332.4</ele><time>2026-03-24T10:03:05.948Z</time></trkpt><trkpt lat="44.3975808" lon="8.2775288"><ele>331.79999999999995</ele><time>2026-03-24T10:03:07.946Z</time></trkpt><trkpt lat="44.3976447" lon="8.277629"><ele>331.2</ele><time>2026-03-24T10:03:09.947Z</time></trkpt><trkpt lat="44.397722" lon="8.2777329"><ele>330.6</ele><time>2026-03-24T10:03:11.947Z</time></trkpt><trkpt lat="44.3977804" lon="8.2778317"><ele>330.0</ele><time>2026-03-24T10:03:13.948Z</time></trkpt><trkpt lat="44.3978442" lon="8.2779275"><ele>330.0</ele><time>2026-03-24T10:03:15.946Z</time></trkpt><trkpt lat="44.3979013" lon="8.2780249"><ele>330.0</ele><time>2026-03-24T10:03:17.947Z</time></trkpt><trkpt lat="44.3979556" lon="8.2781164"><ele>330.0</ele><time>2026-03-24T10:03:19.947Z</time></trkpt><trkpt lat="44.3980463" lon="8.2781895"><ele>330.0</ele><time>2026-03-24T10:03:21.947Z</time></trkpt><trkpt lat="44.398132" lon="8.2781685"><ele>330.0</ele><time>2026-03-24T10:03:23.946Z</time></trkpt><trkpt lat="44.398219" lon="8.2780835"><ele>329.4</ele><time>2026-03-24T10:03:25.947Z</time></trkpt><trkpt lat="44.3982857" lon="8.2779638"><ele>328.8</ele><time>2026-03-24T10:03:27.948Z</time></trkpt><trkpt lat="44.3983578" lon="8.277853"><ele>328.20000000000005</ele><time>2026-03-24T10:03:29.947Z</time></trkpt><trkpt lat="44.3984383" lon="8.2777511"><ele>327.6</ele><time>2026-03-24T10:03:31.948Z</time></trkpt><trkpt lat="44.398505" lon="8.2776404"><ele>327.0</ele><time>2026-03-24T10:03:33.947Z</time></trkpt><trkpt lat="44.3985689" lon="8.277518"><ele>327.0</ele><time>2026-03-24T10:03:35.947Z</time></trkpt><trkpt lat="44.3986356" lon="8.2774103"><ele>327.0</ele><time>2026-03-24T10:03:37.946Z</time></trkpt><trkpt lat="44.3986957" lon="8.2773226"><ele>327.0</ele><time>2026-03-24T10:03:39.947Z</time></trkpt><trkpt lat="44.3987536" lon="8.2772263"><ele>327.0</ele><time>2026-03-24T10:03:41.947Z</time></trkpt><trkpt lat="44.3988035" lon="8.2771496"><ele>327.0</ele><time>2026-03-24T10:03:43.948Z</time></trkpt><trkpt lat="44.3988528" lon="8.2770672"><ele>327.0</ele><time>2026-03-24T10:03:45.947Z</time></trkpt><trkpt lat="44.3989037" lon="8.2769802"><ele>326.8333333333333</ele><time>2026-03-24T10:03:47.948Z</time></trkpt><trkpt lat="44.3989556" lon="8.2768915"><ele>326.6666666666667</ele><time>2026-03-24T10:03:49.947Z</time></trkpt><trkpt lat="44.3990087" lon="8.2768063"><ele>326.5</ele><time>2026-03-24T10:03:51.946Z</time></trkpt><trkpt lat="44.3990601" lon="8.276716"><ele>326.33333333333337</ele><time>2026-03-24T10:03:53.947Z</time></trkpt><trkpt lat="44.3991132" lon="8.2766254"><ele>326.1666666666667</ele><time>2026-03-24T10:03:55.946Z</time></trkpt><trkpt lat="44.3991682" lon="8.27653"><ele>326.0</ele><time>2026-03-24T10:03:57.947Z</time></trkpt><trkpt lat="44.3992247" lon="8.2764253"><ele>326.5</ele><time>2026-03-24T10:03:59.946Z</time></trkpt><trkpt lat="44.3992799" lon="8.2763238"><ele>327.0</ele><time>2026-03-24T10:04:01.946Z</time></trkpt><trkpt lat="44.3993413" lon="8.2762276"><ele>327.5</ele><time>2026-03-24T10:04:03.947Z</time></trkpt><trkpt lat="44.3994016" lon="8.2761315"><ele>328.0</ele><time>2026-03-24T10:04:05.947Z</time></trkpt><trkpt lat="44.3994581" lon="8.2760286"><ele>328.5</ele><time>2026-03-24T10:04:07.948Z</time></trkpt><trkpt lat="44.3995057" lon="8.2759391"><ele>329.0</ele><time>2026-03-24T10:04:09.947Z</time></trkpt><trkpt lat="44.39955" lon="8.2758435"><ele>329.0</ele><time>2026-03-24T10:04:11.948Z</time></trkpt><trkpt lat="44.3995936" lon="8.2757537"><ele>329.0</ele><time>2026-03-24T10:04:13.947Z</time></trkpt><trkpt lat="44.3996393" lon="8.275657"><ele>329.0</ele><time>2026-03-24T10:04:15.947Z</time></trkpt><trkpt lat="44.3996806" lon="8.2755582"><ele>329.0</ele><time>2026-03-24T10:04:17.947Z</time></trkpt><trkpt lat="44.3997251" lon="8.2754618"><ele>329.0</ele><time>2026-03-24T10:04:19.948Z</time></trkpt><trkpt lat="44.3997687" lon="8.2753581"><ele>329.0</ele><time>2026-03-24T10:04:21.947Z</time></trkpt><trkpt lat="44.3998232" lon="8.2752673"><ele>328.79999999999995</ele><time>2026-03-24T10:04:23.948Z</time></trkpt><trkpt lat="44.3998566" lon="8.2751658"><ele>328.59999999999997</ele><time>2026-03-24T10:04:25.946Z</time></trkpt><trkpt lat="44.3998442" lon="8.2750466"><ele>328.4</ele><time>2026-03-24T10:04:27.948Z</time></trkpt><trkpt lat="44.399848" lon="8.2749145"><ele>328.2</ele><time>2026-03-24T10:04:29.947Z</time></trkpt><trkpt lat="44.3998824" lon="8.2747707"><ele>328.0</ele><time>2026-03-24T10:04:31.946Z</time></trkpt><trkpt lat="44.3999496" lon="8.2746415"><ele>328.0</ele><time>2026-03-24T10:04:33.947Z</time></trkpt><trkpt lat="44.4000283" lon="8.2745144"><ele>328.0</ele><time>2026-03-24T10:04:35.947Z</time></trkpt><trkpt lat="44.4001022" lon="8.2743905"><ele>328.0</ele><time>2026-03-24T10:04:37.947Z</time></trkpt><trkpt lat="44.4001732" lon="8.2742641"><ele>328.0</ele><time>2026-03-24T10:04:39.947Z</time></trkpt><trkpt lat="44.4002376" lon="8.2741433"><ele>328.0</ele><time>2026-03-24T10:04:41.947Z</time></trkpt><trkpt lat="44.4002936" lon="8.2740353"><ele>328.0</ele><time>2026-03-24T10:04:43.946Z</time></trkpt><trkpt lat="44.4003673" lon="8.2739321"><ele>328.0</ele><time>2026-03-24T10:04:45.947Z</time></trkpt><trkpt lat="44.4004292" lon="8.273829"><ele>328.0</ele><time>2026-03-24T10:04:47.946Z</time></trkpt><trkpt lat="44.4004885" lon="8.2737169"><ele>328.0</ele><time>2026-03-24T10:04:49.947Z</time></trkpt><trkpt lat="44.4005608" lon="8.2735994"><ele>327.59999999999997</ele><time>2026-03-24T10:04:51.947Z</time></trkpt><trkpt lat="44.4006284" lon="8.2734948"><ele>327.2</ele><time>2026-03-24T10:04:53.945Z</time></trkpt><trkpt lat="44.4006943" lon="8.2734033"><ele>326.8</ele><time>2026-03-24T10:04:55.947Z</time></trkpt><trkpt lat="44.4007533" lon="8.2733166"><ele>326.4</ele><time>2026-03-24T10:04:57.948Z</time></trkpt><trkpt lat="44.4008106" lon="8.273202"><ele>326.0</ele><time>2026-03-24T10:04:59.947Z</time></trkpt><trkpt lat="44.4008694" lon="8.2731096"><ele>325.6</ele><time>2026-03-24T10:05:01.947Z</time></trkpt><trkpt lat="44.4009268" lon="8.2730527"><ele>325.20000000000005</ele><time>2026-03-24T10:05:03.946Z</time></trkpt><trkpt lat="44.4009737" lon="8.2729365"><ele>324.79999999999995</ele><time>2026-03-24T10:05:05.947Z</time></trkpt><trkpt lat="44.4010365" lon="8.2728345"><ele>324.4</ele><time>2026-03-24T10:05:07.947Z</time></trkpt><trkpt lat="44.4010941" lon="8.2727324"><ele>324.0</ele><time>2026-03-24T10:05:09.948Z</time></trkpt><trkpt lat="44.4011698" lon="8.2726361"><ele>324.0</ele><time>2026-03-24T10:05:11.948Z</time></trkpt><trkpt lat="44.4012103" lon="8.2724991"><ele>324.0</ele><time>2026-03-24T10:05:13.947Z</time></trkpt><trkpt lat="44.401251" lon="8.272412"><ele>324.0</ele><time>2026-03-24T10:05:15.947Z</time></trkpt><trkpt lat="44.4013018" lon="8.2723052"><ele>324.0</ele><time>2026-03-24T10:05:17.948Z</time></trkpt><trkpt lat="44.4013518" lon="8.2721855"><ele>324.0</ele><time>2026-03-24T10:05:19.946Z</time></trkpt><trkpt lat="44.4014035" lon="8.2720854"><ele>323.6</ele><time>2026-03-24T10:05:21.948Z</time></trkpt><trkpt lat="44.4014658" lon="8.2719723"><ele>323.2</ele><time>2026-03-24T10:05:23.947Z</time></trkpt><trkpt lat="44.4015191" lon="8.2718669"><ele>322.8</ele><time>2026-03-24T10:05:25.947Z</time></trkpt><trkpt lat="44.4015745" lon="8.2717555"><ele>322.40000000000003</ele><time>2026-03-24T10:05:27.948Z</time></trkpt><trkpt lat="44.4016403" lon="8.2716433"><ele>322.0</ele><time>2026-03-24T10:05:29.946Z</time></trkpt><trkpt lat="44.4017044" lon="8.2715459"><ele>322.0</ele><time>2026-03-24T10:05:31.948Z</time></trkpt><trkpt lat="44.4017648" lon="8.2714423"><ele>322.0</ele><time>2026-03-24T10:05:33.947Z</time></trkpt><trkpt lat="44.4018245" lon="8.2713507"><ele>322.0</ele><time>2026-03-24T10:05:35.947Z</time></trkpt><trkpt lat="44.4018843" lon="8.271252"><ele>322.0</ele><time>2026-03-24T10:05:37.947Z</time></trkpt><trkpt lat="44.4019501" lon="8.271154"><ele>322.0</ele><time>2026-03-24T10:05:39.947Z</time></trkpt><trkpt lat="44.4020301" lon="8.2710741"><ele>321.66666666666663</ele><time>2026-03-24T10:05:41.947Z</time></trkpt><trkpt lat="44.4021039" lon="8.2709877"><ele>321.3333333333333</ele><time>2026-03-24T10:05:43.947Z</time></trkpt><trkpt lat="44.4021808" lon="8.2709175"><ele>321.0</ele><time>2026-03-24T10:05:45.947Z</time></trkpt><trkpt lat="44.4022558" lon="8.2708532"><ele>320.6666666666667</ele><time>2026-03-24T10:05:47.947Z</time></trkpt><trkpt lat="44.4023296" lon="8.2708036"><ele>320.33333333333337</ele><time>2026-03-24T10:05:49.946Z</time></trkpt><trkpt lat="44.4023938" lon="8.2707648"><ele>320.0</ele><time>2026-03-24T10:05:51.946Z</time></trkpt><trkpt lat="44.4024653" lon="8.2707198"><ele>320.0</ele><time>2026-03-24T10:05:55.947Z</time></trkpt><trkpt lat="44.4025248" lon="8.2706796"><ele>320.0</ele><time>2026-03-24T10:05:57.946Z</time></trkpt><trkpt lat="44.4025961" lon="8.2706314"><ele>320.0</ele><time>2026-03-24T10:05:59.946Z</time></trkpt><trkpt lat="44.4026747" lon="8.2705776"><ele>320.0</ele><time>2026-03-24T10:06:01.948Z</time></trkpt><trkpt lat="44.4027498" lon="8.2705218"><ele>320.0</ele><time>2026-03-24T10:06:03.948Z</time></trkpt><trkpt lat="44.402839" lon="8.2704735"><ele>320.0</ele><time>2026-03-24T10:06:05.946Z</time></trkpt><trkpt lat="44.4029162" lon="8.2704367"><ele>321.0</ele><time>2026-03-24T10:06:07.948Z</time></trkpt><trkpt lat="44.4030001" lon="8.2703713"><ele>322.0</ele><time>2026-03-24T10:06:09.948Z</time></trkpt><trkpt lat="44.403079" lon="8.2703242"><ele>323.0</ele><time>2026-03-24T10:06:11.946Z</time></trkpt><trkpt lat="44.4031648" lon="8.2702619"><ele>324.0</ele><time>2026-03-24T10:06:13.946Z</time></trkpt><trkpt lat="44.4032388" lon="8.2701899"><ele>325.0</ele><time>2026-03-24T10:06:15.946Z</time></trkpt><trkpt lat="44.4033172" lon="8.2701166"><ele>325.0</ele><time>2026-03-24T10:06:17.948Z</time></trkpt><trkpt lat="44.4033916" lon="8.2700375"><ele>325.0</ele><time>2026-03-24T10:06:19.948Z</time></trkpt><trkpt lat="44.4034718" lon="8.2699547"><ele>325.0</ele><time>2026-03-24T10:06:21.947Z</time></trkpt><trkpt lat="44.4035365" lon="8.2698721"><ele>325.0</ele><time>2026-03-24T10:06:23.947Z</time></trkpt><trkpt lat="44.403603" lon="8.2697853"><ele>325.0</ele><time>2026-03-24T10:06:25.948Z</time></trkpt><trkpt lat="44.4036698" lon="8.2697076"><ele>325.16666666666663</ele><time>2026-03-24T10:06:27.947Z</time></trkpt><trkpt lat="44.403741" lon="8.2696251"><ele>325.3333333333333</ele><time>2026-03-24T10:06:29.947Z</time></trkpt><trkpt lat="44.4038073" lon="8.269553"><ele>325.5</ele><time>2026-03-24T10:06:31.947Z</time></trkpt><trkpt lat="44.4038808" lon="8.2694656"><ele>325.6666666666667</ele><time>2026-03-24T10:06:33.948Z</time></trkpt><trkpt lat="44.4039435" lon="8.2693976"><ele>325.83333333333337</ele><time>2026-03-24T10:06:35.947Z</time></trkpt><trkpt lat="44.4040141" lon="8.2693312"><ele>326.0</ele><time>2026-03-24T10:06:37.946Z</time></trkpt><trkpt lat="44.4040842" lon="8.2692626"><ele>326.0</ele><time>2026-03-24T10:06:39.949Z</time></trkpt><trkpt lat="44.4041835" lon="8.2691372"><ele>326.0</ele><time>2026-03-24T10:06:41.948Z</time></trkpt><trkpt lat="44.4041891" lon="8.2689887"><ele>326.0</ele><time>2026-03-24T10:06:43.947Z</time></trkpt><trkpt lat="44.4042537" lon="8.2689475"><ele>326.0</ele><time>2026-03-24T10:06:45.946Z</time></trkpt><trkpt lat="44.4043116" lon="8.2688746"><ele>326.0</ele><time>2026-03-24T10:06:47.947Z</time></trkpt><trkpt lat="44.4044194" lon="8.2688025"><ele>325.8</ele><time>2026-03-24T10:06:49.946Z</time></trkpt><trkpt lat="44.4045145" lon="8.2687446"><ele>325.6</ele><time>2026-03-24T10:06:51.946Z</time></trkpt><trkpt lat="44.404598" lon="8.2687083"><ele>325.4</ele><time>2026-03-24T10:06:53.947Z</time></trkpt><trkpt lat="44.4046834" lon="8.2686919"><ele>325.2</ele><time>2026-03-24T10:06:55.947Z</time></trkpt><trkpt lat="44.4047728" lon="8.2686593"><ele>325.0</ele><time>2026-03-24T10:06:57.946Z</time></trkpt><trkpt lat="44.4048391" lon="8.2685837"><ele>324.8333333333333</ele><time>2026-03-24T10:06:59.946Z</time></trkpt><trkpt lat="44.4048791" lon="8.2684835"><ele>324.66666666666663</ele><time>2026-03-24T10:07:01.947Z</time></trkpt><trkpt lat="44.4049205" lon="8.2683852"><ele>324.5</ele><time>2026-03-24T10:07:03.946Z</time></trkpt><trkpt lat="44.4049586" lon="8.2682858"><ele>324.3333333333333</ele><time>2026-03-24T10:07:05.948Z</time></trkpt><trkpt lat="44.4049956" lon="8.2681766"><ele>324.1666666666667</ele><time>2026-03-24T10:07:07.946Z</time></trkpt><trkpt lat="44.4050314" lon="8.2680651"><ele>324.0</ele><time>2026-03-24T10:07:09.945Z</time></trkpt><trkpt lat="44.4050652" lon="8.2679567"><ele>324.0</ele><time>2026-03-24T10:07:11.945Z</time></trkpt><trkpt lat="44.4051043" lon="8.2678509"><ele>324.0</ele><time>2026-03-24T10:07:13.947Z</time></trkpt><trkpt lat="44.4051419" lon="8.2677472"><ele>324.0</ele><time>2026-03-24T10:07:15.948Z</time></trkpt><trkpt lat="44.4051766" lon="8.2676449"><ele>324.0</ele><time>2026-03-24T10:07:17.946Z</time></trkpt><trkpt lat="44.4052077" lon="8.267545"><ele>324.0</ele><time>2026-03-24T10:07:19.947Z</time></trkpt><trkpt lat="44.4052358" lon="8.267441"><ele>324.0</ele><time>2026-03-24T10:07:21.947Z</time></trkpt><trkpt lat="44.4052638" lon="8.2673304"><ele>324.3333333333333</ele><time>2026-03-24T10:07:23.946Z</time></trkpt><trkpt lat="44.4052947" lon="8.2672176"><ele>324.6666666666667</ele><time>2026-03-24T10:07:25.947Z</time></trkpt><trkpt lat="44.4053306" lon="8.2671058"><ele>325.0</ele><time>2026-03-24T10:07:27.947Z</time></trkpt><trkpt lat="44.4053641" lon="8.2669907"><ele>325.33333333333337</ele><time>2026-03-24T10:07:29.947Z</time></trkpt><trkpt lat="44.4053942" lon="8.2668776"><ele>325.6666666666667</ele><time>2026-03-24T10:07:31.946Z</time></trkpt><trkpt lat="44.4054257" lon="8.2667654"><ele>326.0</ele><time>2026-03-24T10:07:33.947Z</time></trkpt><trkpt lat="44.4054592" lon="8.2666545"><ele>326.0</ele><time>2026-03-24T10:07:35.947Z</time></trkpt><trkpt lat="44.4054924" lon="8.2665458"><ele>326.0</ele><time>2026-03-24T10:07:37.947Z</time></trkpt><trkpt lat="44.4055256" lon="8.266438"><ele>326.0</ele><time>2026-03-24T10:07:39.947Z</time></trkpt><trkpt lat="44.4055575" lon="8.2663337"><ele>326.0</ele><time>2026-03-24T10:07:41.948Z</time></trkpt><trkpt lat="44.4055907" lon="8.2662326"><ele>326.0</ele><time>2026-03-24T10:07:43.947Z</time></trkpt><trkpt lat="44.405634" lon="8.2661386"><ele>326.0</ele><time>2026-03-24T10:07:45.947Z</time></trkpt><trkpt lat="44.4056818" lon="8.266054"><ele>326.0</ele><time>2026-03-24T10:07:47.947Z</time></trkpt><trkpt lat="44.405735" lon="8.2659738"><ele>326.0</ele><time>2026-03-24T10:07:49.948Z</time></trkpt><trkpt lat="44.405785" lon="8.2658819"><ele>326.0</ele><time>2026-03-24T10:07:51.947Z</time></trkpt><trkpt lat="44.4058395" lon="8.2657993"><ele>326.0</ele><time>2026-03-24T10:07:53.947Z</time></trkpt><trkpt lat="44.4058975" lon="8.2657163"><ele>326.0</ele><time>2026-03-24T10:07:55.947Z</time></trkpt><trkpt lat="44.4059548" lon="8.2656379"><ele>326.0</ele><time>2026-03-24T10:07:57.947Z</time></trkpt><trkpt lat="44.4060117" lon="8.2655527"><ele>326.5</ele><time>2026-03-24T10:07:59.948Z</time></trkpt><trkpt lat="44.4060702" lon="8.2654704"><ele>327.0</ele><time>2026-03-24T10:08:01.947Z</time></trkpt><trkpt lat="44.4061302" lon="8.2653886"><ele>327.5</ele><time>2026-03-24T10:08:03.947Z</time></trkpt><trkpt lat="44.4061889" lon="8.2653024"><ele>328.0</ele><time>2026-03-24T10:08:05.947Z</time></trkpt><trkpt lat="44.4062514" lon="8.2652155"><ele>328.5</ele><time>2026-03-24T10:08:07.947Z</time></trkpt><trkpt lat="44.4063122" lon="8.2651259"><ele>329.0</ele><time>2026-03-24T10:08:09.947Z</time></trkpt><trkpt lat="44.4063698" lon="8.2650375"><ele>329.0</ele><time>2026-03-24T10:08:11.947Z</time></trkpt><trkpt lat="44.4064318" lon="8.2649453"><ele>329.0</ele><time>2026-03-24T10:08:13.947Z</time></trkpt><trkpt lat="44.4064958" lon="8.2648558"><ele>329.0</ele><time>2026-03-24T10:08:15.946Z</time></trkpt><trkpt lat="44.4065576" lon="8.2647726"><ele>329.0</ele><time>2026-03-24T10:08:17.947Z</time></trkpt><trkpt lat="44.4066191" lon="8.2646903"><ele>329.0</ele><time>2026-03-24T10:08:19.947Z</time></trkpt><trkpt lat="44.4066741" lon="8.2646029"><ele>329.0</ele><time>2026-03-24T10:08:21.946Z</time></trkpt><trkpt lat="44.4067153" lon="8.2645037"><ele>329.0</ele><time>2026-03-24T10:08:23.947Z</time></trkpt><trkpt lat="44.4067418" lon="8.2643932"><ele>329.0</ele><time>2026-03-24T10:08:25.947Z</time></trkpt><trkpt lat="44.4067447" lon="8.264285"><ele>329.0</ele><time>2026-03-24T10:08:27.947Z</time></trkpt><trkpt lat="44.4067422" lon="8.2641677"><ele>329.0</ele><time>2026-03-24T10:08:29.947Z</time></trkpt><trkpt lat="44.4067314" lon="8.2640525"><ele>329.0</ele><time>2026-03-24T10:08:31.947Z</time></trkpt><trkpt lat="44.4067232" lon="8.2639434"><ele>329.0</ele><time>2026-03-24T10:08:33.947Z</time></trkpt><trkpt lat="44.4067108" lon="8.2638259"><ele>328.6666666666667</ele><time>2026-03-24T10:08:35.947Z</time></trkpt><trkpt lat="44.4067017" lon="8.2637099"><ele>328.33333333333337</ele><time>2026-03-24T10:08:37.947Z</time></trkpt><trkpt lat="44.4066926" lon="8.2635916"><ele>328.0</ele><time>2026-03-24T10:08:39.946Z</time></trkpt><trkpt lat="44.4066877" lon="8.2634743"><ele>327.6666666666667</ele><time>2026-03-24T10:08:41.947Z</time></trkpt><trkpt lat="44.4066923" lon="8.2633555"><ele>327.3333333333333</ele><time>2026-03-24T10:08:43.947Z</time></trkpt><trkpt lat="44.4066979" lon="8.2632354"><ele>327.0</ele><time>2026-03-24T10:08:45.947Z</time></trkpt><trkpt lat="44.4067057" lon="8.2631275"><ele>327.0</ele><time>2026-03-24T10:08:47.945Z</time></trkpt><trkpt lat="44.4067164" lon="8.2630204"><ele>327.0</ele><time>2026-03-24T10:08:49.947Z</time></trkpt><trkpt lat="44.4067206" lon="8.2629107"><ele>327.0</ele><time>2026-03-24T10:08:51.947Z</time></trkpt><trkpt lat="44.4067353" lon="8.2628017"><ele>327.0</ele><time>2026-03-24T10:08:53.947Z</time></trkpt><trkpt lat="44.4067432" lon="8.2626997"><ele>327.0</ele><time>2026-03-24T10:08:55.947Z</time></trkpt><trkpt lat="44.4067504" lon="8.2625996"><ele>327.0</ele><time>2026-03-24T10:08:57.946Z</time></trkpt><trkpt lat="44.4067516" lon="8.2624972"><ele>327.0</ele><time>2026-03-24T10:08:59.947Z</time></trkpt><trkpt lat="44.4067576" lon="8.2623974"><ele>327.0</ele><time>2026-03-24T10:09:01.947Z</time></trkpt><trkpt lat="44.4067648" lon="8.2622932"><ele>327.0</ele><time>2026-03-24T10:09:03.946Z</time></trkpt><trkpt lat="44.4067737" lon="8.2621847"><ele>327.0</ele><time>2026-03-24T10:09:05.946Z</time></trkpt><trkpt lat="44.4067767" lon="8.2620748"><ele>327.0</ele><time>2026-03-24T10:09:07.946Z</time></trkpt><trkpt lat="44.4067769" lon="8.2619657"><ele>327.0</ele><time>2026-03-24T10:09:09.947Z</time></trkpt><trkpt lat="44.4067827" lon="8.2618539"><ele>327.5</ele><time>2026-03-24T10:09:11.947Z</time></trkpt><trkpt lat="44.4067863" lon="8.2617379"><ele>328.0</ele><time>2026-03-24T10:09:13.947Z</time></trkpt><trkpt lat="44.4067919" lon="8.2616236"><ele>328.5</ele><time>2026-03-24T10:09:15.947Z</time></trkpt><trkpt lat="44.4068077" lon="8.2615154"><ele>329.0</ele><time>2026-03-24T10:09:17.947Z</time></trkpt><trkpt lat="44.4068335" lon="8.2614126"><ele>329.5</ele><time>2026-03-24T10:09:19.947Z</time></trkpt><trkpt lat="44.4068637" lon="8.2613128"><ele>330.0</ele><time>2026-03-24T10:09:21.947Z</time></trkpt><trkpt lat="44.4068975" lon="8.2612158"><ele>330.3333333333333</ele><time>2026-03-24T10:09:23.947Z</time></trkpt><trkpt lat="44.40693" lon="8.2611281"><ele>330.6666666666667</ele><time>2026-03-24T10:09:25.947Z</time></trkpt><trkpt lat="44.4069589" lon="8.2610257"><ele>331.0</ele><time>2026-03-24T10:09:27.947Z</time></trkpt><trkpt lat="44.4069862" lon="8.2609146"><ele>331.33333333333337</ele><time>2026-03-24T10:09:29.947Z</time></trkpt><trkpt lat="44.4070034" lon="8.2607985"><ele>331.6666666666667</ele><time>2026-03-24T10:09:31.947Z</time></trkpt><trkpt lat="44.4070106" lon="8.2606811"><ele>332.0</ele><time>2026-03-24T10:09:33.947Z</time></trkpt><trkpt lat="44.4070115" lon="8.260565"><ele>332.33333333333337</ele><time>2026-03-24T10:09:35.947Z</time></trkpt><trkpt lat="44.4070126" lon="8.2604493"><ele>332.6666666666667</ele><time>2026-03-24T10:09:37.947Z</time></trkpt><trkpt lat="44.407013" lon="8.2603368"><ele>333.0</ele><time>2026-03-24T10:09:39.947Z</time></trkpt><trkpt lat="44.4070089" lon="8.2602312"><ele>333.3333333333333</ele><time>2026-03-24T10:09:41.946Z</time></trkpt><trkpt lat="44.4070038" lon="8.2601223"><ele>333.66666666666663</ele><time>2026-03-24T10:09:43.947Z</time></trkpt><trkpt lat="44.4069982" lon="8.2600116"><ele>334.0</ele><time>2026-03-24T10:09:45.948Z</time></trkpt><trkpt lat="44.4069946" lon="8.2599015"><ele>334.0</ele><time>2026-03-24T10:09:47.947Z</time></trkpt><trkpt lat="44.4069938" lon="8.2597897"><ele>334.0</ele><time>2026-03-24T10:09:49.946Z</time></trkpt><trkpt lat="44.406996" lon="8.2596747"><ele>334.0</ele><time>2026-03-24T10:09:51.946Z</time></trkpt><trkpt lat="44.407006" lon="8.2595595"><ele>334.0</ele><time>2026-03-24T10:09:53.947Z</time></trkpt><trkpt lat="44.4070182" lon="8.2594463"><ele>334.0</ele><time>2026-03-24T10:09:55.947Z</time></trkpt><trkpt lat="44.4070393" lon="8.259339"><ele>334.0</ele><time>2026-03-24T10:09:57.947Z</time></trkpt><trkpt lat="44.4070693" lon="8.2592368"><ele>333.8333333333333</ele><time>2026-03-24T10:09:59.946Z</time></trkpt><trkpt lat="44.4071014" lon="8.2591377"><ele>333.66666666666663</ele><time>2026-03-24T10:10:01.947Z</time></trkpt><trkpt lat="44.4071346" lon="8.2590344"><ele>333.5</ele><time>2026-03-24T10:10:03.947Z</time></trkpt><trkpt lat="44.4071668" lon="8.2589294"><ele>333.3333333333333</ele><time>2026-03-24T10:10:05.947Z</time></trkpt><trkpt lat="44.4072003" lon="8.2588303"><ele>333.1666666666667</ele><time>2026-03-24T10:10:07.946Z</time></trkpt><trkpt lat="44.4072353" lon="8.2587242"><ele>333.0</ele><time>2026-03-24T10:10:09.947Z</time></trkpt><trkpt lat="44.4072666" lon="8.2586199"><ele>333.3333333333333</ele><time>2026-03-24T10:10:11.947Z</time></trkpt><trkpt lat="44.4072917" lon="8.2585113"><ele>333.6666666666667</ele><time>2026-03-24T10:10:13.947Z</time></trkpt><trkpt lat="44.4073072" lon="8.2584033"><ele>334.0</ele><time>2026-03-24T10:10:15.946Z</time></trkpt><trkpt lat="44.4073144" lon="8.2582921"><ele>334.33333333333337</ele><time>2026-03-24T10:10:17.947Z</time></trkpt><trkpt lat="44.4073215" lon="8.2581832"><ele>334.6666666666667</ele><time>2026-03-24T10:10:19.947Z</time></trkpt><trkpt lat="44.4073163" lon="8.2580776"><ele>335.0</ele><time>2026-03-24T10:10:21.946Z</time></trkpt><trkpt lat="44.4072843" lon="8.2579771"><ele>335.1666666666667</ele><time>2026-03-24T10:10:23.947Z</time></trkpt><trkpt lat="44.4072387" lon="8.2578934"><ele>335.33333333333337</ele><time>2026-03-24T10:10:25.947Z</time></trkpt><trkpt lat="44.4071971" lon="8.2578147"><ele>335.5</ele><time>2026-03-24T10:10:27.947Z</time></trkpt><trkpt lat="44.4071485" lon="8.2577315"><ele>335.6666666666667</ele><time>2026-03-24T10:10:30.946Z</time></trkpt><trkpt lat="44.4070933" lon="8.257646"><ele>335.8333333333333</ele><time>2026-03-24T10:10:33.946Z</time></trkpt><trkpt lat="44.4070438" lon="8.2575577"><ele>336.0</ele><time>2026-03-24T10:10:36.947Z</time></trkpt><trkpt lat="44.4069917" lon="8.2574714"><ele>335.7142857142857</ele><time>2026-03-24T10:10:39.948Z</time></trkpt><trkpt lat="44.4069405" lon="8.257397"><ele>335.42857142857144</ele><time>2026-03-24T10:10:42.948Z</time></trkpt><trkpt lat="44.4069007" lon="8.2573087"><ele>335.1428571428571</ele><time>2026-03-24T10:10:45.947Z</time></trkpt><trkpt lat="44.4068684" lon="8.2572083"><ele>334.8571428571429</ele><time>2026-03-24T10:10:48.947Z</time></trkpt><trkpt lat="44.4068475" lon="8.2571055"><ele>334.57142857142856</ele><time>2026-03-24T10:10:51.947Z</time></trkpt><trkpt lat="44.4068616" lon="8.2570096"><ele>334.2857142857143</ele><time>2026-03-24T10:10:54.948Z</time></trkpt><trkpt lat="44.4068789" lon="8.2569089"><ele>334.0</ele><time>2026-03-24T10:10:57.947Z</time></trkpt><trkpt lat="44.4068883" lon="8.2568125"><ele>335.57142857142856</ele><time>2026-03-24T10:11:00.947Z</time></trkpt><trkpt lat="44.4069053" lon="8.2567199"><ele>337.14285714285717</ele><time>2026-03-24T10:11:03.947Z</time></trkpt><trkpt lat="44.4069345" lon="8.2566177"><ele>338.7142857142857</ele><time>2026-03-24T10:11:06.947Z</time></trkpt><trkpt lat="44.4069581" lon="8.2565188"><ele>340.2857142857143</ele><time>2026-03-24T10:11:09.946Z</time></trkpt><trkpt lat="44.4069774" lon="8.2564218"><ele>341.85714285714283</ele><time>2026-03-24T10:11:12.945Z</time></trkpt><trkpt lat="44.4070079" lon="8.2563179"><ele>343.42857142857144</ele><time>2026-03-24T10:11:15.947Z</time></trkpt><trkpt lat="44.4070288" lon="8.2562189"><ele>345.0</ele><time>2026-03-24T10:11:18.946Z</time></trkpt><trkpt lat="44.4070513" lon="8.2561206"><ele>344.8571428571429</ele><time>2026-03-24T10:11:21.947Z</time></trkpt><trkpt lat="44.4070698" lon="8.2560195"><ele>344.7142857142857</ele><time>2026-03-24T10:11:24.947Z</time></trkpt><trkpt lat="44.4070807" lon="8.2559259"><ele>344.57142857142856</ele><time>2026-03-24T10:11:27.947Z</time></trkpt><trkpt lat="44.4070949" lon="8.2558319"><ele>344.42857142857144</ele><time>2026-03-24T10:11:30.947Z</time></trkpt><trkpt lat="44.4071191" lon="8.2557303"><ele>344.2857142857143</ele><time>2026-03-24T10:11:33.947Z</time></trkpt><trkpt lat="44.407145" lon="8.2556335"><ele>344.14285714285717</ele><time>2026-03-24T10:11:36.946Z</time></trkpt><trkpt lat="44.4071725" lon="8.2555447"><ele>344.0</ele><time>2026-03-24T10:11:39.947Z</time></trkpt><trkpt lat="44.4071987" lon="8.255449"><ele>344.00000000000006</ele><time>2026-03-24T10:11:42.946Z</time></trkpt><trkpt lat="44.4072218" lon="8.2553508"><ele>344.0</ele><time>2026-03-24T10:11:45.947Z</time></trkpt><trkpt lat="44.4072525" lon="8.2552392"><ele>344.0</ele><time>2026-03-24T10:11:48.947Z</time></trkpt><trkpt lat="44.4072772" lon="8.2551428"><ele>344.0</ele><time>2026-03-24T10:11:51.946Z</time></trkpt><trkpt lat="44.4073013" lon="8.2550523"><ele>344.0</ele><time>2026-03-24T10:11:54.946Z</time></trkpt><trkpt lat="44.407324" lon="8.2549512"><ele>344.00000000000006</ele><time>2026-03-24T10:11:57.946Z</time></trkpt><trkpt lat="44.4073521" lon="8.2548579"><ele>344.0</ele><time>2026-03-24T10:12:00.947Z</time></trkpt><trkpt lat="44.4073647" lon="8.2547561"><ele>344.7142857142857</ele><time>2026-03-24T10:12:03.947Z</time></trkpt><trkpt lat="44.4073762" lon="8.2546606"><ele>345.42857142857144</ele><time>2026-03-24T10:12:06.947Z</time></trkpt><trkpt lat="44.4073749" lon="8.2545676"><ele>346.1428571428571</ele><time>2026-03-24T10:12:09.946Z</time></trkpt><trkpt lat="44.4073759" lon="8.2544742"><ele>346.8571428571429</ele><time>2026-03-24T10:12:12.946Z</time></trkpt><trkpt lat="44.407367" lon="8.2543834"><ele>347.57142857142856</ele><time>2026-03-24T10:12:15.948Z</time></trkpt><trkpt lat="44.4073631" lon="8.2542875"><ele>348.2857142857143</ele><time>2026-03-24T10:12:18.947Z</time></trkpt><trkpt lat="44.4073518" lon="8.2541887"><ele>349.0</ele><time>2026-03-24T10:12:21.947Z</time></trkpt><trkpt lat="44.4073635" lon="8.2540908"><ele>348.99999999999994</ele><time>2026-03-24T10:12:24.946Z</time></trkpt><trkpt lat="44.4073673" lon="8.2539944"><ele>349.0</ele><time>2026-03-24T10:12:27.947Z</time></trkpt><trkpt lat="44.4073908" lon="8.253903"><ele>349.0</ele><time>2026-03-24T10:12:30.946Z</time></trkpt><trkpt lat="44.4074102" lon="8.2538144"><ele>349.0</ele><time>2026-03-24T10:12:33.947Z</time></trkpt><trkpt lat="44.4074258" lon="8.2537254"><ele>349.0</ele><time>2026-03-24T10:12:36.946Z</time></trkpt><trkpt lat="44.4074413" lon="8.2536379"><ele>348.99999999999994</ele><time>2026-03-24T10:12:39.947Z</time></trkpt><trkpt lat="44.4074499" lon="8.2535436"><ele>349.0</ele><time>2026-03-24T10:12:42.947Z</time></trkpt><trkpt lat="44.4074519" lon="8.2534489"><ele>350.4285714285714</ele><time>2026-03-24T10:12:45.947Z</time></trkpt><trkpt lat="44.4074486" lon="8.2533581"><ele>351.85714285714283</ele><time>2026-03-24T10:12:48.947Z</time></trkpt><trkpt lat="44.407453" lon="8.2532683"><ele>353.2857142857143</ele><time>2026-03-24T10:12:51.947Z</time></trkpt><trkpt lat="44.4074443" lon="8.2531774"><ele>354.71428571428567</ele><time>2026-03-24T10:12:54.947Z</time></trkpt><trkpt lat="44.4074422" lon="8.2530811"><ele>356.14285714285717</ele><time>2026-03-24T10:12:57.947Z</time></trkpt><trkpt lat="44.4074346" lon="8.2529859"><ele>357.57142857142856</ele><time>2026-03-24T10:13:00.947Z</time></trkpt><trkpt lat="44.4074281" lon="8.252896"><ele>359.0</ele><time>2026-03-24T10:13:03.947Z</time></trkpt><trkpt lat="44.4074326" lon="8.2528042"><ele>360.7142857142857</ele><time>2026-03-24T10:13:06.947Z</time></trkpt><trkpt lat="44.4074389" lon="8.2527077"><ele>362.42857142857144</ele><time>2026-03-24T10:13:09.947Z</time></trkpt><trkpt lat="44.4074528" lon="8.2526115"><ele>364.1428571428571</ele><time>2026-03-24T10:13:12.946Z</time></trkpt><trkpt lat="44.4074687" lon="8.2525117"><ele>365.8571428571429</ele><time>2026-03-24T10:13:15.947Z</time></trkpt><trkpt lat="44.4074823" lon="8.2524244"><ele>367.57142857142856</ele><time>2026-03-24T10:13:18.946Z</time></trkpt><trkpt lat="44.4074998" lon="8.252334"><ele>369.2857142857143</ele><time>2026-03-24T10:13:21.947Z</time></trkpt><trkpt lat="44.4075207" lon="8.2522483"><ele>371.0</ele><time>2026-03-24T10:13:24.946Z</time></trkpt><trkpt lat="44.4075416" lon="8.2521405"><ele>371.85714285714283</ele><time>2026-03-24T10:13:28.946Z</time></trkpt><trkpt lat="44.4075618" lon="8.2520529"><ele>372.7142857142857</ele><time>2026-03-24T10:13:31.947Z</time></trkpt><trkpt lat="44.4075808" lon="8.2519658"><ele>373.57142857142856</ele><time>2026-03-24T10:13:34.946Z</time></trkpt><trkpt lat="44.4075966" lon="8.2518616"><ele>374.42857142857144</ele><time>2026-03-24T10:13:38.947Z</time></trkpt><trkpt lat="44.4075995" lon="8.2517544"><ele>375.2857142857143</ele><time>2026-03-24T10:13:42.947Z</time></trkpt><trkpt lat="44.4075983" lon="8.2516633"><ele>376.1428571428571</ele><time>2026-03-24T10:13:45.947Z</time></trkpt><trkpt lat="44.4075948" lon="8.2515624"><ele>377.0</ele><time>2026-03-24T10:13:48.947Z</time></trkpt><trkpt lat="44.4075852" lon="8.251461"><ele>375.83333333333337</ele><time>2026-03-24T10:13:51.947Z</time></trkpt><trkpt lat="44.4075684" lon="8.2513732"><ele>374.6666666666667</ele><time>2026-03-24T10:13:54.947Z</time></trkpt><trkpt lat="44.4075335" lon="8.2512772"><ele>373.5</ele><time>2026-03-24T10:13:58.947Z</time></trkpt><trkpt lat="44.407478" lon="8.2511872"><ele>372.3333333333333</ele><time>2026-03-24T10:14:02.947Z</time></trkpt><trkpt lat="44.4074156" lon="8.2511176"><ele>371.16666666666663</ele><time>2026-03-24T10:14:05.946Z</time></trkpt><trkpt lat="44.4073475" lon="8.2510467"><ele>370.0</ele><time>2026-03-24T10:14:08.947Z</time></trkpt><trkpt lat="44.4072791" lon="8.2509844"><ele>369.99999999999994</ele><time>2026-03-24T10:14:11.946Z</time></trkpt><trkpt lat="44.407226" lon="8.2509199"><ele>370.0</ele><time>2026-03-24T10:14:14.947Z</time></trkpt><trkpt lat="44.4071711" lon="8.2508554"><ele>370.0</ele><time>2026-03-24T10:14:17.947Z</time></trkpt><trkpt lat="44.4071294" lon="8.2507795"><ele>370.0</ele><time>2026-03-24T10:14:20.946Z</time></trkpt><trkpt lat="44.4071054" lon="8.2506675"><ele>370.0</ele><time>2026-03-24T10:14:24.946Z</time></trkpt><trkpt lat="44.4070907" lon="8.2505793"><ele>369.99999999999994</ele><time>2026-03-24T10:14:27.947Z</time></trkpt><trkpt lat="44.4070795" lon="8.250488"><ele>370.0</ele><time>2026-03-24T10:14:30.947Z</time></trkpt><trkpt lat="44.4070537" lon="8.2503826"><ele>375.2857142857143</ele><time>2026-03-24T10:14:34.947Z</time></trkpt><trkpt lat="44.407018" lon="8.2502849"><ele>380.57142857142856</ele><time>2026-03-24T10:14:38.947Z</time></trkpt><trkpt lat="44.4070017" lon="8.2501987"><ele>385.8571428571429</ele><time>2026-03-24T10:14:41.947Z</time></trkpt><trkpt lat="44.4069798" lon="8.2501072"><ele>391.1428571428571</ele><time>2026-03-24T10:14:44.946Z</time></trkpt><trkpt lat="44.4069683" lon="8.2500139"><ele>396.42857142857144</ele><time>2026-03-24T10:14:47.947Z</time></trkpt><trkpt lat="44.4069735" lon="8.249906"><ele>401.7142857142857</ele><time>2026-03-24T10:14:50.947Z</time></trkpt><trkpt lat="44.4069818" lon="8.2497967"><ele>407.0</ele><time>2026-03-24T10:14:53.946Z</time></trkpt><trkpt lat="44.4069991" lon="8.2497119"><ele>408.3333333333333</ele><time>2026-03-24T10:14:56.946Z</time></trkpt><trkpt lat="44.4070119" lon="8.2496185"><ele>409.66666666666663</ele><time>2026-03-24T10:14:59.946Z</time></trkpt><trkpt lat="44.40703" lon="8.2495157"><ele>411.0</ele><time>2026-03-24T10:15:02.946Z</time></trkpt><trkpt lat="44.4070577" lon="8.2494253"><ele>412.33333333333337</ele><time>2026-03-24T10:15:05.946Z</time></trkpt><trkpt lat="44.4070899" lon="8.2493334"><ele>413.6666666666667</ele><time>2026-03-24T10:15:08.945Z</time></trkpt><trkpt lat="44.4071408" lon="8.2492365"><ele>415.0</ele><time>2026-03-24T10:15:11.947Z</time></trkpt><trkpt lat="44.4071838" lon="8.2491439"><ele>411.8571428571429</ele><time>2026-03-24T10:15:14.946Z</time></trkpt><trkpt lat="44.4072264" lon="8.2490675"><ele>408.7142857142857</ele><time>2026-03-24T10:15:17.947Z</time></trkpt><trkpt lat="44.4072649" lon="8.2489889"><ele>405.57142857142856</ele><time>2026-03-24T10:15:20.947Z</time></trkpt><trkpt lat="44.4072989" lon="8.248905"><ele>402.42857142857144</ele><time>2026-03-24T10:15:23.947Z</time></trkpt><trkpt lat="44.4073369" lon="8.2488338"><ele>399.2857142857143</ele><time>2026-03-24T10:15:26.947Z</time></trkpt><trkpt lat="44.4073819" lon="8.2487594"><ele>396.14285714285717</ele><time>2026-03-24T10:15:29.946Z</time></trkpt><trkpt lat="44.4074289" lon="8.2486898"><ele>393.0</ele><time>2026-03-24T10:15:32.945Z</time></trkpt><trkpt lat="44.4074782" lon="8.2486245"><ele>393.00000000000006</ele><time>2026-03-24T10:15:35.947Z</time></trkpt><trkpt lat="44.4075241" lon="8.2485485"><ele>393.0</ele><time>2026-03-24T10:15:38.947Z</time></trkpt><trkpt lat="44.4075597" lon="8.2484579"><ele>393.0</ele><time>2026-03-24T10:15:41.946Z</time></trkpt><trkpt lat="44.4075827" lon="8.2483701"><ele>393.0</ele><time>2026-03-24T10:15:44.946Z</time></trkpt><trkpt lat="44.4075774" lon="8.2482552"><ele>393.0</ele><time>2026-03-24T10:15:48.946Z</time></trkpt><trkpt lat="44.4075606" lon="8.2481661"><ele>393.00000000000006</ele><time>2026-03-24T10:15:51.947Z</time></trkpt><trkpt lat="44.4075302" lon="8.2480817"><ele>393.0</ele><time>2026-03-24T10:15:54.947Z</time></trkpt><trkpt lat="44.4074958" lon="8.2479896"><ele>392.42857142857144</ele><time>2026-03-24T10:15:57.947Z</time></trkpt><trkpt lat="44.4074617" lon="8.2479026"><ele>391.8571428571429</ele><time>2026-03-24T10:16:00.946Z</time></trkpt><trkpt lat="44.4074239" lon="8.2478181"><ele>391.28571428571433</ele><time>2026-03-24T10:16:03.947Z</time></trkpt><trkpt lat="44.4073915" lon="8.2477383"><ele>390.7142857142857</ele><time>2026-03-24T10:16:06.946Z</time></trkpt><trkpt lat="44.4073432" lon="8.2476385"><ele>390.1428571428571</ele><time>2026-03-24T10:16:10.947Z</time></trkpt><trkpt lat="44.4073089" lon="8.2475636"><ele>389.5714285714286</ele><time>2026-03-24T10:16:13.944Z</time></trkpt><trkpt lat="44.4072801" lon="8.2474833"><ele>389.0</ele><time>2026-03-24T10:16:16.947Z</time></trkpt><trkpt lat="44.4072517" lon="8.2473865"><ele>389.0</ele><time>2026-03-24T10:16:19.947Z</time></trkpt><trkpt lat="44.4072244" lon="8.247296"><ele>389.0</ele><time>2026-03-24T10:16:22.947Z</time></trkpt><trkpt lat="44.4071908" lon="8.2472118"><ele>389.0</ele><time>2026-03-24T10:16:25.946Z</time></trkpt><trkpt lat="44.4071697" lon="8.2471213"><ele>389.0</ele><time>2026-03-24T10:16:28.947Z</time></trkpt><trkpt lat="44.4071664" lon="8.2470253"><ele>389.0</ele><time>2026-03-24T10:16:31.945Z</time></trkpt><trkpt lat="44.407164" lon="8.2469264"><ele>389.0</ele><time>2026-03-24T10:16:34.946Z</time></trkpt><trkpt lat="44.4071795" lon="8.2468221"><ele>389.0</ele><time>2026-03-24T10:16:37.947Z</time></trkpt><trkpt lat="44.4071881" lon="8.2467311"><ele>389.0</ele><time>2026-03-24T10:16:40.946Z</time></trkpt><trkpt lat="44.4072058" lon="8.2466321"><ele>389.0</ele><time>2026-03-24T10:16:43.946Z</time></trkpt><trkpt lat="44.4072168" lon="8.2465181"><ele>389.0</ele><time>2026-03-24T10:16:47.947Z</time></trkpt><trkpt lat="44.4072305" lon="8.2464224"><ele>389.0</ele><time>2026-03-24T10:16:50.945Z</time></trkpt><trkpt lat="44.4072393" lon="8.2463265"><ele>389.0</ele><time>2026-03-24T10:16:53.947Z</time></trkpt><trkpt lat="44.4072468" lon="8.2462332"><ele>389.0</ele><time>2026-03-24T10:16:56.945Z</time></trkpt><trkpt lat="44.4072602" lon="8.2461218"><ele>389.0</ele><time>2026-03-24T10:17:00.945Z</time></trkpt><trkpt lat="44.407263" lon="8.2460325"><ele>389.2857142857143</ele><time>2026-03-24T10:17:03.947Z</time></trkpt><trkpt lat="44.4072542" lon="8.2459449"><ele>389.57142857142856</ele><time>2026-03-24T10:17:06.946Z</time></trkpt><trkpt lat="44.4072544" lon="8.2458345"><ele>389.85714285714283</ele><time>2026-03-24T10:17:10.946Z</time></trkpt><trkpt lat="44.4072335" lon="8.2457469"><ele>390.1428571428571</ele><time>2026-03-24T10:17:13.947Z</time></trkpt><trkpt lat="44.4072188" lon="8.2456412"><ele>390.42857142857144</ele><time>2026-03-24T10:17:17.946Z</time></trkpt><trkpt lat="44.4071919" lon="8.2455244"><ele>390.71428571428567</ele><time>2026-03-24T10:17:21.947Z</time></trkpt><trkpt lat="44.4071729" lon="8.2454292"><ele>391.0</ele><time>2026-03-24T10:17:24.947Z</time></trkpt><trkpt lat="44.4071439" lon="8.2453288"><ele>393.85714285714283</ele><time>2026-03-24T10:17:28.946Z</time></trkpt><trkpt lat="44.4071071" lon="8.2452397"><ele>396.7142857142857</ele><time>2026-03-24T10:17:31.946Z</time></trkpt><trkpt lat="44.4070686" lon="8.2451558"><ele>399.57142857142856</ele><time>2026-03-24T10:17:34.945Z</time></trkpt><trkpt lat="44.4070278" lon="8.2450798"><ele>402.42857142857144</ele><time>2026-03-24T10:17:37.946Z</time></trkpt><trkpt lat="44.4069814" lon="8.2450081"><ele>405.2857142857143</ele><time>2026-03-24T10:17:40.946Z</time></trkpt><trkpt lat="44.4069407" lon="8.2449108"><ele>408.1428571428571</ele><time>2026-03-24T10:17:44.946Z</time></trkpt><trkpt lat="44.4068856" lon="8.2448297"><ele>411.0</ele><time>2026-03-24T10:17:48.947Z</time></trkpt><trkpt lat="44.4068452" lon="8.2447523"><ele>411.0</ele><time>2026-03-24T10:17:51.947Z</time></trkpt><trkpt lat="44.406808" lon="8.2446693"><ele>411.0</ele><time>2026-03-24T10:17:54.946Z</time></trkpt><trkpt lat="44.4067596" lon="8.2446068"><ele>411.0</ele><time>2026-03-24T10:17:57.946Z</time></trkpt><trkpt lat="44.4067096" lon="8.2445435"><ele>411.0</ele><time>2026-03-24T10:18:00.945Z</time></trkpt><trkpt lat="44.4066525" lon="8.2444814"><ele>411.0</ele><time>2026-03-24T10:18:03.946Z</time></trkpt><trkpt lat="44.4065822" lon="8.2444227"><ele>411.0</ele><time>2026-03-24T10:18:07.946Z</time></trkpt><trkpt lat="44.4065236" lon="8.2443885"><ele>411.0</ele><time>2026-03-24T10:18:10.947Z</time></trkpt><trkpt lat="44.4064442" lon="8.2443605"><ele>411.0</ele><time>2026-03-24T10:18:14.947Z</time></trkpt><trkpt lat="44.4063677" lon="8.2443346"><ele>411.0</ele><time>2026-03-24T10:18:18.947Z</time></trkpt><trkpt lat="44.406297" lon="8.2443021"><ele>411.0</ele><time>2026-03-24T10:18:22.947Z</time></trkpt><trkpt lat="44.4062223" lon="8.2442804"><ele>411.0</ele><time>2026-03-24T10:18:26.946Z</time></trkpt><trkpt lat="44.40615" lon="8.2442343"><ele>411.0</ele><time>2026-03-24T10:18:30.947Z</time></trkpt><trkpt lat="44.4060807" lon="8.244176"><ele>411.0</ele><time>2026-03-24T10:18:34.946Z</time></trkpt><trkpt lat="44.4060242" lon="8.2441354"><ele>412.0</ele><time>2026-03-24T10:18:37.947Z</time></trkpt><trkpt lat="44.4059702" lon="8.2440873"><ele>413.0</ele><time>2026-03-24T10:18:40.947Z</time></trkpt><trkpt lat="44.4059192" lon="8.2440245"><ele>414.0</ele><time>2026-03-24T10:18:43.947Z</time></trkpt><trkpt lat="44.4058756" lon="8.2439589"><ele>415.0</ele><time>2026-03-24T10:18:46.946Z</time></trkpt><trkpt lat="44.4058348" lon="8.2438913"><ele>416.0</ele><time>2026-03-24T10:18:49.947Z</time></trkpt><trkpt lat="44.4057991" lon="8.2438185"><ele>417.0</ele><time>2026-03-24T10:18:52.947Z</time></trkpt><trkpt lat="44.4057773" lon="8.2437145"><ele>418.0</ele><time>2026-03-24T10:18:56.947Z</time></trkpt><trkpt lat="44.4057556" lon="8.2436009"><ele>418.50000000000006</ele><time>2026-03-24T10:19:00.946Z</time></trkpt><trkpt lat="44.4057386" lon="8.2434895"><ele>419.0</ele><time>2026-03-24T10:19:04.946Z</time></trkpt><trkpt lat="44.4057182" lon="8.2433819"><ele>419.5</ele><time>2026-03-24T10:19:08.946Z</time></trkpt><trkpt lat="44.4057051" lon="8.2432795"><ele>420.0</ele><time>2026-03-24T10:19:12.947Z</time></trkpt><trkpt lat="44.4057159" lon="8.2431696"><ele>420.50000000000006</ele><time>2026-03-24T10:19:16.945Z</time></trkpt><trkpt lat="44.4057329" lon="8.2430677"><ele>421.0</ele><time>2026-03-24T10:19:20.946Z</time></trkpt><trkpt lat="44.4057583" lon="8.2429858"><ele>421.00000000000006</ele><time>2026-03-24T10:19:23.946Z</time></trkpt><trkpt lat="44.4057932" lon="8.2428875"><ele>421.0</ele><time>2026-03-24T10:19:27.945Z</time></trkpt><trkpt lat="44.4058365" lon="8.2427948"><ele>421.0</ele><time>2026-03-24T10:19:31.946Z</time></trkpt><trkpt lat="44.4058888" lon="8.2427147"><ele>421.0</ele><time>2026-03-24T10:19:35.947Z</time></trkpt><trkpt lat="44.4059432" lon="8.2426355"><ele>421.00000000000006</ele><time>2026-03-24T10:19:39.946Z</time></trkpt><trkpt lat="44.4059909" lon="8.2425596"><ele>421.0</ele><time>2026-03-24T10:19:43.946Z</time></trkpt><trkpt lat="44.4060393" lon="8.2424769"><ele>421.00000000000006</ele><time>2026-03-24T10:19:47.946Z</time></trkpt><trkpt lat="44.4060863" lon="8.2423981"><ele>421.0</ele><time>2026-03-24T10:19:51.946Z</time></trkpt><trkpt lat="44.4061262" lon="8.2423168"><ele>421.0</ele><time>2026-03-24T10:19:55.946Z</time></trkpt><trkpt lat="44.4061622" lon="8.2422207"><ele>421.0</ele><time>2026-03-24T10:19:59.946Z</time></trkpt><trkpt lat="44.4062013" lon="8.2421318"><ele>421.00000000000006</ele><time>2026-03-24T10:20:03.946Z</time></trkpt><trkpt lat="44.4062319" lon="8.2420337"><ele>421.0</ele><time>2026-03-24T10:20:07.945Z</time></trkpt><trkpt lat="44.4062684" lon="8.2419311"><ele>420.83333333333337</ele><time>2026-03-24T10:20:11.944Z</time></trkpt><trkpt lat="44.406287" lon="8.2418313"><ele>420.6666666666667</ele><time>2026-03-24T10:20:15.945Z</time></trkpt><trkpt lat="44.4063074" lon="8.2417266"><ele>420.5</ele><time>2026-03-24T10:20:19.947Z</time></trkpt><trkpt lat="44.4063287" lon="8.2416189"><ele>420.33333333333337</ele><time>2026-03-24T10:20:23.946Z</time></trkpt><trkpt lat="44.4063534" lon="8.2415121"><ele>420.1666666666667</ele><time>2026-03-24T10:20:27.946Z</time></trkpt><trkpt lat="44.4063844" lon="8.2414116"><ele>420.0</ele><time>2026-03-24T10:20:31.947Z</time></trkpt><trkpt lat="44.4064061" lon="8.2413057"><ele>423.0</ele><time>2026-03-24T10:20:35.945Z</time></trkpt><trkpt lat="44.4064438" lon="8.2412024"><ele>426.0</ele><time>2026-03-24T10:20:39.947Z</time></trkpt><trkpt lat="44.4064856" lon="8.2411295"><ele>429.0</ele><time>2026-03-24T10:20:42.947Z</time></trkpt><trkpt lat="44.4065248" lon="8.2410603"><ele>432.0</ele><time>2026-03-24T10:20:45.946Z</time></trkpt><trkpt lat="44.4065694" lon="8.2409726"><ele>435.0</ele><time>2026-03-24T10:20:49.945Z</time></trkpt><trkpt lat="44.406622" lon="8.2408867"><ele>438.0</ele><time>2026-03-24T10:20:53.947Z</time></trkpt><trkpt lat="44.4066761" lon="8.2408059"><ele>438.0</ele><time>2026-03-24T10:20:57.946Z</time></trkpt><trkpt lat="44.4067187" lon="8.2407409"><ele>438.0</ele><time>2026-03-24T10:21:00.946Z</time></trkpt><trkpt lat="44.406772" lon="8.2406685"><ele>438.0</ele><time>2026-03-24T10:21:04.946Z</time></trkpt><trkpt lat="44.406838" lon="8.2406278"><ele>438.0</ele><time>2026-03-24T10:21:08.946Z</time></trkpt><trkpt lat="44.4069151" lon="8.2405924"><ele>438.0</ele><time>2026-03-24T10:21:12.945Z</time></trkpt><trkpt lat="44.4069888" lon="8.2405573"><ele>438.0</ele><time>2026-03-24T10:21:16.945Z</time></trkpt><trkpt lat="44.4070565" lon="8.2405176"><ele>438.0</ele><time>2026-03-24T10:21:20.946Z</time></trkpt><trkpt lat="44.407122" lon="8.2404863"><ele>439.7142857142857</ele><time>2026-03-24T10:21:24.947Z</time></trkpt><trkpt lat="44.4071859" lon="8.2404549"><ele>441.42857142857144</ele><time>2026-03-24T10:21:28.946Z</time></trkpt><trkpt lat="44.4072511" lon="8.2404099"><ele>443.14285714285717</ele><time>2026-03-24T10:21:32.945Z</time></trkpt><trkpt lat="44.4073257" lon="8.2403827"><ele>444.8571428571429</ele><time>2026-03-24T10:21:36.947Z</time></trkpt><trkpt lat="44.4073906" lon="8.2403357"><ele>446.57142857142856</ele><time>2026-03-24T10:21:40.945Z</time></trkpt><trkpt lat="44.4074505" lon="8.2402839"><ele>448.28571428571433</ele><time>2026-03-24T10:21:44.945Z</time></trkpt><trkpt lat="44.4075002" lon="8.2402057"><ele>450.00000000000006</ele><time>2026-03-24T10:21:48.945Z</time></trkpt><trkpt lat="44.4075286" lon="8.24011"><ele>450.00000000000006</ele><time>2026-03-24T10:21:52.947Z</time></trkpt><trkpt lat="44.4075394" lon="8.240003"><ele>450.0</ele><time>2026-03-24T10:21:56.946Z</time></trkpt><trkpt lat="44.4075463" lon="8.2398976"><ele>450.00000000000006</ele><time>2026-03-24T10:22:00.947Z</time></trkpt><trkpt lat="44.4075487" lon="8.2397879"><ele>450.00000000000006</ele><time>2026-03-24T10:22:04.946Z</time></trkpt><trkpt lat="44.4075593" lon="8.2396821"><ele>450.0</ele><time>2026-03-24T10:22:08.946Z</time></trkpt><trkpt lat="44.407552" lon="8.2395816"><ele>450.00000000000006</ele><time>2026-03-24T10:22:12.945Z</time></trkpt><trkpt lat="44.4075356" lon="8.2394895"><ele>450.00000000000006</ele><time>2026-03-24T10:22:16.946Z</time></trkpt><trkpt lat="44.4075033" lon="8.2393961"><ele>451.4285714285715</ele><time>2026-03-24T10:22:20.946Z</time></trkpt><trkpt lat="44.4074763" lon="8.2393112"><ele>452.8571428571429</ele><time>2026-03-24T10:22:24.947Z</time></trkpt><trkpt lat="44.407447" lon="8.2392218"><ele>454.2857142857143</ele><time>2026-03-24T10:22:28.946Z</time></trkpt><trkpt lat="44.407401" lon="8.2391451"><ele>455.7142857142857</ele><time>2026-03-24T10:22:32.947Z</time></trkpt><trkpt lat="44.4073446" lon="8.2390681"><ele>457.1428571428571</ele><time>2026-03-24T10:22:36.945Z</time></trkpt><trkpt lat="44.4072861" lon="8.2390019"><ele>458.5714285714285</ele><time>2026-03-24T10:22:40.945Z</time></trkpt><trkpt lat="44.4072279" lon="8.2389396"><ele>459.99999999999994</ele><time>2026-03-24T10:22:44.945Z</time></trkpt><trkpt lat="44.4071753" lon="8.2388671"><ele>460.1428571428571</ele><time>2026-03-24T10:22:48.945Z</time></trkpt><trkpt lat="44.4071303" lon="8.2387766"><ele>460.2857142857143</ele><time>2026-03-24T10:22:52.946Z</time></trkpt><trkpt lat="44.4070942" lon="8.2386969"><ele>460.42857142857144</ele><time>2026-03-24T10:22:56.946Z</time></trkpt><trkpt lat="44.4070486" lon="8.2386149"><ele>460.57142857142856</ele><time>2026-03-24T10:23:01.945Z</time></trkpt><trkpt lat="44.4070246" lon="8.2385208"><ele>460.7142857142858</ele><time>2026-03-24T10:23:06.945Z</time></trkpt><trkpt lat="44.4070354" lon="8.2384191"><ele>460.8571428571429</ele><time>2026-03-24T10:23:10.945Z</time></trkpt><trkpt lat="44.4070476" lon="8.238316"><ele>461.0</ele><time>2026-03-24T10:23:14.945Z</time></trkpt><trkpt lat="44.4070291" lon="8.2382049"><ele>463.16666666666663</ele><time>2026-03-24T10:23:18.945Z</time></trkpt><trkpt lat="44.4070094" lon="8.2380964"><ele>465.3333333333333</ele><time>2026-03-24T10:23:22.945Z</time></trkpt><trkpt lat="44.4069882" lon="8.237988"><ele>467.5</ele><time>2026-03-24T10:23:26.945Z</time></trkpt><trkpt lat="44.4069554" lon="8.2379"><ele>469.66666666666663</ele><time>2026-03-24T10:23:30.946Z</time></trkpt><trkpt lat="44.4069266" lon="8.2377977"><ele>471.8333333333333</ele><time>2026-03-24T10:23:34.946Z</time></trkpt><trkpt lat="44.4069024" lon="8.2376962"><ele>474.0</ele><time>2026-03-24T10:23:38.946Z</time></trkpt><trkpt lat="44.4068636" lon="8.2375946"><ele>473.99999999999994</ele><time>2026-03-24T10:23:42.946Z</time></trkpt><trkpt lat="44.4068169" lon="8.2374981"><ele>474.0</ele><time>2026-03-24T10:23:46.945Z</time></trkpt><trkpt lat="44.4067811" lon="8.2374236"><ele>473.99999999999994</ele><time>2026-03-24T10:23:49.946Z</time></trkpt><trkpt lat="44.4067291" lon="8.2373384"><ele>473.99999999999994</ele><time>2026-03-24T10:23:53.946Z</time></trkpt><trkpt lat="44.4066662" lon="8.2372672"><ele>474.0</ele><time>2026-03-24T10:23:57.946Z</time></trkpt><trkpt lat="44.4066086" lon="8.2371952"><ele>473.99999999999994</ele><time>2026-03-24T10:24:01.945Z</time></trkpt><trkpt lat="44.4065609" lon="8.2371364"><ele>473.99999999999994</ele><time>2026-03-24T10:24:04.945Z</time></trkpt><trkpt lat="44.4064881" lon="8.2370783"><ele>475.6666666666667</ele><time>2026-03-24T10:24:08.946Z</time></trkpt><trkpt lat="44.406428" lon="8.2370363"><ele>477.33333333333337</ele><time>2026-03-24T10:24:11.946Z</time></trkpt><trkpt lat="44.4063574" lon="8.2369729"><ele>479.0</ele><time>2026-03-24T10:24:15.946Z</time></trkpt><trkpt lat="44.4062858" lon="8.2369394"><ele>480.6666666666667</ele><time>2026-03-24T10:24:19.946Z</time></trkpt><trkpt lat="44.4062044" lon="8.2369379"><ele>482.33333333333337</ele><time>2026-03-24T10:24:23.946Z</time></trkpt><trkpt lat="44.4061234" lon="8.2369085"><ele>484.0</ele><time>2026-03-24T10:24:27.944Z</time></trkpt><trkpt lat="44.4060428" lon="8.2368724"><ele>484.00000000000006</ele><time>2026-03-24T10:24:31.946Z</time></trkpt><trkpt lat="44.4059777" lon="8.2368453"><ele>484.0</ele><time>2026-03-24T10:24:34.945Z</time></trkpt><trkpt lat="44.4058992" lon="8.2368065"><ele>484.0</ele><time>2026-03-24T10:24:38.946Z</time></trkpt><trkpt lat="44.4058356" lon="8.2367821"><ele>484.0</ele><time>2026-03-24T10:24:41.946Z</time></trkpt><trkpt lat="44.4057562" lon="8.2367583"><ele>484.00000000000006</ele><time>2026-03-24T10:24:45.946Z</time></trkpt><trkpt lat="44.4056762" lon="8.2367472"><ele>484.0</ele><time>2026-03-24T10:24:49.945Z</time></trkpt><trkpt lat="44.4056007" lon="8.2367501"><ele>484.00000000000006</ele><time>2026-03-24T10:24:53.946Z</time></trkpt><trkpt lat="44.4055213" lon="8.2367421"><ele>484.0</ele><time>2026-03-24T10:24:57.945Z</time></trkpt><trkpt lat="44.4054378" lon="8.2367328"><ele>484.0</ele><time>2026-03-24T10:25:01.946Z</time></trkpt><trkpt lat="44.4053567" lon="8.2367341"><ele>484.0</ele><time>2026-03-24T10:25:05.946Z</time></trkpt><trkpt lat="44.4052775" lon="8.2367159"><ele>484.00000000000006</ele><time>2026-03-24T10:25:09.945Z</time></trkpt><trkpt lat="44.4051967" lon="8.2366905"><ele>484.0</ele><time>2026-03-24T10:25:13.946Z</time></trkpt><trkpt lat="44.405125" lon="8.2366775"><ele>484.4285714285714</ele><time>2026-03-24T10:25:16.945Z</time></trkpt><trkpt lat="44.4050611" lon="8.2366577"><ele>484.8571428571428</ele><time>2026-03-24T10:25:19.945Z</time></trkpt><trkpt lat="44.4049843" lon="8.2366324"><ele>485.2857142857143</ele><time>2026-03-24T10:25:23.945Z</time></trkpt><trkpt lat="44.4049233" lon="8.2366104"><ele>485.71428571428567</ele><time>2026-03-24T10:25:26.946Z</time></trkpt><trkpt lat="44.4048618" lon="8.2365893"><ele>486.1428571428571</ele><time>2026-03-24T10:25:29.946Z</time></trkpt><trkpt lat="44.4047994" lon="8.2365633"><ele>486.57142857142856</ele><time>2026-03-24T10:25:32.946Z</time></trkpt><trkpt lat="44.4047406" lon="8.2365318"><ele>487.0</ele><time>2026-03-24T10:25:35.946Z</time></trkpt><trkpt lat="44.4046669" lon="8.2364786"><ele>489.28571428571433</ele><time>2026-03-24T10:25:39.946Z</time></trkpt><trkpt lat="44.4046081" lon="8.2364438"><ele>491.57142857142856</ele><time>2026-03-24T10:25:42.945Z</time></trkpt><trkpt lat="44.4045478" lon="8.2364093"><ele>493.8571428571429</ele><time>2026-03-24T10:25:45.946Z</time></trkpt><trkpt lat="44.404482" lon="8.236383"><ele>496.14285714285717</ele><time>2026-03-24T10:25:48.945Z</time></trkpt><trkpt lat="44.4044185" lon="8.2363547"><ele>498.42857142857144</ele><time>2026-03-24T10:25:51.946Z</time></trkpt><trkpt lat="44.4043546" lon="8.2363215"><ele>500.7142857142857</ele><time>2026-03-24T10:25:54.946Z</time></trkpt><trkpt lat="44.4042937" lon="8.2362885"><ele>503.0</ele><time>2026-03-24T10:25:57.944Z</time></trkpt><trkpt lat="44.4042338" lon="8.2362535"><ele>503.0</ele><time>2026-03-24T10:26:00.944Z</time></trkpt><trkpt lat="44.4041709" lon="8.2362246"><ele>503.00000000000006</ele><time>2026-03-24T10:26:03.946Z</time></trkpt><trkpt lat="44.4041088" lon="8.2362006"><ele>503.0</ele><time>2026-03-24T10:26:06.946Z</time></trkpt><trkpt lat="44.4040471" lon="8.2361814"><ele>503.0</ele><time>2026-03-24T10:26:09.946Z</time></trkpt><trkpt lat="44.4039849" lon="8.2361643"><ele>503.00000000000006</ele><time>2026-03-24T10:26:12.945Z</time></trkpt><trkpt lat="44.4039044" lon="8.2361453"><ele>503.0</ele><time>2026-03-24T10:26:16.946Z</time></trkpt><trkpt lat="44.4038314" lon="8.2361494"><ele>503.0</ele><time>2026-03-24T10:26:20.946Z</time></trkpt><trkpt lat="44.4037589" lon="8.2361865"><ele>504.8571428571429</ele><time>2026-03-24T10:26:24.946Z</time></trkpt><trkpt lat="44.4036996" lon="8.2362178"><ele>506.7142857142858</ele><time>2026-03-24T10:26:27.946Z</time></trkpt><trkpt lat="44.4036322" lon="8.2362499"><ele>508.57142857142856</ele><time>2026-03-24T10:26:30.945Z</time></trkpt><trkpt lat="44.4035698" lon="8.2362679"><ele>510.42857142857144</ele><time>2026-03-24T10:26:33.946Z</time></trkpt><trkpt lat="44.4034917" lon="8.2362921"><ele>512.2857142857142</ele><time>2026-03-24T10:26:37.945Z</time></trkpt><trkpt lat="44.4034153" lon="8.2363021"><ele>514.1428571428571</ele><time>2026-03-24T10:26:41.945Z</time></trkpt><trkpt lat="44.4033446" lon="8.2362929"><ele>516.0</ele><time>2026-03-24T10:26:45.944Z</time></trkpt><trkpt lat="44.4032751" lon="8.2362483"><ele>515.9999999999999</ele><time>2026-03-24T10:26:49.946Z</time></trkpt><trkpt lat="44.4032336" lon="8.2361597"><ele>516.0</ele><time>2026-03-24T10:26:53.944Z</time></trkpt><trkpt lat="44.4032335" lon="8.236058"><ele>516.0</ele><time>2026-03-24T10:26:57.946Z</time></trkpt><trkpt lat="44.4032507" lon="8.2359604"><ele>516.0</ele><time>2026-03-24T10:27:01.945Z</time></trkpt><trkpt lat="44.4032764" lon="8.2358697"><ele>516.0</ele><time>2026-03-24T10:27:06.946Z</time></trkpt><trkpt lat="44.4033187" lon="8.2357909"><ele>515.9999999999999</ele><time>2026-03-24T10:27:10.945Z</time></trkpt><trkpt lat="44.4033665" lon="8.23571"><ele>516.0</ele><time>2026-03-24T10:27:14.945Z</time></trkpt><trkpt lat="44.403429" lon="8.2356448"><ele>518.3333333333334</ele><time>2026-03-24T10:27:18.944Z</time></trkpt><trkpt lat="44.4035119" lon="8.235594"><ele>520.6666666666666</ele><time>2026-03-24T10:27:22.946Z</time></trkpt><trkpt lat="44.4035783" lon="8.2355553"><ele>523.0</ele><time>2026-03-24T10:27:25.945Z</time></trkpt><trkpt lat="44.4036609" lon="8.2355165"><ele>525.3333333333333</ele><time>2026-03-24T10:27:29.945Z</time></trkpt><trkpt lat="44.4037325" lon="8.2354948"><ele>527.6666666666666</ele><time>2026-03-24T10:27:32.944Z</time></trkpt><trkpt lat="44.4038107" lon="8.2354783"><ele>530.0</ele><time>2026-03-24T10:27:36.944Z</time></trkpt><trkpt lat="44.4038859" lon="8.2354757"><ele>529.9999999999999</ele><time>2026-03-24T10:27:40.946Z</time></trkpt><trkpt lat="44.4039624" lon="8.2354879"><ele>530.0</ele><time>2026-03-24T10:27:44.946Z</time></trkpt><trkpt lat="44.4040425" lon="8.2355146"><ele>530.0</ele><time>2026-03-24T10:27:48.945Z</time></trkpt><trkpt lat="44.404124" lon="8.2355436"><ele>530.0</ele><time>2026-03-24T10:27:52.945Z</time></trkpt><trkpt lat="44.4041858" lon="8.2355722"><ele>530.0</ele><time>2026-03-24T10:27:55.946Z</time></trkpt><trkpt lat="44.4042451" lon="8.2356052"><ele>529.9999999999999</ele><time>2026-03-24T10:27:58.946Z</time></trkpt><trkpt lat="44.4043157" lon="8.2356278"><ele>530.0</ele><time>2026-03-24T10:28:01.946Z</time></trkpt><trkpt lat="44.4043933" lon="8.235668"><ele>531.1428571428571</ele><time>2026-03-24T10:28:05.945Z</time></trkpt><trkpt lat="44.4044554" lon="8.2356902"><ele>532.2857142857142</ele><time>2026-03-24T10:28:08.944Z</time></trkpt><trkpt lat="44.4045354" lon="8.2356877"><ele>533.4285714285714</ele><time>2026-03-24T10:28:12.945Z</time></trkpt><trkpt lat="44.4046046" lon="8.235706"><ele>534.5714285714286</ele><time>2026-03-24T10:28:15.946Z</time></trkpt><trkpt lat="44.4046866" lon="8.2356865"><ele>535.7142857142858</ele><time>2026-03-24T10:28:19.945Z</time></trkpt><trkpt lat="44.4047489" lon="8.235659"><ele>536.8571428571429</ele><time>2026-03-24T10:28:22.946Z</time></trkpt><trkpt lat="44.4048253" lon="8.235623"><ele>538.0</ele><time>2026-03-24T10:28:26.943Z</time></trkpt><trkpt lat="44.4049055" lon="8.2355897"><ele>538.0</ele><time>2026-03-24T10:28:30.946Z</time></trkpt><trkpt lat="44.4049859" lon="8.2355716"><ele>538.0</ele><time>2026-03-24T10:28:34.944Z</time></trkpt><trkpt lat="44.4050622" lon="8.2355506"><ele>538.0</ele><time>2026-03-24T10:28:38.946Z</time></trkpt><trkpt lat="44.4051434" lon="8.2355288"><ele>538.0</ele><time>2026-03-24T10:28:42.945Z</time></trkpt><trkpt lat="44.4052179" lon="8.2355072"><ele>538.0</ele><time>2026-03-24T10:28:46.944Z</time></trkpt><trkpt lat="44.405295" lon="8.2354629"><ele>538.0</ele><time>2026-03-24T10:28:50.945Z</time></trkpt><trkpt lat="44.4053519" lon="8.2354242"><ele>538.0</ele><time>2026-03-24T10:28:53.945Z</time></trkpt><trkpt lat="44.4054101" lon="8.2353894"><ele>538.0</ele><time>2026-03-24T10:28:56.945Z</time></trkpt><trkpt lat="44.4054807" lon="8.235337"><ele>538.0</ele><time>2026-03-24T10:29:00.945Z</time></trkpt><trkpt lat="44.4055424" lon="8.2352838"><ele>538.0</ele><time>2026-03-24T10:29:04.945Z</time></trkpt><trkpt lat="44.4056053" lon="8.2352077"><ele>538.0</ele><time>2026-03-24T10:29:08.945Z</time></trkpt><trkpt lat="44.405658" lon="8.2351451"><ele>538.0</ele><time>2026-03-24T10:29:11.945Z</time></trkpt><trkpt lat="44.4057091" lon="8.2350863"><ele>538.0</ele><time>2026-03-24T10:29:14.944Z</time></trkpt><trkpt lat="44.4057813" lon="8.2350305"><ele>536.8571428571429</ele><time>2026-03-24T10:29:18.946Z</time></trkpt><trkpt lat="44.4058459" lon="8.2350097"><ele>535.7142857142858</ele><time>2026-03-24T10:29:21.945Z</time></trkpt><trkpt lat="44.405911" lon="8.2350171"><ele>534.5714285714286</ele><time>2026-03-24T10:29:24.946Z</time></trkpt><trkpt lat="44.4059813" lon="8.2350542"><ele>533.4285714285714</ele><time>2026-03-24T10:29:28.945Z</time></trkpt><trkpt lat="44.4060511" lon="8.2351268"><ele>532.2857142857142</ele><time>2026-03-24T10:29:32.945Z</time></trkpt><trkpt lat="44.4061035" lon="8.2351795"><ele>531.1428571428571</ele><time>2026-03-24T10:29:35.944Z</time></trkpt><trkpt lat="44.4061552" lon="8.2352415"><ele>530.0</ele><time>2026-03-24T10:29:38.945Z</time></trkpt><trkpt lat="44.4062237" lon="8.235297"><ele>530.0</ele><time>2026-03-24T10:29:42.944Z</time></trkpt><trkpt lat="44.4062869" lon="8.2353665"><ele>530.0</ele><time>2026-03-24T10:29:46.943Z</time></trkpt><trkpt lat="44.4063355" lon="8.2354265"><ele>530.0</ele><time>2026-03-24T10:29:49.944Z</time></trkpt><trkpt lat="44.4063877" lon="8.235489"><ele>530.0</ele><time>2026-03-24T10:29:53.945Z</time></trkpt><trkpt lat="44.4064533" lon="8.2355557"><ele>530.0</ele><time>2026-03-24T10:29:58.946Z</time></trkpt><trkpt lat="44.4065235" lon="8.2355954"><ele>530.0</ele><time>2026-03-24T10:30:02.945Z</time></trkpt><trkpt lat="44.406602" lon="8.2355771"><ele>532.1428571428571</ele><time>2026-03-24T10:30:06.944Z</time></trkpt><trkpt lat="44.4066662" lon="8.2355673"><ele>534.2857142857142</ele><time>2026-03-24T10:30:09.945Z</time></trkpt><trkpt lat="44.4067438" lon="8.235543"><ele>536.4285714285714</ele><time>2026-03-24T10:30:13.945Z</time></trkpt><trkpt lat="44.4068092" lon="8.2355307"><ele>538.5714285714286</ele><time>2026-03-24T10:30:16.945Z</time></trkpt><trkpt lat="44.4068744" lon="8.2355138"><ele>540.7142857142858</ele><time>2026-03-24T10:30:20.945Z</time></trkpt><trkpt lat="44.4069373" lon="8.2354839"><ele>542.8571428571429</ele><time>2026-03-24T10:30:24.945Z</time></trkpt><trkpt lat="44.4070019" lon="8.2354468"><ele>545.0</ele><time>2026-03-24T10:30:28.945Z</time></trkpt><trkpt lat="44.4070679" lon="8.2354138"><ele>545.0</ele><time>2026-03-24T10:30:32.944Z</time></trkpt><trkpt lat="44.4071379" lon="8.2353736"><ele>545.0</ele><time>2026-03-24T10:30:36.945Z</time></trkpt><trkpt lat="44.407209" lon="8.2353408"><ele>545.0</ele><time>2026-03-24T10:30:40.945Z</time></trkpt><trkpt lat="44.407272" lon="8.2352949"><ele>545.0</ele><time>2026-03-24T10:30:44.945Z</time></trkpt><trkpt lat="44.4073347" lon="8.2352562"><ele>545.0</ele><time>2026-03-24T10:30:48.945Z</time></trkpt><trkpt lat="44.4073965" lon="8.2352114"><ele>545.0</ele><time>2026-03-24T10:30:52.945Z</time></trkpt><trkpt lat="44.4074622" lon="8.2351562"><ele>545.0</ele><time>2026-03-24T10:30:57.945Z</time></trkpt><trkpt lat="44.4075191" lon="8.2351073"><ele>545.5714285714286</ele><time>2026-03-24T10:31:01.944Z</time></trkpt><trkpt lat="44.4075855" lon="8.2350583"><ele>546.1428571428572</ele><time>2026-03-24T10:31:05.945Z</time></trkpt><trkpt lat="44.4076518" lon="8.2350004"><ele>546.7142857142858</ele><time>2026-03-24T10:31:09.946Z</time></trkpt><trkpt lat="44.4077143" lon="8.2349408"><ele>547.2857142857143</ele><time>2026-03-24T10:31:13.945Z</time></trkpt><trkpt lat="44.4077789" lon="8.2348812"><ele>547.8571428571429</ele><time>2026-03-24T10:31:18.945Z</time></trkpt><trkpt lat="44.4078331" lon="8.2348264"><ele>548.4285714285714</ele><time>2026-03-24T10:31:22.945Z</time></trkpt><trkpt lat="44.4078946" lon="8.2347902"><ele>549.0</ele><time>2026-03-24T10:31:26.945Z</time></trkpt><trkpt lat="44.4079559" lon="8.2347441"><ele>550.8571428571429</ele><time>2026-03-24T10:31:30.946Z</time></trkpt><trkpt lat="44.4080193" lon="8.2346955"><ele>552.7142857142858</ele><time>2026-03-24T10:31:34.945Z</time></trkpt><trkpt lat="44.4080827" lon="8.2346549"><ele>554.5714285714287</ele><time>2026-03-24T10:31:38.944Z</time></trkpt><trkpt lat="44.4081604" lon="8.2346135"><ele>556.4285714285714</ele><time>2026-03-24T10:31:42.945Z</time></trkpt><trkpt lat="44.4082267" lon="8.2346108"><ele>558.2857142857143</ele><time>2026-03-24T10:31:45.945Z</time></trkpt><trkpt lat="44.4083016" lon="8.2346002"><ele>560.1428571428572</ele><time>2026-03-24T10:31:49.945Z</time></trkpt><trkpt lat="44.4083769" lon="8.2345751"><ele>562.0</ele><time>2026-03-24T10:31:54.945Z</time></trkpt><trkpt lat="44.4084409" lon="8.2345684"><ele>562.0000000000001</ele><time>2026-03-24T10:31:58.945Z</time></trkpt><trkpt lat="44.4085037" lon="8.2345502"><ele>562.0</ele><time>2026-03-24T10:32:01.945Z</time></trkpt><trkpt lat="44.4085749" lon="8.2345303"><ele>562.0</ele><time>2026-03-24T10:32:05.945Z</time></trkpt><trkpt lat="44.408635" lon="8.2345006"><ele>562.0</ele><time>2026-03-24T10:32:08.944Z</time></trkpt><trkpt lat="44.4086969" lon="8.2344734"><ele>562.0</ele><time>2026-03-24T10:32:11.945Z</time></trkpt><trkpt lat="44.4087422" lon="8.2344022"><ele>562.0000000000001</ele><time>2026-03-24T10:32:15.945Z</time></trkpt><trkpt lat="44.4087811" lon="8.234329"><ele>562.0</ele><time>2026-03-24T10:32:19.944Z</time></trkpt><trkpt lat="44.408806" lon="8.2342265"><ele>562.0000000000001</ele><time>2026-03-24T10:32:24.945Z</time></trkpt><trkpt lat="44.4087968" lon="8.2341275"><ele>562.0</ele><time>2026-03-24T10:32:28.945Z</time></trkpt><trkpt lat="44.408802" lon="8.2340257"><ele>562.0</ele><time>2026-03-24T10:32:32.945Z</time></trkpt><trkpt lat="44.4087753" lon="8.2339229"><ele>562.0</ele><time>2026-03-24T10:32:36.945Z</time></trkpt><trkpt lat="44.4087304" lon="8.2338416"><ele>562.0</ele><time>2026-03-24T10:32:40.945Z</time></trkpt><trkpt lat="44.4086749" lon="8.2337988"><ele>562.0000000000001</ele><time>2026-03-24T10:32:43.945Z</time></trkpt><trkpt lat="44.408601" lon="8.2337598"><ele>562.0</ele><time>2026-03-24T10:32:47.944Z</time></trkpt><trkpt lat="44.4085277" lon="8.2337439"><ele>562.0000000000001</ele><time>2026-03-24T10:32:51.943Z</time></trkpt><trkpt lat="44.4084506" lon="8.2337681"><ele>562.0</ele><time>2026-03-24T10:32:55.943Z</time></trkpt><trkpt lat="44.4083794" lon="8.2337982"><ele>562.0</ele><time>2026-03-24T10:32:59.945Z</time></trkpt><trkpt lat="44.4083166" lon="8.2338303"><ele>562.0</ele><time>2026-03-24T10:33:03.945Z</time></trkpt><trkpt lat="44.4082526" lon="8.2338727"><ele>562.0</ele><time>2026-03-24T10:33:07.944Z</time></trkpt><trkpt lat="44.4081782" lon="8.2339226"><ele>562.0000000000001</ele><time>2026-03-24T10:33:11.945Z</time></trkpt><trkpt lat="44.408113" lon="8.233965"><ele>562.0</ele><time>2026-03-24T10:33:15.945Z</time></trkpt><trkpt lat="44.4080454" lon="8.2340147"><ele>563.5714285714287</ele><time>2026-03-24T10:33:19.944Z</time></trkpt><trkpt lat="44.4079799" lon="8.2340599"><ele>565.1428571428571</ele><time>2026-03-24T10:33:23.944Z</time></trkpt><trkpt lat="44.4079109" lon="8.2340954"><ele>566.7142857142858</ele><time>2026-03-24T10:33:27.944Z</time></trkpt><trkpt lat="44.4078463" lon="8.2341283"><ele>568.2857142857143</ele><time>2026-03-24T10:33:31.944Z</time></trkpt><trkpt lat="44.4077812" lon="8.2341606"><ele>569.8571428571429</ele><time>2026-03-24T10:33:35.944Z</time></trkpt><trkpt lat="44.407712" lon="8.2342078"><ele>571.4285714285714</ele><time>2026-03-24T10:33:39.945Z</time></trkpt><trkpt lat="44.4076379" lon="8.2342529"><ele>573.0</ele><time>2026-03-24T10:33:43.945Z</time></trkpt><trkpt lat="44.4075764" lon="8.234279"><ele>573.0</ele><time>2026-03-24T10:33:46.945Z</time></trkpt><trkpt lat="44.4075059" lon="8.2343136"><ele>573.0</ele><time>2026-03-24T10:33:50.944Z</time></trkpt><trkpt lat="44.4074385" lon="8.2343549"><ele>573.0</ele><time>2026-03-24T10:33:54.945Z</time></trkpt><trkpt lat="44.4073607" lon="8.2343877"><ele>573.0</ele><time>2026-03-24T10:33:58.945Z</time></trkpt><trkpt lat="44.4072811" lon="8.234393"><ele>573.0</ele><time>2026-03-24T10:34:02.944Z</time></trkpt><trkpt lat="44.4072165" lon="8.234376"><ele>573.0</ele><time>2026-03-24T10:34:05.945Z</time></trkpt><trkpt lat="44.4071429" lon="8.2343434"><ele>573.5</ele><time>2026-03-24T10:34:09.943Z</time></trkpt><trkpt lat="44.4070725" lon="8.2342999"><ele>574.0</ele><time>2026-03-24T10:34:13.945Z</time></trkpt><trkpt lat="44.4070013" lon="8.2342582"><ele>574.5</ele><time>2026-03-24T10:34:17.943Z</time></trkpt><trkpt lat="44.4069267" lon="8.2342056"><ele>575.0</ele><time>2026-03-24T10:34:21.945Z</time></trkpt><trkpt lat="44.4068686" lon="8.234166"><ele>575.5</ele><time>2026-03-24T10:34:24.944Z</time></trkpt><trkpt lat="44.4068099" lon="8.234128"><ele>576.0</ele><time>2026-03-24T10:34:27.943Z</time></trkpt><trkpt lat="44.4067348" lon="8.2340742"><ele>576.0000000000001</ele><time>2026-03-24T10:34:31.945Z</time></trkpt><trkpt lat="44.4066743" lon="8.2340351"><ele>576.0</ele><time>2026-03-24T10:34:34.945Z</time></trkpt><trkpt lat="44.4066151" lon="8.2340036"><ele>576.0</ele><time>2026-03-24T10:34:37.943Z</time></trkpt><trkpt lat="44.4065515" lon="8.2339667"><ele>576.0</ele><time>2026-03-24T10:34:40.945Z</time></trkpt><trkpt lat="44.4064815" lon="8.2339326"><ele>576.0</ele><time>2026-03-24T10:34:43.945Z</time></trkpt><trkpt lat="44.4064182" lon="8.2339127"><ele>576.0000000000001</ele><time>2026-03-24T10:34:46.944Z</time></trkpt><trkpt lat="44.4063363" lon="8.2338726"><ele>576.0</ele><time>2026-03-24T10:34:50.944Z</time></trkpt><trkpt lat="44.4062716" lon="8.233841"><ele>580.0000000000001</ele><time>2026-03-24T10:34:53.945Z</time></trkpt><trkpt lat="44.4062047" lon="8.2338101"><ele>584.0</ele><time>2026-03-24T10:34:56.944Z</time></trkpt><trkpt lat="44.4061357" lon="8.2337909"><ele>588.0</ele><time>2026-03-24T10:34:59.945Z</time></trkpt><trkpt lat="44.4060745" lon="8.2337516"><ele>592.0</ele><time>2026-03-24T10:35:02.944Z</time></trkpt><trkpt lat="44.406004" lon="8.2337191"><ele>596.0</ele><time>2026-03-24T10:35:05.944Z</time></trkpt><trkpt lat="44.4059357" lon="8.2336941"><ele>600.0000000000001</ele><time>2026-03-24T10:35:08.945Z</time></trkpt><trkpt lat="44.4058644" lon="8.2336757"><ele>604.0</ele><time>2026-03-24T10:35:11.945Z</time></trkpt><trkpt lat="44.4057924" lon="8.2336615"><ele>604.0</ele><time>2026-03-24T10:35:14.945Z</time></trkpt><trkpt lat="44.4057193" lon="8.2336672"><ele>604.0</ele><time>2026-03-24T10:35:17.944Z</time></trkpt><trkpt lat="44.4056495" lon="8.2336777"><ele>604.0</ele><time>2026-03-24T10:35:20.944Z</time></trkpt><trkpt lat="44.4055705" lon="8.2336887"><ele>604.0</ele><time>2026-03-24T10:35:23.945Z</time></trkpt><trkpt lat="44.4054869" lon="8.2337092"><ele>604.0</ele><time>2026-03-24T10:35:26.944Z</time></trkpt><trkpt lat="44.4054074" lon="8.2337241"><ele>604.0</ele><time>2026-03-24T10:35:29.944Z</time></trkpt><trkpt lat="44.4053232" lon="8.2337332"><ele>606.1666666666667</ele><time>2026-03-24T10:35:32.945Z</time></trkpt><trkpt lat="44.4052379" lon="8.2337393"><ele>608.3333333333334</ele><time>2026-03-24T10:35:35.944Z</time></trkpt><trkpt lat="44.4051451" lon="8.2337539"><ele>610.5</ele><time>2026-03-24T10:35:38.945Z</time></trkpt><trkpt lat="44.4050588" lon="8.2337709"><ele>612.6666666666666</ele><time>2026-03-24T10:35:41.945Z</time></trkpt><trkpt lat="44.4049772" lon="8.2337791"><ele>614.8333333333333</ele><time>2026-03-24T10:35:44.944Z</time></trkpt><trkpt lat="44.4048947" lon="8.2337738"><ele>617.0</ele><time>2026-03-24T10:35:47.945Z</time></trkpt><trkpt lat="44.4048147" lon="8.2337558"><ele>617.0</ele><time>2026-03-24T10:35:50.944Z</time></trkpt><trkpt lat="44.4047332" lon="8.2337261"><ele>617.0</ele><time>2026-03-24T10:35:53.944Z</time></trkpt><trkpt lat="44.4046542" lon="8.2336778"><ele>617.0</ele><time>2026-03-24T10:35:56.944Z</time></trkpt><trkpt lat="44.4045722" lon="8.2336331"><ele>617.0</ele><time>2026-03-24T10:35:59.945Z</time></trkpt><trkpt lat="44.4044877" lon="8.233607"><ele>617.0</ele><time>2026-03-24T10:36:02.943Z</time></trkpt><trkpt lat="44.4044033" lon="8.233579"><ele>617.0</ele><time>2026-03-24T10:36:05.944Z</time></trkpt><trkpt lat="44.4043124" lon="8.2335527"><ele>617.1666666666666</ele><time>2026-03-24T10:36:08.944Z</time></trkpt><trkpt lat="44.4042251" lon="8.233524"><ele>617.3333333333333</ele><time>2026-03-24T10:36:11.945Z</time></trkpt><trkpt lat="44.4041375" lon="8.233498"><ele>617.5</ele><time>2026-03-24T10:36:14.943Z</time></trkpt><trkpt lat="44.4040549" lon="8.2334711"><ele>617.6666666666666</ele><time>2026-03-24T10:36:17.943Z</time></trkpt><trkpt lat="44.4039707" lon="8.2334417"><ele>617.8333333333334</ele><time>2026-03-24T10:36:20.944Z</time></trkpt><trkpt lat="44.4038877" lon="8.2334157"><ele>618.0</ele><time>2026-03-24T10:36:23.944Z</time></trkpt><trkpt lat="44.4037992" lon="8.233388"><ele>616.1666666666666</ele><time>2026-03-24T10:36:26.945Z</time></trkpt><trkpt lat="44.4037124" lon="8.2333481"><ele>614.3333333333334</ele><time>2026-03-24T10:36:29.943Z</time></trkpt><trkpt lat="44.4036252" lon="8.2333207"><ele>612.5</ele><time>2026-03-24T10:36:32.944Z</time></trkpt><trkpt lat="44.4035387" lon="8.2333054"><ele>610.6666666666667</ele><time>2026-03-24T10:36:35.943Z</time></trkpt><trkpt lat="44.4034757" lon="8.2332847"><ele>608.8333333333334</ele><time>2026-03-24T10:36:38.944Z</time></trkpt><trkpt lat="44.4033874" lon="8.2332759"><ele>607.0</ele><time>2026-03-24T10:36:41.945Z</time></trkpt><trkpt lat="44.4033229" lon="8.233269"><ele>606.9999999999999</ele><time>2026-03-24T10:36:43.944Z</time></trkpt><trkpt lat="44.4032525" lon="8.2332659"><ele>607.0</ele><time>2026-03-24T10:36:45.944Z</time></trkpt><trkpt lat="44.4031817" lon="8.2332653"><ele>607.0</ele><time>2026-03-24T10:36:47.945Z</time></trkpt><trkpt lat="44.4031197" lon="8.2332843"><ele>607.0</ele><time>2026-03-24T10:36:49.943Z</time></trkpt><trkpt lat="44.4030461" lon="8.2333031"><ele>607.0</ele><time>2026-03-24T10:36:52.944Z</time></trkpt><trkpt lat="44.4029702" lon="8.2333365"><ele>606.9999999999999</ele><time>2026-03-24T10:36:55.944Z</time></trkpt><trkpt lat="44.4028979" lon="8.2333833"><ele>607.0</ele><time>2026-03-24T10:36:58.944Z</time></trkpt><trkpt lat="44.4028205" lon="8.2334358"><ele>606.5</ele><time>2026-03-24T10:37:01.943Z</time></trkpt><trkpt lat="44.4027385" lon="8.2334892"><ele>606.0</ele><time>2026-03-24T10:37:04.942Z</time></trkpt><trkpt lat="44.4026535" lon="8.2335311"><ele>605.5</ele><time>2026-03-24T10:37:07.945Z</time></trkpt><trkpt lat="44.4025659" lon="8.233535"><ele>605.0</ele><time>2026-03-24T10:37:10.944Z</time></trkpt><trkpt lat="44.4025038" lon="8.2335197"><ele>604.5</ele><time>2026-03-24T10:37:12.944Z</time></trkpt><trkpt lat="44.4024267" lon="8.2334701"><ele>604.0</ele><time>2026-03-24T10:37:15.945Z</time></trkpt><trkpt lat="44.4023699" lon="8.2334168"><ele>604.0000000000001</ele><time>2026-03-24T10:37:18.944Z</time></trkpt><trkpt lat="44.4023299" lon="8.2333261"><ele>604.0</ele><time>2026-03-24T10:37:21.943Z</time></trkpt><trkpt lat="44.4023014" lon="8.2332114"><ele>604.0</ele><time>2026-03-24T10:37:24.944Z</time></trkpt><trkpt lat="44.4022966" lon="8.2331228"><ele>604.0</ele><time>2026-03-24T10:37:26.944Z</time></trkpt><trkpt lat="44.4022911" lon="8.2330311"><ele>604.0</ele><time>2026-03-24T10:37:28.944Z</time></trkpt><trkpt lat="44.4022918" lon="8.2329409"><ele>604.0000000000001</ele><time>2026-03-24T10:37:30.945Z</time></trkpt><trkpt lat="44.4022994" lon="8.2328533"><ele>604.0</ele><time>2026-03-24T10:37:32.943Z</time></trkpt><trkpt lat="44.4023144" lon="8.2327236"><ele>604.1428571428572</ele><time>2026-03-24T10:37:35.943Z</time></trkpt><trkpt lat="44.4023325" lon="8.2325954"><ele>604.2857142857143</ele><time>2026-03-24T10:37:38.943Z</time></trkpt><trkpt lat="44.4023522" lon="8.2324683"><ele>604.4285714285714</ele><time>2026-03-24T10:37:41.944Z</time></trkpt><trkpt lat="44.4023722" lon="8.2323801"><ele>604.5714285714287</ele><time>2026-03-24T10:37:43.944Z</time></trkpt><trkpt lat="44.4023919" lon="8.232295"><ele>604.7142857142858</ele><time>2026-03-24T10:37:45.945Z</time></trkpt><trkpt lat="44.4024181" lon="8.2322115"><ele>604.8571428571429</ele><time>2026-03-24T10:37:47.943Z</time></trkpt><trkpt lat="44.402448" lon="8.2321283"><ele>605.0</ele><time>2026-03-24T10:37:49.945Z</time></trkpt><trkpt lat="44.4024753" lon="8.2320455"><ele>605.2857142857142</ele><time>2026-03-24T10:37:51.945Z</time></trkpt><trkpt lat="44.4025033" lon="8.2319593"><ele>605.5714285714286</ele><time>2026-03-24T10:37:53.944Z</time></trkpt><trkpt lat="44.4025267" lon="8.231865"><ele>605.8571428571429</ele><time>2026-03-24T10:37:55.945Z</time></trkpt><trkpt lat="44.4025501" lon="8.2317688"><ele>606.1428571428571</ele><time>2026-03-24T10:37:57.944Z</time></trkpt><trkpt lat="44.4025815" lon="8.2316753"><ele>606.4285714285714</ele><time>2026-03-24T10:37:59.945Z</time></trkpt><trkpt lat="44.4026148" lon="8.2315795"><ele>606.7142857142857</ele><time>2026-03-24T10:38:01.944Z</time></trkpt><trkpt lat="44.4026449" lon="8.231481"><ele>607.0</ele><time>2026-03-24T10:38:03.944Z</time></trkpt><trkpt lat="44.4026764" lon="8.2313834"><ele>607.0</ele><time>2026-03-24T10:38:05.944Z</time></trkpt><trkpt lat="44.4027076" lon="8.2312845"><ele>607.0</ele><time>2026-03-24T10:38:07.944Z</time></trkpt><trkpt lat="44.4027363" lon="8.2311868"><ele>607.0</ele><time>2026-03-24T10:38:09.944Z</time></trkpt><trkpt lat="44.4027662" lon="8.231084"><ele>607.0</ele><time>2026-03-24T10:38:11.945Z</time></trkpt><trkpt lat="44.4027949" lon="8.2309768"><ele>607.0</ele><time>2026-03-24T10:38:13.943Z</time></trkpt><trkpt lat="44.4028242" lon="8.2308747"><ele>607.0</ele><time>2026-03-24T10:38:15.945Z</time></trkpt><trkpt lat="44.402855" lon="8.2307652"><ele>607.0</ele><time>2026-03-24T10:38:17.944Z</time></trkpt><trkpt lat="44.402866" lon="8.2306455"><ele>607.0</ele><time>2026-03-24T10:38:19.945Z</time></trkpt><trkpt lat="44.4028695" lon="8.2305272"><ele>607.0</ele><time>2026-03-24T10:38:21.944Z</time></trkpt><trkpt lat="44.4028604" lon="8.2304286"><ele>607.0</ele><time>2026-03-24T10:38:23.945Z</time></trkpt><trkpt lat="44.4028384" lon="8.2303371"><ele>607.0</ele><time>2026-03-24T10:38:25.944Z</time></trkpt><trkpt lat="44.4028232" lon="8.2302381"><ele>607.0</ele><time>2026-03-24T10:38:27.943Z</time></trkpt><trkpt lat="44.4028082" lon="8.2301247"><ele>607.3333333333334</ele><time>2026-03-24T10:38:29.944Z</time></trkpt><trkpt lat="44.4027793" lon="8.2299963"><ele>607.6666666666667</ele><time>2026-03-24T10:38:31.944Z</time></trkpt><trkpt lat="44.4027662" lon="8.2298313"><ele>608.0</ele><time>2026-03-24T10:38:33.944Z</time></trkpt><trkpt lat="44.4027658" lon="8.2297266"><ele>608.3333333333334</ele><time>2026-03-24T10:38:34.944Z</time></trkpt><trkpt lat="44.4027557" lon="8.2296254"><ele>608.6666666666666</ele><time>2026-03-24T10:38:35.944Z</time></trkpt><trkpt lat="44.4027605" lon="8.2295247"><ele>609.0</ele><time>2026-03-24T10:38:36.945Z</time></trkpt><trkpt lat="44.402773" lon="8.2294137"><ele>609.0</ele><time>2026-03-24T10:38:37.945Z</time></trkpt><trkpt lat="44.4027821" lon="8.2292952"><ele>609.0</ele><time>2026-03-24T10:38:38.944Z</time></trkpt><trkpt lat="44.4027954" lon="8.2291799"><ele>609.0</ele><time>2026-03-24T10:38:39.945Z</time></trkpt><trkpt lat="44.4028156" lon="8.2290583"><ele>609.0</ele><time>2026-03-24T10:38:40.943Z</time></trkpt><trkpt lat="44.4028524" lon="8.2289315"><ele>609.0</ele><time>2026-03-24T10:38:41.944Z</time></trkpt><trkpt lat="44.4028977" lon="8.2288154"><ele>608.2</ele><time>2026-03-24T10:38:42.943Z</time></trkpt><trkpt lat="44.4029622" lon="8.2287105"><ele>607.4</ele><time>2026-03-24T10:38:43.944Z</time></trkpt><trkpt lat="44.403044" lon="8.2286075"><ele>606.6</ele><time>2026-03-24T10:38:44.944Z</time></trkpt><trkpt lat="44.4031251" lon="8.2285201"><ele>605.8</ele><time>2026-03-24T10:38:45.943Z</time></trkpt><trkpt lat="44.4032089" lon="8.2284393"><ele>605.0</ele><time>2026-03-24T10:38:46.944Z</time></trkpt><trkpt lat="44.4032956" lon="8.2283729"><ele>603.0</ele><time>2026-03-24T10:38:47.944Z</time></trkpt><trkpt lat="44.4033805" lon="8.2283152"><ele>601.0</ele><time>2026-03-24T10:38:48.944Z</time></trkpt><trkpt lat="44.4034712" lon="8.2282791"><ele>599.0</ele><time>2026-03-24T10:38:49.944Z</time></trkpt><trkpt lat="44.4035627" lon="8.2282583"><ele>597.0</ele><time>2026-03-24T10:38:50.943Z</time></trkpt><trkpt lat="44.4036503" lon="8.228268"><ele>595.0</ele><time>2026-03-24T10:38:51.945Z</time></trkpt><trkpt lat="44.4037316" lon="8.2283063"><ele>595.0</ele><time>2026-03-24T10:38:52.943Z</time></trkpt><trkpt lat="44.4037986" lon="8.228384"><ele>595.0</ele><time>2026-03-24T10:38:53.944Z</time></trkpt><trkpt lat="44.4038544" lon="8.2284986"><ele>595.0</ele><time>2026-03-24T10:38:54.944Z</time></trkpt><trkpt lat="44.403891" lon="8.2286197"><ele>595.0</ele><time>2026-03-24T10:38:55.943Z</time></trkpt><trkpt lat="44.4039176" lon="8.2287419"><ele>595.0</ele><time>2026-03-24T10:38:56.945Z</time></trkpt><trkpt lat="44.4039427" lon="8.22886"><ele>594.6</ele><time>2026-03-24T10:38:57.944Z</time></trkpt><trkpt lat="44.4039878" lon="8.2289765"><ele>594.2</ele><time>2026-03-24T10:38:58.944Z</time></trkpt><trkpt lat="44.4040449" lon="8.2290808"><ele>593.8</ele><time>2026-03-24T10:38:59.944Z</time></trkpt><trkpt lat="44.4041237" lon="8.2291799"><ele>593.4</ele><time>2026-03-24T10:39:00.944Z</time></trkpt><trkpt lat="44.4042096" lon="8.2292391"><ele>593.0</ele><time>2026-03-24T10:39:01.943Z</time></trkpt><trkpt lat="44.404303" lon="8.2292741"><ele>593.0</ele><time>2026-03-24T10:39:02.944Z</time></trkpt><trkpt lat="44.4043962" lon="8.2292789"><ele>593.0</ele><time>2026-03-24T10:39:03.944Z</time></trkpt><trkpt lat="44.404487" lon="8.2292527"><ele>593.0</ele><time>2026-03-24T10:39:04.944Z</time></trkpt><trkpt lat="44.404573" lon="8.2291905"><ele>593.0</ele><time>2026-03-24T10:39:05.945Z</time></trkpt><trkpt lat="44.4046501" lon="8.229108"><ele>593.0</ele><time>2026-03-24T10:39:06.945Z</time></trkpt><trkpt lat="44.4047185" lon="8.2289906"><ele>591.0</ele><time>2026-03-24T10:39:07.944Z</time></trkpt><trkpt lat="44.4047791" lon="8.2288605"><ele>589.0</ele><time>2026-03-24T10:39:08.944Z</time></trkpt><trkpt lat="44.404824" lon="8.2287207"><ele>587.0</ele><time>2026-03-24T10:39:09.944Z</time></trkpt><trkpt lat="44.4048614" lon="8.228571"><ele>585.0</ele><time>2026-03-24T10:39:10.944Z</time></trkpt><trkpt lat="44.4048843" lon="8.22843"><ele>583.0</ele><time>2026-03-24T10:39:11.944Z</time></trkpt><trkpt lat="44.4048917" lon="8.2282686"><ele>581.75</ele><time>2026-03-24T10:39:12.944Z</time></trkpt><trkpt lat="44.4048952" lon="8.2281082"><ele>580.5</ele><time>2026-03-24T10:39:13.945Z</time></trkpt><trkpt lat="44.4049036" lon="8.2279545"><ele>579.25</ele><time>2026-03-24T10:39:14.944Z</time></trkpt><trkpt lat="44.4049022" lon="8.2277929"><ele>578.0</ele><time>2026-03-24T10:39:15.945Z</time></trkpt><trkpt lat="44.4049131" lon="8.2276309"><ele>578.0</ele><time>2026-03-24T10:39:16.943Z</time></trkpt><trkpt lat="44.4049115" lon="8.2274638"><ele>578.0</ele><time>2026-03-24T10:39:17.944Z</time></trkpt><trkpt lat="44.4048946" lon="8.2273033"><ele>578.0</ele><time>2026-03-24T10:39:18.944Z</time></trkpt><trkpt lat="44.4048633" lon="8.2271596"><ele>578.0</ele><time>2026-03-24T10:39:19.944Z</time></trkpt><trkpt lat="44.4048158" lon="8.2270139"><ele>577.75</ele><time>2026-03-24T10:39:20.943Z</time></trkpt><trkpt lat="44.4047352" lon="8.2268917"><ele>577.5</ele><time>2026-03-24T10:39:21.944Z</time></trkpt><trkpt lat="44.4046544" lon="8.2267927"><ele>577.25</ele><time>2026-03-24T10:39:22.945Z</time></trkpt><trkpt lat="44.4045667" lon="8.2266931"><ele>577.0</ele><time>2026-03-24T10:39:23.944Z</time></trkpt><trkpt lat="44.4044644" lon="8.226581"><ele>574.25</ele><time>2026-03-24T10:39:24.943Z</time></trkpt><trkpt lat="44.4043611" lon="8.2264733"><ele>571.5</ele><time>2026-03-24T10:39:25.944Z</time></trkpt><trkpt lat="44.4042571" lon="8.2263594"><ele>568.75</ele><time>2026-03-24T10:39:26.944Z</time></trkpt><trkpt lat="44.4041601" lon="8.2262267"><ele>566.0</ele><time>2026-03-24T10:39:27.945Z</time></trkpt><trkpt lat="44.4040745" lon="8.2260917"><ele>566.0</ele><time>2026-03-24T10:39:28.945Z</time></trkpt><trkpt lat="44.4039974" lon="8.2259533"><ele>566.0</ele><time>2026-03-24T10:39:29.944Z</time></trkpt><trkpt lat="44.4039354" lon="8.2258187"><ele>566.0</ele><time>2026-03-24T10:39:30.944Z</time></trkpt><trkpt lat="44.4038826" lon="8.2256701"><ele>566.0</ele><time>2026-03-24T10:39:31.944Z</time></trkpt><trkpt lat="44.403826" lon="8.2255398"><ele>564.4</ele><time>2026-03-24T10:39:32.943Z</time></trkpt><trkpt lat="44.403758" lon="8.225439"><ele>562.8</ele><time>2026-03-24T10:39:33.945Z</time></trkpt><trkpt lat="44.4036817" lon="8.225347"><ele>561.1999999999999</ele><time>2026-03-24T10:39:34.943Z</time></trkpt><trkpt lat="44.4035896" lon="8.225277"><ele>559.6</ele><time>2026-03-24T10:39:35.944Z</time></trkpt><trkpt lat="44.4034939" lon="8.2252431"><ele>558.0</ele><time>2026-03-24T10:39:36.944Z</time></trkpt><trkpt lat="44.40339" lon="8.2252238"><ele>558.0</ele><time>2026-03-24T10:39:37.943Z</time></trkpt><trkpt lat="44.4032815" lon="8.2252511"><ele>558.0</ele><time>2026-03-24T10:39:38.943Z</time></trkpt><trkpt lat="44.4031764" lon="8.2252913"><ele>558.0</ele><time>2026-03-24T10:39:39.943Z</time></trkpt><trkpt lat="44.4030686" lon="8.2253348"><ele>558.0</ele><time>2026-03-24T10:39:40.944Z</time></trkpt><trkpt lat="44.4029634" lon="8.2253498"><ele>558.0</ele><time>2026-03-24T10:39:41.945Z</time></trkpt><trkpt lat="44.4028502" lon="8.225337"><ele>558.0</ele><time>2026-03-24T10:39:42.944Z</time></trkpt><trkpt lat="44.4027323" lon="8.2253114"><ele>558.0</ele><time>2026-03-24T10:39:43.944Z</time></trkpt><trkpt lat="44.4026278" lon="8.2252564"><ele>558.0</ele><time>2026-03-24T10:39:44.943Z</time></trkpt><trkpt lat="44.4025304" lon="8.225167"><ele>558.0</ele><time>2026-03-24T10:39:45.943Z</time></trkpt><trkpt lat="44.4024541" lon="8.2250493"><ele>558.0</ele><time>2026-03-24T10:39:46.944Z</time></trkpt><trkpt lat="44.4024012" lon="8.2249087"><ele>558.0</ele><time>2026-03-24T10:39:47.944Z</time></trkpt><trkpt lat="44.4023732" lon="8.2247516"><ele>558.0</ele><time>2026-03-24T10:39:48.944Z</time></trkpt><trkpt lat="44.402355" lon="8.2245957"><ele>558.0</ele><time>2026-03-24T10:39:49.944Z</time></trkpt><trkpt lat="44.4023415" lon="8.2244399"><ele>556.4</ele><time>2026-03-24T10:39:50.944Z</time></trkpt><trkpt lat="44.4023297" lon="8.2242833"><ele>554.8</ele><time>2026-03-24T10:39:51.944Z</time></trkpt><trkpt lat="44.402318" lon="8.224128"><ele>553.2</ele><time>2026-03-24T10:39:52.944Z</time></trkpt><trkpt lat="44.402309" lon="8.2239738"><ele>551.6</ele><time>2026-03-24T10:39:53.944Z</time></trkpt><trkpt lat="44.4022836" lon="8.2238209"><ele>550.0</ele><time>2026-03-24T10:39:54.944Z</time></trkpt><trkpt lat="44.4022382" lon="8.2236676"><ele>549.75</ele><time>2026-03-24T10:39:55.944Z</time></trkpt><trkpt lat="44.4021752" lon="8.2235564"><ele>549.5</ele><time>2026-03-24T10:39:56.943Z</time></trkpt><trkpt lat="44.402081" lon="8.2234603"><ele>549.25</ele><time>2026-03-24T10:39:57.944Z</time></trkpt><trkpt lat="44.4019768" lon="8.2233767"><ele>549.0</ele><time>2026-03-24T10:39:58.944Z</time></trkpt><trkpt lat="44.4018734" lon="8.2233016"><ele>549.0</ele><time>2026-03-24T10:39:59.943Z</time></trkpt><trkpt lat="44.4017567" lon="8.2231896"><ele>549.0</ele><time>2026-03-24T10:40:00.944Z</time></trkpt><trkpt lat="44.4016642" lon="8.2230854"><ele>549.0</ele><time>2026-03-24T10:40:01.944Z</time></trkpt><trkpt lat="44.4015835" lon="8.2229685"><ele>549.0</ele><time>2026-03-24T10:40:02.944Z</time></trkpt><trkpt lat="44.401517" lon="8.2228503"><ele>549.0</ele><time>2026-03-24T10:40:03.945Z</time></trkpt><trkpt lat="44.4014554" lon="8.2227189"><ele>549.0</ele><time>2026-03-24T10:40:04.944Z</time></trkpt><trkpt lat="44.4013873" lon="8.2226051"><ele>549.0</ele><time>2026-03-24T10:40:05.945Z</time></trkpt><trkpt lat="44.4013037" lon="8.2225125"><ele>549.0</ele><time>2026-03-24T10:40:06.945Z</time></trkpt><trkpt lat="44.401223" lon="8.222421"><ele>549.0</ele><time>2026-03-24T10:40:07.944Z</time></trkpt><trkpt lat="44.4011326" lon="8.2223415"><ele>546.8</ele><time>2026-03-24T10:40:08.944Z</time></trkpt><trkpt lat="44.4010519" lon="8.2222652"><ele>544.5999999999999</ele><time>2026-03-24T10:40:09.944Z</time></trkpt><trkpt lat="44.4009626" lon="8.2222026"><ele>542.4</ele><time>2026-03-24T10:40:10.944Z</time></trkpt><trkpt lat="44.4008678" lon="8.2221321"><ele>540.1999999999999</ele><time>2026-03-24T10:40:11.944Z</time></trkpt><trkpt lat="44.400775" lon="8.2220735"><ele>538.0</ele><time>2026-03-24T10:40:12.943Z</time></trkpt><trkpt lat="44.4006805" lon="8.2220078"><ele>538.0</ele><time>2026-03-24T10:40:13.944Z</time></trkpt><trkpt lat="44.4005869" lon="8.2219417"><ele>538.0</ele><time>2026-03-24T10:40:14.943Z</time></trkpt><trkpt lat="44.4004897" lon="8.2218861"><ele>538.0</ele><time>2026-03-24T10:40:15.944Z</time></trkpt><trkpt lat="44.4004077" lon="8.22183"><ele>538.0</ele><time>2026-03-24T10:40:16.944Z</time></trkpt><trkpt lat="44.4003283" lon="8.2217666"><ele>538.0</ele><time>2026-03-24T10:40:17.943Z</time></trkpt><trkpt lat="44.4002416" lon="8.2217092"><ele>538.4</ele><time>2026-03-24T10:40:18.944Z</time></trkpt><trkpt lat="44.4001552" lon="8.2216465"><ele>538.8</ele><time>2026-03-24T10:40:19.944Z</time></trkpt><trkpt lat="44.4000734" lon="8.2215829"><ele>539.2</ele><time>2026-03-24T10:40:20.943Z</time></trkpt><trkpt lat="44.3999896" lon="8.2215179"><ele>539.6</ele><time>2026-03-24T10:40:21.944Z</time></trkpt><trkpt lat="44.3999078" lon="8.2214542"><ele>540.0</ele><time>2026-03-24T10:40:22.943Z</time></trkpt><trkpt lat="44.3998243" lon="8.2213924"><ele>539.2</ele><time>2026-03-24T10:40:23.944Z</time></trkpt><trkpt lat="44.3997412" lon="8.2213323"><ele>538.4</ele><time>2026-03-24T10:40:24.944Z</time></trkpt><trkpt lat="44.3996596" lon="8.2212781"><ele>537.6</ele><time>2026-03-24T10:40:25.944Z</time></trkpt><trkpt lat="44.3995777" lon="8.2212206"><ele>536.8</ele><time>2026-03-24T10:40:26.944Z</time></trkpt><trkpt lat="44.3994943" lon="8.2211685"><ele>536.0</ele><time>2026-03-24T10:40:27.944Z</time></trkpt><trkpt lat="44.3994118" lon="8.2211148"><ele>536.0</ele><time>2026-03-24T10:40:28.944Z</time></trkpt><trkpt lat="44.3993306" lon="8.2210468"><ele>536.0</ele><time>2026-03-24T10:40:29.943Z</time></trkpt><trkpt lat="44.3992566" lon="8.2209803"><ele>536.0</ele><time>2026-03-24T10:40:30.944Z</time></trkpt><trkpt lat="44.3991788" lon="8.2208963"><ele>536.0</ele><time>2026-03-24T10:40:31.944Z</time></trkpt><trkpt lat="44.3991058" lon="8.2208059"><ele>536.0</ele><time>2026-03-24T10:40:32.944Z</time></trkpt><trkpt lat="44.3990389" lon="8.2207164"><ele>535.5</ele><time>2026-03-24T10:40:33.944Z</time></trkpt><trkpt lat="44.3989781" lon="8.22063"><ele>535.0</ele><time>2026-03-24T10:40:34.944Z</time></trkpt><trkpt lat="44.3989112" lon="8.2205306"><ele>534.5</ele><time>2026-03-24T10:40:35.944Z</time></trkpt><trkpt lat="44.3988517" lon="8.2204515"><ele>534.0</ele><time>2026-03-24T10:40:36.944Z</time></trkpt><trkpt lat="44.3987907" lon="8.2203635"><ele>533.5</ele><time>2026-03-24T10:40:37.944Z</time></trkpt><trkpt lat="44.3987433" lon="8.2202713"><ele>533.0</ele><time>2026-03-24T10:40:38.943Z</time></trkpt><trkpt lat="44.3986924" lon="8.2201817"><ele>533.0</ele><time>2026-03-24T10:40:39.944Z</time></trkpt><trkpt lat="44.3986373" lon="8.2200798"><ele>533.0</ele><time>2026-03-24T10:40:40.943Z</time></trkpt><trkpt lat="44.3985871" lon="8.2199694"><ele>533.0</ele><time>2026-03-24T10:40:41.944Z</time></trkpt><trkpt lat="44.3985395" lon="8.2198668"><ele>533.0</ele><time>2026-03-24T10:40:42.942Z</time></trkpt><trkpt lat="44.3984887" lon="8.2197697"><ele>533.0</ele><time>2026-03-24T10:40:43.943Z</time></trkpt><trkpt lat="44.3984446" lon="8.2196682"><ele>533.0</ele><time>2026-03-24T10:40:44.944Z</time></trkpt><trkpt lat="44.3983979" lon="8.2195616"><ele>533.1666666666666</ele><time>2026-03-24T10:40:45.944Z</time></trkpt><trkpt lat="44.3983635" lon="8.2194523"><ele>533.3333333333333</ele><time>2026-03-24T10:40:46.943Z</time></trkpt><trkpt lat="44.3983323" lon="8.2193345"><ele>533.5</ele><time>2026-03-24T10:40:47.943Z</time></trkpt><trkpt lat="44.3983142" lon="8.2192129"><ele>533.6666666666666</ele><time>2026-03-24T10:40:48.944Z</time></trkpt><trkpt lat="44.3983091" lon="8.2190796"><ele>533.8333333333334</ele><time>2026-03-24T10:40:49.944Z</time></trkpt><trkpt lat="44.3983178" lon="8.2189568"><ele>534.0</ele><time>2026-03-24T10:40:50.945Z</time></trkpt><trkpt lat="44.3983537" lon="8.2188334"><ele>534.0</ele><time>2026-03-24T10:40:51.943Z</time></trkpt><trkpt lat="44.3984111" lon="8.2187121"><ele>534.0</ele><time>2026-03-24T10:40:52.944Z</time></trkpt><trkpt lat="44.3984734" lon="8.2186043"><ele>534.0</ele><time>2026-03-24T10:40:53.944Z</time></trkpt><trkpt lat="44.3985454" lon="8.2185031"><ele>534.0</ele><time>2026-03-24T10:40:54.944Z</time></trkpt><trkpt lat="44.3986174" lon="8.2184019"><ele>534.0</ele><time>2026-03-24T10:40:55.944Z</time></trkpt><trkpt lat="44.398698" lon="8.2182951"><ele>534.0</ele><time>2026-03-24T10:40:56.942Z</time></trkpt><trkpt lat="44.3987579" lon="8.2181762"><ele>534.0</ele><time>2026-03-24T10:40:57.944Z</time></trkpt><trkpt lat="44.3988069" lon="8.2180515"><ele>534.0</ele><time>2026-03-24T10:40:58.944Z</time></trkpt><trkpt lat="44.3988435" lon="8.2179171"><ele>534.0</ele><time>2026-03-24T10:40:59.944Z</time></trkpt><trkpt lat="44.3988675" lon="8.217783"><ele>534.0</ele><time>2026-03-24T10:41:00.943Z</time></trkpt><trkpt lat="44.3988384" lon="8.2176688"><ele>531.2</ele><time>2026-03-24T10:41:01.944Z</time></trkpt><trkpt lat="44.3987913" lon="8.2175551"><ele>528.4</ele><time>2026-03-24T10:41:02.943Z</time></trkpt><trkpt lat="44.3987489" lon="8.2174551"><ele>525.6</ele><time>2026-03-24T10:41:03.944Z</time></trkpt><trkpt lat="44.3986545" lon="8.2174056"><ele>522.8</ele><time>2026-03-24T10:41:04.944Z</time></trkpt><trkpt lat="44.3985704" lon="8.2173686"><ele>520.0</ele><time>2026-03-24T10:41:05.943Z</time></trkpt><trkpt lat="44.3984769" lon="8.2173392"><ele>517.8</ele><time>2026-03-24T10:41:06.944Z</time></trkpt><trkpt lat="44.3983803" lon="8.2173143"><ele>515.6</ele><time>2026-03-24T10:41:07.944Z</time></trkpt><trkpt lat="44.3982832" lon="8.2172879"><ele>513.4</ele><time>2026-03-24T10:41:08.944Z</time></trkpt><trkpt lat="44.3981744" lon="8.2172545"><ele>511.2</ele><time>2026-03-24T10:41:09.944Z</time></trkpt><trkpt lat="44.3980675" lon="8.2172222"><ele>509.0</ele><time>2026-03-24T10:41:10.943Z</time></trkpt><trkpt lat="44.3979672" lon="8.2171721"><ele>508.2</ele><time>2026-03-24T10:41:11.944Z</time></trkpt><trkpt lat="44.3978853" lon="8.2170933"><ele>507.4</ele><time>2026-03-24T10:41:12.943Z</time></trkpt><trkpt lat="44.397805" lon="8.2170174"><ele>506.6</ele><time>2026-03-24T10:41:13.944Z</time></trkpt><trkpt lat="44.3977324" lon="8.2169288"><ele>505.8</ele><time>2026-03-24T10:41:14.944Z</time></trkpt><trkpt lat="44.3976581" lon="8.2168513"><ele>505.0</ele><time>2026-03-24T10:41:15.944Z</time></trkpt><trkpt lat="44.3975814" lon="8.2167848"><ele>505.0</ele><time>2026-03-24T10:41:16.944Z</time></trkpt><trkpt lat="44.3975151" lon="8.2167037"><ele>505.0</ele><time>2026-03-24T10:41:17.944Z</time></trkpt><trkpt lat="44.3974474" lon="8.2166213"><ele>505.0</ele><time>2026-03-24T10:41:18.943Z</time></trkpt><trkpt lat="44.397381" lon="8.2165254"><ele>505.0</ele><time>2026-03-24T10:41:19.944Z</time></trkpt><trkpt lat="44.3973136" lon="8.2164333"><ele>505.0</ele><time>2026-03-24T10:41:20.944Z</time></trkpt><trkpt lat="44.3972439" lon="8.2163305"><ele>503.4</ele><time>2026-03-24T10:41:21.944Z</time></trkpt><trkpt lat="44.3971686" lon="8.2162346"><ele>501.8</ele><time>2026-03-24T10:41:22.943Z</time></trkpt><trkpt lat="44.3970953" lon="8.2161242"><ele>500.20000000000005</ele><time>2026-03-24T10:41:23.944Z</time></trkpt><trkpt lat="44.3970234" lon="8.2160113"><ele>498.6</ele><time>2026-03-24T10:41:24.943Z</time></trkpt><trkpt lat="44.396955" lon="8.2159043"><ele>497.0</ele><time>2026-03-24T10:41:25.944Z</time></trkpt><trkpt lat="44.3968816" lon="8.2157985"><ele>497.0</ele><time>2026-03-24T10:41:26.944Z</time></trkpt><trkpt lat="44.396816" lon="8.2156853"><ele>497.00000000000006</ele><time>2026-03-24T10:41:27.944Z</time></trkpt><trkpt lat="44.3967557" lon="8.2155703"><ele>497.00000000000006</ele><time>2026-03-24T10:41:28.944Z</time></trkpt><trkpt lat="44.3967228" lon="8.2154348"><ele>497.0</ele><time>2026-03-24T10:41:29.943Z</time></trkpt><trkpt lat="44.3966929" lon="8.215294"><ele>497.0</ele><time>2026-03-24T10:41:30.944Z</time></trkpt><trkpt lat="44.3966652" lon="8.2151513"><ele>495.40000000000003</ele><time>2026-03-24T10:41:31.944Z</time></trkpt><trkpt lat="44.3966558" lon="8.215004"><ele>493.80000000000007</ele><time>2026-03-24T10:41:32.944Z</time></trkpt><trkpt lat="44.3966332" lon="8.2148527"><ele>492.2</ele><time>2026-03-24T10:41:33.944Z</time></trkpt><trkpt lat="44.3966022" lon="8.2147009"><ele>490.6</ele><time>2026-03-24T10:41:34.944Z</time></trkpt><trkpt lat="44.396562" lon="8.2145598"><ele>489.0</ele><time>2026-03-24T10:41:35.943Z</time></trkpt><trkpt lat="44.3965101" lon="8.2144196"><ele>487.6</ele><time>2026-03-24T10:41:36.943Z</time></trkpt><trkpt lat="44.3964586" lon="8.2142859"><ele>486.2</ele><time>2026-03-24T10:41:37.944Z</time></trkpt><trkpt lat="44.3964107" lon="8.2141636"><ele>484.80000000000007</ele><time>2026-03-24T10:41:38.944Z</time></trkpt><trkpt lat="44.3963445" lon="8.21405"><ele>483.40000000000003</ele><time>2026-03-24T10:41:39.944Z</time></trkpt><trkpt lat="44.3962708" lon="8.2139444"><ele>482.0</ele><time>2026-03-24T10:41:40.944Z</time></trkpt><trkpt lat="44.396198" lon="8.2138443"><ele>480.6</ele><time>2026-03-24T10:41:41.943Z</time></trkpt><trkpt lat="44.3961149" lon="8.2137478"><ele>479.20000000000005</ele><time>2026-03-24T10:41:42.944Z</time></trkpt><trkpt lat="44.3960308" lon="8.2136485"><ele>477.8</ele><time>2026-03-24T10:41:43.944Z</time></trkpt><trkpt lat="44.3959502" lon="8.2135527"><ele>476.4</ele><time>2026-03-24T10:41:44.943Z</time></trkpt><trkpt lat="44.3958669" lon="8.2134503"><ele>475.0</ele><time>2026-03-24T10:41:45.943Z</time></trkpt><trkpt lat="44.3957832" lon="8.2133553"><ele>475.0</ele><time>2026-03-24T10:41:46.944Z</time></trkpt><trkpt lat="44.3957031" lon="8.213265"><ele>475.0</ele><time>2026-03-24T10:41:47.944Z</time></trkpt><trkpt lat="44.3956263" lon="8.2131793"><ele>475.0</ele><time>2026-03-24T10:41:48.944Z</time></trkpt><trkpt lat="44.3955395" lon="8.2131003"><ele>475.0</ele><time>2026-03-24T10:41:49.944Z</time></trkpt><trkpt lat="44.3954468" lon="8.2130352"><ele>475.0</ele><time>2026-03-24T10:41:50.943Z</time></trkpt><trkpt lat="44.3953519" lon="8.212982"><ele>470.8</ele><time>2026-03-24T10:41:51.943Z</time></trkpt><trkpt lat="44.395251" lon="8.2129441"><ele>466.6</ele><time>2026-03-24T10:41:52.944Z</time></trkpt><trkpt lat="44.3951526" lon="8.212919"><ele>462.4</ele><time>2026-03-24T10:41:53.944Z</time></trkpt><trkpt lat="44.3950488" lon="8.2128999"><ele>458.2</ele><time>2026-03-24T10:41:54.944Z</time></trkpt><trkpt lat="44.3949452" lon="8.2128925"><ele>454.0</ele><time>2026-03-24T10:41:55.943Z</time></trkpt><trkpt lat="44.3948397" lon="8.2129099"><ele>454.0</ele><time>2026-03-24T10:41:56.944Z</time></trkpt><trkpt lat="44.3947318" lon="8.212939"><ele>454.0</ele><time>2026-03-24T10:41:57.944Z</time></trkpt><trkpt lat="44.3946192" lon="8.2129512"><ele>454.0</ele><time>2026-03-24T10:41:58.943Z</time></trkpt><trkpt lat="44.3945005" lon="8.2129493"><ele>454.0</ele><time>2026-03-24T10:41:59.943Z</time></trkpt><trkpt lat="44.3943828" lon="8.2129276"><ele>454.25</ele><time>2026-03-24T10:42:00.943Z</time></trkpt><trkpt lat="44.3942662" lon="8.2129054"><ele>454.5</ele><time>2026-03-24T10:42:01.942Z</time></trkpt><trkpt lat="44.394147" lon="8.2128746"><ele>454.75</ele><time>2026-03-24T10:42:02.944Z</time></trkpt><trkpt lat="44.3940267" lon="8.2128517"><ele>455.0</ele><time>2026-03-24T10:42:03.943Z</time></trkpt><trkpt lat="44.3939067" lon="8.2128262"><ele>454.5</ele><time>2026-03-24T10:42:04.944Z</time></trkpt><trkpt lat="44.3938013" lon="8.212799"><ele>454.0</ele><time>2026-03-24T10:42:05.943Z</time></trkpt><trkpt lat="44.3936852" lon="8.2127676"><ele>453.5</ele><time>2026-03-24T10:42:06.944Z</time></trkpt><trkpt lat="44.3935707" lon="8.2127306"><ele>453.0</ele><time>2026-03-24T10:42:07.942Z</time></trkpt><trkpt lat="44.3934517" lon="8.2126896"><ele>453.0</ele><time>2026-03-24T10:42:08.943Z</time></trkpt><trkpt lat="44.3933366" lon="8.2126621"><ele>453.0</ele><time>2026-03-24T10:42:09.943Z</time></trkpt><trkpt lat="44.3932216" lon="8.2126386"><ele>453.0</ele><time>2026-03-24T10:42:10.943Z</time></trkpt><trkpt lat="44.3931007" lon="8.2126307"><ele>453.0</ele><time>2026-03-24T10:42:11.944Z</time></trkpt><trkpt lat="44.3929781" lon="8.2126207"><ele>451.5</ele><time>2026-03-24T10:42:12.944Z</time></trkpt><trkpt lat="44.3928613" lon="8.2126185"><ele>450.0</ele><time>2026-03-24T10:42:13.944Z</time></trkpt><trkpt lat="44.3927392" lon="8.2126138"><ele>448.5</ele><time>2026-03-24T10:42:14.944Z</time></trkpt><trkpt lat="44.3926104" lon="8.2126066"><ele>447.0</ele><time>2026-03-24T10:42:15.944Z</time></trkpt><trkpt lat="44.3924887" lon="8.2125969"><ele>447.0</ele><time>2026-03-24T10:42:16.944Z</time></trkpt><trkpt lat="44.3923661" lon="8.2125919"><ele>447.0</ele><time>2026-03-24T10:42:17.942Z</time></trkpt><trkpt lat="44.3922421" lon="8.2125851"><ele>447.0</ele><time>2026-03-24T10:42:18.943Z</time></trkpt><trkpt lat="44.3921098" lon="8.2125764"><ele>447.0</ele><time>2026-03-24T10:42:19.944Z</time></trkpt><trkpt lat="44.3919921" lon="8.2125613"><ele>446.20000000000005</ele><time>2026-03-24T10:42:20.943Z</time></trkpt><trkpt lat="44.391871" lon="8.2125385"><ele>445.40000000000003</ele><time>2026-03-24T10:42:21.944Z</time></trkpt><trkpt lat="44.3917613" lon="8.2125265"><ele>444.59999999999997</ele><time>2026-03-24T10:42:22.944Z</time></trkpt><trkpt lat="44.3916558" lon="8.2125116"><ele>443.79999999999995</ele><time>2026-03-24T10:42:23.944Z</time></trkpt><trkpt lat="44.3915621" lon="8.2125005"><ele>443.0</ele><time>2026-03-24T10:42:24.944Z</time></trkpt><trkpt lat="44.3914683" lon="8.2124806"><ele>443.0</ele><time>2026-03-24T10:42:25.944Z</time></trkpt><trkpt lat="44.3913795" lon="8.2124518"><ele>442.99999999999994</ele><time>2026-03-24T10:42:26.943Z</time></trkpt><trkpt lat="44.3912786" lon="8.2124036"><ele>442.99999999999994</ele><time>2026-03-24T10:42:27.944Z</time></trkpt><trkpt lat="44.3911917" lon="8.2123476"><ele>443.0</ele><time>2026-03-24T10:42:28.944Z</time></trkpt><trkpt lat="44.3911181" lon="8.2122675"><ele>443.0</ele><time>2026-03-24T10:42:29.944Z</time></trkpt><trkpt lat="44.3910516" lon="8.2121624"><ele>441.0</ele><time>2026-03-24T10:42:30.944Z</time></trkpt><trkpt lat="44.390988" lon="8.2120623"><ele>438.99999999999994</ele><time>2026-03-24T10:42:31.943Z</time></trkpt><trkpt lat="44.3909126" lon="8.2119773"><ele>436.99999999999994</ele><time>2026-03-24T10:42:32.943Z</time></trkpt><trkpt lat="44.3908233" lon="8.2119058"><ele>435.0</ele><time>2026-03-24T10:42:33.944Z</time></trkpt><trkpt lat="44.3907316" lon="8.2118506"><ele>433.0</ele><time>2026-03-24T10:42:34.944Z</time></trkpt><trkpt lat="44.3906436" lon="8.2118198"><ele>433.00000000000006</ele><time>2026-03-24T10:42:35.944Z</time></trkpt><trkpt lat="44.3905556" lon="8.2117876"><ele>433.0</ele><time>2026-03-24T10:42:36.942Z</time></trkpt><trkpt lat="44.3904713" lon="8.2117553"><ele>433.0</ele><time>2026-03-24T10:42:37.943Z</time></trkpt><trkpt lat="44.3903871" lon="8.2117129"><ele>433.0</ele><time>2026-03-24T10:42:38.944Z</time></trkpt><trkpt lat="44.390316" lon="8.2116561"><ele>433.00000000000006</ele><time>2026-03-24T10:42:39.944Z</time></trkpt><trkpt lat="44.3902483" lon="8.2115694"><ele>433.0</ele><time>2026-03-24T10:42:40.944Z</time></trkpt><trkpt lat="44.3902117" lon="8.211484"><ele>432.00000000000006</ele><time>2026-03-24T10:42:41.943Z</time></trkpt><trkpt lat="44.3901821" lon="8.2113965"><ele>431.0</ele><time>2026-03-24T10:42:42.944Z</time></trkpt><trkpt lat="44.3901586" lon="8.2113098"><ele>430.0</ele><time>2026-03-24T10:42:43.944Z</time></trkpt><trkpt lat="44.3901429" lon="8.2111608"><ele>429.0</ele><time>2026-03-24T10:42:45.944Z</time></trkpt><trkpt lat="44.3901363" lon="8.2110365"><ele>428.00000000000006</ele><time>2026-03-24T10:42:47.944Z</time></trkpt><trkpt lat="44.3900664" lon="8.2109641"><ele>427.0</ele><time>2026-03-24T10:42:49.944Z</time></trkpt><trkpt lat="44.3899877" lon="8.2108922"><ele>427.00000000000006</ele><time>2026-03-24T10:42:51.943Z</time></trkpt><trkpt lat="44.3898913" lon="8.2107657"><ele>427.0</ele><time>2026-03-24T10:42:53.942Z</time></trkpt><trkpt lat="44.3898484" lon="8.2106999"><ele>427.0</ele><time>2026-03-24T10:42:54.944Z</time></trkpt><trkpt lat="44.3898003" lon="8.2106118"><ele>427.0</ele><time>2026-03-24T10:42:55.944Z</time></trkpt><trkpt lat="44.3897475" lon="8.2105102"><ele>427.00000000000006</ele><time>2026-03-24T10:42:56.944Z</time></trkpt><trkpt lat="44.389695" lon="8.2104175"><ele>427.0</ele><time>2026-03-24T10:42:57.944Z</time></trkpt><trkpt lat="44.3896369" lon="8.2103194"><ele>425.40000000000003</ele><time>2026-03-24T10:42:58.944Z</time></trkpt><trkpt lat="44.3895711" lon="8.2102245"><ele>423.80000000000007</ele><time>2026-03-24T10:42:59.944Z</time></trkpt><trkpt lat="44.3895003" lon="8.210139"><ele>422.2</ele><time>2026-03-24T10:43:00.944Z</time></trkpt><trkpt lat="44.3894304" lon="8.2100554"><ele>420.6</ele><time>2026-03-24T10:43:01.944Z</time></trkpt><trkpt lat="44.3893563" lon="8.2099668"><ele>419.0</ele><time>2026-03-24T10:43:02.944Z</time></trkpt><trkpt lat="44.3892831" lon="8.2098811"><ele>418.49999999999994</ele><time>2026-03-24T10:43:03.944Z</time></trkpt><trkpt lat="44.3892259" lon="8.2097731"><ele>418.0</ele><time>2026-03-24T10:43:04.944Z</time></trkpt><trkpt lat="44.3891791" lon="8.2096724"><ele>417.5</ele><time>2026-03-24T10:43:05.944Z</time></trkpt><trkpt lat="44.3891365" lon="8.2095754"><ele>417.0</ele><time>2026-03-24T10:43:06.943Z</time></trkpt><trkpt lat="44.3890924" lon="8.2094694"><ele>416.49999999999994</ele><time>2026-03-24T10:43:07.944Z</time></trkpt><trkpt lat="44.3890465" lon="8.2093752"><ele>416.0</ele><time>2026-03-24T10:43:08.944Z</time></trkpt><trkpt lat="44.3889986" lon="8.209293"><ele>416.0</ele><time>2026-03-24T10:43:09.944Z</time></trkpt><trkpt lat="44.3889555" lon="8.2092223"><ele>416.0</ele><time>2026-03-24T10:43:10.943Z</time></trkpt><trkpt lat="44.3889052" lon="8.2091472"><ele>416.0</ele><time>2026-03-24T10:43:11.943Z</time></trkpt><trkpt lat="44.3888524" lon="8.2090667"><ele>416.0</ele><time>2026-03-24T10:43:12.944Z</time></trkpt><trkpt lat="44.3887925" lon="8.208996"><ele>416.0</ele><time>2026-03-24T10:43:13.944Z</time></trkpt><trkpt lat="44.3887347" lon="8.2089281"><ele>416.0</ele><time>2026-03-24T10:43:14.943Z</time></trkpt><trkpt lat="44.3886787" lon="8.2088533"><ele>416.0</ele><time>2026-03-24T10:43:15.944Z</time></trkpt><trkpt lat="44.3886255" lon="8.2087776"><ele>415.66666666666663</ele><time>2026-03-24T10:43:16.944Z</time></trkpt><trkpt lat="44.3885714" lon="8.2087003"><ele>415.3333333333333</ele><time>2026-03-24T10:43:17.944Z</time></trkpt><trkpt lat="44.3885155" lon="8.2086349"><ele>415.0</ele><time>2026-03-24T10:43:18.944Z</time></trkpt><trkpt lat="44.3884657" lon="8.2085669"><ele>414.66666666666663</ele><time>2026-03-24T10:43:19.944Z</time></trkpt><trkpt lat="44.3883736" lon="8.2084597"><ele>414.3333333333333</ele><time>2026-03-24T10:43:21.944Z</time></trkpt><trkpt lat="44.3883005" lon="8.2083623"><ele>414.0</ele><time>2026-03-24T10:43:23.943Z</time></trkpt><trkpt lat="44.3882161" lon="8.2082607"><ele>413.8333333333333</ele><time>2026-03-24T10:43:25.944Z</time></trkpt><trkpt lat="44.3881615" lon="8.2081437"><ele>413.66666666666663</ele><time>2026-03-24T10:43:27.943Z</time></trkpt><trkpt lat="44.3880911" lon="8.2080657"><ele>413.5</ele><time>2026-03-24T10:43:29.944Z</time></trkpt><trkpt lat="44.3880461" lon="8.2079744"><ele>413.3333333333333</ele><time>2026-03-24T10:43:33.944Z</time></trkpt><trkpt lat="44.3879845" lon="8.2079048"><ele>413.16666666666663</ele><time>2026-03-24T10:43:36.944Z</time></trkpt><trkpt lat="44.3879051" lon="8.20793"><ele>413.0</ele><time>2026-03-24T10:43:39.944Z</time></trkpt><trkpt lat="44.3878263" lon="8.2079752"><ele>413.3333333333333</ele><time>2026-03-24T10:43:42.944Z</time></trkpt><trkpt lat="44.3877468" lon="8.208001"><ele>413.66666666666663</ele><time>2026-03-24T10:43:45.944Z</time></trkpt><trkpt lat="44.3876794" lon="8.2080133"><ele>414.0</ele><time>2026-03-24T10:43:47.943Z</time></trkpt><trkpt lat="44.3876039" lon="8.2080086"><ele>414.33333333333337</ele><time>2026-03-24T10:43:49.943Z</time></trkpt><trkpt lat="44.3875267" lon="8.2079948"><ele>414.6666666666667</ele><time>2026-03-24T10:43:51.944Z</time></trkpt><trkpt lat="44.3874514" lon="8.2079723"><ele>415.0</ele><time>2026-03-24T10:43:53.943Z</time></trkpt><trkpt lat="44.3873707" lon="8.2079449"><ele>415.00000000000006</ele><time>2026-03-24T10:43:55.944Z</time></trkpt><trkpt lat="44.3872956" lon="8.207905"><ele>415.0</ele><time>2026-03-24T10:43:57.944Z</time></trkpt><trkpt lat="44.3872218" lon="8.2078616"><ele>415.0</ele><time>2026-03-24T10:43:59.944Z</time></trkpt><trkpt lat="44.387149" lon="8.2078081"><ele>415.0</ele><time>2026-03-24T10:44:01.944Z</time></trkpt><trkpt lat="44.3870739" lon="8.2077583"><ele>415.00000000000006</ele><time>2026-03-24T10:44:03.944Z</time></trkpt><trkpt lat="44.3869998" lon="8.2077161"><ele>415.0</ele><time>2026-03-24T10:44:05.944Z</time></trkpt><trkpt lat="44.3869292" lon="8.2076715"><ele>415.83333333333337</ele><time>2026-03-24T10:44:07.944Z</time></trkpt><trkpt lat="44.3868621" lon="8.2076305"><ele>416.6666666666667</ele><time>2026-03-24T10:44:09.943Z</time></trkpt><trkpt lat="44.3867899" lon="8.207589"><ele>417.5</ele><time>2026-03-24T10:44:11.943Z</time></trkpt><trkpt lat="44.386722" lon="8.2075605"><ele>418.33333333333337</ele><time>2026-03-24T10:44:13.944Z</time></trkpt><trkpt lat="44.3866455" lon="8.2075185"><ele>419.1666666666667</ele><time>2026-03-24T10:44:15.944Z</time></trkpt><trkpt lat="44.3865602" lon="8.2074632"><ele>420.0</ele><time>2026-03-24T10:44:17.944Z</time></trkpt><trkpt lat="44.3864792" lon="8.2074229"><ele>420.0</ele><time>2026-03-24T10:44:19.944Z</time></trkpt><trkpt lat="44.3863923" lon="8.2073794"><ele>420.0</ele><time>2026-03-24T10:44:21.944Z</time></trkpt><trkpt lat="44.386319" lon="8.2073294"><ele>420.0</ele><time>2026-03-24T10:44:23.944Z</time></trkpt><trkpt lat="44.3862358" lon="8.2072805"><ele>420.0</ele><time>2026-03-24T10:44:25.944Z</time></trkpt><trkpt lat="44.3861516" lon="8.2072234"><ele>420.0</ele><time>2026-03-24T10:44:27.944Z</time></trkpt><trkpt lat="44.3860701" lon="8.2071634"><ele>419.1666666666667</ele><time>2026-03-24T10:44:29.944Z</time></trkpt><trkpt lat="44.3859957" lon="8.2071263"><ele>418.33333333333337</ele><time>2026-03-24T10:44:31.944Z</time></trkpt><trkpt lat="44.3859157" lon="8.2070764"><ele>417.5</ele><time>2026-03-24T10:44:33.944Z</time></trkpt><trkpt lat="44.3858329" lon="8.2070306"><ele>416.6666666666667</ele><time>2026-03-24T10:44:35.944Z</time></trkpt><trkpt lat="44.3857513" lon="8.2069806"><ele>415.83333333333337</ele><time>2026-03-24T10:44:37.944Z</time></trkpt><trkpt lat="44.3856664" lon="8.2069526"><ele>415.0</ele><time>2026-03-24T10:44:39.944Z</time></trkpt><trkpt lat="44.3855811" lon="8.2069329"><ele>414.83333333333337</ele><time>2026-03-24T10:44:41.944Z</time></trkpt><trkpt lat="44.3854979" lon="8.2069259"><ele>414.6666666666667</ele><time>2026-03-24T10:44:43.944Z</time></trkpt><trkpt lat="44.3854161" lon="8.2069341"><ele>414.5</ele><time>2026-03-24T10:44:45.944Z</time></trkpt><trkpt lat="44.3853329" lon="8.2069438"><ele>414.33333333333337</ele><time>2026-03-24T10:44:47.944Z</time></trkpt><trkpt lat="44.3852528" lon="8.2069647"><ele>414.1666666666667</ele><time>2026-03-24T10:44:49.944Z</time></trkpt><trkpt lat="44.3851757" lon="8.2069939"><ele>414.0</ele><time>2026-03-24T10:44:51.944Z</time></trkpt><trkpt lat="44.3850961" lon="8.2070284"><ele>414.0</ele><time>2026-03-24T10:44:53.944Z</time></trkpt><trkpt lat="44.3850233" lon="8.2070817"><ele>414.0</ele><time>2026-03-24T10:44:55.942Z</time></trkpt><trkpt lat="44.3849532" lon="8.2071538"><ele>414.0</ele><time>2026-03-24T10:44:57.944Z</time></trkpt><trkpt lat="44.3848921" lon="8.2072332"><ele>414.0</ele><time>2026-03-24T10:44:59.944Z</time></trkpt><trkpt lat="44.3848288" lon="8.2073306"><ele>414.0</ele><time>2026-03-24T10:45:01.944Z</time></trkpt><trkpt lat="44.3847648" lon="8.2074264"><ele>414.0</ele><time>2026-03-24T10:45:03.944Z</time></trkpt><trkpt lat="44.3847103" lon="8.2075287"><ele>413.5</ele><time>2026-03-24T10:45:05.944Z</time></trkpt><trkpt lat="44.3846538" lon="8.2076178"><ele>413.0</ele><time>2026-03-24T10:45:07.943Z</time></trkpt><trkpt lat="44.3845961" lon="8.2077208"><ele>412.5</ele><time>2026-03-24T10:45:09.943Z</time></trkpt><trkpt lat="44.3845458" lon="8.2078095"><ele>412.0</ele><time>2026-03-24T10:45:11.942Z</time></trkpt><trkpt lat="44.3844949" lon="8.2079021"><ele>411.5</ele><time>2026-03-24T10:45:13.944Z</time></trkpt><trkpt lat="44.3844417" lon="8.2079825"><ele>411.0</ele><time>2026-03-24T10:45:15.944Z</time></trkpt><trkpt lat="44.3843839" lon="8.2080837"><ele>412.6</ele><time>2026-03-24T10:45:17.943Z</time></trkpt><trkpt lat="44.3843291" lon="8.2081914"><ele>414.20000000000005</ele><time>2026-03-24T10:45:19.943Z</time></trkpt><trkpt lat="44.3842544" lon="8.2082992"><ele>415.79999999999995</ele><time>2026-03-24T10:45:21.944Z</time></trkpt><trkpt lat="44.3841747" lon="8.2083844"><ele>417.4</ele><time>2026-03-24T10:45:23.944Z</time></trkpt><trkpt lat="44.3840895" lon="8.2084627"><ele>419.0</ele><time>2026-03-24T10:45:25.943Z</time></trkpt><trkpt lat="44.3840066" lon="8.2085246"><ele>419.0</ele><time>2026-03-24T10:45:27.944Z</time></trkpt><trkpt lat="44.383913" lon="8.2085779"><ele>419.0</ele><time>2026-03-24T10:45:29.943Z</time></trkpt><trkpt lat="44.3838237" lon="8.2086187"><ele>419.0</ele><time>2026-03-24T10:45:31.943Z</time></trkpt><trkpt lat="44.383733" lon="8.208645"><ele>419.0</ele><time>2026-03-24T10:45:33.943Z</time></trkpt><trkpt lat="44.3836343" lon="8.2086612"><ele>419.0</ele><time>2026-03-24T10:45:35.944Z</time></trkpt><trkpt lat="44.383543" lon="8.208658"><ele>418.2</ele><time>2026-03-24T10:45:37.944Z</time></trkpt><trkpt lat="44.3834527" lon="8.2086536"><ele>417.4</ele><time>2026-03-24T10:45:39.944Z</time></trkpt><trkpt lat="44.3833548" lon="8.2086336"><ele>416.6</ele><time>2026-03-24T10:45:41.944Z</time></trkpt><trkpt lat="44.3832578" lon="8.208602"><ele>415.8</ele><time>2026-03-24T10:45:43.944Z</time></trkpt><trkpt lat="44.3831674" lon="8.2085673"><ele>415.0</ele><time>2026-03-24T10:45:45.943Z</time></trkpt><trkpt lat="44.3830779" lon="8.2085421"><ele>416.2</ele><time>2026-03-24T10:45:47.943Z</time></trkpt><trkpt lat="44.3829904" lon="8.2085148"><ele>417.4</ele><time>2026-03-24T10:45:49.944Z</time></trkpt><trkpt lat="44.3829024" lon="8.20847"><ele>418.6</ele><time>2026-03-24T10:45:51.944Z</time></trkpt><trkpt lat="44.3828197" lon="8.2084406"><ele>419.8</ele><time>2026-03-24T10:45:53.942Z</time></trkpt><trkpt lat="44.3827295" lon="8.2084187"><ele>421.0</ele><time>2026-03-24T10:45:55.944Z</time></trkpt><trkpt lat="44.3826325" lon="8.2083893"><ele>421.00000000000006</ele><time>2026-03-24T10:45:57.943Z</time></trkpt><trkpt lat="44.3825468" lon="8.2083508"><ele>421.0</ele><time>2026-03-24T10:45:59.944Z</time></trkpt><trkpt lat="44.3824637" lon="8.2083239"><ele>421.0</ele><time>2026-03-24T10:46:01.943Z</time></trkpt><trkpt lat="44.3823777" lon="8.2082939"><ele>421.0</ele><time>2026-03-24T10:46:03.944Z</time></trkpt><trkpt lat="44.3822903" lon="8.2082642"><ele>421.00000000000006</ele><time>2026-03-24T10:46:05.943Z</time></trkpt><trkpt lat="44.3822006" lon="8.2082208"><ele>421.0</ele><time>2026-03-24T10:46:07.942Z</time></trkpt><trkpt lat="44.3821069" lon="8.2081792"><ele>420.33333333333337</ele><time>2026-03-24T10:46:09.943Z</time></trkpt><trkpt lat="44.382025" lon="8.208126"><ele>419.6666666666667</ele><time>2026-03-24T10:46:11.943Z</time></trkpt><trkpt lat="44.381944" lon="8.2080712"><ele>419.0</ele><time>2026-03-24T10:46:13.944Z</time></trkpt><trkpt lat="44.3818601" lon="8.2080014"><ele>418.33333333333337</ele><time>2026-03-24T10:46:15.943Z</time></trkpt><trkpt lat="44.3818013" lon="8.2079414"><ele>417.6666666666667</ele><time>2026-03-24T10:46:17.943Z</time></trkpt><trkpt lat="44.3817375" lon="8.2078654"><ele>417.0</ele><time>2026-03-24T10:46:19.944Z</time></trkpt><trkpt lat="44.3816712" lon="8.2077893"><ele>417.0</ele><time>2026-03-24T10:46:21.943Z</time></trkpt><trkpt lat="44.381602" lon="8.2077124"><ele>417.0</ele><time>2026-03-24T10:46:23.944Z</time></trkpt><trkpt lat="44.381528" lon="8.2076444"><ele>417.0</ele><time>2026-03-24T10:46:25.941Z</time></trkpt><trkpt lat="44.3814524" lon="8.2075812"><ele>417.0</ele><time>2026-03-24T10:46:27.944Z</time></trkpt><trkpt lat="44.3813839" lon="8.2074892"><ele>417.0</ele><time>2026-03-24T10:46:29.943Z</time></trkpt><trkpt lat="44.3813146" lon="8.2074124"><ele>417.0</ele><time>2026-03-24T10:46:31.942Z</time></trkpt><trkpt lat="44.3812394" lon="8.2073467"><ele>417.6</ele><time>2026-03-24T10:46:33.944Z</time></trkpt><trkpt lat="44.3811799" lon="8.2072584"><ele>418.20000000000005</ele><time>2026-03-24T10:46:35.944Z</time></trkpt><trkpt lat="44.3811128" lon="8.2071725"><ele>418.8</ele><time>2026-03-24T10:46:37.943Z</time></trkpt><trkpt lat="44.3810471" lon="8.207079"><ele>419.4</ele><time>2026-03-24T10:46:39.944Z</time></trkpt><trkpt lat="44.3809723" lon="8.2070002"><ele>420.0</ele><time>2026-03-24T10:46:41.943Z</time></trkpt><trkpt lat="44.3809066" lon="8.2069119"><ele>420.0</ele><time>2026-03-24T10:46:43.943Z</time></trkpt><trkpt lat="44.3808431" lon="8.2068128"><ele>420.0</ele><time>2026-03-24T10:46:45.943Z</time></trkpt><trkpt lat="44.3807803" lon="8.2067253"><ele>420.0</ele><time>2026-03-24T10:46:47.943Z</time></trkpt><trkpt lat="44.3807165" lon="8.2066312"><ele>420.0</ele><time>2026-03-24T10:46:49.943Z</time></trkpt><trkpt lat="44.3806563" lon="8.2065303"><ele>420.0</ele><time>2026-03-24T10:46:51.944Z</time></trkpt><trkpt lat="44.3806001" lon="8.2064405"><ele>418.2</ele><time>2026-03-24T10:46:53.944Z</time></trkpt><trkpt lat="44.3805323" lon="8.2063486"><ele>416.4</ele><time>2026-03-24T10:46:55.944Z</time></trkpt><trkpt lat="44.380467" lon="8.2062463"><ele>414.6</ele><time>2026-03-24T10:46:57.944Z</time></trkpt><trkpt lat="44.3804015" lon="8.2061457"><ele>412.8</ele><time>2026-03-24T10:46:59.943Z</time></trkpt><trkpt lat="44.3803344" lon="8.2060409"><ele>411.0</ele><time>2026-03-24T10:47:01.942Z</time></trkpt><trkpt lat="44.380276" lon="8.2059473"><ele>412.20000000000005</ele><time>2026-03-24T10:47:03.944Z</time></trkpt><trkpt lat="44.3802194" lon="8.205843"><ele>413.40000000000003</ele><time>2026-03-24T10:47:05.943Z</time></trkpt><trkpt lat="44.3801619" lon="8.2057514"><ele>414.6</ele><time>2026-03-24T10:47:07.944Z</time></trkpt><trkpt lat="44.3801024" lon="8.2056418"><ele>415.8</ele><time>2026-03-24T10:47:09.943Z</time></trkpt><trkpt lat="44.3800471" lon="8.205523"><ele>417.0</ele><time>2026-03-24T10:47:11.943Z</time></trkpt><trkpt lat="44.3799906" lon="8.2054119"><ele>417.0</ele><time>2026-03-24T10:47:13.944Z</time></trkpt><trkpt lat="44.3799401" lon="8.2052933"><ele>417.0</ele><time>2026-03-24T10:47:15.944Z</time></trkpt><trkpt lat="44.3798804" lon="8.2051809"><ele>417.0</ele><time>2026-03-24T10:47:17.943Z</time></trkpt><trkpt lat="44.3798347" lon="8.2050741"><ele>417.0</ele><time>2026-03-24T10:47:19.944Z</time></trkpt><trkpt lat="44.3798087" lon="8.2049394"><ele>417.0</ele><time>2026-03-24T10:47:21.944Z</time></trkpt><trkpt lat="44.3797684" lon="8.2048067"><ele>417.20000000000005</ele><time>2026-03-24T10:47:23.943Z</time></trkpt><trkpt lat="44.3797301" lon="8.2046804"><ele>417.4</ele><time>2026-03-24T10:47:25.943Z</time></trkpt><trkpt lat="44.3796958" lon="8.2045658"><ele>417.6</ele><time>2026-03-24T10:47:27.943Z</time></trkpt><trkpt lat="44.3796652" lon="8.2044391"><ele>417.79999999999995</ele><time>2026-03-24T10:47:29.943Z</time></trkpt><trkpt lat="44.3796244" lon="8.2043217"><ele>418.0</ele><time>2026-03-24T10:47:31.944Z</time></trkpt><trkpt lat="44.3795768" lon="8.2041939"><ele>418.0</ele><time>2026-03-24T10:47:33.943Z</time></trkpt><trkpt lat="44.379532" lon="8.2040618"><ele>418.0</ele><time>2026-03-24T10:47:35.943Z</time></trkpt><trkpt lat="44.3794815" lon="8.2039358"><ele>418.0</ele><time>2026-03-24T10:47:37.944Z</time></trkpt><trkpt lat="44.3794391" lon="8.2038149"><ele>418.0</ele><time>2026-03-24T10:47:39.944Z</time></trkpt><trkpt lat="44.3793965" lon="8.2037111"><ele>418.0</ele><time>2026-03-24T10:47:41.944Z</time></trkpt><trkpt lat="44.3793513" lon="8.2036308"><ele>418.00000000000006</ele><time>2026-03-24T10:47:43.944Z</time></trkpt><trkpt lat="44.3793198" lon="8.2035427"><ele>418.0</ele><time>2026-03-24T10:47:45.944Z</time></trkpt><trkpt lat="44.3792877" lon="8.2034451"><ele>418.0</ele><time>2026-03-24T10:47:47.943Z</time></trkpt><trkpt lat="44.3792435" lon="8.20334"><ele>418.0</ele><time>2026-03-24T10:47:49.944Z</time></trkpt><trkpt lat="44.3792011" lon="8.2032315"><ele>418.00000000000006</ele><time>2026-03-24T10:47:51.942Z</time></trkpt><trkpt lat="44.379155" lon="8.2031232"><ele>418.0</ele><time>2026-03-24T10:47:53.944Z</time></trkpt><trkpt lat="44.3791103" lon="8.2030198"><ele>416.59999999999997</ele><time>2026-03-24T10:47:55.944Z</time></trkpt><trkpt lat="44.3790639" lon="8.2029129"><ele>415.2</ele><time>2026-03-24T10:47:57.943Z</time></trkpt><trkpt lat="44.3790137" lon="8.2028053"><ele>413.8</ele><time>2026-03-24T10:47:59.942Z</time></trkpt><trkpt lat="44.3789602" lon="8.2026913"><ele>412.4</ele><time>2026-03-24T10:48:01.944Z</time></trkpt><trkpt lat="44.3789095" lon="8.2025908"><ele>411.0</ele><time>2026-03-24T10:48:03.943Z</time></trkpt><trkpt lat="44.3788728" lon="8.2024868"><ele>415.20000000000005</ele><time>2026-03-24T10:48:05.942Z</time></trkpt><trkpt lat="44.3788319" lon="8.2023723"><ele>419.40000000000003</ele><time>2026-03-24T10:48:07.943Z</time></trkpt><trkpt lat="44.3787966" lon="8.2022508"><ele>423.6</ele><time>2026-03-24T10:48:09.943Z</time></trkpt><trkpt lat="44.3787527" lon="8.2021423"><ele>427.8</ele><time>2026-03-24T10:48:11.943Z</time></trkpt><trkpt lat="44.3787124" lon="8.2020299"><ele>432.0</ele><time>2026-03-24T10:48:13.944Z</time></trkpt><trkpt lat="44.3786725" lon="8.2019073"><ele>432.0</ele><time>2026-03-24T10:48:15.944Z</time></trkpt><trkpt lat="44.3786286" lon="8.2017851"><ele>432.00000000000006</ele><time>2026-03-24T10:48:17.944Z</time></trkpt><trkpt lat="44.3786087" lon="8.2016405"><ele>432.00000000000006</ele><time>2026-03-24T10:48:19.943Z</time></trkpt><trkpt lat="44.3785714" lon="8.2015257"><ele>432.0</ele><time>2026-03-24T10:48:21.944Z</time></trkpt><trkpt lat="44.378541" lon="8.2014069"><ele>432.0</ele><time>2026-03-24T10:48:23.944Z</time></trkpt><trkpt lat="44.3785194" lon="8.2012946"><ele>430.3333333333333</ele><time>2026-03-24T10:48:25.943Z</time></trkpt><trkpt lat="44.3784923" lon="8.2011737"><ele>428.66666666666663</ele><time>2026-03-24T10:48:27.944Z</time></trkpt><trkpt lat="44.3784662" lon="8.201056"><ele>427.0</ele><time>2026-03-24T10:48:29.942Z</time></trkpt><trkpt lat="44.3784367" lon="8.2009332"><ele>425.3333333333333</ele><time>2026-03-24T10:48:31.943Z</time></trkpt><trkpt lat="44.3784054" lon="8.2008214"><ele>423.66666666666663</ele><time>2026-03-24T10:48:33.942Z</time></trkpt><trkpt lat="44.3783676" lon="8.2007109"><ele>422.0</ele><time>2026-03-24T10:48:35.943Z</time></trkpt><trkpt lat="44.378343" lon="8.200587"><ele>421.3333333333333</ele><time>2026-03-24T10:48:37.943Z</time></trkpt><trkpt lat="44.3783047" lon="8.2004716"><ele>420.66666666666663</ele><time>2026-03-24T10:48:39.943Z</time></trkpt><trkpt lat="44.3782741" lon="8.2003647"><ele>420.0</ele><time>2026-03-24T10:48:41.943Z</time></trkpt><trkpt lat="44.378253" lon="8.2002466"><ele>419.33333333333337</ele><time>2026-03-24T10:48:43.943Z</time></trkpt><trkpt lat="44.3782248" lon="8.2001253"><ele>418.6666666666667</ele><time>2026-03-24T10:48:45.944Z</time></trkpt><trkpt lat="44.3782032" lon="8.2000101"><ele>418.0</ele><time>2026-03-24T10:48:47.943Z</time></trkpt><trkpt lat="44.3781934" lon="8.1998824"><ele>418.00000000000006</ele><time>2026-03-24T10:48:49.944Z</time></trkpt><trkpt lat="44.3781909" lon="8.199757"><ele>418.0</ele><time>2026-03-24T10:48:51.943Z</time></trkpt><trkpt lat="44.3781964" lon="8.1996388"><ele>418.0</ele><time>2026-03-24T10:48:53.943Z</time></trkpt><trkpt lat="44.3781968" lon="8.1995118"><ele>418.0</ele><time>2026-03-24T10:48:55.944Z</time></trkpt><trkpt lat="44.3782021" lon="8.1993863"><ele>418.00000000000006</ele><time>2026-03-24T10:48:57.943Z</time></trkpt><trkpt lat="44.3781944" lon="8.1992754"><ele>418.0</ele><time>2026-03-24T10:48:59.944Z</time></trkpt><trkpt lat="44.3781972" lon="8.1991481"><ele>418.00000000000006</ele><time>2026-03-24T10:49:01.943Z</time></trkpt><trkpt lat="44.3781872" lon="8.1990159"><ele>418.0</ele><time>2026-03-24T10:49:03.943Z</time></trkpt><trkpt lat="44.378172" lon="8.1988959"><ele>418.0</ele><time>2026-03-24T10:49:05.943Z</time></trkpt><trkpt lat="44.3781537" lon="8.1987737"><ele>418.0</ele><time>2026-03-24T10:49:07.944Z</time></trkpt><trkpt lat="44.3781284" lon="8.1986558"><ele>418.00000000000006</ele><time>2026-03-24T10:49:09.943Z</time></trkpt><trkpt lat="44.3780928" lon="8.19854"><ele>418.0</ele><time>2026-03-24T10:49:11.943Z</time></trkpt><trkpt lat="44.3780476" lon="8.1984295"><ele>418.4</ele><time>2026-03-24T10:49:13.943Z</time></trkpt><trkpt lat="44.377993" lon="8.1983266"><ele>418.79999999999995</ele><time>2026-03-24T10:49:15.943Z</time></trkpt><trkpt lat="44.3779309" lon="8.1982263"><ele>419.2</ele><time>2026-03-24T10:49:17.942Z</time></trkpt><trkpt lat="44.3778729" lon="8.198124"><ele>419.6</ele><time>2026-03-24T10:49:19.944Z</time></trkpt><trkpt lat="44.3778129" lon="8.1980328"><ele>420.0</ele><time>2026-03-24T10:49:21.943Z</time></trkpt><trkpt lat="44.3777565" lon="8.197941"><ele>420.0</ele><time>2026-03-24T10:49:23.944Z</time></trkpt><trkpt lat="44.3777012" lon="8.1978442"><ele>420.0</ele><time>2026-03-24T10:49:25.943Z</time></trkpt><trkpt lat="44.37764" lon="8.1977473"><ele>420.0</ele><time>2026-03-24T10:49:27.943Z</time></trkpt><trkpt lat="44.377587" lon="8.1976435"><ele>420.0</ele><time>2026-03-24T10:49:29.943Z</time></trkpt><trkpt lat="44.3775398" lon="8.1975557"><ele>420.0</ele><time>2026-03-24T10:49:31.944Z</time></trkpt><trkpt lat="44.3774984" lon="8.1974693"><ele>420.0</ele><time>2026-03-24T10:49:33.943Z</time></trkpt><trkpt lat="44.3774566" lon="8.1973854"><ele>419.5</ele><time>2026-03-24T10:49:35.943Z</time></trkpt><trkpt lat="44.3774075" lon="8.1973007"><ele>419.0</ele><time>2026-03-24T10:49:37.944Z</time></trkpt><trkpt lat="44.3773506" lon="8.1972192"><ele>418.5</ele><time>2026-03-24T10:49:39.943Z</time></trkpt><trkpt lat="44.3772938" lon="8.1971399"><ele>418.0</ele><time>2026-03-24T10:49:41.943Z</time></trkpt><trkpt lat="44.3772284" lon="8.1970706"><ele>417.5</ele><time>2026-03-24T10:49:43.943Z</time></trkpt><trkpt lat="44.3771633" lon="8.1970144"><ele>417.0</ele><time>2026-03-24T10:49:45.943Z</time></trkpt><trkpt lat="44.3770951" lon="8.1969664"><ele>417.0</ele><time>2026-03-24T10:49:47.944Z</time></trkpt><trkpt lat="44.3770204" lon="8.1969237"><ele>417.0</ele><time>2026-03-24T10:49:49.943Z</time></trkpt><trkpt lat="44.3769492" lon="8.1968929"><ele>417.0</ele><time>2026-03-24T10:49:51.942Z</time></trkpt><trkpt lat="44.3768827" lon="8.1968836"><ele>417.0</ele><time>2026-03-24T10:49:53.942Z</time></trkpt><trkpt lat="44.3768193" lon="8.1968834"><ele>417.0</ele><time>2026-03-24T10:49:55.942Z</time></trkpt><trkpt lat="44.3767491" lon="8.1968923"><ele>417.0</ele><time>2026-03-24T10:49:58.943Z</time></trkpt><trkpt lat="44.376686" lon="8.1969276"><ele>417.0</ele><time>2026-03-24T10:50:05.943Z</time></trkpt><trkpt lat="44.3766381" lon="8.1969903"><ele>417.0</ele><time>2026-03-24T10:50:07.942Z</time></trkpt><trkpt lat="44.3765613" lon="8.197045"><ele>417.0</ele><time>2026-03-24T10:50:09.943Z</time></trkpt><trkpt lat="44.3764712" lon="8.1970993"><ele>417.0</ele><time>2026-03-24T10:50:11.943Z</time></trkpt><trkpt lat="44.3763885" lon="8.1971653"><ele>417.0</ele><time>2026-03-24T10:50:13.943Z</time></trkpt><trkpt lat="44.3763065" lon="8.1972361"><ele>417.0</ele><time>2026-03-24T10:50:15.944Z</time></trkpt><trkpt lat="44.3762188" lon="8.1972974"><ele>417.20000000000005</ele><time>2026-03-24T10:50:17.944Z</time></trkpt><trkpt lat="44.376143" lon="8.1973639"><ele>417.4</ele><time>2026-03-24T10:50:19.943Z</time></trkpt><trkpt lat="44.3760561" lon="8.1974363"><ele>417.6</ele><time>2026-03-24T10:50:21.943Z</time></trkpt><trkpt lat="44.375972" lon="8.1974912"><ele>417.79999999999995</ele><time>2026-03-24T10:50:23.942Z</time></trkpt><trkpt lat="44.3758924" lon="8.197545"><ele>418.0</ele><time>2026-03-24T10:50:25.942Z</time></trkpt><trkpt lat="44.3758009" lon="8.1975957"><ele>418.0</ele><time>2026-03-24T10:50:27.942Z</time></trkpt><trkpt lat="44.375711" lon="8.1976646"><ele>418.0</ele><time>2026-03-24T10:50:29.944Z</time></trkpt><trkpt lat="44.3756238" lon="8.1977322"><ele>418.0</ele><time>2026-03-24T10:50:31.943Z</time></trkpt><trkpt lat="44.3755268" lon="8.1977806"><ele>418.0</ele><time>2026-03-24T10:50:33.942Z</time></trkpt><trkpt lat="44.3754322" lon="8.1978254"><ele>418.0</ele><time>2026-03-24T10:50:35.943Z</time></trkpt><trkpt lat="44.3753565" lon="8.1978834"><ele>418.0</ele><time>2026-03-24T10:50:37.942Z</time></trkpt><trkpt lat="44.3752714" lon="8.1979389"><ele>418.0</ele><time>2026-03-24T10:50:39.943Z</time></trkpt><trkpt lat="44.3751817" lon="8.1979993"><ele>418.0</ele><time>2026-03-24T10:50:41.942Z</time></trkpt><trkpt lat="44.3750956" lon="8.1980688"><ele>418.0</ele><time>2026-03-24T10:50:43.943Z</time></trkpt><trkpt lat="44.3750149" lon="8.1981333"><ele>418.0</ele><time>2026-03-24T10:50:45.943Z</time></trkpt><trkpt lat="44.3749305" lon="8.1981998"><ele>418.00000000000006</ele><time>2026-03-24T10:50:47.941Z</time></trkpt><trkpt lat="44.3748541" lon="8.1982456"><ele>418.0</ele><time>2026-03-24T10:50:49.943Z</time></trkpt><trkpt lat="44.3747741" lon="8.1982926"><ele>418.0</ele><time>2026-03-24T10:50:51.942Z</time></trkpt><trkpt lat="44.3746989" lon="8.1983303"><ele>418.0</ele><time>2026-03-24T10:50:53.942Z</time></trkpt><trkpt lat="44.3746288" lon="8.1983797"><ele>418.00000000000006</ele><time>2026-03-24T10:50:55.943Z</time></trkpt><trkpt lat="44.374566" lon="8.1984291"><ele>418.0</ele><time>2026-03-24T10:50:57.944Z</time></trkpt><trkpt lat="44.3744972" lon="8.1984768"><ele>417.83333333333337</ele><time>2026-03-24T10:50:59.944Z</time></trkpt><trkpt lat="44.3744208" lon="8.1985333"><ele>417.6666666666667</ele><time>2026-03-24T10:51:01.942Z</time></trkpt><trkpt lat="44.3743391" lon="8.1985942"><ele>417.5</ele><time>2026-03-24T10:51:03.943Z</time></trkpt><trkpt lat="44.3742629" lon="8.1986507"><ele>417.33333333333337</ele><time>2026-03-24T10:51:05.944Z</time></trkpt><trkpt lat="44.3741879" lon="8.1987141"><ele>417.1666666666667</ele><time>2026-03-24T10:51:07.943Z</time></trkpt><trkpt lat="44.3741241" lon="8.1987721"><ele>417.0</ele><time>2026-03-24T10:51:09.944Z</time></trkpt><trkpt lat="44.3740571" lon="8.19882"><ele>417.0</ele><time>2026-03-24T10:51:11.942Z</time></trkpt><trkpt lat="44.3739951" lon="8.1988647"><ele>417.0</ele><time>2026-03-24T10:51:13.943Z</time></trkpt><trkpt lat="44.373928" lon="8.1989224"><ele>417.0</ele><time>2026-03-24T10:51:15.942Z</time></trkpt><trkpt lat="44.3738558" lon="8.198968"><ele>417.0</ele><time>2026-03-24T10:51:17.942Z</time></trkpt><trkpt lat="44.3737736" lon="8.1990113"><ele>417.0</ele><time>2026-03-24T10:51:19.943Z</time></trkpt><trkpt lat="44.3736907" lon="8.1990751"><ele>417.0</ele><time>2026-03-24T10:51:21.944Z</time></trkpt><trkpt lat="44.3736032" lon="8.1991417"><ele>417.3333333333333</ele><time>2026-03-24T10:51:23.942Z</time></trkpt><trkpt lat="44.3735276" lon="8.1991939"><ele>417.66666666666663</ele><time>2026-03-24T10:51:25.943Z</time></trkpt><trkpt lat="44.3734538" lon="8.1992479"><ele>418.0</ele><time>2026-03-24T10:51:27.943Z</time></trkpt><trkpt lat="44.373379" lon="8.1993007"><ele>418.3333333333333</ele><time>2026-03-24T10:51:29.944Z</time></trkpt><trkpt lat="44.3733033" lon="8.1993562"><ele>418.66666666666663</ele><time>2026-03-24T10:51:31.944Z</time></trkpt><trkpt lat="44.3732284" lon="8.1994089"><ele>419.0</ele><time>2026-03-24T10:51:33.944Z</time></trkpt><trkpt lat="44.3731539" lon="8.1994606"><ele>419.0</ele><time>2026-03-24T10:51:35.944Z</time></trkpt><trkpt lat="44.373074" lon="8.1995204"><ele>419.0</ele><time>2026-03-24T10:51:37.943Z</time></trkpt><trkpt lat="44.372998" lon="8.1995828"><ele>419.0</ele><time>2026-03-24T10:51:39.943Z</time></trkpt><trkpt lat="44.3729134" lon="8.1996441"><ele>419.0</ele><time>2026-03-24T10:51:41.942Z</time></trkpt><trkpt lat="44.3728274" lon="8.1997047"><ele>419.0</ele><time>2026-03-24T10:51:43.942Z</time></trkpt><trkpt lat="44.3727439" lon="8.1997571"><ele>418.49999999999994</ele><time>2026-03-24T10:51:45.943Z</time></trkpt><trkpt lat="44.3726707" lon="8.1998082"><ele>418.0</ele><time>2026-03-24T10:51:47.943Z</time></trkpt><trkpt lat="44.3726025" lon="8.1998669"><ele>417.5</ele><time>2026-03-24T10:51:49.943Z</time></trkpt><trkpt lat="44.3725276" lon="8.1999196"><ele>417.0</ele><time>2026-03-24T10:51:51.943Z</time></trkpt><trkpt lat="44.3724557" lon="8.1999733"><ele>416.49999999999994</ele><time>2026-03-24T10:51:53.943Z</time></trkpt><trkpt lat="44.3723838" lon="8.200028"><ele>416.0</ele><time>2026-03-24T10:51:55.944Z</time></trkpt><trkpt lat="44.3723115" lon="8.2000833"><ele>416.3333333333333</ele><time>2026-03-24T10:51:57.943Z</time></trkpt><trkpt lat="44.3722345" lon="8.200139"><ele>416.66666666666663</ele><time>2026-03-24T10:51:59.943Z</time></trkpt><trkpt lat="44.372159" lon="8.2001879"><ele>417.0</ele><time>2026-03-24T10:52:01.943Z</time></trkpt><trkpt lat="44.3720818" lon="8.2002412"><ele>417.33333333333337</ele><time>2026-03-24T10:52:03.943Z</time></trkpt><trkpt lat="44.3720072" lon="8.200296"><ele>417.6666666666667</ele><time>2026-03-24T10:52:05.943Z</time></trkpt><trkpt lat="44.3719355" lon="8.2003509"><ele>418.0</ele><time>2026-03-24T10:52:07.943Z</time></trkpt><trkpt lat="44.3718652" lon="8.2003976"><ele>418.00000000000006</ele><time>2026-03-24T10:52:09.943Z</time></trkpt><trkpt lat="44.3717967" lon="8.2004484"><ele>418.0</ele><time>2026-03-24T10:52:11.942Z</time></trkpt><trkpt lat="44.3717268" lon="8.2004954"><ele>418.0</ele><time>2026-03-24T10:52:13.942Z</time></trkpt><trkpt lat="44.371657" lon="8.2005403"><ele>418.0</ele><time>2026-03-24T10:52:15.943Z</time></trkpt><trkpt lat="44.371587" lon="8.2005906"><ele>418.00000000000006</ele><time>2026-03-24T10:52:17.942Z</time></trkpt><trkpt lat="44.371515" lon="8.2006437"><ele>418.0</ele><time>2026-03-24T10:52:19.943Z</time></trkpt><trkpt lat="44.3714456" lon="8.2007024"><ele>418.6666666666667</ele><time>2026-03-24T10:52:21.943Z</time></trkpt><trkpt lat="44.3713766" lon="8.2007547"><ele>419.33333333333337</ele><time>2026-03-24T10:52:23.943Z</time></trkpt><trkpt lat="44.3713071" lon="8.2008052"><ele>420.0</ele><time>2026-03-24T10:52:25.942Z</time></trkpt><trkpt lat="44.3712336" lon="8.2008572"><ele>420.66666666666663</ele><time>2026-03-24T10:52:27.942Z</time></trkpt><trkpt lat="44.3711565" lon="8.2009034"><ele>421.3333333333333</ele><time>2026-03-24T10:52:29.942Z</time></trkpt><trkpt lat="44.3710807" lon="8.2009537"><ele>422.0</ele><time>2026-03-24T10:52:31.943Z</time></trkpt><trkpt lat="44.3710107" lon="8.2010052"><ele>421.99999999999994</ele><time>2026-03-24T10:52:33.943Z</time></trkpt><trkpt lat="44.3709414" lon="8.2010546"><ele>422.0</ele><time>2026-03-24T10:52:35.943Z</time></trkpt><trkpt lat="44.3708712" lon="8.2011088"><ele>422.0</ele><time>2026-03-24T10:52:37.943Z</time></trkpt><trkpt lat="44.3708017" lon="8.201168"><ele>422.0</ele><time>2026-03-24T10:52:39.943Z</time></trkpt><trkpt lat="44.3707327" lon="8.2012271"><ele>421.99999999999994</ele><time>2026-03-24T10:52:41.943Z</time></trkpt><trkpt lat="44.3706602" lon="8.2012813"><ele>422.0</ele><time>2026-03-24T10:52:43.942Z</time></trkpt><trkpt lat="44.3705884" lon="8.2013323"><ele>422.66666666666663</ele><time>2026-03-24T10:52:45.942Z</time></trkpt><trkpt lat="44.3705155" lon="8.2013871"><ele>423.3333333333333</ele><time>2026-03-24T10:52:47.942Z</time></trkpt><trkpt lat="44.3704441" lon="8.2014463"><ele>424.0</ele><time>2026-03-24T10:52:49.944Z</time></trkpt><trkpt lat="44.3703733" lon="8.2015003"><ele>424.66666666666663</ele><time>2026-03-24T10:52:51.943Z</time></trkpt><trkpt lat="44.370298" lon="8.2015562"><ele>425.3333333333333</ele><time>2026-03-24T10:52:53.943Z</time></trkpt><trkpt lat="44.3702195" lon="8.2016182"><ele>426.0</ele><time>2026-03-24T10:52:55.943Z</time></trkpt><trkpt lat="44.3701379" lon="8.2016811"><ele>426.1666666666667</ele><time>2026-03-24T10:52:57.943Z</time></trkpt><trkpt lat="44.370064" lon="8.201739"><ele>426.33333333333337</ele><time>2026-03-24T10:52:59.944Z</time></trkpt><trkpt lat="44.3699807" lon="8.2018064"><ele>426.5</ele><time>2026-03-24T10:53:01.943Z</time></trkpt><trkpt lat="44.3698998" lon="8.2018613"><ele>426.6666666666667</ele><time>2026-03-24T10:53:03.943Z</time></trkpt><trkpt lat="44.3698206" lon="8.2019247"><ele>426.83333333333337</ele><time>2026-03-24T10:53:05.943Z</time></trkpt><trkpt lat="44.3697508" lon="8.201986"><ele>427.0</ele><time>2026-03-24T10:53:07.943Z</time></trkpt><trkpt lat="44.3696799" lon="8.2020489"><ele>427.00000000000006</ele><time>2026-03-24T10:53:09.943Z</time></trkpt><trkpt lat="44.3696051" lon="8.2021015"><ele>427.0</ele><time>2026-03-24T10:53:11.943Z</time></trkpt><trkpt lat="44.3695266" lon="8.2021542"><ele>427.0</ele><time>2026-03-24T10:53:13.943Z</time></trkpt><trkpt lat="44.369449" lon="8.2022029"><ele>427.0</ele><time>2026-03-24T10:53:15.943Z</time></trkpt><trkpt lat="44.369372" lon="8.202254"><ele>427.00000000000006</ele><time>2026-03-24T10:53:17.942Z</time></trkpt><trkpt lat="44.3692931" lon="8.202297"><ele>427.0</ele><time>2026-03-24T10:53:19.941Z</time></trkpt><trkpt lat="44.3692212" lon="8.2023417"><ele>427.0</ele><time>2026-03-24T10:53:21.943Z</time></trkpt><trkpt lat="44.3691433" lon="8.2023729"><ele>427.00000000000006</ele><time>2026-03-24T10:53:23.943Z</time></trkpt><trkpt lat="44.3690583" lon="8.2024069"><ele>427.00000000000006</ele><time>2026-03-24T10:53:25.943Z</time></trkpt><trkpt lat="44.368967" lon="8.2024758"><ele>427.0</ele><time>2026-03-24T10:53:27.942Z</time></trkpt><trkpt lat="44.368878" lon="8.2025379"><ele>427.0</ele><time>2026-03-24T10:53:29.942Z</time></trkpt><trkpt lat="44.3687835" lon="8.2025894"><ele>427.20000000000005</ele><time>2026-03-24T10:53:31.942Z</time></trkpt><trkpt lat="44.3686875" lon="8.2026472"><ele>427.40000000000003</ele><time>2026-03-24T10:53:33.942Z</time></trkpt><trkpt lat="44.3685969" lon="8.2026935"><ele>427.59999999999997</ele><time>2026-03-24T10:53:35.943Z</time></trkpt><trkpt lat="44.3685035" lon="8.2027367"><ele>427.79999999999995</ele><time>2026-03-24T10:53:37.942Z</time></trkpt><trkpt lat="44.3684327" lon="8.2027618"><ele>428.0</ele><time>2026-03-24T10:53:40.3Z</time></trkpt><trkpt lat="44.3683518" lon="8.2028111"><ele>427.99999999999994</ele><time>2026-03-24T10:53:41.943Z</time></trkpt><trkpt lat="44.3682761" lon="8.2028536"><ele>428.0</ele><time>2026-03-24T10:53:43.943Z</time></trkpt><trkpt lat="44.3681925" lon="8.2029008"><ele>428.0</ele><time>2026-03-24T10:53:45.943Z</time></trkpt><trkpt lat="44.3681086" lon="8.2029446"><ele>428.0</ele><time>2026-03-24T10:53:47.943Z</time></trkpt><trkpt lat="44.3680295" lon="8.2029759"><ele>427.99999999999994</ele><time>2026-03-24T10:53:49.943Z</time></trkpt><trkpt lat="44.3679579" lon="8.2030147"><ele>428.0</ele><time>2026-03-24T10:53:51.943Z</time></trkpt><trkpt lat="44.3678789" lon="8.2030529"><ele>428.0</ele><time>2026-03-24T10:53:53.942Z</time></trkpt><trkpt lat="44.3677917" lon="8.203092"><ele>427.99999999999994</ele><time>2026-03-24T10:53:55.943Z</time></trkpt><trkpt lat="44.3676944" lon="8.2031417"><ele>427.99999999999994</ele><time>2026-03-24T10:53:57.942Z</time></trkpt><trkpt lat="44.3675984" lon="8.2031972"><ele>428.0</ele><time>2026-03-24T10:53:59.943Z</time></trkpt><trkpt lat="44.3675119" lon="8.2032368"><ele>428.0</ele><time>2026-03-24T10:54:01.943Z</time></trkpt><trkpt lat="44.3674308" lon="8.2032758"><ele>428.4</ele><time>2026-03-24T10:54:03.943Z</time></trkpt><trkpt lat="44.3673371" lon="8.203334"><ele>428.79999999999995</ele><time>2026-03-24T10:54:06.942Z</time></trkpt><trkpt lat="44.3672601" lon="8.2033821"><ele>429.2</ele><time>2026-03-24T10:54:08.943Z</time></trkpt><trkpt lat="44.3671758" lon="8.2034292"><ele>429.6</ele><time>2026-03-24T10:54:10.943Z</time></trkpt><trkpt lat="44.367082" lon="8.2034654"><ele>430.0</ele><time>2026-03-24T10:54:12.943Z</time></trkpt><trkpt lat="44.3669992" lon="8.2034982"><ele>430.00000000000006</ele><time>2026-03-24T10:54:14.943Z</time></trkpt><trkpt lat="44.3669111" lon="8.2035371"><ele>430.0</ele><time>2026-03-24T10:54:16.942Z</time></trkpt><trkpt lat="44.3668102" lon="8.2035752"><ele>430.0</ele><time>2026-03-24T10:54:18.943Z</time></trkpt><trkpt lat="44.3667225" lon="8.2036047"><ele>430.0</ele><time>2026-03-24T10:54:20.942Z</time></trkpt><trkpt lat="44.3666472" lon="8.2036428"><ele>430.00000000000006</ele><time>2026-03-24T10:54:22.943Z</time></trkpt><trkpt lat="44.3665725" lon="8.2036812"><ele>430.0</ele><time>2026-03-24T10:54:24.943Z</time></trkpt><trkpt lat="44.366498" lon="8.2037177"><ele>430.00000000000006</ele><time>2026-03-24T10:54:26.943Z</time></trkpt><trkpt lat="44.3664224" lon="8.2037533"><ele>430.0</ele><time>2026-03-24T10:54:28.944Z</time></trkpt><trkpt lat="44.3663425" lon="8.2037899"><ele>430.0</ele><time>2026-03-24T10:54:30.943Z</time></trkpt><trkpt lat="44.3662605" lon="8.2038234"><ele>430.0</ele><time>2026-03-24T10:54:32.943Z</time></trkpt><trkpt lat="44.3661785" lon="8.2038726"><ele>430.00000000000006</ele><time>2026-03-24T10:54:34.943Z</time></trkpt><trkpt lat="44.3660965" lon="8.2039163"><ele>430.0</ele><time>2026-03-24T10:54:36.943Z</time></trkpt><trkpt lat="44.3659997" lon="8.2039493"><ele>430.4</ele><time>2026-03-24T10:54:38.943Z</time></trkpt><trkpt lat="44.3659127" lon="8.203997"><ele>430.8</ele><time>2026-03-24T10:54:40.943Z</time></trkpt><trkpt lat="44.3658332" lon="8.2040297"><ele>431.20000000000005</ele><time>2026-03-24T10:54:42.943Z</time></trkpt><trkpt lat="44.3657551" lon="8.2040809"><ele>431.6</ele><time>2026-03-24T10:54:44.943Z</time></trkpt><trkpt lat="44.3656634" lon="8.2041175"><ele>432.0</ele><time>2026-03-24T10:54:46.943Z</time></trkpt><trkpt lat="44.3655738" lon="8.2041693"><ele>431.5</ele><time>2026-03-24T10:54:48.943Z</time></trkpt><trkpt lat="44.3654976" lon="8.2042202"><ele>431.0</ele><time>2026-03-24T10:54:50.943Z</time></trkpt><trkpt lat="44.3654121" lon="8.204267"><ele>430.5</ele><time>2026-03-24T10:54:52.944Z</time></trkpt><trkpt lat="44.3653323" lon="8.2043146"><ele>430.0</ele><time>2026-03-24T10:54:54.942Z</time></trkpt><trkpt lat="44.3652581" lon="8.204353"><ele>429.5</ele><time>2026-03-24T10:54:56.942Z</time></trkpt><trkpt lat="44.3651845" lon="8.2044023"><ele>429.0</ele><time>2026-03-24T10:54:58.943Z</time></trkpt><trkpt lat="44.3651011" lon="8.2044524"><ele>429.0</ele><time>2026-03-24T10:55:00.943Z</time></trkpt><trkpt lat="44.3650067" lon="8.2045025"><ele>429.0</ele><time>2026-03-24T10:55:02.943Z</time></trkpt><trkpt lat="44.3649113" lon="8.2045587"><ele>429.0</ele><time>2026-03-24T10:55:04.943Z</time></trkpt><trkpt lat="44.3648219" lon="8.2046113"><ele>429.0</ele><time>2026-03-24T10:55:06.943Z</time></trkpt><trkpt lat="44.3647324" lon="8.2046573"><ele>429.0</ele><time>2026-03-24T10:55:08.943Z</time></trkpt><trkpt lat="44.364647" lon="8.2046854"><ele>428.79999999999995</ele><time>2026-03-24T10:55:10.943Z</time></trkpt><trkpt lat="44.3645495" lon="8.2047247"><ele>428.59999999999997</ele><time>2026-03-24T10:55:12.942Z</time></trkpt><trkpt lat="44.3644516" lon="8.204764"><ele>428.4</ele><time>2026-03-24T10:55:14.943Z</time></trkpt><trkpt lat="44.3643526" lon="8.2048024"><ele>428.2</ele><time>2026-03-24T10:55:16.943Z</time></trkpt><trkpt lat="44.3642553" lon="8.204862"><ele>428.0</ele><time>2026-03-24T10:55:18.942Z</time></trkpt><trkpt lat="44.3641624" lon="8.2049673"><ele>428.0</ele><time>2026-03-24T10:55:20.943Z</time></trkpt><trkpt lat="44.3640696" lon="8.2050729"><ele>427.99999999999994</ele><time>2026-03-24T10:55:22.942Z</time></trkpt><trkpt lat="44.3639607" lon="8.2051575"><ele>427.99999999999994</ele><time>2026-03-24T10:55:24.943Z</time></trkpt><trkpt lat="44.3639028" lon="8.2052005"><ele>428.0</ele><time>2026-03-24T10:55:25.943Z</time></trkpt><trkpt lat="44.3638146" lon="8.2053057"><ele>428.0</ele><time>2026-03-24T10:55:27.943Z</time></trkpt><trkpt lat="44.3637189" lon="8.2053923"><ele>427.59999999999997</ele><time>2026-03-24T10:55:29.943Z</time></trkpt><trkpt lat="44.3636138" lon="8.2054597"><ele>427.19999999999993</ele><time>2026-03-24T10:55:31.942Z</time></trkpt><trkpt lat="44.3635236" lon="8.2054879"><ele>426.8</ele><time>2026-03-24T10:55:33.943Z</time></trkpt><trkpt lat="44.3634404" lon="8.2055519"><ele>426.4</ele><time>2026-03-24T10:55:35.942Z</time></trkpt><trkpt lat="44.3633813" lon="8.2055945"><ele>426.0</ele><time>2026-03-24T10:55:37.942Z</time></trkpt><trkpt lat="44.3633198" lon="8.2056707"><ele>426.6666666666667</ele><time>2026-03-24T10:55:39.942Z</time></trkpt><trkpt lat="44.3632966" lon="8.2057727"><ele>427.33333333333337</ele><time>2026-03-24T10:55:41.943Z</time></trkpt><trkpt lat="44.3632663" lon="8.2058824"><ele>428.0</ele><time>2026-03-24T10:55:43.942Z</time></trkpt><trkpt lat="44.3632221" lon="8.2059887"><ele>428.6666666666667</ele><time>2026-03-24T10:55:45.942Z</time></trkpt><trkpt lat="44.3631826" lon="8.20609"><ele>429.33333333333337</ele><time>2026-03-24T10:55:47.941Z</time></trkpt><trkpt lat="44.3631435" lon="8.2061786"><ele>430.0</ele><time>2026-03-24T10:55:49.943Z</time></trkpt><trkpt lat="44.3631142" lon="8.2062667"><ele>430.00000000000006</ele><time>2026-03-24T10:55:51.943Z</time></trkpt><trkpt lat="44.3630782" lon="8.2063525"><ele>430.0</ele><time>2026-03-24T10:55:53.944Z</time></trkpt><trkpt lat="44.363032" lon="8.2064397"><ele>430.0</ele><time>2026-03-24T10:55:55.943Z</time></trkpt><trkpt lat="44.3629844" lon="8.2065197"><ele>430.0</ele><time>2026-03-24T10:55:57.942Z</time></trkpt><trkpt lat="44.3629312" lon="8.20663"><ele>430.00000000000006</ele><time>2026-03-24T10:56:00.943Z</time></trkpt><trkpt lat="44.3628994" lon="8.2067123"><ele>430.0</ele><time>2026-03-24T10:56:02.943Z</time></trkpt><trkpt lat="44.3628697" lon="8.2068018"><ele>429.83333333333337</ele><time>2026-03-24T10:56:04.943Z</time></trkpt><trkpt lat="44.3628412" lon="8.2068983"><ele>429.6666666666667</ele><time>2026-03-24T10:56:06.943Z</time></trkpt><trkpt lat="44.3628069" lon="8.2070084"><ele>429.5</ele><time>2026-03-24T10:56:08.942Z</time></trkpt><trkpt lat="44.3627799" lon="8.2071191"><ele>429.33333333333337</ele><time>2026-03-24T10:56:10.943Z</time></trkpt><trkpt lat="44.3627487" lon="8.2072259"><ele>429.1666666666667</ele><time>2026-03-24T10:56:12.943Z</time></trkpt><trkpt lat="44.362726" lon="8.207335"><ele>429.0</ele><time>2026-03-24T10:56:14.943Z</time></trkpt><trkpt lat="44.3627016" lon="8.207456"><ele>429.0</ele><time>2026-03-24T10:56:16.942Z</time></trkpt><trkpt lat="44.3626767" lon="8.2075805"><ele>429.0</ele><time>2026-03-24T10:56:18.943Z</time></trkpt><trkpt lat="44.3626541" lon="8.2076778"><ele>429.0</ele><time>2026-03-24T10:56:20.943Z</time></trkpt><trkpt lat="44.3626116" lon="8.207763"><ele>429.0</ele><time>2026-03-24T10:56:24.943Z</time></trkpt><trkpt lat="44.3625623" lon="8.207845"><ele>429.0</ele><time>2026-03-24T10:56:28.942Z</time></trkpt><trkpt lat="44.3625094" lon="8.2079031"><ele>429.0</ele><time>2026-03-24T10:56:30.943Z</time></trkpt><trkpt lat="44.3624548" lon="8.2079649"><ele>429.0</ele><time>2026-03-24T10:56:32.942Z</time></trkpt><trkpt lat="44.3623966" lon="8.2080336"><ele>429.0</ele><time>2026-03-24T10:56:34.94Z</time></trkpt><trkpt lat="44.3623414" lon="8.2081122"><ele>429.0</ele><time>2026-03-24T10:56:36.942Z</time></trkpt><trkpt lat="44.3622896" lon="8.2082008"><ele>429.0</ele><time>2026-03-24T10:56:38.943Z</time></trkpt><trkpt lat="44.3622426" lon="8.2082918"><ele>429.0</ele><time>2026-03-24T10:56:40.942Z</time></trkpt><trkpt lat="44.3622155" lon="8.2083933"><ele>429.0</ele><time>2026-03-24T10:56:42.943Z</time></trkpt><trkpt lat="44.3621773" lon="8.2084927"><ele>428.8571428571429</ele><time>2026-03-24T10:56:44.942Z</time></trkpt><trkpt lat="44.3621354" lon="8.2085739"><ele>428.7142857142857</ele><time>2026-03-24T10:56:46.943Z</time></trkpt><trkpt lat="44.3620987" lon="8.2086623"><ele>428.57142857142856</ele><time>2026-03-24T10:56:48.943Z</time></trkpt><trkpt lat="44.3620596" lon="8.2087556"><ele>428.42857142857144</ele><time>2026-03-24T10:56:50.943Z</time></trkpt><trkpt lat="44.3620083" lon="8.2088419"><ele>428.2857142857143</ele><time>2026-03-24T10:56:52.942Z</time></trkpt><trkpt lat="44.3619665" lon="8.2089241"><ele>428.14285714285717</ele><time>2026-03-24T10:56:54.943Z</time></trkpt><trkpt lat="44.3619219" lon="8.2090075"><ele>428.0</ele><time>2026-03-24T10:56:56.943Z</time></trkpt><trkpt lat="44.3618735" lon="8.2090838"><ele>429.14285714285717</ele><time>2026-03-24T10:56:58.942Z</time></trkpt><trkpt lat="44.3618142" lon="8.2091512"><ele>430.2857142857143</ele><time>2026-03-24T10:57:00.943Z</time></trkpt><trkpt lat="44.3617549" lon="8.2092078"><ele>431.42857142857144</ele><time>2026-03-24T10:57:02.942Z</time></trkpt><trkpt lat="44.3616941" lon="8.2092603"><ele>432.57142857142856</ele><time>2026-03-24T10:57:04.943Z</time></trkpt><trkpt lat="44.3616358" lon="8.2093086"><ele>433.7142857142857</ele><time>2026-03-24T10:57:06.942Z</time></trkpt><trkpt lat="44.3615813" lon="8.2093635"><ele>434.8571428571429</ele><time>2026-03-24T10:57:08.943Z</time></trkpt><trkpt lat="44.3615214" lon="8.2094241"><ele>436.0</ele><time>2026-03-24T10:57:10.942Z</time></trkpt><trkpt lat="44.3614632" lon="8.2094839"><ele>436.0</ele><time>2026-03-24T10:57:12.943Z</time></trkpt><trkpt lat="44.3613993" lon="8.2095364"><ele>436.0</ele><time>2026-03-24T10:57:14.942Z</time></trkpt><trkpt lat="44.3613389" lon="8.209591"><ele>436.0</ele><time>2026-03-24T10:57:16.943Z</time></trkpt><trkpt lat="44.3612753" lon="8.2096485"><ele>436.0</ele><time>2026-03-24T10:57:18.942Z</time></trkpt><trkpt lat="44.3612127" lon="8.209704"><ele>436.0</ele><time>2026-03-24T10:57:20.942Z</time></trkpt><trkpt lat="44.3611522" lon="8.2097563"><ele>436.0</ele><time>2026-03-24T10:57:22.943Z</time></trkpt><trkpt lat="44.3610922" lon="8.2098022"><ele>436.0</ele><time>2026-03-24T10:57:24.942Z</time></trkpt><trkpt lat="44.3610313" lon="8.2098588"><ele>436.2857142857143</ele><time>2026-03-24T10:57:26.942Z</time></trkpt><trkpt lat="44.3609682" lon="8.2099152"><ele>436.57142857142856</ele><time>2026-03-24T10:57:28.943Z</time></trkpt><trkpt lat="44.3609063" lon="8.20998"><ele>436.8571428571429</ele><time>2026-03-24T10:57:30.943Z</time></trkpt><trkpt lat="44.360859" lon="8.210058"><ele>437.1428571428571</ele><time>2026-03-24T10:57:32.943Z</time></trkpt><trkpt lat="44.3608383" lon="8.2101538"><ele>437.4285714285714</ele><time>2026-03-24T10:57:34.943Z</time></trkpt><trkpt lat="44.3608448" lon="8.2102572"><ele>437.7142857142857</ele><time>2026-03-24T10:57:36.943Z</time></trkpt><trkpt lat="44.3608555" lon="8.2103532"><ele>438.0</ele><time>2026-03-24T10:57:38.942Z</time></trkpt><trkpt lat="44.3608561" lon="8.2104457"><ele>438.0</ele><time>2026-03-24T10:57:40.943Z</time></trkpt><trkpt lat="44.3608631" lon="8.2105373"><ele>438.0</ele><time>2026-03-24T10:57:42.943Z</time></trkpt><trkpt lat="44.3608698" lon="8.2106289"><ele>438.0</ele><time>2026-03-24T10:57:44.941Z</time></trkpt><trkpt lat="44.3608833" lon="8.2107296"><ele>438.0</ele><time>2026-03-24T10:57:46.941Z</time></trkpt><trkpt lat="44.3608913" lon="8.2108262"><ele>438.0</ele><time>2026-03-24T10:57:48.942Z</time></trkpt><trkpt lat="44.3608901" lon="8.2109201"><ele>438.0</ele><time>2026-03-24T10:57:50.942Z</time></trkpt><trkpt lat="44.3608811" lon="8.2110101"><ele>438.0</ele><time>2026-03-24T10:57:52.943Z</time></trkpt><trkpt lat="44.3608644" lon="8.2110958"><ele>438.8333333333333</ele><time>2026-03-24T10:57:54.942Z</time></trkpt><trkpt lat="44.360838" lon="8.2112141"><ele>439.66666666666663</ele><time>2026-03-24T10:57:57.942Z</time></trkpt><trkpt lat="44.3607907" lon="8.2113074"><ele>440.5</ele><time>2026-03-24T10:58:00.943Z</time></trkpt><trkpt lat="44.3607493" lon="8.2113917"><ele>441.3333333333333</ele><time>2026-03-24T10:58:03.943Z</time></trkpt><trkpt lat="44.3607078" lon="8.2115116"><ele>442.16666666666663</ele><time>2026-03-24T10:58:06.943Z</time></trkpt><trkpt lat="44.3606994" lon="8.2116166"><ele>443.0</ele><time>2026-03-24T10:58:08.943Z</time></trkpt><trkpt lat="44.3607113" lon="8.2117202"><ele>443.49999999999994</ele><time>2026-03-24T10:58:10.943Z</time></trkpt><trkpt lat="44.3607232" lon="8.2118217"><ele>444.0</ele><time>2026-03-24T10:58:12.942Z</time></trkpt><trkpt lat="44.360723" lon="8.2119122"><ele>444.5</ele><time>2026-03-24T10:58:14.942Z</time></trkpt><trkpt lat="44.3607108" lon="8.2120367"><ele>445.0</ele><time>2026-03-24T10:58:17.942Z</time></trkpt><trkpt lat="44.3606968" lon="8.2121584"><ele>445.49999999999994</ele><time>2026-03-24T10:58:20.942Z</time></trkpt><trkpt lat="44.3606904" lon="8.2122806"><ele>446.0</ele><time>2026-03-24T10:58:23.942Z</time></trkpt><trkpt lat="44.3606851" lon="8.2123975"><ele>445.99999999999994</ele><time>2026-03-24T10:58:26.941Z</time></trkpt><trkpt lat="44.360679" lon="8.2125132"><ele>446.0</ele><time>2026-03-24T10:58:29.943Z</time></trkpt><trkpt lat="44.3606694" lon="8.2126257"><ele>446.0</ele><time>2026-03-24T10:58:32.941Z</time></trkpt><trkpt lat="44.3606483" lon="8.2127499"><ele>446.0</ele><time>2026-03-24T10:58:35.942Z</time></trkpt><trkpt lat="44.3606286" lon="8.2128714"><ele>445.99999999999994</ele><time>2026-03-24T10:58:38.943Z</time></trkpt><trkpt lat="44.3606107" lon="8.212985"><ele>446.0</ele><time>2026-03-24T10:58:41.942Z</time></trkpt><trkpt lat="44.3605852" lon="8.2130979"><ele>446.49999999999994</ele><time>2026-03-24T10:58:44.943Z</time></trkpt><trkpt lat="44.3605521" lon="8.2132031"><ele>447.0</ele><time>2026-03-24T10:58:47.942Z</time></trkpt><trkpt lat="44.3605212" lon="8.2132979"><ele>447.5</ele><time>2026-03-24T10:58:50.942Z</time></trkpt><trkpt lat="44.3604867" lon="8.2134047"><ele>448.0</ele><time>2026-03-24T10:58:53.943Z</time></trkpt><trkpt lat="44.3604481" lon="8.2135105"><ele>448.49999999999994</ele><time>2026-03-24T10:58:56.942Z</time></trkpt><trkpt lat="44.3604062" lon="8.2136068"><ele>449.0</ele><time>2026-03-24T10:58:59.943Z</time></trkpt><trkpt lat="44.3603635" lon="8.2137059"><ele>449.3333333333333</ele><time>2026-03-24T10:59:02.943Z</time></trkpt><trkpt lat="44.3603092" lon="8.213799"><ele>449.66666666666663</ele><time>2026-03-24T10:59:05.942Z</time></trkpt><trkpt lat="44.3602492" lon="8.2138913"><ele>450.0</ele><time>2026-03-24T10:59:08.942Z</time></trkpt><trkpt lat="44.3601903" lon="8.213967"><ele>450.33333333333337</ele><time>2026-03-24T10:59:11.943Z</time></trkpt><trkpt lat="44.3601293" lon="8.2140375"><ele>450.6666666666667</ele><time>2026-03-24T10:59:14.943Z</time></trkpt><trkpt lat="44.3600653" lon="8.2141127"><ele>451.0</ele><time>2026-03-24T10:59:17.942Z</time></trkpt><trkpt lat="44.3599975" lon="8.2141796"><ele>451.00000000000006</ele><time>2026-03-24T10:59:20.943Z</time></trkpt><trkpt lat="44.3599284" lon="8.2142324"><ele>451.0</ele><time>2026-03-24T10:59:23.943Z</time></trkpt><trkpt lat="44.3598632" lon="8.2142833"><ele>451.0</ele><time>2026-03-24T10:59:26.943Z</time></trkpt><trkpt lat="44.3598009" lon="8.214338"><ele>451.0</ele><time>2026-03-24T10:59:29.942Z</time></trkpt><trkpt lat="44.3597338" lon="8.2143969"><ele>451.00000000000006</ele><time>2026-03-24T10:59:32.943Z</time></trkpt><trkpt lat="44.3596646" lon="8.2144632"><ele>451.0</ele><time>2026-03-24T10:59:35.942Z</time></trkpt><trkpt lat="44.3595965" lon="8.2145285"><ele>452.33333333333337</ele><time>2026-03-24T10:59:38.942Z</time></trkpt><trkpt lat="44.3595267" lon="8.214583"><ele>453.6666666666667</ele><time>2026-03-24T10:59:41.943Z</time></trkpt><trkpt lat="44.3594598" lon="8.214652"><ele>455.0</ele><time>2026-03-24T10:59:44.943Z</time></trkpt><trkpt lat="44.3593975" lon="8.2147111"><ele>456.33333333333337</ele><time>2026-03-24T10:59:47.943Z</time></trkpt><trkpt lat="44.3593318" lon="8.214782"><ele>457.6666666666667</ele><time>2026-03-24T10:59:50.942Z</time></trkpt><trkpt lat="44.3592601" lon="8.2148521"><ele>459.0</ele><time>2026-03-24T10:59:53.942Z</time></trkpt><trkpt lat="44.3591938" lon="8.2149201"><ele>459.0</ele><time>2026-03-24T10:59:56.942Z</time></trkpt><trkpt lat="44.3591346" lon="8.2149762"><ele>459.0</ele><time>2026-03-24T10:59:59.943Z</time></trkpt><trkpt lat="44.3590685" lon="8.215056"><ele>459.0</ele><time>2026-03-24T11:00:02.943Z</time></trkpt><trkpt lat="44.3590083" lon="8.2151464"><ele>459.0</ele><time>2026-03-24T11:00:05.942Z</time></trkpt><trkpt lat="44.3589554" lon="8.2152416"><ele>459.0</ele><time>2026-03-24T11:00:08.941Z</time></trkpt><trkpt lat="44.358923" lon="8.2153482"><ele>459.0</ele><time>2026-03-24T11:00:11.943Z</time></trkpt><trkpt lat="44.3589011" lon="8.2154584"><ele>459.0</ele><time>2026-03-24T11:00:14.942Z</time></trkpt><trkpt lat="44.3588911" lon="8.2155692"><ele>459.0</ele><time>2026-03-24T11:00:17.943Z</time></trkpt><trkpt lat="44.3588938" lon="8.2156708"><ele>459.0</ele><time>2026-03-24T11:00:20.942Z</time></trkpt><trkpt lat="44.3589151" lon="8.2157679"><ele>459.0</ele><time>2026-03-24T11:00:23.942Z</time></trkpt><trkpt lat="44.3589517" lon="8.2158793"><ele>459.0</ele><time>2026-03-24T11:00:26.943Z</time></trkpt><trkpt lat="44.3589902" lon="8.2159834"><ele>459.0</ele><time>2026-03-24T11:00:29.942Z</time></trkpt><trkpt lat="44.3590234" lon="8.2160717"><ele>460.0</ele><time>2026-03-24T11:00:32.942Z</time></trkpt><trkpt lat="44.3590479" lon="8.216161"><ele>461.0</ele><time>2026-03-24T11:00:35.942Z</time></trkpt><trkpt lat="44.3590788" lon="8.2162513"><ele>462.0</ele><time>2026-03-24T11:00:38.942Z</time></trkpt><trkpt lat="44.3591126" lon="8.2163521"><ele>463.0</ele><time>2026-03-24T11:00:41.943Z</time></trkpt><trkpt lat="44.3591412" lon="8.2164462"><ele>464.0</ele><time>2026-03-24T11:00:44.943Z</time></trkpt><trkpt lat="44.3591636" lon="8.2165389"><ele>465.0</ele><time>2026-03-24T11:00:47.942Z</time></trkpt><trkpt lat="44.3591882" lon="8.2166318"><ele>466.0</ele><time>2026-03-24T11:00:50.943Z</time></trkpt><trkpt lat="44.3592101" lon="8.2167292"><ele>466.0</ele><time>2026-03-24T11:00:53.943Z</time></trkpt><trkpt lat="44.3592272" lon="8.2168325"><ele>466.0</ele><time>2026-03-24T11:00:56.941Z</time></trkpt><trkpt lat="44.3592351" lon="8.2169377"><ele>466.0</ele><time>2026-03-24T11:00:59.942Z</time></trkpt><trkpt lat="44.3592345" lon="8.2170378"><ele>466.0</ele><time>2026-03-24T11:01:02.942Z</time></trkpt><trkpt lat="44.3592282" lon="8.2171328"><ele>466.0</ele><time>2026-03-24T11:01:05.943Z</time></trkpt><trkpt lat="44.3592074" lon="8.2172311"><ele>466.0</ele><time>2026-03-24T11:01:08.943Z</time></trkpt><trkpt lat="44.3591841" lon="8.2173211"><ele>466.0</ele><time>2026-03-24T11:01:11.94Z</time></trkpt><trkpt lat="44.3591524" lon="8.2174283"><ele>466.0</ele><time>2026-03-24T11:01:15.942Z</time></trkpt><trkpt lat="44.3591173" lon="8.2175099"><ele>466.0</ele><time>2026-03-24T11:01:18.942Z</time></trkpt><trkpt lat="44.3590778" lon="8.2175995"><ele>466.0</ele><time>2026-03-24T11:01:21.942Z</time></trkpt><trkpt lat="44.3590381" lon="8.2176932"><ele>466.0</ele><time>2026-03-24T11:01:24.943Z</time></trkpt><trkpt lat="44.3590004" lon="8.21779"><ele>466.0</ele><time>2026-03-24T11:01:27.942Z</time></trkpt><trkpt lat="44.3589685" lon="8.2178761"><ele>466.0</ele><time>2026-03-24T11:01:30.941Z</time></trkpt><trkpt lat="44.3589378" lon="8.2179624"><ele>466.0</ele><time>2026-03-24T11:01:33.942Z</time></trkpt><trkpt lat="44.3589172" lon="8.2180563"><ele>466.0</ele><time>2026-03-24T11:01:36.942Z</time></trkpt><trkpt lat="44.3589014" lon="8.2181454"><ele>466.0</ele><time>2026-03-24T11:01:39.942Z</time></trkpt><trkpt lat="44.3588836" lon="8.2182316"><ele>466.0</ele><time>2026-03-24T11:01:42.942Z</time></trkpt><trkpt lat="44.3588605" lon="8.2183441"><ele>466.0</ele><time>2026-03-24T11:01:46.943Z</time></trkpt><trkpt lat="44.3588392" lon="8.2184524"><ele>466.0</ele><time>2026-03-24T11:01:50.941Z</time></trkpt><trkpt lat="44.3588247" lon="8.2185521"><ele>466.0</ele><time>2026-03-24T11:01:54.942Z</time></trkpt><trkpt lat="44.3588138" lon="8.2186645"><ele>466.0</ele><time>2026-03-24T11:01:58.942Z</time></trkpt><trkpt lat="44.3588023" lon="8.2187734"><ele>466.57142857142856</ele><time>2026-03-24T11:02:02.941Z</time></trkpt><trkpt lat="44.3587932" lon="8.2188757"><ele>467.1428571428571</ele><time>2026-03-24T11:02:06.942Z</time></trkpt><trkpt lat="44.3587852" lon="8.2189797"><ele>467.71428571428567</ele><time>2026-03-24T11:02:10.941Z</time></trkpt><trkpt lat="44.3587699" lon="8.2190829"><ele>468.2857142857143</ele><time>2026-03-24T11:02:15.943Z</time></trkpt><trkpt lat="44.358767" lon="8.2191747"><ele>468.8571428571428</ele><time>2026-03-24T11:02:18.941Z</time></trkpt><trkpt lat="44.358762" lon="8.219286"><ele>469.4285714285714</ele><time>2026-03-24T11:02:22.943Z</time></trkpt><trkpt lat="44.3587533" lon="8.2193833"><ele>470.0</ele><time>2026-03-24T11:02:25.943Z</time></trkpt><trkpt lat="44.358751" lon="8.2194798"><ele>470.85714285714283</ele><time>2026-03-24T11:02:28.942Z</time></trkpt><trkpt lat="44.3587493" lon="8.2195736"><ele>471.71428571428567</ele><time>2026-03-24T11:02:31.942Z</time></trkpt><trkpt lat="44.358746" lon="8.2196621"><ele>472.57142857142856</ele><time>2026-03-24T11:02:34.942Z</time></trkpt><trkpt lat="44.358748" lon="8.2197815"><ele>473.42857142857144</ele><time>2026-03-24T11:02:38.942Z</time></trkpt><trkpt lat="44.3587437" lon="8.2198981"><ele>474.2857142857143</ele><time>2026-03-24T11:02:42.942Z</time></trkpt><trkpt lat="44.3587408" lon="8.2199941"><ele>475.1428571428571</ele><time>2026-03-24T11:02:45.942Z</time></trkpt><trkpt lat="44.3587372" lon="8.2200909"><ele>476.0</ele><time>2026-03-24T11:02:48.942Z</time></trkpt><trkpt lat="44.3587221" lon="8.220184"><ele>476.57142857142856</ele><time>2026-03-24T11:02:51.943Z</time></trkpt><trkpt lat="44.3586885" lon="8.2202602"><ele>477.1428571428571</ele><time>2026-03-24T11:02:54.94Z</time></trkpt><trkpt lat="44.3586471" lon="8.2203328"><ele>477.7142857142857</ele><time>2026-03-24T11:02:57.943Z</time></trkpt><trkpt lat="44.3585945" lon="8.2203955"><ele>478.2857142857143</ele><time>2026-03-24T11:03:00.943Z</time></trkpt><trkpt lat="44.3585372" lon="8.2204366"><ele>478.85714285714283</ele><time>2026-03-24T11:03:03.942Z</time></trkpt><trkpt lat="44.3584667" lon="8.2204636"><ele>479.42857142857144</ele><time>2026-03-24T11:03:06.942Z</time></trkpt><trkpt lat="44.3583982" lon="8.2204866"><ele>480.0</ele><time>2026-03-24T11:03:09.942Z</time></trkpt><trkpt lat="44.3583275" lon="8.2205044"><ele>480.0</ele><time>2026-03-24T11:03:12.942Z</time></trkpt><trkpt lat="44.3582567" lon="8.2205176"><ele>480.0</ele><time>2026-03-24T11:03:15.941Z</time></trkpt><trkpt lat="44.3581764" lon="8.2205261"><ele>480.0</ele><time>2026-03-24T11:03:19.942Z</time></trkpt><trkpt lat="44.3581139" lon="8.2205426"><ele>480.0</ele><time>2026-03-24T11:03:22.942Z</time></trkpt><trkpt lat="44.3580487" lon="8.2205633"><ele>480.0</ele><time>2026-03-24T11:03:25.941Z</time></trkpt><trkpt lat="44.3579632" lon="8.2205735"><ele>480.0</ele><time>2026-03-24T11:03:29.942Z</time></trkpt><trkpt lat="44.3578828" lon="8.2205853"><ele>480.0</ele><time>2026-03-24T11:03:33.942Z</time></trkpt><trkpt lat="44.3578171" lon="8.2205926"><ele>480.5</ele><time>2026-03-24T11:03:36.942Z</time></trkpt><trkpt lat="44.3577424" lon="8.2205981"><ele>481.0</ele><time>2026-03-24T11:03:40.942Z</time></trkpt><trkpt lat="44.3576604" lon="8.2205988"><ele>481.5</ele><time>2026-03-24T11:03:44.942Z</time></trkpt><trkpt lat="44.3575775" lon="8.2206128"><ele>482.0</ele><time>2026-03-24T11:03:48.942Z</time></trkpt><trkpt lat="44.357502" lon="8.2206663"><ele>482.5</ele><time>2026-03-24T11:03:52.943Z</time></trkpt><trkpt lat="44.3574464" lon="8.2207311"><ele>483.0</ele><time>2026-03-24T11:03:55.942Z</time></trkpt><trkpt lat="44.3574076" lon="8.2208066"><ele>483.8571428571429</ele><time>2026-03-24T11:03:58.942Z</time></trkpt><trkpt lat="44.3573688" lon="8.2208979"><ele>484.7142857142857</ele><time>2026-03-24T11:04:01.942Z</time></trkpt><trkpt lat="44.3573366" lon="8.2209837"><ele>485.57142857142856</ele><time>2026-03-24T11:04:04.942Z</time></trkpt><trkpt lat="44.3573061" lon="8.2210726"><ele>486.42857142857144</ele><time>2026-03-24T11:04:07.941Z</time></trkpt><trkpt lat="44.3572853" lon="8.2211581"><ele>487.28571428571433</ele><time>2026-03-24T11:04:10.943Z</time></trkpt><trkpt lat="44.3572559" lon="8.2212599"><ele>488.14285714285717</ele><time>2026-03-24T11:04:14.941Z</time></trkpt><trkpt lat="44.357229" lon="8.2213652"><ele>489.0</ele><time>2026-03-24T11:04:18.942Z</time></trkpt><trkpt lat="44.3572046" lon="8.2214716"><ele>490.5714285714286</ele><time>2026-03-24T11:04:22.942Z</time></trkpt><trkpt lat="44.3572045" lon="8.2215875"><ele>492.1428571428572</ele><time>2026-03-24T11:04:26.942Z</time></trkpt><trkpt lat="44.3572144" lon="8.2217009"><ele>493.7142857142857</ele><time>2026-03-24T11:04:30.942Z</time></trkpt><trkpt lat="44.3572154" lon="8.2217921"><ele>495.28571428571433</ele><time>2026-03-24T11:04:33.942Z</time></trkpt><trkpt lat="44.3572234" lon="8.221881"><ele>496.8571428571429</ele><time>2026-03-24T11:04:36.942Z</time></trkpt><trkpt lat="44.3572321" lon="8.221976"><ele>498.42857142857144</ele><time>2026-03-24T11:04:39.942Z</time></trkpt><trkpt lat="44.357246" lon="8.2220903"><ele>500.0</ele><time>2026-03-24T11:04:43.943Z</time></trkpt><trkpt lat="44.3572498" lon="8.2221791"><ele>500.0</ele><time>2026-03-24T11:04:46.94Z</time></trkpt><trkpt lat="44.3572513" lon="8.2222755"><ele>500.0</ele><time>2026-03-24T11:04:49.942Z</time></trkpt><trkpt lat="44.3572535" lon="8.2223898"><ele>500.0</ele><time>2026-03-24T11:04:53.942Z</time></trkpt><trkpt lat="44.3572574" lon="8.2224836"><ele>500.0</ele><time>2026-03-24T11:04:56.941Z</time></trkpt><trkpt lat="44.3572673" lon="8.222599"><ele>500.0</ele><time>2026-03-24T11:05:00.942Z</time></trkpt><trkpt lat="44.3572813" lon="8.2226904"><ele>500.0</ele><time>2026-03-24T11:05:03.942Z</time></trkpt><trkpt lat="44.3573018" lon="8.222785"><ele>500.0</ele><time>2026-03-24T11:05:06.94Z</time></trkpt><trkpt lat="44.3573207" lon="8.2228762"><ele>501.2857142857143</ele><time>2026-03-24T11:05:09.942Z</time></trkpt><trkpt lat="44.3573436" lon="8.2229626"><ele>502.57142857142856</ele><time>2026-03-24T11:05:12.942Z</time></trkpt><trkpt lat="44.3573703" lon="8.2230534"><ele>503.85714285714283</ele><time>2026-03-24T11:05:15.942Z</time></trkpt><trkpt lat="44.3574016" lon="8.2231416"><ele>505.1428571428571</ele><time>2026-03-24T11:05:18.942Z</time></trkpt><trkpt lat="44.3574141" lon="8.2232284"><ele>506.42857142857144</ele><time>2026-03-24T11:05:21.942Z</time></trkpt><trkpt lat="44.3574407" lon="8.2233138"><ele>507.71428571428567</ele><time>2026-03-24T11:05:24.942Z</time></trkpt><trkpt lat="44.3574666" lon="8.2234249"><ele>508.99999999999994</ele><time>2026-03-24T11:05:28.941Z</time></trkpt><trkpt lat="44.3574897" lon="8.2235107"><ele>509.5714285714285</ele><time>2026-03-24T11:05:31.941Z</time></trkpt><trkpt lat="44.3575169" lon="8.2235935"><ele>510.1428571428571</ele><time>2026-03-24T11:05:34.941Z</time></trkpt><trkpt lat="44.3575406" lon="8.223684"><ele>510.7142857142857</ele><time>2026-03-24T11:05:37.942Z</time></trkpt><trkpt lat="44.3575553" lon="8.2237742"><ele>511.2857142857143</ele><time>2026-03-24T11:05:40.942Z</time></trkpt><trkpt lat="44.3575743" lon="8.2238583"><ele>511.8571428571429</ele><time>2026-03-24T11:05:43.942Z</time></trkpt><trkpt lat="44.3576008" lon="8.2239572"><ele>512.4285714285714</ele><time>2026-03-24T11:05:47.942Z</time></trkpt><trkpt lat="44.3576192" lon="8.2240421"><ele>513.0</ele><time>2026-03-24T11:05:50.942Z</time></trkpt><trkpt lat="44.3576302" lon="8.2241309"><ele>513.5</ele><time>2026-03-24T11:05:53.942Z</time></trkpt><trkpt lat="44.3576466" lon="8.2242384"><ele>514.0</ele><time>2026-03-24T11:05:56.941Z</time></trkpt><trkpt lat="44.3576675" lon="8.224332"><ele>514.5</ele><time>2026-03-24T11:05:59.941Z</time></trkpt><trkpt lat="44.3576908" lon="8.2244398"><ele>515.0</ele><time>2026-03-24T11:06:02.942Z</time></trkpt><trkpt lat="44.3577106" lon="8.2245544"><ele>515.5</ele><time>2026-03-24T11:06:05.942Z</time></trkpt><trkpt lat="44.357735" lon="8.2246693"><ele>516.0</ele><time>2026-03-24T11:06:08.942Z</time></trkpt><trkpt lat="44.3577544" lon="8.2247884"><ele>517.0</ele><time>2026-03-24T11:06:11.942Z</time></trkpt><trkpt lat="44.3577759" lon="8.2249142"><ele>518.0</ele><time>2026-03-24T11:06:14.941Z</time></trkpt><trkpt lat="44.3577918" lon="8.2250351"><ele>519.0</ele><time>2026-03-24T11:06:17.942Z</time></trkpt><trkpt lat="44.3578016" lon="8.2251627"><ele>520.0</ele><time>2026-03-24T11:06:20.942Z</time></trkpt><trkpt lat="44.3578183" lon="8.2252761"><ele>521.0</ele><time>2026-03-24T11:06:23.942Z</time></trkpt><trkpt lat="44.3578316" lon="8.2253874"><ele>522.0</ele><time>2026-03-24T11:06:26.942Z</time></trkpt><trkpt lat="44.3578477" lon="8.2254996"><ele>522.0</ele><time>2026-03-24T11:06:29.941Z</time></trkpt><trkpt lat="44.3578579" lon="8.2256174"><ele>522.0</ele><time>2026-03-24T11:06:32.942Z</time></trkpt><trkpt lat="44.3578706" lon="8.2257405"><ele>522.0</ele><time>2026-03-24T11:06:35.942Z</time></trkpt><trkpt lat="44.3578897" lon="8.2258624"><ele>522.0</ele><time>2026-03-24T11:06:38.942Z</time></trkpt><trkpt lat="44.3579044" lon="8.2259884"><ele>522.0</ele><time>2026-03-24T11:06:41.941Z</time></trkpt><trkpt lat="44.357919" lon="8.2261164"><ele>522.0</ele><time>2026-03-24T11:06:44.941Z</time></trkpt><trkpt lat="44.3579303" lon="8.226206"><ele>522.5714285714286</ele><time>2026-03-24T11:06:46.941Z</time></trkpt><trkpt lat="44.3579336" lon="8.2262997"><ele>523.1428571428571</ele><time>2026-03-24T11:06:48.941Z</time></trkpt><trkpt lat="44.3579394" lon="8.2263945"><ele>523.7142857142857</ele><time>2026-03-24T11:06:50.942Z</time></trkpt><trkpt lat="44.3579392" lon="8.226487"><ele>524.2857142857142</ele><time>2026-03-24T11:06:52.941Z</time></trkpt><trkpt lat="44.3579469" lon="8.2265762"><ele>524.8571428571428</ele><time>2026-03-24T11:06:54.942Z</time></trkpt><trkpt lat="44.3579687" lon="8.2266762"><ele>525.4285714285714</ele><time>2026-03-24T11:06:57.942Z</time></trkpt><trkpt lat="44.3580177" lon="8.2267635"><ele>526.0</ele><time>2026-03-24T11:07:23.941Z</time></trkpt><trkpt lat="44.3580859" lon="8.2268474"><ele>526.2857142857142</ele><time>2026-03-24T11:10:04.941Z</time></trkpt><trkpt lat="44.3581133" lon="8.226938"><ele>526.5714285714286</ele><time>2026-03-24T11:10:06.942Z</time></trkpt><trkpt lat="44.3581449" lon="8.2270186"><ele>526.8571428571429</ele><time>2026-03-24T11:10:08.941Z</time></trkpt><trkpt lat="44.3581879" lon="8.2271005"><ele>527.1428571428571</ele><time>2026-03-24T11:10:10.941Z</time></trkpt><trkpt lat="44.3582283" lon="8.2271721"><ele>527.4285714285714</ele><time>2026-03-24T11:10:12.941Z</time></trkpt><trkpt lat="44.3582686" lon="8.227243"><ele>527.7142857142857</ele><time>2026-03-24T11:10:14.941Z</time></trkpt><trkpt lat="44.3583189" lon="8.2273101"><ele>528.0</ele><time>2026-03-24T11:10:16.939Z</time></trkpt><trkpt lat="44.3583704" lon="8.227393"><ele>528.0</ele><time>2026-03-24T11:10:18.942Z</time></trkpt><trkpt lat="44.3584225" lon="8.227496"><ele>528.0</ele><time>2026-03-24T11:10:20.94Z</time></trkpt><trkpt lat="44.3584933" lon="8.2276052"><ele>528.0</ele><time>2026-03-24T11:10:22.94Z</time></trkpt><trkpt lat="44.3585623" lon="8.227723"><ele>528.0</ele><time>2026-03-24T11:10:24.941Z</time></trkpt><trkpt lat="44.3586462" lon="8.2278593"><ele>528.0</ele><time>2026-03-24T11:10:26.941Z</time></trkpt><trkpt lat="44.3586938" lon="8.2279324"><ele>528.0</ele><time>2026-03-24T11:10:27.941Z</time></trkpt><trkpt lat="44.3587396" lon="8.2280056"><ele>528.0</ele><time>2026-03-24T11:10:28.942Z</time></trkpt><trkpt lat="44.3587825" lon="8.228091"><ele>528.0</ele><time>2026-03-24T11:10:29.942Z</time></trkpt><trkpt lat="44.3588308" lon="8.2281759"><ele>528.0</ele><time>2026-03-24T11:10:30.941Z</time></trkpt><trkpt lat="44.3588909" lon="8.2282661"><ele>528.0</ele><time>2026-03-24T11:10:31.941Z</time></trkpt><trkpt lat="44.358948" lon="8.2283566"><ele>528.0</ele><time>2026-03-24T11:10:32.941Z</time></trkpt><trkpt lat="44.3590068" lon="8.2284543"><ele>526.8</ele><time>2026-03-24T11:10:33.941Z</time></trkpt><trkpt lat="44.3590603" lon="8.2285534"><ele>525.5999999999999</ele><time>2026-03-24T11:10:34.941Z</time></trkpt><trkpt lat="44.3591132" lon="8.2286555"><ele>524.4000000000001</ele><time>2026-03-24T11:10:35.942Z</time></trkpt><trkpt lat="44.3591643" lon="8.2287587"><ele>523.2</ele><time>2026-03-24T11:10:36.941Z</time></trkpt><trkpt lat="44.3592306" lon="8.228871"><ele>522.0</ele><time>2026-03-24T11:10:37.942Z</time></trkpt><trkpt lat="44.3592781" lon="8.2289775"><ele>520.4</ele><time>2026-03-24T11:10:38.941Z</time></trkpt><trkpt lat="44.3593406" lon="8.2291047"><ele>518.8000000000001</ele><time>2026-03-24T11:10:39.941Z</time></trkpt><trkpt lat="44.3594063" lon="8.2292511"><ele>517.2</ele><time>2026-03-24T11:10:40.94Z</time></trkpt><trkpt lat="44.3594681" lon="8.2293784"><ele>515.6</ele><time>2026-03-24T11:10:41.941Z</time></trkpt><trkpt lat="44.3595193" lon="8.2295033"><ele>514.0</ele><time>2026-03-24T11:10:42.941Z</time></trkpt><trkpt lat="44.3595779" lon="8.2296312"><ele>514.0</ele><time>2026-03-24T11:10:43.942Z</time></trkpt><trkpt lat="44.3596364" lon="8.2297576"><ele>514.0</ele><time>2026-03-24T11:10:44.942Z</time></trkpt><trkpt lat="44.3596825" lon="8.2298863"><ele>514.0</ele><time>2026-03-24T11:10:45.94Z</time></trkpt><trkpt lat="44.3597382" lon="8.2300172"><ele>514.0</ele><time>2026-03-24T11:10:46.941Z</time></trkpt><trkpt lat="44.3597972" lon="8.2301463"><ele>514.0</ele><time>2026-03-24T11:10:47.941Z</time></trkpt><trkpt lat="44.359861" lon="8.230273"><ele>513.8</ele><time>2026-03-24T11:10:48.942Z</time></trkpt><trkpt lat="44.3599247" lon="8.2304033"><ele>513.5999999999999</ele><time>2026-03-24T11:10:49.942Z</time></trkpt><trkpt lat="44.3599769" lon="8.2305339"><ele>513.4</ele><time>2026-03-24T11:10:50.941Z</time></trkpt><trkpt lat="44.3600291" lon="8.2306713"><ele>513.1999999999999</ele><time>2026-03-24T11:10:51.942Z</time></trkpt><trkpt lat="44.3600857" lon="8.2307972"><ele>513.0</ele><time>2026-03-24T11:10:52.94Z</time></trkpt><trkpt lat="44.3601463" lon="8.2309291"><ele>511.25</ele><time>2026-03-24T11:10:53.942Z</time></trkpt><trkpt lat="44.3602069" lon="8.231071"><ele>509.5</ele><time>2026-03-24T11:10:54.941Z</time></trkpt><trkpt lat="44.3602697" lon="8.2312032"><ele>507.75</ele><time>2026-03-24T11:10:55.94Z</time></trkpt><trkpt lat="44.3603314" lon="8.2313406"><ele>506.0</ele><time>2026-03-24T11:10:56.941Z</time></trkpt><trkpt lat="44.3603847" lon="8.2314713"><ele>504.0</ele><time>2026-03-24T11:10:57.942Z</time></trkpt><trkpt lat="44.3604389" lon="8.2316069"><ele>502.0</ele><time>2026-03-24T11:10:58.941Z</time></trkpt><trkpt lat="44.3605008" lon="8.2317517"><ele>500.0</ele><time>2026-03-24T11:10:59.941Z</time></trkpt><trkpt lat="44.3605622" lon="8.2318912"><ele>498.0</ele><time>2026-03-24T11:11:00.941Z</time></trkpt><trkpt lat="44.3606276" lon="8.2320144"><ele>497.5</ele><time>2026-03-24T11:11:01.942Z</time></trkpt><trkpt lat="44.3606835" lon="8.2321534"><ele>497.0</ele><time>2026-03-24T11:11:02.941Z</time></trkpt><trkpt lat="44.3607467" lon="8.2322818"><ele>496.5</ele><time>2026-03-24T11:11:03.94Z</time></trkpt><trkpt lat="44.3608188" lon="8.2324157"><ele>496.0</ele><time>2026-03-24T11:11:04.94Z</time></trkpt><trkpt lat="44.360898" lon="8.2325431"><ele>496.0</ele><time>2026-03-24T11:11:05.942Z</time></trkpt><trkpt lat="44.3609776" lon="8.23267"><ele>496.0</ele><time>2026-03-24T11:11:06.941Z</time></trkpt><trkpt lat="44.3610552" lon="8.2327934"><ele>496.0</ele><time>2026-03-24T11:11:07.94Z</time></trkpt><trkpt lat="44.3611458" lon="8.2329211"><ele>496.0</ele><time>2026-03-24T11:11:08.941Z</time></trkpt><trkpt lat="44.3612364" lon="8.2330617"><ele>493.25</ele><time>2026-03-24T11:11:09.94Z</time></trkpt><trkpt lat="44.361324" lon="8.2331896"><ele>490.5</ele><time>2026-03-24T11:11:10.941Z</time></trkpt><trkpt lat="44.3614147" lon="8.2333191"><ele>487.75</ele><time>2026-03-24T11:11:11.941Z</time></trkpt><trkpt lat="44.361497" lon="8.2334508"><ele>485.0</ele><time>2026-03-24T11:11:12.941Z</time></trkpt><trkpt lat="44.3615781" lon="8.2335918"><ele>485.0</ele><time>2026-03-24T11:11:13.941Z</time></trkpt><trkpt lat="44.3616599" lon="8.2337501"><ele>485.0</ele><time>2026-03-24T11:11:14.942Z</time></trkpt><trkpt lat="44.3617348" lon="8.2338969"><ele>485.0</ele><time>2026-03-24T11:11:15.942Z</time></trkpt><trkpt lat="44.3618005" lon="8.2340542"><ele>485.0</ele><time>2026-03-24T11:11:16.941Z</time></trkpt><trkpt lat="44.361856" lon="8.2342219"><ele>483.5</ele><time>2026-03-24T11:11:17.941Z</time></trkpt><trkpt lat="44.3619135" lon="8.2344005"><ele>482.0</ele><time>2026-03-24T11:11:18.942Z</time></trkpt><trkpt lat="44.3619604" lon="8.2345811"><ele>480.5</ele><time>2026-03-24T11:11:19.941Z</time></trkpt><trkpt lat="44.3620021" lon="8.234758"><ele>479.0</ele><time>2026-03-24T11:11:20.94Z</time></trkpt><trkpt lat="44.362041" lon="8.2349435"><ele>477.25</ele><time>2026-03-24T11:11:21.942Z</time></trkpt><trkpt lat="44.3620754" lon="8.2351208"><ele>475.5</ele><time>2026-03-24T11:11:22.941Z</time></trkpt><trkpt lat="44.3621133" lon="8.2352988"><ele>473.75</ele><time>2026-03-24T11:11:23.941Z</time></trkpt><trkpt lat="44.3621473" lon="8.2354775"><ele>472.0</ele><time>2026-03-24T11:11:24.942Z</time></trkpt><trkpt lat="44.3621874" lon="8.2356527"><ele>473.25</ele><time>2026-03-24T11:11:25.941Z</time></trkpt><trkpt lat="44.3622266" lon="8.2358341"><ele>474.5</ele><time>2026-03-24T11:11:26.939Z</time></trkpt><trkpt lat="44.3622592" lon="8.2360065"><ele>475.75</ele><time>2026-03-24T11:11:27.941Z</time></trkpt><trkpt lat="44.3622997" lon="8.2361804"><ele>477.0</ele><time>2026-03-24T11:11:28.94Z</time></trkpt><trkpt lat="44.3623417" lon="8.2363454"><ele>475.25</ele><time>2026-03-24T11:11:29.941Z</time></trkpt><trkpt lat="44.3623718" lon="8.2365184"><ele>473.5</ele><time>2026-03-24T11:11:30.94Z</time></trkpt><trkpt lat="44.3624109" lon="8.2366859"><ele>471.75</ele><time>2026-03-24T11:11:31.942Z</time></trkpt><trkpt lat="44.3624587" lon="8.2368543"><ele>470.0</ele><time>2026-03-24T11:11:32.942Z</time></trkpt><trkpt lat="44.3624959" lon="8.2370316"><ele>470.0</ele><time>2026-03-24T11:11:33.942Z</time></trkpt><trkpt lat="44.3625426" lon="8.2371999"><ele>470.0</ele><time>2026-03-24T11:11:34.942Z</time></trkpt><trkpt lat="44.3625743" lon="8.2373679"><ele>470.0</ele><time>2026-03-24T11:11:35.941Z</time></trkpt><trkpt lat="44.3626178" lon="8.2375359"><ele>470.0</ele><time>2026-03-24T11:11:36.942Z</time></trkpt><trkpt lat="44.3626434" lon="8.2377159"><ele>468.75</ele><time>2026-03-24T11:11:37.942Z</time></trkpt><trkpt lat="44.3626727" lon="8.2379075"><ele>467.5</ele><time>2026-03-24T11:11:38.942Z</time></trkpt><trkpt lat="44.3626772" lon="8.2380866"><ele>466.25</ele><time>2026-03-24T11:11:39.941Z</time></trkpt><trkpt lat="44.3626684" lon="8.2382584"><ele>465.0</ele><time>2026-03-24T11:11:40.94Z</time></trkpt><trkpt lat="44.3626419" lon="8.2384342"><ele>464.8</ele><time>2026-03-24T11:11:41.941Z</time></trkpt><trkpt lat="44.3626151" lon="8.2385954"><ele>464.6</ele><time>2026-03-24T11:11:42.941Z</time></trkpt><trkpt lat="44.3625902" lon="8.2387381"><ele>464.4</ele><time>2026-03-24T11:11:43.942Z</time></trkpt><trkpt lat="44.3625578" lon="8.2388781"><ele>464.2</ele><time>2026-03-24T11:11:44.942Z</time></trkpt><trkpt lat="44.3625344" lon="8.2390064"><ele>464.0</ele><time>2026-03-24T11:11:45.941Z</time></trkpt><trkpt lat="44.3625174" lon="8.2391278"><ele>463.8333333333333</ele><time>2026-03-24T11:11:46.941Z</time></trkpt><trkpt lat="44.3624997" lon="8.2392287"><ele>463.66666666666663</ele><time>2026-03-24T11:11:47.94Z</time></trkpt><trkpt lat="44.3624832" lon="8.2393197"><ele>463.5</ele><time>2026-03-24T11:11:48.941Z</time></trkpt><trkpt lat="44.3624352" lon="8.2394611"><ele>463.33333333333337</ele><time>2026-03-24T11:11:50.941Z</time></trkpt><trkpt lat="44.3623242" lon="8.2394825"><ele>463.1666666666667</ele><time>2026-03-24T11:11:52.942Z</time></trkpt><trkpt lat="44.3622627" lon="8.2394616"><ele>463.0</ele><time>2026-03-24T11:11:53.941Z</time></trkpt><trkpt lat="44.3621913" lon="8.2394351"><ele>465.00000000000006</ele><time>2026-03-24T11:11:54.942Z</time></trkpt><trkpt lat="44.3621217" lon="8.2394063"><ele>467.0</ele><time>2026-03-24T11:11:55.94Z</time></trkpt><trkpt lat="44.3620503" lon="8.2393837"><ele>469.0</ele><time>2026-03-24T11:11:56.941Z</time></trkpt><trkpt lat="44.3619735" lon="8.2393595"><ele>471.0</ele><time>2026-03-24T11:11:57.941Z</time></trkpt><trkpt lat="44.3619045" lon="8.2393405"><ele>473.00000000000006</ele><time>2026-03-24T11:11:58.94Z</time></trkpt><trkpt lat="44.3618278" lon="8.2393181"><ele>475.0</ele><time>2026-03-24T11:11:59.941Z</time></trkpt><trkpt lat="44.36175" lon="8.2393147"><ele>475.0</ele><time>2026-03-24T11:12:00.941Z</time></trkpt><trkpt lat="44.3616835" lon="8.2393372"><ele>475.0</ele><time>2026-03-24T11:12:01.94Z</time></trkpt><trkpt lat="44.3615976" lon="8.2394607"><ele>475.0</ele><time>2026-03-24T11:12:03.941Z</time></trkpt><trkpt lat="44.3615594" lon="8.2395954"><ele>475.0</ele><time>2026-03-24T11:12:05.942Z</time></trkpt><trkpt lat="44.3615347" lon="8.2397135"><ele>475.0</ele><time>2026-03-24T11:12:07.94Z</time></trkpt><trkpt lat="44.3615187" lon="8.2398041"><ele>476.00000000000006</ele><time>2026-03-24T11:12:09.94Z</time></trkpt><trkpt lat="44.3615011" lon="8.2399305"><ele>477.0</ele><time>2026-03-24T11:12:12.94Z</time></trkpt><trkpt lat="44.3614765" lon="8.2400441"><ele>478.0</ele><time>2026-03-24T11:12:15.942Z</time></trkpt><trkpt lat="44.361441" lon="8.2401451"><ele>479.0</ele><time>2026-03-24T11:12:18.941Z</time></trkpt><trkpt lat="44.3613795" lon="8.2402212"><ele>480.00000000000006</ele><time>2026-03-24T11:12:21.941Z</time></trkpt><trkpt lat="44.3612975" lon="8.2402519"><ele>481.0</ele><time>2026-03-24T11:12:24.941Z</time></trkpt><trkpt lat="44.3612166" lon="8.2402604"><ele>481.00000000000006</ele><time>2026-03-24T11:12:27.94Z</time></trkpt><trkpt lat="44.3611266" lon="8.2402679"><ele>481.0</ele><time>2026-03-24T11:12:30.941Z</time></trkpt><trkpt lat="44.3610379" lon="8.240287"><ele>481.0</ele><time>2026-03-24T11:12:33.941Z</time></trkpt><trkpt lat="44.3609529" lon="8.2402927"><ele>481.0</ele><time>2026-03-24T11:12:36.94Z</time></trkpt><trkpt lat="44.3608686" lon="8.2402954"><ele>481.00000000000006</ele><time>2026-03-24T11:12:39.942Z</time></trkpt><trkpt lat="44.3607886" lon="8.2403065"><ele>481.0</ele><time>2026-03-24T11:12:42.942Z</time></trkpt><trkpt lat="44.360714" lon="8.2403273"><ele>481.00000000000006</ele><time>2026-03-24T11:12:45.942Z</time></trkpt><trkpt lat="44.3606371" lon="8.2403493"><ele>481.0</ele><time>2026-03-24T11:12:48.941Z</time></trkpt><trkpt lat="44.3605616" lon="8.2403691"><ele>481.0</ele><time>2026-03-24T11:12:51.942Z</time></trkpt><trkpt lat="44.3604879" lon="8.2403875"><ele>481.0</ele><time>2026-03-24T11:12:54.941Z</time></trkpt><trkpt lat="44.360415" lon="8.2404007"><ele>481.00000000000006</ele><time>2026-03-24T11:12:57.941Z</time></trkpt><trkpt lat="44.3603407" lon="8.240406"><ele>481.0</ele><time>2026-03-24T11:13:00.941Z</time></trkpt><trkpt lat="44.3602654" lon="8.2403984"><ele>481.83333333333337</ele><time>2026-03-24T11:13:03.941Z</time></trkpt><trkpt lat="44.3601947" lon="8.2403743"><ele>482.6666666666667</ele><time>2026-03-24T11:13:06.941Z</time></trkpt><trkpt lat="44.3601307" lon="8.2403321"><ele>483.5</ele><time>2026-03-24T11:13:09.941Z</time></trkpt><trkpt lat="44.3600616" lon="8.2402852"><ele>484.33333333333337</ele><time>2026-03-24T11:13:12.94Z</time></trkpt><trkpt lat="44.3599925" lon="8.2402355"><ele>485.1666666666667</ele><time>2026-03-24T11:13:15.941Z</time></trkpt><trkpt lat="44.3599229" lon="8.2401793"><ele>486.0</ele><time>2026-03-24T11:13:18.941Z</time></trkpt><trkpt lat="44.3598526" lon="8.2401227"><ele>486.0</ele><time>2026-03-24T11:13:21.941Z</time></trkpt><trkpt lat="44.3597831" lon="8.2400645"><ele>486.0</ele><time>2026-03-24T11:13:24.941Z</time></trkpt><trkpt lat="44.3597087" lon="8.24002"><ele>486.0</ele><time>2026-03-24T11:13:27.94Z</time></trkpt><trkpt lat="44.359627" lon="8.2400122"><ele>486.0</ele><time>2026-03-24T11:13:30.941Z</time></trkpt><trkpt lat="44.3595495" lon="8.2400341"><ele>486.0</ele><time>2026-03-24T11:13:33.94Z</time></trkpt><trkpt lat="44.3594716" lon="8.2400795"><ele>486.0</ele><time>2026-03-24T11:13:36.941Z</time></trkpt><trkpt lat="44.3593996" lon="8.2401353"><ele>487.8333333333333</ele><time>2026-03-24T11:13:39.941Z</time></trkpt><trkpt lat="44.3593243" lon="8.2401974"><ele>489.66666666666663</ele><time>2026-03-24T11:13:42.941Z</time></trkpt><trkpt lat="44.3592518" lon="8.2402621"><ele>491.5</ele><time>2026-03-24T11:13:45.94Z</time></trkpt><trkpt lat="44.3591838" lon="8.2403334"><ele>493.3333333333333</ele><time>2026-03-24T11:13:48.941Z</time></trkpt><trkpt lat="44.3591137" lon="8.240389"><ele>495.16666666666663</ele><time>2026-03-24T11:13:51.941Z</time></trkpt><trkpt lat="44.359044" lon="8.2404265"><ele>497.0</ele><time>2026-03-24T11:13:54.941Z</time></trkpt><trkpt lat="44.3589771" lon="8.2404798"><ele>496.99999999999994</ele><time>2026-03-24T11:13:57.94Z</time></trkpt><trkpt lat="44.3589125" lon="8.2405324"><ele>497.0</ele><time>2026-03-24T11:14:00.941Z</time></trkpt><trkpt lat="44.3588461" lon="8.2405954"><ele>497.0</ele><time>2026-03-24T11:14:03.941Z</time></trkpt><trkpt lat="44.3587774" lon="8.2406496"><ele>497.0</ele><time>2026-03-24T11:14:06.941Z</time></trkpt><trkpt lat="44.3587053" lon="8.2407196"><ele>496.99999999999994</ele><time>2026-03-24T11:14:09.941Z</time></trkpt><trkpt lat="44.3586372" lon="8.2407845"><ele>497.0</ele><time>2026-03-24T11:14:12.941Z</time></trkpt><trkpt lat="44.3585678" lon="8.2408525"><ele>496.3333333333333</ele><time>2026-03-24T11:14:15.941Z</time></trkpt><trkpt lat="44.3584944" lon="8.2409088"><ele>495.66666666666663</ele><time>2026-03-24T11:14:18.941Z</time></trkpt><trkpt lat="44.3584224" lon="8.2409671"><ele>495.0</ele><time>2026-03-24T11:14:21.941Z</time></trkpt><trkpt lat="44.3583488" lon="8.2410098"><ele>494.33333333333337</ele><time>2026-03-24T11:14:24.941Z</time></trkpt><trkpt lat="44.3582854" lon="8.2410614"><ele>493.6666666666667</ele><time>2026-03-24T11:14:27.941Z</time></trkpt><trkpt lat="44.3582202" lon="8.241121"><ele>493.0</ele><time>2026-03-24T11:14:30.941Z</time></trkpt><trkpt lat="44.3581517" lon="8.2412016"><ele>493.00000000000006</ele><time>2026-03-24T11:14:33.941Z</time></trkpt><trkpt lat="44.3580855" lon="8.2412725"><ele>493.0</ele><time>2026-03-24T11:14:36.94Z</time></trkpt><trkpt lat="44.3580178" lon="8.2413302"><ele>493.0</ele><time>2026-03-24T11:14:39.94Z</time></trkpt><trkpt lat="44.3579433" lon="8.2413826"><ele>493.0</ele><time>2026-03-24T11:14:42.941Z</time></trkpt><trkpt lat="44.3578604" lon="8.2414274"><ele>493.00000000000006</ele><time>2026-03-24T11:14:45.94Z</time></trkpt><trkpt lat="44.3577824" lon="8.2414748"><ele>493.0</ele><time>2026-03-24T11:14:48.941Z</time></trkpt><trkpt lat="44.3577111" lon="8.2415201"><ele>493.00000000000006</ele><time>2026-03-24T11:14:51.941Z</time></trkpt><trkpt lat="44.3576355" lon="8.2415393"><ele>493.0</ele><time>2026-03-24T11:14:54.941Z</time></trkpt><trkpt lat="44.3575554" lon="8.2415616"><ele>493.0</ele><time>2026-03-24T11:14:57.941Z</time></trkpt><trkpt lat="44.3574809" lon="8.2415774"><ele>493.0</ele><time>2026-03-24T11:15:00.941Z</time></trkpt><trkpt lat="44.3574078" lon="8.2416104"><ele>493.00000000000006</ele><time>2026-03-24T11:15:03.94Z</time></trkpt><trkpt lat="44.357341" lon="8.2416636"><ele>493.0</ele><time>2026-03-24T11:15:06.94Z</time></trkpt><trkpt lat="44.3572874" lon="8.2417494"><ele>493.00000000000006</ele><time>2026-03-24T11:15:09.939Z</time></trkpt><trkpt lat="44.3572453" lon="8.2418176"><ele>493.0</ele><time>2026-03-24T11:15:11.94Z</time></trkpt><trkpt lat="44.3572029" lon="8.2419197"><ele>493.0</ele><time>2026-03-24T11:15:14.939Z</time></trkpt><trkpt lat="44.3571622" lon="8.2420186"><ele>493.0</ele><time>2026-03-24T11:15:17.941Z</time></trkpt><trkpt lat="44.3571173" lon="8.2421188"><ele>493.00000000000006</ele><time>2026-03-24T11:15:20.94Z</time></trkpt><trkpt lat="44.3570691" lon="8.2422268"><ele>493.0</ele><time>2026-03-24T11:15:23.94Z</time></trkpt><trkpt lat="44.3570223" lon="8.2423363"><ele>493.00000000000006</ele><time>2026-03-24T11:15:26.941Z</time></trkpt><trkpt lat="44.3569753" lon="8.2424443"><ele>493.0</ele><time>2026-03-24T11:15:29.941Z</time></trkpt><trkpt lat="44.356923" lon="8.2425417"><ele>493.0</ele><time>2026-03-24T11:15:32.94Z</time></trkpt><trkpt lat="44.3568801" lon="8.2426141"><ele>493.0</ele><time>2026-03-24T11:15:34.939Z</time></trkpt><trkpt lat="44.3568274" lon="8.2427169"><ele>493.00000000000006</ele><time>2026-03-24T11:15:37.941Z</time></trkpt><trkpt lat="44.3567702" lon="8.2428162"><ele>493.0</ele><time>2026-03-24T11:15:40.941Z</time></trkpt><trkpt lat="44.356726" lon="8.2428869"><ele>493.00000000000006</ele><time>2026-03-24T11:15:42.94Z</time></trkpt><trkpt lat="44.3566744" lon="8.2429535"><ele>493.0</ele><time>2026-03-24T11:15:44.939Z</time></trkpt><trkpt lat="44.3566229" lon="8.2430198"><ele>493.0</ele><time>2026-03-24T11:15:46.941Z</time></trkpt><trkpt lat="44.356555" lon="8.2431172"><ele>493.0</ele><time>2026-03-24T11:15:49.94Z</time></trkpt><trkpt lat="44.3565139" lon="8.2431854"><ele>493.00000000000006</ele><time>2026-03-24T11:15:51.941Z</time></trkpt><trkpt lat="44.3564553" lon="8.2432806"><ele>493.0</ele><time>2026-03-24T11:15:54.941Z</time></trkpt><trkpt lat="44.3564088" lon="8.2433471"><ele>492.2857142857143</ele><time>2026-03-24T11:15:56.941Z</time></trkpt><trkpt lat="44.3563668" lon="8.2434219"><ele>491.57142857142856</ele><time>2026-03-24T11:15:58.941Z</time></trkpt><trkpt lat="44.3563428" lon="8.2435049"><ele>490.85714285714283</ele><time>2026-03-24T11:16:00.941Z</time></trkpt><trkpt lat="44.3563208" lon="8.2435975"><ele>490.1428571428571</ele><time>2026-03-24T11:16:02.94Z</time></trkpt><trkpt lat="44.3563147" lon="8.2436964"><ele>489.42857142857144</ele><time>2026-03-24T11:16:04.941Z</time></trkpt><trkpt lat="44.3563247" lon="8.243805"><ele>488.71428571428567</ele><time>2026-03-24T11:16:06.94Z</time></trkpt><trkpt lat="44.3563308" lon="8.24392"><ele>487.99999999999994</ele><time>2026-03-24T11:16:08.941Z</time></trkpt><trkpt lat="44.3563482" lon="8.2440359"><ele>487.79999999999995</ele><time>2026-03-24T11:16:10.941Z</time></trkpt><trkpt lat="44.3563645" lon="8.2441557"><ele>487.59999999999997</ele><time>2026-03-24T11:16:12.941Z</time></trkpt><trkpt lat="44.3563828" lon="8.2442909"><ele>487.40000000000003</ele><time>2026-03-24T11:16:14.941Z</time></trkpt><trkpt lat="44.3564032" lon="8.2444229"><ele>487.20000000000005</ele><time>2026-03-24T11:16:16.94Z</time></trkpt><trkpt lat="44.3564151" lon="8.2445598"><ele>487.0</ele><time>2026-03-24T11:16:18.941Z</time></trkpt><trkpt lat="44.3564097" lon="8.2447043"><ele>485.75</ele><time>2026-03-24T11:16:20.94Z</time></trkpt><trkpt lat="44.3564038" lon="8.2448576"><ele>484.5</ele><time>2026-03-24T11:16:22.941Z</time></trkpt><trkpt lat="44.356399" lon="8.2450159"><ele>483.25</ele><time>2026-03-24T11:16:24.941Z</time></trkpt><trkpt lat="44.3563724" lon="8.2451683"><ele>482.0</ele><time>2026-03-24T11:16:26.94Z</time></trkpt><trkpt lat="44.3563245" lon="8.2453293"><ele>482.0</ele><time>2026-03-24T11:16:28.94Z</time></trkpt><trkpt lat="44.3562462" lon="8.2454762"><ele>482.00000000000006</ele><time>2026-03-24T11:16:30.94Z</time></trkpt><trkpt lat="44.3561558" lon="8.2455927"><ele>482.00000000000006</ele><time>2026-03-24T11:16:32.941Z</time></trkpt><trkpt lat="44.3561035" lon="8.2456459"><ele>482.0</ele><time>2026-03-24T11:16:33.939Z</time></trkpt><trkpt lat="44.3560117" lon="8.2457585"><ele>482.0</ele><time>2026-03-24T11:16:35.94Z</time></trkpt><trkpt lat="44.3559509" lon="8.2458211"><ele>481.28571428571433</ele><time>2026-03-24T11:16:36.94Z</time></trkpt><trkpt lat="44.3558935" lon="8.245876"><ele>480.5714285714286</ele><time>2026-03-24T11:16:37.94Z</time></trkpt><trkpt lat="44.3558327" lon="8.2459232"><ele>479.8571428571429</ele><time>2026-03-24T11:16:38.941Z</time></trkpt><trkpt lat="44.3557773" lon="8.2459757"><ele>479.1428571428571</ele><time>2026-03-24T11:16:39.941Z</time></trkpt><trkpt lat="44.3557165" lon="8.246024"><ele>478.4285714285714</ele><time>2026-03-24T11:16:40.939Z</time></trkpt><trkpt lat="44.3556544" lon="8.2460776"><ele>477.71428571428567</ele><time>2026-03-24T11:16:41.941Z</time></trkpt><trkpt lat="44.3555891" lon="8.2461282"><ele>477.0</ele><time>2026-03-24T11:16:42.941Z</time></trkpt><trkpt lat="44.3555229" lon="8.2461746"><ele>477.0</ele><time>2026-03-24T11:16:43.94Z</time></trkpt><trkpt lat="44.3554544" lon="8.246216"><ele>477.0</ele><time>2026-03-24T11:16:44.941Z</time></trkpt><trkpt lat="44.3553864" lon="8.2462717"><ele>477.0</ele><time>2026-03-24T11:16:45.94Z</time></trkpt><trkpt lat="44.3553031" lon="8.2463218"><ele>477.0</ele><time>2026-03-24T11:16:46.941Z</time></trkpt><trkpt lat="44.3552224" lon="8.246366"><ele>477.0</ele><time>2026-03-24T11:16:47.94Z</time></trkpt><trkpt lat="44.3551464" lon="8.2464061"><ele>477.0</ele><time>2026-03-24T11:16:48.941Z</time></trkpt><trkpt lat="44.3550703" lon="8.2464473"><ele>476.6666666666667</ele><time>2026-03-24T11:16:49.94Z</time></trkpt><trkpt lat="44.3549984" lon="8.2464905"><ele>476.33333333333337</ele><time>2026-03-24T11:16:50.94Z</time></trkpt><trkpt lat="44.354929" lon="8.2465346"><ele>476.0</ele><time>2026-03-24T11:16:51.94Z</time></trkpt><trkpt lat="44.354858" lon="8.2465811"><ele>475.6666666666667</ele><time>2026-03-24T11:16:52.94Z</time></trkpt><trkpt lat="44.3547846" lon="8.2466252"><ele>475.33333333333337</ele><time>2026-03-24T11:16:53.94Z</time></trkpt><trkpt lat="44.3547074" lon="8.2466712"><ele>475.0</ele><time>2026-03-24T11:16:54.94Z</time></trkpt><trkpt lat="44.3546352" lon="8.2467099"><ele>475.00000000000006</ele><time>2026-03-24T11:16:55.941Z</time></trkpt><trkpt lat="44.3545656" lon="8.2467399"><ele>475.0</ele><time>2026-03-24T11:16:56.941Z</time></trkpt><trkpt lat="44.3544412" lon="8.2467624"><ele>475.0</ele><time>2026-03-24T11:16:58.941Z</time></trkpt><trkpt lat="44.3543774" lon="8.2467335"><ele>475.0</ele><time>2026-03-24T11:16:59.94Z</time></trkpt><trkpt lat="44.3543319" lon="8.2466624"><ele>475.00000000000006</ele><time>2026-03-24T11:17:00.941Z</time></trkpt><trkpt lat="44.3543109" lon="8.2465674"><ele>475.0</ele><time>2026-03-24T11:17:01.941Z</time></trkpt><trkpt lat="44.3543275" lon="8.2464638"><ele>475.33333333333337</ele><time>2026-03-24T11:17:02.94Z</time></trkpt><trkpt lat="44.3543762" lon="8.2463759"><ele>475.6666666666667</ele><time>2026-03-24T11:17:03.941Z</time></trkpt><trkpt lat="44.3544473" lon="8.246306"><ele>476.0</ele><time>2026-03-24T11:17:04.941Z</time></trkpt><trkpt lat="44.3545234" lon="8.246241"><ele>476.33333333333337</ele><time>2026-03-24T11:17:05.941Z</time></trkpt><trkpt lat="44.3545942" lon="8.2461762"><ele>476.6666666666667</ele><time>2026-03-24T11:17:06.939Z</time></trkpt><trkpt lat="44.3546721" lon="8.2461155"><ele>477.0</ele><time>2026-03-24T11:17:07.94Z</time></trkpt><trkpt lat="44.3547545" lon="8.2460583"><ele>477.0</ele><time>2026-03-24T11:17:08.941Z</time></trkpt><trkpt lat="44.3548313" lon="8.2459841"><ele>477.00000000000006</ele><time>2026-03-24T11:17:09.94Z</time></trkpt><trkpt lat="44.3549097" lon="8.2459094"><ele>477.00000000000006</ele><time>2026-03-24T11:17:10.941Z</time></trkpt><trkpt lat="44.3549927" lon="8.2458384"><ele>477.0</ele><time>2026-03-24T11:17:11.941Z</time></trkpt><trkpt lat="44.3550738" lon="8.2457613"><ele>477.0</ele><time>2026-03-24T11:17:12.939Z</time></trkpt><trkpt lat="44.3551523" lon="8.2456743"><ele>475.6</ele><time>2026-03-24T11:17:13.941Z</time></trkpt><trkpt lat="44.3552319" lon="8.2455865"><ele>474.20000000000005</ele><time>2026-03-24T11:17:14.94Z</time></trkpt><trkpt lat="44.3553054" lon="8.2454986"><ele>472.8</ele><time>2026-03-24T11:17:15.941Z</time></trkpt><trkpt lat="44.3553706" lon="8.2454101"><ele>471.4</ele><time>2026-03-24T11:17:16.94Z</time></trkpt><trkpt lat="44.3554296" lon="8.2453282"><ele>470.0</ele><time>2026-03-24T11:17:17.941Z</time></trkpt><trkpt lat="44.355481" lon="8.2452386"><ele>469.99999999999994</ele><time>2026-03-24T11:17:18.941Z</time></trkpt><trkpt lat="44.3555176" lon="8.2451574"><ele>470.0</ele><time>2026-03-24T11:17:19.94Z</time></trkpt><trkpt lat="44.3555377" lon="8.2450708"><ele>470.0</ele><time>2026-03-24T11:17:20.94Z</time></trkpt><trkpt lat="44.3555" lon="8.2449063"><ele>470.0</ele><time>2026-03-24T11:17:22.941Z</time></trkpt><trkpt lat="44.3554437" lon="8.2448639"><ele>469.99999999999994</ele><time>2026-03-24T11:17:23.939Z</time></trkpt><trkpt lat="44.3553553" lon="8.2448864"><ele>470.0</ele><time>2026-03-24T11:17:24.94Z</time></trkpt><trkpt lat="44.3552874" lon="8.2449254"><ele>469.99999999999994</ele><time>2026-03-24T11:17:25.94Z</time></trkpt><trkpt lat="44.355222" lon="8.2449828"><ele>470.0</ele><time>2026-03-24T11:17:26.94Z</time></trkpt><trkpt lat="44.3551573" lon="8.2450499"><ele>470.0</ele><time>2026-03-24T11:17:27.941Z</time></trkpt><trkpt lat="44.355087" lon="8.2451287"><ele>470.0</ele><time>2026-03-24T11:17:28.94Z</time></trkpt><trkpt lat="44.3550075" lon="8.2451988"><ele>469.99999999999994</ele><time>2026-03-24T11:17:29.94Z</time></trkpt><trkpt lat="44.3549272" lon="8.2452744"><ele>470.0</ele><time>2026-03-24T11:17:30.94Z</time></trkpt><trkpt lat="44.354837" lon="8.2453508"><ele>470.0</ele><time>2026-03-24T11:17:31.94Z</time></trkpt><trkpt lat="44.354747" lon="8.2454159"><ele>470.0</ele><time>2026-03-24T11:17:32.94Z</time></trkpt><trkpt lat="44.3546402" lon="8.2454849"><ele>470.0</ele><time>2026-03-24T11:17:33.941Z</time></trkpt><trkpt lat="44.3545503" lon="8.2455518"><ele>470.0</ele><time>2026-03-24T11:17:34.94Z</time></trkpt><trkpt lat="44.3544541" lon="8.2456183"><ele>470.0</ele><time>2026-03-24T11:17:35.941Z</time></trkpt><trkpt lat="44.354358" lon="8.245681"><ele>468.0</ele><time>2026-03-24T11:17:36.94Z</time></trkpt><trkpt lat="44.3542604" lon="8.2457341"><ele>466.0</ele><time>2026-03-24T11:17:37.94Z</time></trkpt><trkpt lat="44.3541688" lon="8.2457875"><ele>464.0</ele><time>2026-03-24T11:17:38.94Z</time></trkpt><trkpt lat="44.354069" lon="8.2458502"><ele>462.0</ele><time>2026-03-24T11:17:39.939Z</time></trkpt><trkpt lat="44.3539705" lon="8.2459329"><ele>460.0</ele><time>2026-03-24T11:17:40.94Z</time></trkpt><trkpt lat="44.353879" lon="8.2460146"><ele>459.6</ele><time>2026-03-24T11:17:41.941Z</time></trkpt><trkpt lat="44.3537939" lon="8.2460946"><ele>459.2</ele><time>2026-03-24T11:17:42.941Z</time></trkpt><trkpt lat="44.3537018" lon="8.2461843"><ele>458.79999999999995</ele><time>2026-03-24T11:17:43.94Z</time></trkpt><trkpt lat="44.3536095" lon="8.2462741"><ele>458.4</ele><time>2026-03-24T11:17:44.94Z</time></trkpt><trkpt lat="44.3535145" lon="8.246372"><ele>458.0</ele><time>2026-03-24T11:17:45.939Z</time></trkpt><trkpt lat="44.3534188" lon="8.2464661"><ele>458.0</ele><time>2026-03-24T11:17:46.94Z</time></trkpt><trkpt lat="44.3533226" lon="8.2465563"><ele>458.0</ele><time>2026-03-24T11:17:47.941Z</time></trkpt><trkpt lat="44.3532235" lon="8.2466586"><ele>458.0</ele><time>2026-03-24T11:17:48.941Z</time></trkpt><trkpt lat="44.3531021" lon="8.2467533"><ele>458.0</ele><time>2026-03-24T11:17:49.94Z</time></trkpt><trkpt lat="44.3529955" lon="8.2468465"><ele>454.25</ele><time>2026-03-24T11:17:50.941Z</time></trkpt><trkpt lat="44.3528938" lon="8.2469365"><ele>450.5</ele><time>2026-03-24T11:17:51.94Z</time></trkpt><trkpt lat="44.3527965" lon="8.2470147"><ele>446.75</ele><time>2026-03-24T11:17:52.94Z</time></trkpt><trkpt lat="44.352695" lon="8.2470998"><ele>443.0</ele><time>2026-03-24T11:17:53.941Z</time></trkpt><trkpt lat="44.352595" lon="8.2471911"><ele>443.0</ele><time>2026-03-24T11:17:54.941Z</time></trkpt><trkpt lat="44.3525097" lon="8.2472806"><ele>442.99999999999994</ele><time>2026-03-24T11:17:55.94Z</time></trkpt><trkpt lat="44.3524289" lon="8.2473668"><ele>442.99999999999994</ele><time>2026-03-24T11:17:56.939Z</time></trkpt><trkpt lat="44.352361" lon="8.2474564"><ele>443.0</ele><time>2026-03-24T11:17:57.939Z</time></trkpt><trkpt lat="44.3523005" lon="8.2475574"><ele>443.0</ele><time>2026-03-24T11:17:58.94Z</time></trkpt><trkpt lat="44.352257" lon="8.247667"><ele>443.4</ele><time>2026-03-24T11:17:59.941Z</time></trkpt><trkpt lat="44.3521966" lon="8.2477987"><ele>443.79999999999995</ele><time>2026-03-24T11:18:00.941Z</time></trkpt><trkpt lat="44.3521684" lon="8.2479374"><ele>444.2</ele><time>2026-03-24T11:18:01.941Z</time></trkpt><trkpt lat="44.3522238" lon="8.2480452"><ele>444.6</ele><time>2026-03-24T11:18:02.941Z</time></trkpt><trkpt lat="44.3522702" lon="8.2481673"><ele>445.0</ele><time>2026-03-24T11:18:03.941Z</time></trkpt><trkpt lat="44.352337" lon="8.2482658"><ele>444.2</ele><time>2026-03-24T11:18:04.94Z</time></trkpt><trkpt lat="44.3524188" lon="8.2483469"><ele>443.4</ele><time>2026-03-24T11:18:05.941Z</time></trkpt><trkpt lat="44.3525119" lon="8.2484072"><ele>442.6</ele><time>2026-03-24T11:18:06.941Z</time></trkpt><trkpt lat="44.3526081" lon="8.2484458"><ele>441.8</ele><time>2026-03-24T11:18:07.941Z</time></trkpt><trkpt lat="44.3527023" lon="8.2484722"><ele>441.0</ele><time>2026-03-24T11:18:08.94Z</time></trkpt><trkpt lat="44.3527879" lon="8.24849"><ele>441.0</ele><time>2026-03-24T11:18:09.941Z</time></trkpt><trkpt lat="44.3528628" lon="8.2485115"><ele>441.0</ele><time>2026-03-24T11:18:10.94Z</time></trkpt><trkpt lat="44.3529182" lon="8.2485614"><ele>441.0</ele><time>2026-03-24T11:18:11.94Z</time></trkpt><trkpt lat="44.3529365" lon="8.248721"><ele>441.0</ele><time>2026-03-24T11:18:13.941Z</time></trkpt><trkpt lat="44.352885" lon="8.2487778"><ele>441.0</ele><time>2026-03-24T11:18:14.94Z</time></trkpt><trkpt lat="44.3528159" lon="8.2487996"><ele>441.0</ele><time>2026-03-24T11:18:15.94Z</time></trkpt><trkpt lat="44.3527348" lon="8.2488284"><ele>441.0</ele><time>2026-03-24T11:18:16.941Z</time></trkpt><trkpt lat="44.352652" lon="8.2488354"><ele>441.0</ele><time>2026-03-24T11:18:17.941Z</time></trkpt><trkpt lat="44.3525699" lon="8.2488283"><ele>441.0</ele><time>2026-03-24T11:18:18.94Z</time></trkpt><trkpt lat="44.3524947" lon="8.2488296"><ele>441.0</ele><time>2026-03-24T11:18:19.94Z</time></trkpt><trkpt lat="44.3524128" lon="8.2488255"><ele>441.0</ele><time>2026-03-24T11:18:20.94Z</time></trkpt><trkpt lat="44.3523265" lon="8.2488283"><ele>441.0</ele><time>2026-03-24T11:18:21.94Z</time></trkpt><trkpt lat="44.3522438" lon="8.2488261"><ele>438.8</ele><time>2026-03-24T11:18:22.941Z</time></trkpt><trkpt lat="44.3521569" lon="8.248824"><ele>436.6</ele><time>2026-03-24T11:18:23.94Z</time></trkpt><trkpt lat="44.3520684" lon="8.2488244"><ele>434.4</ele><time>2026-03-24T11:18:24.941Z</time></trkpt><trkpt lat="44.3519735" lon="8.2488185"><ele>432.2</ele><time>2026-03-24T11:18:25.939Z</time></trkpt><trkpt lat="44.3518864" lon="8.2488151"><ele>430.0</ele><time>2026-03-24T11:18:26.941Z</time></trkpt><trkpt lat="44.3517953" lon="8.2488386"><ele>430.0</ele><time>2026-03-24T11:18:27.94Z</time></trkpt><trkpt lat="44.3517029" lon="8.2488707"><ele>430.0</ele><time>2026-03-24T11:18:28.94Z</time></trkpt><trkpt lat="44.3516216" lon="8.2489269"><ele>430.0</ele><time>2026-03-24T11:18:29.94Z</time></trkpt><trkpt lat="44.3515462" lon="8.2490154"><ele>430.0</ele><time>2026-03-24T11:18:30.94Z</time></trkpt><trkpt lat="44.3514695" lon="8.2491142"><ele>430.0</ele><time>2026-03-24T11:18:31.941Z</time></trkpt><trkpt lat="44.3514112" lon="8.2492318"><ele>428.0</ele><time>2026-03-24T11:18:32.939Z</time></trkpt><trkpt lat="44.3513606" lon="8.2493677"><ele>426.0</ele><time>2026-03-24T11:18:33.941Z</time></trkpt><trkpt lat="44.3513159" lon="8.2495054"><ele>424.0</ele><time>2026-03-24T11:18:34.941Z</time></trkpt><trkpt lat="44.3512759" lon="8.2496437"><ele>422.0</ele><time>2026-03-24T11:18:35.941Z</time></trkpt><trkpt lat="44.3512456" lon="8.2497823"><ele>420.0</ele><time>2026-03-24T11:18:36.94Z</time></trkpt><trkpt lat="44.3512139" lon="8.249919"><ele>419.8</ele><time>2026-03-24T11:18:37.94Z</time></trkpt><trkpt lat="44.3511864" lon="8.2500474"><ele>419.6</ele><time>2026-03-24T11:18:38.94Z</time></trkpt><trkpt lat="44.3511548" lon="8.2501809"><ele>419.4</ele><time>2026-03-24T11:18:39.94Z</time></trkpt><trkpt lat="44.3511277" lon="8.2503095"><ele>419.2</ele><time>2026-03-24T11:18:40.941Z</time></trkpt><trkpt lat="44.3510951" lon="8.2504312"><ele>419.0</ele><time>2026-03-24T11:18:41.941Z</time></trkpt><trkpt lat="44.351061" lon="8.2505519"><ele>419.16666666666663</ele><time>2026-03-24T11:18:42.941Z</time></trkpt><trkpt lat="44.351034" lon="8.2506671"><ele>419.3333333333333</ele><time>2026-03-24T11:18:43.939Z</time></trkpt><trkpt lat="44.3510151" lon="8.2507754"><ele>419.5</ele><time>2026-03-24T11:18:44.941Z</time></trkpt><trkpt lat="44.3509899" lon="8.2508863"><ele>419.66666666666663</ele><time>2026-03-24T11:18:45.94Z</time></trkpt><trkpt lat="44.3509615" lon="8.2510025"><ele>419.8333333333333</ele><time>2026-03-24T11:18:46.939Z</time></trkpt><trkpt lat="44.3509353" lon="8.2511163"><ele>420.0</ele><time>2026-03-24T11:18:47.938Z</time></trkpt><trkpt lat="44.3509047" lon="8.251224"><ele>420.0</ele><time>2026-03-24T11:18:48.938Z</time></trkpt><trkpt lat="44.3508811" lon="8.2513378"><ele>420.0</ele><time>2026-03-24T11:18:49.941Z</time></trkpt><trkpt lat="44.3508606" lon="8.2514381"><ele>420.0</ele><time>2026-03-24T11:18:50.94Z</time></trkpt><trkpt lat="44.3508381" lon="8.2515439"><ele>420.0</ele><time>2026-03-24T11:18:51.94Z</time></trkpt><trkpt lat="44.3508162" lon="8.2516455"><ele>420.0</ele><time>2026-03-24T11:18:52.941Z</time></trkpt><trkpt lat="44.3507969" lon="8.2517359"><ele>420.0</ele><time>2026-03-24T11:18:53.94Z</time></trkpt><trkpt lat="44.3507746" lon="8.2518321"><ele>420.14285714285717</ele><time>2026-03-24T11:18:54.94Z</time></trkpt><trkpt lat="44.3507507" lon="8.2519335"><ele>420.2857142857143</ele><time>2026-03-24T11:18:55.941Z</time></trkpt><trkpt lat="44.3507269" lon="8.252034"><ele>420.42857142857144</ele><time>2026-03-24T11:18:56.941Z</time></trkpt><trkpt lat="44.3507045" lon="8.2521321"><ele>420.57142857142856</ele><time>2026-03-24T11:18:57.94Z</time></trkpt><trkpt lat="44.3506837" lon="8.2522246"><ele>420.7142857142857</ele><time>2026-03-24T11:18:58.94Z</time></trkpt><trkpt lat="44.3506663" lon="8.25232"><ele>420.8571428571429</ele><time>2026-03-24T11:18:59.941Z</time></trkpt><trkpt lat="44.3506447" lon="8.2524133"><ele>421.0</ele><time>2026-03-24T11:19:00.94Z</time></trkpt><trkpt lat="44.350607" lon="8.252588"><ele>421.33333333333337</ele><time>2026-03-24T11:19:02.941Z</time></trkpt><trkpt lat="44.3505868" lon="8.2526758"><ele>421.6666666666667</ele><time>2026-03-24T11:19:03.94Z</time></trkpt><trkpt lat="44.3505671" lon="8.252766"><ele>422.0</ele><time>2026-03-24T11:19:04.939Z</time></trkpt><trkpt lat="44.3505262" lon="8.2529283"><ele>422.33333333333337</ele><time>2026-03-24T11:19:06.939Z</time></trkpt><trkpt lat="44.3504984" lon="8.2530138"><ele>422.6666666666667</ele><time>2026-03-24T11:19:07.941Z</time></trkpt><trkpt lat="44.3504643" lon="8.2531742"><ele>423.0</ele><time>2026-03-24T11:19:09.941Z</time></trkpt><trkpt lat="44.3504411" lon="8.2532659"><ele>421.5</ele><time>2026-03-24T11:19:10.941Z</time></trkpt><trkpt lat="44.3504135" lon="8.2533561"><ele>420.0</ele><time>2026-03-24T11:19:11.941Z</time></trkpt><trkpt lat="44.3503795" lon="8.2534553"><ele>418.5</ele><time>2026-03-24T11:19:12.939Z</time></trkpt><trkpt lat="44.3503495" lon="8.2535468"><ele>417.0</ele><time>2026-03-24T11:19:13.94Z</time></trkpt><trkpt lat="44.3503115" lon="8.2536418"><ele>415.5</ele><time>2026-03-24T11:19:14.94Z</time></trkpt><trkpt lat="44.3502625" lon="8.2537352"><ele>414.0</ele><time>2026-03-24T11:19:15.94Z</time></trkpt><trkpt lat="44.3502216" lon="8.2538381"><ele>414.0</ele><time>2026-03-24T11:19:16.938Z</time></trkpt><trkpt lat="44.3501829" lon="8.2539463"><ele>414.0</ele><time>2026-03-24T11:19:17.941Z</time></trkpt><trkpt lat="44.3501437" lon="8.2540584"><ele>414.0</ele><time>2026-03-24T11:19:18.94Z</time></trkpt><trkpt lat="44.350109" lon="8.2541677"><ele>414.0</ele><time>2026-03-24T11:19:19.94Z</time></trkpt><trkpt lat="44.3500718" lon="8.2542722"><ele>414.0</ele><time>2026-03-24T11:19:20.94Z</time></trkpt><trkpt lat="44.3500403" lon="8.2543827"><ele>414.0</ele><time>2026-03-24T11:19:21.94Z</time></trkpt><trkpt lat="44.3500168" lon="8.2544974"><ele>413.8333333333333</ele><time>2026-03-24T11:19:22.941Z</time></trkpt><trkpt lat="44.349997" lon="8.2546109"><ele>413.66666666666663</ele><time>2026-03-24T11:19:23.941Z</time></trkpt><trkpt lat="44.3499781" lon="8.2547265"><ele>413.5</ele><time>2026-03-24T11:19:24.94Z</time></trkpt><trkpt lat="44.3499652" lon="8.2548457"><ele>413.3333333333333</ele><time>2026-03-24T11:19:25.939Z</time></trkpt><trkpt lat="44.3499574" lon="8.2549631"><ele>413.16666666666663</ele><time>2026-03-24T11:19:26.939Z</time></trkpt><trkpt lat="44.3499553" lon="8.2550902"><ele>413.0</ele><time>2026-03-24T11:19:27.941Z</time></trkpt><trkpt lat="44.3499533" lon="8.2552098"><ele>413.0</ele><time>2026-03-24T11:19:28.941Z</time></trkpt><trkpt lat="44.3499634" lon="8.2553351"><ele>413.0</ele><time>2026-03-24T11:19:29.94Z</time></trkpt><trkpt lat="44.3499715" lon="8.2554697"><ele>413.0</ele><time>2026-03-24T11:19:30.941Z</time></trkpt><trkpt lat="44.3499801" lon="8.2555981"><ele>413.0</ele><time>2026-03-24T11:19:31.94Z</time></trkpt><trkpt lat="44.3499909" lon="8.2557285"><ele>413.0</ele><time>2026-03-24T11:19:32.94Z</time></trkpt><trkpt lat="44.350002" lon="8.255862"><ele>412.59999999999997</ele><time>2026-03-24T11:19:33.941Z</time></trkpt><trkpt lat="44.3500066" lon="8.2560022"><ele>412.2</ele><time>2026-03-24T11:19:34.941Z</time></trkpt><trkpt lat="44.3500094" lon="8.2561344"><ele>411.8</ele><time>2026-03-24T11:19:35.939Z</time></trkpt><trkpt lat="44.3500054" lon="8.256262"><ele>411.4</ele><time>2026-03-24T11:19:36.94Z</time></trkpt><trkpt lat="44.3500026" lon="8.2563925"><ele>411.0</ele><time>2026-03-24T11:19:37.941Z</time></trkpt><trkpt lat="44.3499977" lon="8.2565214"><ele>410.4</ele><time>2026-03-24T11:19:38.94Z</time></trkpt><trkpt lat="44.3499983" lon="8.256649"><ele>409.8</ele><time>2026-03-24T11:19:39.939Z</time></trkpt><trkpt lat="44.3499954" lon="8.2567785"><ele>409.2</ele><time>2026-03-24T11:19:40.94Z</time></trkpt><trkpt lat="44.3499914" lon="8.2569101"><ele>408.59999999999997</ele><time>2026-03-24T11:19:41.94Z</time></trkpt><trkpt lat="44.3499886" lon="8.2570402"><ele>408.0</ele><time>2026-03-24T11:19:42.94Z</time></trkpt><trkpt lat="44.3499916" lon="8.2571679"><ele>407.59999999999997</ele><time>2026-03-24T11:19:43.941Z</time></trkpt><trkpt lat="44.3499913" lon="8.2572897"><ele>407.2</ele><time>2026-03-24T11:19:44.941Z</time></trkpt><trkpt lat="44.349996" lon="8.2574154"><ele>406.8</ele><time>2026-03-24T11:19:45.94Z</time></trkpt><trkpt lat="44.3500057" lon="8.2575391"><ele>406.4</ele><time>2026-03-24T11:19:46.941Z</time></trkpt><trkpt lat="44.3500122" lon="8.2576672"><ele>406.0</ele><time>2026-03-24T11:19:47.939Z</time></trkpt><trkpt lat="44.3500185" lon="8.2577955"><ele>406.0</ele><time>2026-03-24T11:19:48.941Z</time></trkpt><trkpt lat="44.350027" lon="8.2579274"><ele>406.0</ele><time>2026-03-24T11:19:49.939Z</time></trkpt><trkpt lat="44.3500334" lon="8.2580601"><ele>406.0</ele><time>2026-03-24T11:19:50.941Z</time></trkpt><trkpt lat="44.3500385" lon="8.2581913"><ele>406.0</ele><time>2026-03-24T11:19:51.941Z</time></trkpt><trkpt lat="44.3500483" lon="8.2583186"><ele>406.0</ele><time>2026-03-24T11:19:52.94Z</time></trkpt><trkpt lat="44.3500585" lon="8.2584441"><ele>405.20000000000005</ele><time>2026-03-24T11:19:53.939Z</time></trkpt><trkpt lat="44.3500638" lon="8.2585786"><ele>404.40000000000003</ele><time>2026-03-24T11:19:54.94Z</time></trkpt><trkpt lat="44.3500702" lon="8.2587115"><ele>403.6</ele><time>2026-03-24T11:19:55.939Z</time></trkpt><trkpt lat="44.3500764" lon="8.2588432"><ele>402.8</ele><time>2026-03-24T11:19:56.941Z</time></trkpt><trkpt lat="44.350083" lon="8.2589795"><ele>402.0</ele><time>2026-03-24T11:19:57.94Z</time></trkpt><trkpt lat="44.3500908" lon="8.2591158"><ele>401.40000000000003</ele><time>2026-03-24T11:19:58.94Z</time></trkpt><trkpt lat="44.350107" lon="8.2592502"><ele>400.8</ele><time>2026-03-24T11:19:59.94Z</time></trkpt><trkpt lat="44.3501309" lon="8.2593783"><ele>400.2</ele><time>2026-03-24T11:20:00.941Z</time></trkpt><trkpt lat="44.3501598" lon="8.2595056"><ele>399.6</ele><time>2026-03-24T11:20:01.939Z</time></trkpt><trkpt lat="44.3501957" lon="8.2596323"><ele>399.0</ele><time>2026-03-24T11:20:02.941Z</time></trkpt><trkpt lat="44.3502395" lon="8.2597497"><ele>398.79999999999995</ele><time>2026-03-24T11:20:03.94Z</time></trkpt><trkpt lat="44.3502875" lon="8.2598697"><ele>398.59999999999997</ele><time>2026-03-24T11:20:04.94Z</time></trkpt><trkpt lat="44.350333" lon="8.2599924"><ele>398.4</ele><time>2026-03-24T11:20:05.94Z</time></trkpt><trkpt lat="44.3503716" lon="8.2601177"><ele>398.2</ele><time>2026-03-24T11:20:06.94Z</time></trkpt><trkpt lat="44.3504004" lon="8.2602418"><ele>398.0</ele><time>2026-03-24T11:20:07.94Z</time></trkpt><trkpt lat="44.3504313" lon="8.2603641"><ele>398.0</ele><time>2026-03-24T11:20:08.94Z</time></trkpt><trkpt lat="44.350469" lon="8.2604783"><ele>398.0</ele><time>2026-03-24T11:20:09.941Z</time></trkpt><trkpt lat="44.3505071" lon="8.2605956"><ele>398.0</ele><time>2026-03-24T11:20:10.939Z</time></trkpt><trkpt lat="44.3505467" lon="8.2607115"><ele>398.0</ele><time>2026-03-24T11:20:11.94Z</time></trkpt><trkpt lat="44.3505846" lon="8.2608231"><ele>398.0</ele><time>2026-03-24T11:20:12.939Z</time></trkpt><trkpt lat="44.3506243" lon="8.2609331"><ele>397.8333333333333</ele><time>2026-03-24T11:20:13.941Z</time></trkpt><trkpt lat="44.3506578" lon="8.2610379"><ele>397.66666666666663</ele><time>2026-03-24T11:20:14.94Z</time></trkpt><trkpt lat="44.3506923" lon="8.2611437"><ele>397.5</ele><time>2026-03-24T11:20:15.941Z</time></trkpt><trkpt lat="44.3507274" lon="8.2612503"><ele>397.33333333333337</ele><time>2026-03-24T11:20:16.939Z</time></trkpt><trkpt lat="44.3507589" lon="8.2613593"><ele>397.1666666666667</ele><time>2026-03-24T11:20:17.941Z</time></trkpt><trkpt lat="44.3507798" lon="8.2614749"><ele>397.0</ele><time>2026-03-24T11:20:18.94Z</time></trkpt><trkpt lat="44.3508002" lon="8.2615912"><ele>397.00000000000006</ele><time>2026-03-24T11:20:19.939Z</time></trkpt><trkpt lat="44.3508164" lon="8.2617088"><ele>397.0</ele><time>2026-03-24T11:20:20.94Z</time></trkpt><trkpt lat="44.350834" lon="8.2618205"><ele>397.0</ele><time>2026-03-24T11:20:21.941Z</time></trkpt><trkpt lat="44.3508445" lon="8.2619285"><ele>397.0</ele><time>2026-03-24T11:20:22.94Z</time></trkpt><trkpt lat="44.3508517" lon="8.2620367"><ele>397.00000000000006</ele><time>2026-03-24T11:20:23.94Z</time></trkpt><trkpt lat="44.3508592" lon="8.2621476"><ele>397.0</ele><time>2026-03-24T11:20:24.94Z</time></trkpt><trkpt lat="44.3508633" lon="8.2622596"><ele>396.1666666666667</ele><time>2026-03-24T11:20:25.94Z</time></trkpt><trkpt lat="44.3508647" lon="8.2623683"><ele>395.33333333333337</ele><time>2026-03-24T11:20:26.939Z</time></trkpt><trkpt lat="44.350861" lon="8.2624788"><ele>394.5</ele><time>2026-03-24T11:20:27.94Z</time></trkpt><trkpt lat="44.3508586" lon="8.2625813"><ele>393.66666666666663</ele><time>2026-03-24T11:20:28.939Z</time></trkpt><trkpt lat="44.3508548" lon="8.2626865"><ele>392.8333333333333</ele><time>2026-03-24T11:20:29.939Z</time></trkpt><trkpt lat="44.3508477" lon="8.2627935"><ele>392.0</ele><time>2026-03-24T11:20:30.941Z</time></trkpt><trkpt lat="44.3508455" lon="8.2628977"><ele>392.0</ele><time>2026-03-24T11:20:31.94Z</time></trkpt><trkpt lat="44.3508436" lon="8.2629987"><ele>392.0</ele><time>2026-03-24T11:20:32.94Z</time></trkpt><trkpt lat="44.3508386" lon="8.2630974"><ele>392.0</ele><time>2026-03-24T11:20:33.941Z</time></trkpt><trkpt lat="44.3508346" lon="8.263191"><ele>392.0</ele><time>2026-03-24T11:20:34.94Z</time></trkpt><trkpt lat="44.3508328" lon="8.2633671"><ele>392.0</ele><time>2026-03-24T11:20:36.941Z</time></trkpt><trkpt lat="44.3508385" lon="8.2635327"><ele>392.20000000000005</ele><time>2026-03-24T11:20:38.941Z</time></trkpt><trkpt lat="44.3508686" lon="8.2636806"><ele>392.4</ele><time>2026-03-24T11:20:40.939Z</time></trkpt><trkpt lat="44.3509042" lon="8.2638157"><ele>392.6</ele><time>2026-03-24T11:20:42.94Z</time></trkpt><trkpt lat="44.3509508" lon="8.263942"><ele>392.79999999999995</ele><time>2026-03-24T11:20:44.941Z</time></trkpt><trkpt lat="44.3510094" lon="8.2640483"><ele>393.0</ele><time>2026-03-24T11:20:46.941Z</time></trkpt><trkpt lat="44.3510841" lon="8.2641548"><ele>392.4</ele><time>2026-03-24T11:20:48.94Z</time></trkpt><trkpt lat="44.351156" lon="8.2642703"><ele>391.79999999999995</ele><time>2026-03-24T11:20:50.941Z</time></trkpt><trkpt lat="44.3512262" lon="8.264376"><ele>391.2</ele><time>2026-03-24T11:20:52.94Z</time></trkpt><trkpt lat="44.3512939" lon="8.2644881"><ele>390.6</ele><time>2026-03-24T11:20:54.94Z</time></trkpt><trkpt lat="44.3513697" lon="8.2645882"><ele>390.0</ele><time>2026-03-24T11:20:56.939Z</time></trkpt><trkpt lat="44.3514401" lon="8.2646878"><ele>390.6</ele><time>2026-03-24T11:20:58.94Z</time></trkpt><trkpt lat="44.3515055" lon="8.2647858"><ele>391.2</ele><time>2026-03-24T11:21:00.939Z</time></trkpt><trkpt lat="44.3515733" lon="8.2648833"><ele>391.79999999999995</ele><time>2026-03-24T11:21:02.94Z</time></trkpt><trkpt lat="44.3516393" lon="8.2649805"><ele>392.4</ele><time>2026-03-24T11:21:04.941Z</time></trkpt><trkpt lat="44.3517034" lon="8.2650798"><ele>393.0</ele><time>2026-03-24T11:21:06.94Z</time></trkpt><trkpt lat="44.3517673" lon="8.2651833"><ele>393.0</ele><time>2026-03-24T11:21:08.941Z</time></trkpt><trkpt lat="44.351834" lon="8.2652823"><ele>393.0</ele><time>2026-03-24T11:21:10.94Z</time></trkpt><trkpt lat="44.3519074" lon="8.2653724"><ele>393.0</ele><time>2026-03-24T11:21:12.94Z</time></trkpt><trkpt lat="44.3519764" lon="8.2654857"><ele>393.0</ele><time>2026-03-24T11:21:14.94Z</time></trkpt><trkpt lat="44.3520399" lon="8.2655905"><ele>393.0</ele><time>2026-03-24T11:21:16.94Z</time></trkpt><trkpt lat="44.3521133" lon="8.2656923"><ele>392.4</ele><time>2026-03-24T11:21:18.939Z</time></trkpt><trkpt lat="44.3521907" lon="8.2657963"><ele>391.79999999999995</ele><time>2026-03-24T11:21:20.941Z</time></trkpt><trkpt lat="44.3522719" lon="8.2659097"><ele>391.2</ele><time>2026-03-24T11:21:22.939Z</time></trkpt><trkpt lat="44.3523472" lon="8.266013"><ele>390.6</ele><time>2026-03-24T11:21:24.94Z</time></trkpt><trkpt lat="44.3524188" lon="8.2661214"><ele>390.0</ele><time>2026-03-24T11:21:26.94Z</time></trkpt><trkpt lat="44.3524864" lon="8.2662557"><ele>390.6</ele><time>2026-03-24T11:21:28.94Z</time></trkpt><trkpt lat="44.3525494" lon="8.2663732"><ele>391.2</ele><time>2026-03-24T11:21:30.94Z</time></trkpt><trkpt lat="44.3526104" lon="8.2664871"><ele>391.79999999999995</ele><time>2026-03-24T11:21:32.94Z</time></trkpt><trkpt lat="44.3526573" lon="8.2665996"><ele>392.4</ele><time>2026-03-24T11:21:34.94Z</time></trkpt><trkpt lat="44.3527097" lon="8.2667175"><ele>393.0</ele><time>2026-03-24T11:21:36.94Z</time></trkpt><trkpt lat="44.352777" lon="8.266846"><ele>393.0</ele><time>2026-03-24T11:21:38.94Z</time></trkpt><trkpt lat="44.352852" lon="8.2669574"><ele>393.0</ele><time>2026-03-24T11:21:40.939Z</time></trkpt><trkpt lat="44.35293" lon="8.2670854"><ele>393.0</ele><time>2026-03-24T11:21:42.938Z</time></trkpt><trkpt lat="44.3530081" lon="8.2672065"><ele>393.0</ele><time>2026-03-24T11:21:44.939Z</time></trkpt><trkpt lat="44.3530867" lon="8.2673269"><ele>393.4</ele><time>2026-03-24T11:21:46.941Z</time></trkpt><trkpt lat="44.3531307" lon="8.2673948"><ele>393.79999999999995</ele><time>2026-03-24T11:21:47.94Z</time></trkpt><trkpt lat="44.3532023" lon="8.2675109"><ele>394.2</ele><time>2026-03-24T11:21:49.941Z</time></trkpt><trkpt lat="44.3532787" lon="8.2676172"><ele>394.6</ele><time>2026-03-24T11:21:51.94Z</time></trkpt><trkpt lat="44.3533507" lon="8.2677345"><ele>395.0</ele><time>2026-03-24T11:21:53.94Z</time></trkpt><trkpt lat="44.3534134" lon="8.2678513"><ele>395.0</ele><time>2026-03-24T11:21:55.939Z</time></trkpt><trkpt lat="44.3534917" lon="8.2679782"><ele>395.0</ele><time>2026-03-24T11:21:57.939Z</time></trkpt><trkpt lat="44.3535588" lon="8.268119"><ele>395.0</ele><time>2026-03-24T11:21:59.94Z</time></trkpt><trkpt lat="44.3536293" lon="8.2682531"><ele>395.0</ele><time>2026-03-24T11:22:01.939Z</time></trkpt><trkpt lat="44.3537039" lon="8.268389"><ele>395.49999999999994</ele><time>2026-03-24T11:22:03.941Z</time></trkpt><trkpt lat="44.3537763" lon="8.2685079"><ele>396.0</ele><time>2026-03-24T11:22:05.94Z</time></trkpt><trkpt lat="44.3538222" lon="8.2685688"><ele>396.5</ele><time>2026-03-24T11:22:06.941Z</time></trkpt><trkpt lat="44.353899" lon="8.2687001"><ele>397.0</ele><time>2026-03-24T11:22:08.94Z</time></trkpt><trkpt lat="44.3539452" lon="8.2687684"><ele>397.49999999999994</ele><time>2026-03-24T11:22:09.94Z</time></trkpt><trkpt lat="44.3539932" lon="8.2688313"><ele>398.0</ele><time>2026-03-24T11:22:10.94Z</time></trkpt><trkpt lat="44.3540466" lon="8.2688868"><ele>396.3333333333333</ele><time>2026-03-24T11:22:11.94Z</time></trkpt><trkpt lat="44.3540997" lon="8.2689698"><ele>394.66666666666663</ele><time>2026-03-24T11:22:12.94Z</time></trkpt><trkpt lat="44.3541502" lon="8.2690342"><ele>393.0</ele><time>2026-03-24T11:22:13.941Z</time></trkpt><trkpt lat="44.3542071" lon="8.2691026"><ele>391.33333333333337</ele><time>2026-03-24T11:22:14.941Z</time></trkpt><trkpt lat="44.3542597" lon="8.2691819"><ele>389.6666666666667</ele><time>2026-03-24T11:22:15.94Z</time></trkpt><trkpt lat="44.3543104" lon="8.269268"><ele>388.0</ele><time>2026-03-24T11:22:16.94Z</time></trkpt><trkpt lat="44.3543549" lon="8.2693494"><ele>388.00000000000006</ele><time>2026-03-24T11:22:17.94Z</time></trkpt><trkpt lat="44.3544039" lon="8.2694301"><ele>388.0</ele><time>2026-03-24T11:22:18.941Z</time></trkpt><trkpt lat="44.3544455" lon="8.2695013"><ele>388.0</ele><time>2026-03-24T11:22:19.939Z</time></trkpt><trkpt lat="44.3545181" lon="8.2696318"><ele>388.0</ele><time>2026-03-24T11:22:21.939Z</time></trkpt><trkpt lat="44.3545673" lon="8.2696949"><ele>388.00000000000006</ele><time>2026-03-24T11:22:22.94Z</time></trkpt><trkpt lat="44.3546082" lon="8.2697635"><ele>388.0</ele><time>2026-03-24T11:22:23.94Z</time></trkpt><trkpt lat="44.3546483" lon="8.2698363"><ele>388.2</ele><time>2026-03-24T11:22:24.94Z</time></trkpt><trkpt lat="44.3547216" lon="8.2699683"><ele>388.4</ele><time>2026-03-24T11:22:26.94Z</time></trkpt><trkpt lat="44.3547659" lon="8.2700328"><ele>388.59999999999997</ele><time>2026-03-24T11:22:27.94Z</time></trkpt><trkpt lat="44.3548567" lon="8.2701648"><ele>388.79999999999995</ele><time>2026-03-24T11:22:29.94Z</time></trkpt><trkpt lat="44.354907" lon="8.2702331"><ele>389.0</ele><time>2026-03-24T11:22:30.94Z</time></trkpt><trkpt lat="44.3549547" lon="8.2703104"><ele>388.99999999999994</ele><time>2026-03-24T11:22:31.94Z</time></trkpt><trkpt lat="44.3550075" lon="8.2703902"><ele>389.0</ele><time>2026-03-24T11:22:32.94Z</time></trkpt><trkpt lat="44.355064" lon="8.2704664"><ele>389.0</ele><time>2026-03-24T11:22:33.94Z</time></trkpt><trkpt lat="44.3551449" lon="8.2706057"><ele>389.0</ele><time>2026-03-24T11:22:35.94Z</time></trkpt><trkpt lat="44.3551976" lon="8.2706801"><ele>388.99999999999994</ele><time>2026-03-24T11:22:36.939Z</time></trkpt><trkpt lat="44.3552592" lon="8.2707551"><ele>389.0</ele><time>2026-03-24T11:22:37.94Z</time></trkpt><trkpt lat="44.355323" lon="8.2708388"><ele>388.8333333333333</ele><time>2026-03-24T11:22:38.941Z</time></trkpt><trkpt lat="44.3553852" lon="8.2709147"><ele>388.66666666666663</ele><time>2026-03-24T11:22:39.94Z</time></trkpt><trkpt lat="44.3554463" lon="8.2709911"><ele>388.5</ele><time>2026-03-24T11:22:40.941Z</time></trkpt><trkpt lat="44.3555094" lon="8.2710647"><ele>388.33333333333337</ele><time>2026-03-24T11:22:41.94Z</time></trkpt><trkpt lat="44.3555732" lon="8.2711372"><ele>388.1666666666667</ele><time>2026-03-24T11:22:42.94Z</time></trkpt><trkpt lat="44.3556395" lon="8.2712133"><ele>388.0</ele><time>2026-03-24T11:22:43.94Z</time></trkpt><trkpt lat="44.355703" lon="8.2712843"><ele>388.00000000000006</ele><time>2026-03-24T11:22:44.94Z</time></trkpt><trkpt lat="44.3557531" lon="8.2713538"><ele>388.0</ele><time>2026-03-24T11:22:45.94Z</time></trkpt><trkpt lat="44.3558143" lon="8.2714326"><ele>388.0</ele><time>2026-03-24T11:22:46.94Z</time></trkpt><trkpt lat="44.3558734" lon="8.2715144"><ele>388.0</ele><time>2026-03-24T11:22:47.94Z</time></trkpt><trkpt lat="44.355918" lon="8.2715962"><ele>388.00000000000006</ele><time>2026-03-24T11:22:48.939Z</time></trkpt><trkpt lat="44.3559706" lon="8.2716969"><ele>388.0</ele><time>2026-03-24T11:22:49.94Z</time></trkpt><trkpt lat="44.3560081" lon="8.2717914"><ele>386.1666666666667</ele><time>2026-03-24T11:22:50.94Z</time></trkpt><trkpt lat="44.3560379" lon="8.2718766"><ele>384.33333333333337</ele><time>2026-03-24T11:22:51.94Z</time></trkpt><trkpt lat="44.3560716" lon="8.2719662"><ele>382.5</ele><time>2026-03-24T11:22:52.94Z</time></trkpt><trkpt lat="44.3561008" lon="8.2720479"><ele>380.6666666666667</ele><time>2026-03-24T11:22:53.94Z</time></trkpt><trkpt lat="44.356144" lon="8.2721819"><ele>378.83333333333337</ele><time>2026-03-24T11:22:55.941Z</time></trkpt><trkpt lat="44.3561822" lon="8.2723098"><ele>377.0</ele><time>2026-03-24T11:22:57.939Z</time></trkpt><trkpt lat="44.3562094" lon="8.2724435"><ele>376.20000000000005</ele><time>2026-03-24T11:22:59.941Z</time></trkpt><trkpt lat="44.356235" lon="8.2725845"><ele>375.4</ele><time>2026-03-24T11:23:01.939Z</time></trkpt><trkpt lat="44.3562748" lon="8.2727256"><ele>374.6</ele><time>2026-03-24T11:23:03.941Z</time></trkpt><trkpt lat="44.3562894" lon="8.2728706"><ele>373.79999999999995</ele><time>2026-03-24T11:23:05.94Z</time></trkpt><trkpt lat="44.3563106" lon="8.2730347"><ele>373.0</ele><time>2026-03-24T11:23:07.941Z</time></trkpt><trkpt lat="44.3563136" lon="8.273205"><ele>372.66666666666663</ele><time>2026-03-24T11:23:09.94Z</time></trkpt><trkpt lat="44.3563188" lon="8.2733758"><ele>372.3333333333333</ele><time>2026-03-24T11:23:11.94Z</time></trkpt><trkpt lat="44.3563121" lon="8.2734716"><ele>372.0</ele><time>2026-03-24T11:23:12.939Z</time></trkpt><trkpt lat="44.3563155" lon="8.2735748"><ele>371.6666666666667</ele><time>2026-03-24T11:23:13.94Z</time></trkpt><trkpt lat="44.3563173" lon="8.2736823"><ele>371.33333333333337</ele><time>2026-03-24T11:23:14.938Z</time></trkpt><trkpt lat="44.3563167" lon="8.2737869"><ele>371.0</ele><time>2026-03-24T11:23:15.939Z</time></trkpt><trkpt lat="44.3563166" lon="8.2738889"><ele>370.5</ele><time>2026-03-24T11:23:16.94Z</time></trkpt><trkpt lat="44.3563094" lon="8.2739925"><ele>370.0</ele><time>2026-03-24T11:23:17.94Z</time></trkpt><trkpt lat="44.3563004" lon="8.2740993"><ele>369.5</ele><time>2026-03-24T11:23:18.94Z</time></trkpt><trkpt lat="44.356291" lon="8.2742017"><ele>369.0</ele><time>2026-03-24T11:23:19.94Z</time></trkpt><trkpt lat="44.3562875" lon="8.2743139"><ele>368.5</ele><time>2026-03-24T11:23:20.94Z</time></trkpt><trkpt lat="44.3562805" lon="8.2744239"><ele>368.0</ele><time>2026-03-24T11:23:21.94Z</time></trkpt><trkpt lat="44.3562722" lon="8.2745344"><ele>368.0</ele><time>2026-03-24T11:23:22.939Z</time></trkpt><trkpt lat="44.3562663" lon="8.2746328"><ele>368.0</ele><time>2026-03-24T11:23:23.939Z</time></trkpt><trkpt lat="44.3562571" lon="8.2747262"><ele>368.0</ele><time>2026-03-24T11:23:24.94Z</time></trkpt><trkpt lat="44.356256" lon="8.2748285"><ele>368.0</ele><time>2026-03-24T11:23:25.94Z</time></trkpt><trkpt lat="44.3562532" lon="8.2749327"><ele>368.0</ele><time>2026-03-24T11:23:26.939Z</time></trkpt><trkpt lat="44.3562538" lon="8.2750241"><ele>368.0</ele><time>2026-03-24T11:23:27.94Z</time></trkpt><trkpt lat="44.3562506" lon="8.275122"><ele>368.0</ele><time>2026-03-24T11:23:28.94Z</time></trkpt><trkpt lat="44.3562467" lon="8.2752198"><ele>368.14285714285717</ele><time>2026-03-24T11:23:29.94Z</time></trkpt><trkpt lat="44.3562414" lon="8.2753125"><ele>368.2857142857143</ele><time>2026-03-24T11:23:30.94Z</time></trkpt><trkpt lat="44.3562334" lon="8.2754046"><ele>368.42857142857144</ele><time>2026-03-24T11:23:31.94Z</time></trkpt><trkpt lat="44.3562229" lon="8.2755022"><ele>368.57142857142856</ele><time>2026-03-24T11:23:32.939Z</time></trkpt><trkpt lat="44.3562108" lon="8.2755987"><ele>368.71428571428567</ele><time>2026-03-24T11:23:33.939Z</time></trkpt><trkpt lat="44.356194" lon="8.2756979"><ele>368.85714285714283</ele><time>2026-03-24T11:23:34.94Z</time></trkpt><trkpt lat="44.3561787" lon="8.2757934"><ele>369.0</ele><time>2026-03-24T11:23:35.94Z</time></trkpt><trkpt lat="44.356164" lon="8.2758887"><ele>369.1428571428571</ele><time>2026-03-24T11:23:36.94Z</time></trkpt><trkpt lat="44.3561395" lon="8.2759823"><ele>369.2857142857143</ele><time>2026-03-24T11:23:37.94Z</time></trkpt><trkpt lat="44.3561176" lon="8.2760786"><ele>369.42857142857144</ele><time>2026-03-24T11:23:38.94Z</time></trkpt><trkpt lat="44.3560738" lon="8.2761616"><ele>369.57142857142856</ele><time>2026-03-24T11:23:39.938Z</time></trkpt><trkpt lat="44.3560281" lon="8.2762368"><ele>369.7142857142857</ele><time>2026-03-24T11:23:40.941Z</time></trkpt><trkpt lat="44.3559751" lon="8.2763156"><ele>369.85714285714283</ele><time>2026-03-24T11:23:41.94Z</time></trkpt><trkpt lat="44.3559167" lon="8.2763856"><ele>370.0</ele><time>2026-03-24T11:23:42.939Z</time></trkpt><trkpt lat="44.3558574" lon="8.2764633"><ele>369.8333333333333</ele><time>2026-03-24T11:23:43.94Z</time></trkpt><trkpt lat="44.3557975" lon="8.2765454"><ele>369.66666666666663</ele><time>2026-03-24T11:23:44.94Z</time></trkpt><trkpt lat="44.3557389" lon="8.2766404"><ele>369.5</ele><time>2026-03-24T11:23:45.94Z</time></trkpt><trkpt lat="44.3556855" lon="8.2767277"><ele>369.3333333333333</ele><time>2026-03-24T11:23:46.939Z</time></trkpt><trkpt lat="44.35563" lon="8.2768214"><ele>369.1666666666667</ele><time>2026-03-24T11:23:47.94Z</time></trkpt><trkpt lat="44.3555776" lon="8.27692"><ele>369.0</ele><time>2026-03-24T11:23:48.94Z</time></trkpt><trkpt lat="44.3555251" lon="8.2770218"><ele>369.0</ele><time>2026-03-24T11:23:49.94Z</time></trkpt><trkpt lat="44.3554665" lon="8.2771259"><ele>369.0</ele><time>2026-03-24T11:23:50.938Z</time></trkpt><trkpt lat="44.3554115" lon="8.2772328"><ele>369.0</ele><time>2026-03-24T11:23:51.94Z</time></trkpt><trkpt lat="44.3553569" lon="8.2773382"><ele>369.0</ele><time>2026-03-24T11:23:52.94Z</time></trkpt><trkpt lat="44.3553053" lon="8.2774545"><ele>369.0</ele><time>2026-03-24T11:23:53.94Z</time></trkpt><trkpt lat="44.3552586" lon="8.2775697"><ele>367.6</ele><time>2026-03-24T11:23:54.939Z</time></trkpt><trkpt lat="44.3552149" lon="8.2776903"><ele>366.2</ele><time>2026-03-24T11:23:55.939Z</time></trkpt><trkpt lat="44.3551585" lon="8.2778076"><ele>364.8</ele><time>2026-03-24T11:23:56.941Z</time></trkpt><trkpt lat="44.3551064" lon="8.2779164"><ele>363.40000000000003</ele><time>2026-03-24T11:23:57.94Z</time></trkpt><trkpt lat="44.355056" lon="8.2780226"><ele>362.0</ele><time>2026-03-24T11:23:58.941Z</time></trkpt><trkpt lat="44.3550051" lon="8.2781303"><ele>362.0</ele><time>2026-03-24T11:23:59.939Z</time></trkpt><trkpt lat="44.3549515" lon="8.2782358"><ele>362.0</ele><time>2026-03-24T11:24:00.94Z</time></trkpt><trkpt lat="44.3549006" lon="8.2783379"><ele>362.0</ele><time>2026-03-24T11:24:01.939Z</time></trkpt><trkpt lat="44.3548428" lon="8.278454"><ele>362.0</ele><time>2026-03-24T11:24:02.94Z</time></trkpt><trkpt lat="44.3548015" lon="8.2785534"><ele>362.0</ele><time>2026-03-24T11:24:03.94Z</time></trkpt><trkpt lat="44.3547624" lon="8.2786537"><ele>362.0</ele><time>2026-03-24T11:24:04.94Z</time></trkpt><trkpt lat="44.3547201" lon="8.2787428"><ele>361.6666666666667</ele><time>2026-03-24T11:24:05.94Z</time></trkpt><trkpt lat="44.3547" lon="8.2788505"><ele>361.33333333333337</ele><time>2026-03-24T11:24:06.94Z</time></trkpt><trkpt lat="44.3546779" lon="8.2789623"><ele>361.0</ele><time>2026-03-24T11:24:07.94Z</time></trkpt><trkpt lat="44.3546557" lon="8.2790565"><ele>360.6666666666667</ele><time>2026-03-24T11:24:08.94Z</time></trkpt><trkpt lat="44.3546381" lon="8.2791481"><ele>360.3333333333333</ele><time>2026-03-24T11:24:09.939Z</time></trkpt><trkpt lat="44.3545759" lon="8.2792673"><ele>360.0</ele><time>2026-03-24T11:24:11.94Z</time></trkpt><trkpt lat="44.3544668" lon="8.2792943"><ele>360.0</ele><time>2026-03-24T11:24:13.94Z</time></trkpt><trkpt lat="44.3543782" lon="8.279205"><ele>360.0</ele><time>2026-03-24T11:24:15.941Z</time></trkpt><trkpt lat="44.3542965" lon="8.2791037"><ele>360.0</ele><time>2026-03-24T11:24:17.94Z</time></trkpt><trkpt lat="44.3542019" lon="8.2790008"><ele>360.0</ele><time>2026-03-24T11:24:19.94Z</time></trkpt><trkpt lat="44.3541143" lon="8.2789077"><ele>360.0</ele><time>2026-03-24T11:24:21.939Z</time></trkpt><trkpt lat="44.3540248" lon="8.2787998"><ele>360.0</ele><time>2026-03-24T11:24:23.94Z</time></trkpt><trkpt lat="44.3539449" lon="8.2787073"><ele>360.0</ele><time>2026-03-24T11:24:25.94Z</time></trkpt><trkpt lat="44.3538531" lon="8.2786129"><ele>360.0</ele><time>2026-03-24T11:24:27.941Z</time></trkpt><trkpt lat="44.3537628" lon="8.2785289"><ele>360.0</ele><time>2026-03-24T11:24:29.939Z</time></trkpt><trkpt lat="44.3536713" lon="8.2784464"><ele>360.0</ele><time>2026-03-24T11:24:31.94Z</time></trkpt><trkpt lat="44.3535757" lon="8.2783789"><ele>359.4</ele><time>2026-03-24T11:24:33.94Z</time></trkpt><trkpt lat="44.3534631" lon="8.2783817"><ele>358.8</ele><time>2026-03-24T11:24:35.94Z</time></trkpt><trkpt lat="44.3534099" lon="8.2785144"><ele>358.20000000000005</ele><time>2026-03-24T11:24:37.94Z</time></trkpt><trkpt lat="44.3534072" lon="8.2786673"><ele>357.6</ele><time>2026-03-24T11:24:39.94Z</time></trkpt><trkpt lat="44.3534122" lon="8.2788244"><ele>357.0</ele><time>2026-03-24T11:24:41.939Z</time></trkpt><trkpt lat="44.3534071" lon="8.2789667"><ele>356.6</ele><time>2026-03-24T11:24:43.94Z</time></trkpt><trkpt lat="44.3533979" lon="8.279116"><ele>356.20000000000005</ele><time>2026-03-24T11:24:45.94Z</time></trkpt><trkpt lat="44.3533871" lon="8.2792671"><ele>355.8</ele><time>2026-03-24T11:24:47.939Z</time></trkpt><trkpt lat="44.3533733" lon="8.2794068"><ele>355.4</ele><time>2026-03-24T11:24:49.94Z</time></trkpt><trkpt lat="44.3533554" lon="8.2795557"><ele>355.0</ele><time>2026-03-24T11:24:51.939Z</time></trkpt><trkpt lat="44.3533411" lon="8.2797098"><ele>354.8</ele><time>2026-03-24T11:24:53.94Z</time></trkpt><trkpt lat="44.3533115" lon="8.2798716"><ele>354.6</ele><time>2026-03-24T11:24:55.939Z</time></trkpt><trkpt lat="44.3533078" lon="8.2800326"><ele>354.4</ele><time>2026-03-24T11:24:57.94Z</time></trkpt><trkpt lat="44.3532987" lon="8.2801858"><ele>354.2</ele><time>2026-03-24T11:24:59.94Z</time></trkpt><trkpt lat="44.3532838" lon="8.2803275"><ele>354.0</ele><time>2026-03-24T11:25:01.94Z</time></trkpt><trkpt lat="44.3532723" lon="8.2804884"><ele>353.75</ele><time>2026-03-24T11:25:03.94Z</time></trkpt><trkpt lat="44.3532573" lon="8.2806629"><ele>353.5</ele><time>2026-03-24T11:25:05.939Z</time></trkpt><trkpt lat="44.3532371" lon="8.2808297"><ele>353.25</ele><time>2026-03-24T11:25:07.941Z</time></trkpt><trkpt lat="44.3532214" lon="8.2809961"><ele>353.0</ele><time>2026-03-24T11:25:09.94Z</time></trkpt><trkpt lat="44.3532065" lon="8.2811579"><ele>353.0</ele><time>2026-03-24T11:25:11.94Z</time></trkpt><trkpt lat="44.3531949" lon="8.2813256"><ele>353.0</ele><time>2026-03-24T11:25:13.94Z</time></trkpt><trkpt lat="44.3531851" lon="8.2814723"><ele>353.0</ele><time>2026-03-24T11:25:15.94Z</time></trkpt><trkpt lat="44.3531721" lon="8.2816353"><ele>353.0</ele><time>2026-03-24T11:25:17.94Z</time></trkpt><trkpt lat="44.3531543" lon="8.2817892"><ele>353.0</ele><time>2026-03-24T11:25:19.939Z</time></trkpt><trkpt lat="44.3531349" lon="8.2819573"><ele>353.0</ele><time>2026-03-24T11:25:21.94Z</time></trkpt><trkpt lat="44.3531168" lon="8.2821382"><ele>353.0</ele><time>2026-03-24T11:25:23.94Z</time></trkpt><trkpt lat="44.3531091" lon="8.2822276"><ele>353.0</ele><time>2026-03-24T11:25:24.94Z</time></trkpt><trkpt lat="44.3530927" lon="8.2823966"><ele>353.0</ele><time>2026-03-24T11:25:26.94Z</time></trkpt><trkpt lat="44.3530812" lon="8.2824839"><ele>353.0</ele><time>2026-03-24T11:25:27.94Z</time></trkpt><trkpt lat="44.3530728" lon="8.2826531"><ele>353.0</ele><time>2026-03-24T11:25:29.939Z</time></trkpt><trkpt lat="44.3530624" lon="8.2828156"><ele>353.0</ele><time>2026-03-24T11:25:31.94Z</time></trkpt><trkpt lat="44.3530582" lon="8.282904"><ele>353.0</ele><time>2026-03-24T11:25:32.939Z</time></trkpt><trkpt lat="44.3530576" lon="8.2829923"><ele>353.0</ele><time>2026-03-24T11:25:33.939Z</time></trkpt><trkpt lat="44.3530505" lon="8.2830882"><ele>353.0</ele><time>2026-03-24T11:25:34.94Z</time></trkpt><trkpt lat="44.3530486" lon="8.2831845"><ele>353.1666666666667</ele><time>2026-03-24T11:25:35.94Z</time></trkpt><trkpt lat="44.3530479" lon="8.2832774"><ele>353.33333333333337</ele><time>2026-03-24T11:25:36.939Z</time></trkpt><trkpt lat="44.353049" lon="8.283372"><ele>353.5</ele><time>2026-03-24T11:25:37.938Z</time></trkpt><trkpt lat="44.3530506" lon="8.2835376"><ele>353.6666666666667</ele><time>2026-03-24T11:25:39.939Z</time></trkpt><trkpt lat="44.3530559" lon="8.2836267"><ele>353.8333333333333</ele><time>2026-03-24T11:25:40.94Z</time></trkpt><trkpt lat="44.353071" lon="8.2837987"><ele>354.0</ele><time>2026-03-24T11:25:42.939Z</time></trkpt><trkpt lat="44.3530798" lon="8.2839689"><ele>354.0</ele><time>2026-03-24T11:25:44.94Z</time></trkpt><trkpt lat="44.3530951" lon="8.2841352"><ele>354.0</ele><time>2026-03-24T11:25:46.94Z</time></trkpt><trkpt lat="44.3531023" lon="8.2842917"><ele>354.0</ele><time>2026-03-24T11:25:48.94Z</time></trkpt><trkpt lat="44.3531091" lon="8.2844432"><ele>354.0</ele><time>2026-03-24T11:25:50.939Z</time></trkpt><trkpt lat="44.3531203" lon="8.2845878"><ele>354.0</ele><time>2026-03-24T11:25:52.939Z</time></trkpt><trkpt lat="44.3531378" lon="8.284746"><ele>354.0</ele><time>2026-03-24T11:25:54.94Z</time></trkpt><trkpt lat="44.3531474" lon="8.2849157"><ele>354.0</ele><time>2026-03-24T11:25:56.94Z</time></trkpt><trkpt lat="44.3531577" lon="8.285078"><ele>354.0</ele><time>2026-03-24T11:25:58.94Z</time></trkpt><trkpt lat="44.3531742" lon="8.285245"><ele>354.0</ele><time>2026-03-24T11:26:00.939Z</time></trkpt><trkpt lat="44.3531874" lon="8.2854163"><ele>354.0</ele><time>2026-03-24T11:26:02.939Z</time></trkpt><trkpt lat="44.3531893" lon="8.2855064"><ele>354.0</ele><time>2026-03-24T11:26:03.939Z</time></trkpt><trkpt lat="44.3531926" lon="8.2855959"><ele>354.0</ele><time>2026-03-24T11:26:04.94Z</time></trkpt><trkpt lat="44.3531949" lon="8.2856865"><ele>354.0</ele><time>2026-03-24T11:26:05.94Z</time></trkpt><trkpt lat="44.3532061" lon="8.2858468"><ele>354.0</ele><time>2026-03-24T11:26:07.94Z</time></trkpt><trkpt lat="44.3532142" lon="8.2860088"><ele>354.0</ele><time>2026-03-24T11:26:09.939Z</time></trkpt><trkpt lat="44.353211" lon="8.2861574"><ele>354.0</ele><time>2026-03-24T11:26:11.94Z</time></trkpt><trkpt lat="44.3532248" lon="8.2863113"><ele>354.0</ele><time>2026-03-24T11:26:13.94Z</time></trkpt><trkpt lat="44.3532437" lon="8.2864752"><ele>354.0</ele><time>2026-03-24T11:26:15.94Z</time></trkpt><trkpt lat="44.3532415" lon="8.2866297"><ele>354.0</ele><time>2026-03-24T11:26:17.94Z</time></trkpt><trkpt lat="44.3532232" lon="8.2867916"><ele>354.0</ele><time>2026-03-24T11:26:19.94Z</time></trkpt><trkpt lat="44.3532031" lon="8.2869466"><ele>354.0</ele><time>2026-03-24T11:26:21.94Z</time></trkpt><trkpt lat="44.3532416" lon="8.2870599"><ele>354.0</ele><time>2026-03-24T11:26:23.939Z</time></trkpt><trkpt lat="44.3533425" lon="8.2870499"><ele>354.0</ele><time>2026-03-24T11:26:25.94Z</time></trkpt><trkpt lat="44.3534264" lon="8.2869736"><ele>354.0</ele><time>2026-03-24T11:26:27.94Z</time></trkpt><trkpt lat="44.3534946" lon="8.2869823"><ele>354.0</ele><time>2026-03-24T11:26:29.94Z</time></trkpt><trkpt lat="44.3534571" lon="8.2870894"><ele>354.0</ele><time>2026-03-24T11:26:32.939Z</time></trkpt><trkpt lat="44.353408" lon="8.2871581"><ele>354.0</ele><time>2026-03-24T11:26:34.939Z</time></trkpt><trkpt lat="44.3533792" lon="8.2872657"><ele>354.0</ele><time>2026-03-24T11:26:36.94Z</time></trkpt><trkpt lat="44.3533846" lon="8.2873983"><ele>354.0</ele><time>2026-03-24T11:26:38.94Z</time></trkpt><trkpt lat="44.3533924" lon="8.2875322"><ele>354.0</ele><time>2026-03-24T11:26:40.94Z</time></trkpt><trkpt lat="44.3533948" lon="8.2876555"><ele>354.6666666666667</ele><time>2026-03-24T11:26:42.94Z</time></trkpt><trkpt lat="44.3533969" lon="8.2877764"><ele>355.3333333333333</ele><time>2026-03-24T11:26:44.939Z</time></trkpt><trkpt lat="44.3533934" lon="8.287885"><ele>356.0</ele><time>2026-03-24T11:26:46.939Z</time></trkpt><trkpt lat="44.3534016" lon="8.2879967"><ele>356.66666666666663</ele><time>2026-03-24T11:26:48.939Z</time></trkpt><trkpt lat="44.3534391" lon="8.2880939"><ele>357.3333333333333</ele><time>2026-03-24T11:26:50.94Z</time></trkpt><trkpt lat="44.3534753" lon="8.2881906"><ele>358.0</ele><time>2026-03-24T11:26:52.94Z</time></trkpt><trkpt lat="44.3534741" lon="8.2882948"><ele>358.7142857142857</ele><time>2026-03-24T11:26:54.94Z</time></trkpt><trkpt lat="44.3534694" lon="8.2883924"><ele>359.42857142857144</ele><time>2026-03-24T11:26:56.94Z</time></trkpt><trkpt lat="44.3534494" lon="8.288484"><ele>360.1428571428571</ele><time>2026-03-24T11:26:58.939Z</time></trkpt><trkpt lat="44.3534292" lon="8.2886073"><ele>360.8571428571429</ele><time>2026-03-24T11:27:01.94Z</time></trkpt><trkpt lat="44.3534458" lon="8.2886925"><ele>361.57142857142856</ele><time>2026-03-24T11:27:03.94Z</time></trkpt><trkpt lat="44.3534806" lon="8.2887869"><ele>362.2857142857143</ele><time>2026-03-24T11:27:05.94Z</time></trkpt><trkpt lat="44.3535141" lon="8.2888885"><ele>363.0</ele><time>2026-03-24T11:27:07.939Z</time></trkpt><trkpt lat="44.3535564" lon="8.2889965"><ele>363.8333333333333</ele><time>2026-03-24T11:27:09.939Z</time></trkpt><trkpt lat="44.3535962" lon="8.2891057"><ele>364.6666666666667</ele><time>2026-03-24T11:27:11.939Z</time></trkpt><trkpt lat="44.3536337" lon="8.2892121"><ele>365.5</ele><time>2026-03-24T11:27:13.94Z</time></trkpt><trkpt lat="44.3536509" lon="8.2893426"><ele>366.33333333333337</ele><time>2026-03-24T11:27:15.939Z</time></trkpt><trkpt lat="44.3536279" lon="8.2894934"><ele>367.1666666666667</ele><time>2026-03-24T11:27:17.939Z</time></trkpt><trkpt lat="44.3535986" lon="8.2895778"><ele>368.0</ele><time>2026-03-24T11:27:18.94Z</time></trkpt><trkpt lat="44.3535716" lon="8.2896648"><ele>367.33333333333337</ele><time>2026-03-24T11:27:19.939Z</time></trkpt><trkpt lat="44.3535429" lon="8.289759"><ele>366.6666666666667</ele><time>2026-03-24T11:27:20.94Z</time></trkpt><trkpt lat="44.3535135" lon="8.2898541"><ele>366.0</ele><time>2026-03-24T11:27:21.94Z</time></trkpt><trkpt lat="44.3534708" lon="8.2899514"><ele>365.3333333333333</ele><time>2026-03-24T11:27:22.94Z</time></trkpt><trkpt lat="44.3534406" lon="8.2900571"><ele>364.66666666666663</ele><time>2026-03-24T11:27:23.94Z</time></trkpt><trkpt lat="44.3534064" lon="8.2901678"><ele>364.0</ele><time>2026-03-24T11:27:24.94Z</time></trkpt><trkpt lat="44.3533926" lon="8.2902972"><ele>364.0</ele><time>2026-03-24T11:27:25.94Z</time></trkpt><trkpt lat="44.3533907" lon="8.2904247"><ele>364.0</ele><time>2026-03-24T11:27:26.94Z</time></trkpt><trkpt lat="44.353389" lon="8.2905416"><ele>364.0</ele><time>2026-03-24T11:27:27.94Z</time></trkpt><trkpt lat="44.3533859" lon="8.2906453"><ele>364.0</ele><time>2026-03-24T11:27:28.94Z</time></trkpt><trkpt lat="44.3533878" lon="8.2907424"><ele>364.0</ele><time>2026-03-24T11:27:29.939Z</time></trkpt><trkpt lat="44.3533968" lon="8.2909169"><ele>364.0</ele><time>2026-03-24T11:27:31.94Z</time></trkpt><trkpt lat="44.3533956" lon="8.2910747"><ele>363.0</ele><time>2026-03-24T11:27:33.938Z</time></trkpt><trkpt lat="44.3533868" lon="8.2912276"><ele>362.0</ele><time>2026-03-24T11:27:35.94Z</time></trkpt><trkpt lat="44.3533682" lon="8.2913588"><ele>361.0</ele><time>2026-03-24T11:27:37.94Z</time></trkpt><trkpt lat="44.3533528" lon="8.2914825"><ele>360.0</ele><time>2026-03-24T11:27:39.94Z</time></trkpt><trkpt lat="44.3533387" lon="8.2915919"><ele>359.0</ele><time>2026-03-24T11:27:41.939Z</time></trkpt><trkpt lat="44.3533172" lon="8.2917046"><ele>359.0</ele><time>2026-03-24T11:27:43.939Z</time></trkpt><trkpt lat="44.3533146" lon="8.2918207"><ele>359.0</ele><time>2026-03-24T11:27:45.94Z</time></trkpt><trkpt lat="44.353334" lon="8.29192"><ele>359.0</ele><time>2026-03-24T11:27:47.94Z</time></trkpt><trkpt lat="44.353341" lon="8.2920142"><ele>359.0</ele><time>2026-03-24T11:27:49.94Z</time></trkpt><trkpt lat="44.3532916" lon="8.2920794"><ele>359.0</ele><time>2026-03-24T11:27:51.939Z</time></trkpt><trkpt lat="44.3532401" lon="8.2921427"><ele>359.0</ele><time>2026-03-24T11:27:53.94Z</time></trkpt><trkpt lat="44.3531703" lon="8.2921703"><ele>359.0</ele><time>2026-03-24T11:27:55.939Z</time></trkpt><trkpt lat="44.3530831" lon="8.2921281"><ele>360.33333333333337</ele><time>2026-03-24T11:27:58.94Z</time></trkpt><trkpt lat="44.3530086" lon="8.292107"><ele>361.6666666666667</ele><time>2026-03-24T11:28:00.94Z</time></trkpt><trkpt lat="44.3529279" lon="8.292121"><ele>363.0</ele><time>2026-03-24T11:28:02.939Z</time></trkpt><trkpt lat="44.3528601" lon="8.2921613"><ele>364.3333333333333</ele><time>2026-03-24T11:28:04.939Z</time></trkpt><trkpt lat="44.3527858" lon="8.2922473"><ele>365.66666666666663</ele><time>2026-03-24T11:28:07.94Z</time></trkpt><trkpt lat="44.3527352" lon="8.2923152"><ele>367.0</ele><time>2026-03-24T11:28:09.94Z</time></trkpt><trkpt lat="44.35269" lon="8.2923817"><ele>367.0</ele><time>2026-03-24T11:28:11.939Z</time></trkpt><trkpt lat="44.3526422" lon="8.2924597"><ele>367.0</ele><time>2026-03-24T11:28:13.938Z</time></trkpt><trkpt lat="44.3525942" lon="8.2925313"><ele>367.0</ele><time>2026-03-24T11:28:15.94Z</time></trkpt><trkpt lat="44.3525445" lon="8.2926007"><ele>367.0</ele><time>2026-03-24T11:28:17.94Z</time></trkpt><trkpt lat="44.3524934" lon="8.2926699"><ele>367.0</ele><time>2026-03-24T11:28:19.939Z</time></trkpt><trkpt lat="44.352441" lon="8.2927431"><ele>367.0</ele><time>2026-03-24T11:28:21.94Z</time></trkpt><trkpt lat="44.3523875" lon="8.2928159"><ele>367.0</ele><time>2026-03-24T11:28:23.94Z</time></trkpt><trkpt lat="44.3523408" lon="8.292894"><ele>367.0</ele><time>2026-03-24T11:28:25.94Z</time></trkpt><trkpt lat="44.3522938" lon="8.2929709"><ele>367.0</ele><time>2026-03-24T11:28:27.94Z</time></trkpt><trkpt lat="44.3522425" lon="8.293049"><ele>367.0</ele><time>2026-03-24T11:28:29.94Z</time></trkpt><trkpt lat="44.3521928" lon="8.2931217"><ele>367.0</ele><time>2026-03-24T11:28:31.94Z</time></trkpt><trkpt lat="44.352138" lon="8.2931994"><ele>367.0</ele><time>2026-03-24T11:28:33.94Z</time></trkpt><trkpt lat="44.352084" lon="8.2932711"><ele>367.0</ele><time>2026-03-24T11:28:35.939Z</time></trkpt><trkpt lat="44.3520355" lon="8.2933402"><ele>367.0</ele><time>2026-03-24T11:28:37.94Z</time></trkpt><trkpt lat="44.3519824" lon="8.2933938"><ele>367.5</ele><time>2026-03-24T11:28:39.94Z</time></trkpt><trkpt lat="44.3519276" lon="8.2934543"><ele>368.0</ele><time>2026-03-24T11:28:41.938Z</time></trkpt><trkpt lat="44.3518735" lon="8.2935208"><ele>368.5</ele><time>2026-03-24T11:28:43.94Z</time></trkpt><trkpt lat="44.3518116" lon="8.2935882"><ele>369.0</ele><time>2026-03-24T11:28:45.94Z</time></trkpt><trkpt lat="44.3517495" lon="8.2936576"><ele>369.5</ele><time>2026-03-24T11:28:47.94Z</time></trkpt><trkpt lat="44.3516823" lon="8.2937261"><ele>370.0</ele><time>2026-03-24T11:28:49.939Z</time></trkpt><trkpt lat="44.3516237" lon="8.2937931"><ele>369.99999999999994</ele><time>2026-03-24T11:28:51.939Z</time></trkpt><trkpt lat="44.3515679" lon="8.2938545"><ele>370.0</ele><time>2026-03-24T11:28:53.939Z</time></trkpt><trkpt lat="44.3515164" lon="8.2939107"><ele>370.0</ele><time>2026-03-24T11:28:55.94Z</time></trkpt><trkpt lat="44.3514672" lon="8.293973"><ele>370.0</ele><time>2026-03-24T11:28:57.94Z</time></trkpt><trkpt lat="44.3514142" lon="8.2940304"><ele>370.0</ele><time>2026-03-24T11:28:59.939Z</time></trkpt><trkpt lat="44.3513691" lon="8.2940921"><ele>369.99999999999994</ele><time>2026-03-24T11:29:01.939Z</time></trkpt><trkpt lat="44.3513126" lon="8.2941546"><ele>370.0</ele><time>2026-03-24T11:29:03.938Z</time></trkpt><trkpt lat="44.3512569" lon="8.2942128"><ele>370.1428571428571</ele><time>2026-03-24T11:29:05.939Z</time></trkpt><trkpt lat="44.3511775" lon="8.2942834"><ele>370.2857142857143</ele><time>2026-03-24T11:29:07.94Z</time></trkpt><trkpt lat="44.3511161" lon="8.2943472"><ele>370.42857142857144</ele><time>2026-03-24T11:29:09.94Z</time></trkpt><trkpt lat="44.3510639" lon="8.2944095"><ele>370.57142857142856</ele><time>2026-03-24T11:29:11.94Z</time></trkpt><trkpt lat="44.3510102" lon="8.2944613"><ele>370.7142857142857</ele><time>2026-03-24T11:29:13.939Z</time></trkpt><trkpt lat="44.3509522" lon="8.2945212"><ele>370.85714285714283</ele><time>2026-03-24T11:29:15.939Z</time></trkpt><trkpt lat="44.3508954" lon="8.2945835"><ele>371.0</ele><time>2026-03-24T11:29:17.939Z</time></trkpt><trkpt lat="44.3508264" lon="8.294649"><ele>371.0</ele><time>2026-03-24T11:29:19.939Z</time></trkpt><trkpt lat="44.3507518" lon="8.2947201"><ele>371.0</ele><time>2026-03-24T11:29:21.939Z</time></trkpt><trkpt lat="44.3506929" lon="8.2947776"><ele>371.0</ele><time>2026-03-24T11:29:23.94Z</time></trkpt><trkpt lat="44.3506404" lon="8.2948326"><ele>371.0</ele><time>2026-03-24T11:29:25.939Z</time></trkpt><trkpt lat="44.3505733" lon="8.294881"><ele>371.0</ele><time>2026-03-24T11:29:28.939Z</time></trkpt><trkpt lat="44.3504998" lon="8.294948"><ele>371.0</ele><time>2026-03-24T11:29:31.939Z</time></trkpt><trkpt lat="44.350445" lon="8.2949969"><ele>370.6666666666667</ele><time>2026-03-24T11:29:33.939Z</time></trkpt><trkpt lat="44.3503761" lon="8.2950614"><ele>370.33333333333337</ele><time>2026-03-24T11:29:36.94Z</time></trkpt><trkpt lat="44.3503008" lon="8.2951315"><ele>370.0</ele><time>2026-03-24T11:29:39.94Z</time></trkpt><trkpt lat="44.3502494" lon="8.2951887"><ele>369.6666666666667</ele><time>2026-03-24T11:29:41.937Z</time></trkpt><trkpt lat="44.350171" lon="8.2952563"><ele>369.3333333333333</ele><time>2026-03-24T11:29:44.939Z</time></trkpt><trkpt lat="44.3500971" lon="8.2953173"><ele>369.0</ele><time>2026-03-24T11:29:47.94Z</time></trkpt><trkpt lat="44.3500317" lon="8.2953468"><ele>369.0</ele><time>2026-03-24T11:29:49.938Z</time></trkpt><trkpt lat="44.3499715" lon="8.2953757"><ele>369.0</ele><time>2026-03-24T11:29:51.94Z</time></trkpt><trkpt lat="44.3499129" lon="8.2954139"><ele>369.0</ele><time>2026-03-24T11:29:53.939Z</time></trkpt><trkpt lat="44.3498532" lon="8.2954558"><ele>369.0</ele><time>2026-03-24T11:29:55.938Z</time></trkpt><trkpt lat="44.3497974" lon="8.295505"><ele>369.0</ele><time>2026-03-24T11:29:57.939Z</time></trkpt><trkpt lat="44.3497435" lon="8.2955518"><ele>369.0</ele><time>2026-03-24T11:29:59.94Z</time></trkpt><trkpt lat="44.3496874" lon="8.2955951"><ele>369.0</ele><time>2026-03-24T11:30:01.939Z</time></trkpt><trkpt lat="44.3496316" lon="8.2956429"><ele>370.1428571428571</ele><time>2026-03-24T11:30:03.94Z</time></trkpt><trkpt lat="44.3495772" lon="8.2956948"><ele>371.2857142857143</ele><time>2026-03-24T11:30:05.939Z</time></trkpt><trkpt lat="44.3495271" lon="8.2957527"><ele>372.42857142857144</ele><time>2026-03-24T11:30:07.938Z</time></trkpt><trkpt lat="44.3494779" lon="8.2958156"><ele>373.57142857142856</ele><time>2026-03-24T11:30:09.94Z</time></trkpt><trkpt lat="44.3494214" lon="8.2958717"><ele>374.7142857142857</ele><time>2026-03-24T11:30:11.938Z</time></trkpt><trkpt lat="44.3493684" lon="8.2959232"><ele>375.85714285714283</ele><time>2026-03-24T11:30:13.94Z</time></trkpt><trkpt lat="44.349315" lon="8.2959851"><ele>377.0</ele><time>2026-03-24T11:30:15.94Z</time></trkpt><trkpt lat="44.3492538" lon="8.296041"><ele>376.99999999999994</ele><time>2026-03-24T11:30:17.94Z</time></trkpt><trkpt lat="44.3491964" lon="8.2960968"><ele>377.0</ele><time>2026-03-24T11:30:19.939Z</time></trkpt><trkpt lat="44.3491414" lon="8.296147"><ele>377.0</ele><time>2026-03-24T11:30:21.939Z</time></trkpt><trkpt lat="44.3490842" lon="8.2962007"><ele>377.0</ele><time>2026-03-24T11:30:23.939Z</time></trkpt><trkpt lat="44.3490241" lon="8.2962493"><ele>377.0</ele><time>2026-03-24T11:30:25.939Z</time></trkpt><trkpt lat="44.3489591" lon="8.2962893"><ele>376.99999999999994</ele><time>2026-03-24T11:30:27.94Z</time></trkpt><trkpt lat="44.3489021" lon="8.2963309"><ele>377.0</ele><time>2026-03-24T11:30:29.94Z</time></trkpt><trkpt lat="44.3488377" lon="8.2963684"><ele>376.57142857142856</ele><time>2026-03-24T11:30:31.939Z</time></trkpt><trkpt lat="44.3487705" lon="8.2964087"><ele>376.1428571428571</ele><time>2026-03-24T11:30:33.94Z</time></trkpt><trkpt lat="44.3487045" lon="8.2964441"><ele>375.71428571428567</ele><time>2026-03-24T11:30:35.94Z</time></trkpt><trkpt lat="44.3486426" lon="8.2964769"><ele>375.2857142857143</ele><time>2026-03-24T11:30:37.938Z</time></trkpt><trkpt lat="44.348578" lon="8.2965113"><ele>374.8571428571429</ele><time>2026-03-24T11:30:39.939Z</time></trkpt><trkpt lat="44.3485086" lon="8.2965447"><ele>374.4285714285714</ele><time>2026-03-24T11:30:41.939Z</time></trkpt><trkpt lat="44.3484391" lon="8.2965728"><ele>374.0</ele><time>2026-03-24T11:30:43.94Z</time></trkpt><trkpt lat="44.3483691" lon="8.2965989"><ele>374.0</ele><time>2026-03-24T11:30:45.94Z</time></trkpt><trkpt lat="44.3483043" lon="8.2966249"><ele>374.0</ele><time>2026-03-24T11:30:47.94Z</time></trkpt><trkpt lat="44.3482348" lon="8.2966406"><ele>374.0</ele><time>2026-03-24T11:30:49.94Z</time></trkpt><trkpt lat="44.3481617" lon="8.2966496"><ele>374.0</ele><time>2026-03-24T11:30:51.94Z</time></trkpt><trkpt lat="44.3480919" lon="8.2966578"><ele>374.0</ele><time>2026-03-24T11:30:53.939Z</time></trkpt><trkpt lat="44.3480196" lon="8.2966667"><ele>374.0</ele><time>2026-03-24T11:30:55.939Z</time></trkpt><trkpt lat="44.3479494" lon="8.2966797"><ele>374.0</ele><time>2026-03-24T11:30:57.939Z</time></trkpt><trkpt lat="44.347876" lon="8.2966941"><ele>374.85714285714283</ele><time>2026-03-24T11:30:59.939Z</time></trkpt><trkpt lat="44.3478067" lon="8.2967043"><ele>375.7142857142857</ele><time>2026-03-24T11:31:01.938Z</time></trkpt><trkpt lat="44.3477132" lon="8.2967153"><ele>376.57142857142856</ele><time>2026-03-24T11:31:04.94Z</time></trkpt><trkpt lat="44.3476461" lon="8.2967271"><ele>377.42857142857144</ele><time>2026-03-24T11:31:06.939Z</time></trkpt><trkpt lat="44.3475763" lon="8.2967349"><ele>378.28571428571433</ele><time>2026-03-24T11:31:08.939Z</time></trkpt><trkpt lat="44.3475117" lon="8.2967394"><ele>379.14285714285717</ele><time>2026-03-24T11:31:10.94Z</time></trkpt><trkpt lat="44.3474432" lon="8.2967531"><ele>380.0</ele><time>2026-03-24T11:31:12.938Z</time></trkpt><trkpt lat="44.3473487" lon="8.2967712"><ele>380.0</ele><time>2026-03-24T11:31:15.939Z</time></trkpt><trkpt lat="44.3472537" lon="8.2967868"><ele>380.0</ele><time>2026-03-24T11:31:18.939Z</time></trkpt><trkpt lat="44.3471853" lon="8.2967969"><ele>380.0</ele><time>2026-03-24T11:31:20.939Z</time></trkpt><trkpt lat="44.3471177" lon="8.2968087"><ele>380.0</ele><time>2026-03-24T11:31:22.939Z</time></trkpt><trkpt lat="44.3470535" lon="8.2968202"><ele>380.0</ele><time>2026-03-24T11:31:24.939Z</time></trkpt><trkpt lat="44.3469866" lon="8.2968287"><ele>380.0</ele><time>2026-03-24T11:31:26.939Z</time></trkpt><trkpt lat="44.3469177" lon="8.2968369"><ele>380.0</ele><time>2026-03-24T11:31:28.939Z</time></trkpt><trkpt lat="44.3468461" lon="8.296848"><ele>380.42857142857144</ele><time>2026-03-24T11:31:30.94Z</time></trkpt><trkpt lat="44.3467781" lon="8.2968574"><ele>380.8571428571429</ele><time>2026-03-24T11:31:32.939Z</time></trkpt><trkpt lat="44.3467078" lon="8.2968497"><ele>381.2857142857143</ele><time>2026-03-24T11:31:34.939Z</time></trkpt><trkpt lat="44.3466108" lon="8.2968495"><ele>381.7142857142857</ele><time>2026-03-24T11:31:37.939Z</time></trkpt><trkpt lat="44.3465436" lon="8.2968564"><ele>382.1428571428571</ele><time>2026-03-24T11:31:39.939Z</time></trkpt><trkpt lat="44.346476" lon="8.296874"><ele>382.57142857142856</ele><time>2026-03-24T11:31:41.938Z</time></trkpt><trkpt lat="44.3464067" lon="8.2968868"><ele>383.0</ele><time>2026-03-24T11:31:43.938Z</time></trkpt><trkpt lat="44.3463406" lon="8.2969057"><ele>383.57142857142856</ele><time>2026-03-24T11:31:45.94Z</time></trkpt><trkpt lat="44.3462735" lon="8.2969273"><ele>384.1428571428571</ele><time>2026-03-24T11:31:47.939Z</time></trkpt><trkpt lat="44.3462072" lon="8.2969529"><ele>384.7142857142857</ele><time>2026-03-24T11:31:49.938Z</time></trkpt><trkpt lat="44.3461462" lon="8.2969807"><ele>385.2857142857143</ele><time>2026-03-24T11:31:51.94Z</time></trkpt><trkpt lat="44.3460787" lon="8.2970148"><ele>385.8571428571429</ele><time>2026-03-24T11:31:53.939Z</time></trkpt><trkpt lat="44.3460107" lon="8.2970589"><ele>386.42857142857144</ele><time>2026-03-24T11:31:55.939Z</time></trkpt><trkpt lat="44.3459446" lon="8.297111"><ele>387.0</ele><time>2026-03-24T11:31:57.938Z</time></trkpt><trkpt lat="44.3458834" lon="8.2971828"><ele>386.3333333333333</ele><time>2026-03-24T11:31:59.94Z</time></trkpt><trkpt lat="44.3458165" lon="8.2972641"><ele>385.6666666666667</ele><time>2026-03-24T11:32:01.938Z</time></trkpt><trkpt lat="44.3457543" lon="8.2973471"><ele>385.0</ele><time>2026-03-24T11:32:03.939Z</time></trkpt><trkpt lat="44.3456998" lon="8.2974237"><ele>384.33333333333337</ele><time>2026-03-24T11:32:05.938Z</time></trkpt><trkpt lat="44.3456392" lon="8.2975068"><ele>383.6666666666667</ele><time>2026-03-24T11:32:07.939Z</time></trkpt><trkpt lat="44.3455833" lon="8.2975888"><ele>383.0</ele><time>2026-03-24T11:32:09.939Z</time></trkpt><trkpt lat="44.3455218" lon="8.2976706"><ele>384.33333333333337</ele><time>2026-03-24T11:32:11.938Z</time></trkpt><trkpt lat="44.3454654" lon="8.297746"><ele>385.6666666666667</ele><time>2026-03-24T11:32:13.939Z</time></trkpt><trkpt lat="44.3454112" lon="8.2978218"><ele>387.0</ele><time>2026-03-24T11:32:15.938Z</time></trkpt><trkpt lat="44.3453536" lon="8.2979133"><ele>388.33333333333337</ele><time>2026-03-24T11:32:17.94Z</time></trkpt><trkpt lat="44.345305" lon="8.2979988"><ele>389.6666666666667</ele><time>2026-03-24T11:32:19.939Z</time></trkpt><trkpt lat="44.3452637" lon="8.2980848"><ele>391.0</ele><time>2026-03-24T11:32:21.939Z</time></trkpt><trkpt lat="44.3452265" lon="8.2981747"><ele>390.99999999999994</ele><time>2026-03-24T11:32:23.939Z</time></trkpt><trkpt lat="44.3452085" lon="8.2982896"><ele>391.0</ele><time>2026-03-24T11:32:25.94Z</time></trkpt><trkpt lat="44.3452065" lon="8.2983896"><ele>391.0</ele><time>2026-03-24T11:32:27.939Z</time></trkpt><trkpt lat="44.3452018" lon="8.2984869"><ele>391.0</ele><time>2026-03-24T11:32:29.938Z</time></trkpt><trkpt lat="44.3452126" lon="8.2985903"><ele>391.0</ele><time>2026-03-24T11:32:31.937Z</time></trkpt><trkpt lat="44.3452301" lon="8.2986913"><ele>390.99999999999994</ele><time>2026-03-24T11:32:33.939Z</time></trkpt><trkpt lat="44.3452438" lon="8.2987891"><ele>391.0</ele><time>2026-03-24T11:32:35.939Z</time></trkpt><trkpt lat="44.3452686" lon="8.2988788"><ele>391.57142857142856</ele><time>2026-03-24T11:32:37.939Z</time></trkpt><trkpt lat="44.3452932" lon="8.2989608"><ele>392.1428571428571</ele><time>2026-03-24T11:32:39.939Z</time></trkpt><trkpt lat="44.3453188" lon="8.299043"><ele>392.71428571428567</ele><time>2026-03-24T11:32:41.938Z</time></trkpt><trkpt lat="44.3453395" lon="8.2991304"><ele>393.2857142857143</ele><time>2026-03-24T11:32:43.939Z</time></trkpt><trkpt lat="44.3453695" lon="8.2992193"><ele>393.8571428571429</ele><time>2026-03-24T11:32:45.939Z</time></trkpt><trkpt lat="44.3453997" lon="8.2992979"><ele>394.4285714285714</ele><time>2026-03-24T11:32:47.939Z</time></trkpt><trkpt lat="44.345439" lon="8.2993906"><ele>395.0</ele><time>2026-03-24T11:32:49.939Z</time></trkpt><trkpt lat="44.3454712" lon="8.2994837"><ele>394.99999999999994</ele><time>2026-03-24T11:32:51.938Z</time></trkpt><trkpt lat="44.345511" lon="8.2995711"><ele>395.0</ele><time>2026-03-24T11:32:53.939Z</time></trkpt><trkpt lat="44.3455566" lon="8.299654"><ele>395.0</ele><time>2026-03-24T11:32:55.938Z</time></trkpt><trkpt lat="44.345614" lon="8.2997443"><ele>395.0</ele><time>2026-03-24T11:32:57.939Z</time></trkpt><trkpt lat="44.3456789" lon="8.2998338"><ele>394.99999999999994</ele><time>2026-03-24T11:32:59.939Z</time></trkpt><trkpt lat="44.3457505" lon="8.2998915"><ele>395.0</ele><time>2026-03-24T11:33:01.939Z</time></trkpt><trkpt lat="44.3458286" lon="8.2999466"><ele>395.16666666666663</ele><time>2026-03-24T11:33:03.938Z</time></trkpt><trkpt lat="44.3459074" lon="8.2999993"><ele>395.3333333333333</ele><time>2026-03-24T11:33:05.939Z</time></trkpt><trkpt lat="44.3459865" lon="8.3000386"><ele>395.5</ele><time>2026-03-24T11:33:07.938Z</time></trkpt><trkpt lat="44.3460559" lon="8.3000772"><ele>395.66666666666663</ele><time>2026-03-24T11:33:09.939Z</time></trkpt><trkpt lat="44.3461289" lon="8.3001093"><ele>395.8333333333333</ele><time>2026-03-24T11:33:11.939Z</time></trkpt><trkpt lat="44.3462" lon="8.3001576"><ele>396.0</ele><time>2026-03-24T11:33:13.938Z</time></trkpt><trkpt lat="44.3462623" lon="8.3002345"><ele>396.0</ele><time>2026-03-24T11:33:15.938Z</time></trkpt><trkpt lat="44.346322" lon="8.3003116"><ele>396.0</ele><time>2026-03-24T11:33:17.939Z</time></trkpt><trkpt lat="44.3463781" lon="8.3003928"><ele>396.0</ele><time>2026-03-24T11:33:19.939Z</time></trkpt><trkpt lat="44.3464237" lon="8.3004796"><ele>396.0</ele><time>2026-03-24T11:33:21.939Z</time></trkpt><trkpt lat="44.346467" lon="8.3005766"><ele>396.0</ele><time>2026-03-24T11:33:23.939Z</time></trkpt><trkpt lat="44.3465119" lon="8.3006889"><ele>396.0</ele><time>2026-03-24T11:33:25.939Z</time></trkpt><trkpt lat="44.3465629" lon="8.3007995"><ele>395.6666666666667</ele><time>2026-03-24T11:33:27.939Z</time></trkpt><trkpt lat="44.3466012" lon="8.3008999"><ele>395.33333333333337</ele><time>2026-03-24T11:33:29.939Z</time></trkpt><trkpt lat="44.3466426" lon="8.3009964"><ele>395.0</ele><time>2026-03-24T11:33:31.939Z</time></trkpt><trkpt lat="44.3466809" lon="8.3010911"><ele>394.6666666666667</ele><time>2026-03-24T11:33:33.939Z</time></trkpt><trkpt lat="44.3467237" lon="8.301184"><ele>394.33333333333337</ele><time>2026-03-24T11:33:35.939Z</time></trkpt><trkpt lat="44.346767" lon="8.3012868"><ele>394.0</ele><time>2026-03-24T11:33:37.939Z</time></trkpt><trkpt lat="44.3468074" lon="8.3013882"><ele>395.33333333333337</ele><time>2026-03-24T11:33:39.939Z</time></trkpt><trkpt lat="44.3468481" lon="8.3014879"><ele>396.6666666666667</ele><time>2026-03-24T11:33:41.938Z</time></trkpt><trkpt lat="44.3468883" lon="8.3015894"><ele>398.0</ele><time>2026-03-24T11:33:43.939Z</time></trkpt><trkpt lat="44.3469246" lon="8.3016873"><ele>399.33333333333337</ele><time>2026-03-24T11:33:45.939Z</time></trkpt><trkpt lat="44.3469624" lon="8.3017821"><ele>400.6666666666667</ele><time>2026-03-24T11:33:47.938Z</time></trkpt><trkpt lat="44.3469987" lon="8.3018761"><ele>402.0</ele><time>2026-03-24T11:33:49.938Z</time></trkpt><trkpt lat="44.3470388" lon="8.301969"><ele>402.0</ele><time>2026-03-24T11:33:51.939Z</time></trkpt><trkpt lat="44.3470799" lon="8.3020738"><ele>402.0</ele><time>2026-03-24T11:33:53.939Z</time></trkpt><trkpt lat="44.3471086" lon="8.3021833"><ele>402.0</ele><time>2026-03-24T11:33:55.938Z</time></trkpt><trkpt lat="44.3471282" lon="8.3023009"><ele>402.0</ele><time>2026-03-24T11:33:57.938Z</time></trkpt><trkpt lat="44.3471232" lon="8.3024158"><ele>402.0</ele><time>2026-03-24T11:33:59.939Z</time></trkpt><trkpt lat="44.3471054" lon="8.3025191"><ele>402.0</ele><time>2026-03-24T11:34:01.938Z</time></trkpt><trkpt lat="44.3470776" lon="8.3026077"><ele>402.5</ele><time>2026-03-24T11:34:03.938Z</time></trkpt><trkpt lat="44.3470465" lon="8.3027012"><ele>403.0</ele><time>2026-03-24T11:34:05.938Z</time></trkpt><trkpt lat="44.3470168" lon="8.3028031"><ele>403.5</ele><time>2026-03-24T11:34:07.938Z</time></trkpt><trkpt lat="44.3469913" lon="8.3029089"><ele>404.0</ele><time>2026-03-24T11:34:09.939Z</time></trkpt><trkpt lat="44.346965" lon="8.303013"><ele>404.5</ele><time>2026-03-24T11:34:11.939Z</time></trkpt><trkpt lat="44.3469415" lon="8.3031233"><ele>405.0</ele><time>2026-03-24T11:34:13.937Z</time></trkpt><trkpt lat="44.3469216" lon="8.3032382"><ele>405.2</ele><time>2026-03-24T11:34:15.939Z</time></trkpt><trkpt lat="44.3469168" lon="8.3033636"><ele>405.4</ele><time>2026-03-24T11:34:17.937Z</time></trkpt><trkpt lat="44.3469151" lon="8.3034851"><ele>405.6</ele><time>2026-03-24T11:34:19.939Z</time></trkpt><trkpt lat="44.346896" lon="8.3036071"><ele>405.8</ele><time>2026-03-24T11:34:21.937Z</time></trkpt><trkpt lat="44.3468758" lon="8.3037324"><ele>406.0</ele><time>2026-03-24T11:34:23.939Z</time></trkpt><trkpt lat="44.3468481" lon="8.3038562"><ele>405.6</ele><time>2026-03-24T11:34:25.939Z</time></trkpt><trkpt lat="44.3467928" lon="8.3039717"><ele>405.20000000000005</ele><time>2026-03-24T11:34:27.939Z</time></trkpt><trkpt lat="44.3467558" lon="8.3040996"><ele>404.79999999999995</ele><time>2026-03-24T11:34:29.938Z</time></trkpt><trkpt lat="44.3467261" lon="8.304232"><ele>404.4</ele><time>2026-03-24T11:34:31.939Z</time></trkpt><trkpt lat="44.3467074" lon="8.3043663"><ele>404.0</ele><time>2026-03-24T11:34:33.939Z</time></trkpt><trkpt lat="44.3466906" lon="8.3044832"><ele>403.99999999999994</ele><time>2026-03-24T11:34:35.939Z</time></trkpt><trkpt lat="44.3466925" lon="8.3045779"><ele>404.0</ele><time>2026-03-24T11:34:37.939Z</time></trkpt><trkpt lat="44.3467271" lon="8.3046719"><ele>404.0</ele><time>2026-03-24T11:34:39.939Z</time></trkpt><trkpt lat="44.3467896" lon="8.3047579"><ele>404.0</ele><time>2026-03-24T11:34:41.939Z</time></trkpt><trkpt lat="44.3468187" lon="8.3048791"><ele>403.99999999999994</ele><time>2026-03-24T11:34:43.939Z</time></trkpt><trkpt lat="44.3468264" lon="8.305003"><ele>404.0</ele><time>2026-03-24T11:34:45.939Z</time></trkpt><trkpt lat="44.3468424" lon="8.3051395"><ele>403.75</ele><time>2026-03-24T11:34:47.939Z</time></trkpt><trkpt lat="44.3468549" lon="8.3052893"><ele>403.5</ele><time>2026-03-24T11:34:49.939Z</time></trkpt><trkpt lat="44.3468653" lon="8.3054395"><ele>403.25</ele><time>2026-03-24T11:34:51.939Z</time></trkpt><trkpt lat="44.3468764" lon="8.3056036"><ele>403.0</ele><time>2026-03-24T11:34:53.937Z</time></trkpt><trkpt lat="44.3468882" lon="8.3057811"><ele>402.42857142857144</ele><time>2026-03-24T11:34:55.939Z</time></trkpt><trkpt lat="44.3468958" lon="8.3058768"><ele>401.85714285714283</ele><time>2026-03-24T11:34:56.939Z</time></trkpt><trkpt lat="44.3468993" lon="8.3059664"><ele>401.2857142857143</ele><time>2026-03-24T11:34:57.939Z</time></trkpt><trkpt lat="44.346903" lon="8.3060585"><ele>400.7142857142857</ele><time>2026-03-24T11:34:58.939Z</time></trkpt><trkpt lat="44.3469129" lon="8.3061609"><ele>400.1428571428571</ele><time>2026-03-24T11:34:59.937Z</time></trkpt><trkpt lat="44.3469219" lon="8.306249"><ele>399.57142857142856</ele><time>2026-03-24T11:35:00.939Z</time></trkpt><trkpt lat="44.3469287" lon="8.3063478"><ele>399.0</ele><time>2026-03-24T11:35:01.937Z</time></trkpt><trkpt lat="44.3469371" lon="8.3064423"><ele>398.42857142857144</ele><time>2026-03-24T11:35:02.939Z</time></trkpt><trkpt lat="44.3469435" lon="8.3065376"><ele>397.8571428571429</ele><time>2026-03-24T11:35:03.939Z</time></trkpt><trkpt lat="44.3469598" lon="8.3066287"><ele>397.2857142857143</ele><time>2026-03-24T11:35:04.938Z</time></trkpt><trkpt lat="44.3469719" lon="8.3067284"><ele>396.7142857142857</ele><time>2026-03-24T11:35:05.937Z</time></trkpt><trkpt lat="44.3469923" lon="8.3068274"><ele>396.14285714285717</ele><time>2026-03-24T11:35:06.939Z</time></trkpt><trkpt lat="44.3470165" lon="8.3069217"><ele>395.57142857142856</ele><time>2026-03-24T11:35:07.939Z</time></trkpt><trkpt lat="44.3470498" lon="8.3070172"><ele>395.0</ele><time>2026-03-24T11:35:08.938Z</time></trkpt><trkpt lat="44.3470878" lon="8.3071077"><ele>394.99999999999994</ele><time>2026-03-24T11:35:09.937Z</time></trkpt><trkpt lat="44.3471245" lon="8.3071997"><ele>395.0</ele><time>2026-03-24T11:35:10.939Z</time></trkpt><trkpt lat="44.3471519" lon="8.3072896"><ele>395.0</ele><time>2026-03-24T11:35:11.938Z</time></trkpt><trkpt lat="44.3471907" lon="8.3073812"><ele>395.0</ele><time>2026-03-24T11:35:12.938Z</time></trkpt><trkpt lat="44.3472308" lon="8.3074815"><ele>394.99999999999994</ele><time>2026-03-24T11:35:13.938Z</time></trkpt><trkpt lat="44.3472736" lon="8.307579"><ele>395.0</ele><time>2026-03-24T11:35:14.939Z</time></trkpt><trkpt lat="44.3473145" lon="8.3076784"><ele>394.99999999999994</ele><time>2026-03-24T11:35:15.939Z</time></trkpt><trkpt lat="44.3473593" lon="8.3077703"><ele>395.0</ele><time>2026-03-24T11:35:16.94Z</time></trkpt><trkpt lat="44.3473983" lon="8.3078773"><ele>395.0</ele><time>2026-03-24T11:35:17.939Z</time></trkpt><trkpt lat="44.3474302" lon="8.3079916"><ele>395.0</ele><time>2026-03-24T11:35:18.939Z</time></trkpt><trkpt lat="44.3474465" lon="8.3081169"><ele>394.99999999999994</ele><time>2026-03-24T11:35:19.938Z</time></trkpt><trkpt lat="44.3474551" lon="8.3082418"><ele>395.0</ele><time>2026-03-24T11:35:20.938Z</time></trkpt><trkpt lat="44.3474526" lon="8.3083707"><ele>394.99999999999994</ele><time>2026-03-24T11:35:21.939Z</time></trkpt><trkpt lat="44.3474391" lon="8.3084981"><ele>395.0</ele><time>2026-03-24T11:35:22.939Z</time></trkpt><trkpt lat="44.3474151" lon="8.3086207"><ele>395.0</ele><time>2026-03-24T11:35:23.939Z</time></trkpt><trkpt lat="44.3473778" lon="8.3087389"><ele>395.0</ele><time>2026-03-24T11:35:24.939Z</time></trkpt><trkpt lat="44.3473371" lon="8.3088439"><ele>394.99999999999994</ele><time>2026-03-24T11:35:25.939Z</time></trkpt><trkpt lat="44.347284" lon="8.3089423"><ele>395.0</ele><time>2026-03-24T11:35:26.938Z</time></trkpt><trkpt lat="44.3472216" lon="8.3090346"><ele>394.3333333333333</ele><time>2026-03-24T11:35:27.939Z</time></trkpt><trkpt lat="44.3471592" lon="8.3091283"><ele>393.66666666666663</ele><time>2026-03-24T11:35:28.938Z</time></trkpt><trkpt lat="44.3471072" lon="8.3092225"><ele>393.0</ele><time>2026-03-24T11:35:29.939Z</time></trkpt><trkpt lat="44.3470588" lon="8.3093136"><ele>392.33333333333337</ele><time>2026-03-24T11:35:30.939Z</time></trkpt><trkpt lat="44.3470118" lon="8.3094115"><ele>391.6666666666667</ele><time>2026-03-24T11:35:31.939Z</time></trkpt><trkpt lat="44.346973" lon="8.3095283"><ele>391.0</ele><time>2026-03-24T11:35:32.938Z</time></trkpt><trkpt lat="44.3469375" lon="8.3096453"><ele>391.0</ele><time>2026-03-24T11:35:33.939Z</time></trkpt><trkpt lat="44.3469047" lon="8.3097618"><ele>391.0</ele><time>2026-03-24T11:35:34.939Z</time></trkpt><trkpt lat="44.3468845" lon="8.3098846"><ele>391.0</ele><time>2026-03-24T11:35:35.937Z</time></trkpt><trkpt lat="44.3468604" lon="8.310006"><ele>391.0</ele><time>2026-03-24T11:35:36.939Z</time></trkpt><trkpt lat="44.3468517" lon="8.3101393"><ele>391.0</ele><time>2026-03-24T11:35:37.939Z</time></trkpt><trkpt lat="44.346839" lon="8.3102684"><ele>391.0</ele><time>2026-03-24T11:35:38.938Z</time></trkpt><trkpt lat="44.3468415" lon="8.3104034"><ele>391.0</ele><time>2026-03-24T11:35:39.938Z</time></trkpt><trkpt lat="44.3468441" lon="8.3105452"><ele>391.0</ele><time>2026-03-24T11:35:40.938Z</time></trkpt><trkpt lat="44.3468473" lon="8.3106816"><ele>391.0</ele><time>2026-03-24T11:35:41.939Z</time></trkpt><trkpt lat="44.3468556" lon="8.3108349"><ele>391.0</ele><time>2026-03-24T11:35:42.939Z</time></trkpt><trkpt lat="44.3468612" lon="8.3109743"><ele>390.6</ele><time>2026-03-24T11:35:43.938Z</time></trkpt><trkpt lat="44.3468644" lon="8.3111153"><ele>390.20000000000005</ele><time>2026-03-24T11:35:44.939Z</time></trkpt><trkpt lat="44.3468692" lon="8.3112572"><ele>389.79999999999995</ele><time>2026-03-24T11:35:45.939Z</time></trkpt><trkpt lat="44.3468853" lon="8.3113932"><ele>389.4</ele><time>2026-03-24T11:35:46.939Z</time></trkpt><trkpt lat="44.3468882" lon="8.3115258"><ele>389.0</ele><time>2026-03-24T11:35:47.938Z</time></trkpt><trkpt lat="44.3468883" lon="8.3116607"><ele>388.6</ele><time>2026-03-24T11:35:48.939Z</time></trkpt><trkpt lat="44.3468864" lon="8.3117988"><ele>388.2</ele><time>2026-03-24T11:35:49.938Z</time></trkpt><trkpt lat="44.3468823" lon="8.3119405"><ele>387.8</ele><time>2026-03-24T11:35:50.939Z</time></trkpt><trkpt lat="44.3468765" lon="8.3120859"><ele>387.40000000000003</ele><time>2026-03-24T11:35:51.939Z</time></trkpt><trkpt lat="44.346874" lon="8.3122295"><ele>387.0</ele><time>2026-03-24T11:35:52.938Z</time></trkpt><trkpt lat="44.3468623" lon="8.3123689"><ele>387.0</ele><time>2026-03-24T11:35:53.939Z</time></trkpt><trkpt lat="44.3468448" lon="8.312512"><ele>387.0</ele><time>2026-03-24T11:35:54.938Z</time></trkpt><trkpt lat="44.3468202" lon="8.312645"><ele>387.0</ele><time>2026-03-24T11:35:55.939Z</time></trkpt><trkpt lat="44.3467963" lon="8.31278"><ele>387.0</ele><time>2026-03-24T11:35:56.939Z</time></trkpt><trkpt lat="44.3467646" lon="8.312915"><ele>387.0</ele><time>2026-03-24T11:35:57.937Z</time></trkpt><trkpt lat="44.34673" lon="8.3130455"><ele>385.8</ele><time>2026-03-24T11:35:58.939Z</time></trkpt><trkpt lat="44.3466965" lon="8.3131702"><ele>384.6</ele><time>2026-03-24T11:35:59.937Z</time></trkpt><trkpt lat="44.3466622" lon="8.3132937"><ele>383.40000000000003</ele><time>2026-03-24T11:36:00.938Z</time></trkpt><trkpt lat="44.3466257" lon="8.3134041"><ele>382.20000000000005</ele><time>2026-03-24T11:36:01.938Z</time></trkpt><trkpt lat="44.3465831" lon="8.313518"><ele>381.0</ele><time>2026-03-24T11:36:02.938Z</time></trkpt><trkpt lat="44.3465469" lon="8.31363"><ele>381.0</ele><time>2026-03-24T11:36:03.938Z</time></trkpt><trkpt lat="44.3464949" lon="8.3137334"><ele>381.0</ele><time>2026-03-24T11:36:04.938Z</time></trkpt><trkpt lat="44.3464498" lon="8.3138376"><ele>381.0</ele><time>2026-03-24T11:36:05.938Z</time></trkpt><trkpt lat="44.3463936" lon="8.313931"><ele>381.0</ele><time>2026-03-24T11:36:06.939Z</time></trkpt><trkpt lat="44.3463474" lon="8.3140293"><ele>381.0</ele><time>2026-03-24T11:36:07.938Z</time></trkpt><trkpt lat="44.3463133" lon="8.3141186"><ele>381.0</ele><time>2026-03-24T11:36:08.94Z</time></trkpt><trkpt lat="44.3462684" lon="8.3142026"><ele>381.6666666666667</ele><time>2026-03-24T11:36:09.939Z</time></trkpt><trkpt lat="44.3462138" lon="8.3143692"><ele>382.33333333333337</ele><time>2026-03-24T11:36:11.938Z</time></trkpt><trkpt lat="44.3461832" lon="8.3144478"><ele>383.0</ele><time>2026-03-24T11:36:12.938Z</time></trkpt><trkpt lat="44.3461421" lon="8.3145307"><ele>383.6666666666667</ele><time>2026-03-24T11:36:13.939Z</time></trkpt><trkpt lat="44.3461127" lon="8.31461"><ele>384.33333333333337</ele><time>2026-03-24T11:36:14.937Z</time></trkpt><trkpt lat="44.3460856" lon="8.3146895"><ele>385.0</ele><time>2026-03-24T11:36:15.939Z</time></trkpt><trkpt lat="44.346035" lon="8.3148337"><ele>385.0</ele><time>2026-03-24T11:36:17.938Z</time></trkpt><trkpt lat="44.3459991" lon="8.314966"><ele>385.0</ele><time>2026-03-24T11:36:19.939Z</time></trkpt><trkpt lat="44.3459666" lon="8.3150958"><ele>385.0</ele><time>2026-03-24T11:36:21.939Z</time></trkpt><trkpt lat="44.3459332" lon="8.3152134"><ele>385.0</ele><time>2026-03-24T11:36:23.939Z</time></trkpt><trkpt lat="44.3459018" lon="8.3153384"><ele>385.0</ele><time>2026-03-24T11:36:25.939Z</time></trkpt><trkpt lat="44.3458736" lon="8.3154761"><ele>384.6</ele><time>2026-03-24T11:36:27.937Z</time></trkpt><trkpt lat="44.3458548" lon="8.3156065"><ele>384.2</ele><time>2026-03-24T11:36:29.939Z</time></trkpt><trkpt lat="44.3458378" lon="8.3157394"><ele>383.79999999999995</ele><time>2026-03-24T11:36:31.939Z</time></trkpt><trkpt lat="44.3458112" lon="8.3158746"><ele>383.4</ele><time>2026-03-24T11:36:33.938Z</time></trkpt><trkpt lat="44.3457828" lon="8.3160105"><ele>383.0</ele><time>2026-03-24T11:36:35.939Z</time></trkpt><trkpt lat="44.3457577" lon="8.3161453"><ele>383.0</ele><time>2026-03-24T11:36:37.938Z</time></trkpt><trkpt lat="44.3457364" lon="8.316269"><ele>383.0</ele><time>2026-03-24T11:36:39.939Z</time></trkpt><trkpt lat="44.3457162" lon="8.3164075"><ele>383.0</ele><time>2026-03-24T11:36:41.939Z</time></trkpt><trkpt lat="44.3456913" lon="8.3165433"><ele>383.0</ele><time>2026-03-24T11:36:43.939Z</time></trkpt><trkpt lat="44.3456677" lon="8.3166872"><ele>383.0</ele><time>2026-03-24T11:36:45.939Z</time></trkpt><trkpt lat="44.345642" lon="8.3168399"><ele>382.4</ele><time>2026-03-24T11:36:47.938Z</time></trkpt><trkpt lat="44.3456139" lon="8.3169833"><ele>381.79999999999995</ele><time>2026-03-24T11:36:49.939Z</time></trkpt><trkpt lat="44.345592" lon="8.3171278"><ele>381.2</ele><time>2026-03-24T11:36:51.938Z</time></trkpt><trkpt lat="44.345564" lon="8.3172823"><ele>380.6</ele><time>2026-03-24T11:36:53.939Z</time></trkpt><trkpt lat="44.3455427" lon="8.3174247"><ele>380.0</ele><time>2026-03-24T11:36:55.939Z</time></trkpt><trkpt lat="44.3455161" lon="8.3175765"><ele>384.8</ele><time>2026-03-24T11:36:57.937Z</time></trkpt><trkpt lat="44.3454954" lon="8.3177175"><ele>389.6</ele><time>2026-03-24T11:36:59.939Z</time></trkpt><trkpt lat="44.3454721" lon="8.3178672"><ele>394.4</ele><time>2026-03-24T11:37:01.938Z</time></trkpt><trkpt lat="44.3454441" lon="8.318013"><ele>399.2</ele><time>2026-03-24T11:37:03.939Z</time></trkpt><trkpt lat="44.3454246" lon="8.3181588"><ele>404.0</ele><time>2026-03-24T11:37:05.939Z</time></trkpt><trkpt lat="44.3453967" lon="8.318307"><ele>404.0</ele><time>2026-03-24T11:37:07.937Z</time></trkpt><trkpt lat="44.3453726" lon="8.3184444"><ele>404.0</ele><time>2026-03-24T11:37:09.938Z</time></trkpt><trkpt lat="44.3453488" lon="8.3185896"><ele>404.0</ele><time>2026-03-24T11:37:11.938Z</time></trkpt><trkpt lat="44.3453274" lon="8.3187297"><ele>404.0</ele><time>2026-03-24T11:37:13.938Z</time></trkpt><trkpt lat="44.3453055" lon="8.3188765"><ele>404.0</ele><time>2026-03-24T11:37:15.938Z</time></trkpt><trkpt lat="44.3452807" lon="8.3190226"><ele>404.0</ele><time>2026-03-24T11:37:17.938Z</time></trkpt><trkpt lat="44.3452672" lon="8.3191582"><ele>404.0</ele><time>2026-03-24T11:37:19.939Z</time></trkpt><trkpt lat="44.3452639" lon="8.3193086"><ele>404.0</ele><time>2026-03-24T11:37:21.938Z</time></trkpt><trkpt lat="44.3452631" lon="8.3194473"><ele>404.0</ele><time>2026-03-24T11:37:23.938Z</time></trkpt><trkpt lat="44.3452816" lon="8.3195937"><ele>404.0</ele><time>2026-03-24T11:37:25.938Z</time></trkpt><trkpt lat="44.3453127" lon="8.3197283"><ele>405.6</ele><time>2026-03-24T11:37:27.938Z</time></trkpt><trkpt lat="44.3453473" lon="8.3198675"><ele>407.2</ele><time>2026-03-24T11:37:29.938Z</time></trkpt><trkpt lat="44.3453885" lon="8.3200033"><ele>408.8</ele><time>2026-03-24T11:37:31.939Z</time></trkpt><trkpt lat="44.3454432" lon="8.3201241"><ele>410.40000000000003</ele><time>2026-03-24T11:37:33.937Z</time></trkpt><trkpt lat="44.3454929" lon="8.3202559"><ele>412.0</ele><time>2026-03-24T11:37:35.939Z</time></trkpt><trkpt lat="44.3455292" lon="8.3203909"><ele>412.0</ele><time>2026-03-24T11:37:37.939Z</time></trkpt><trkpt lat="44.3455393" lon="8.3205253"><ele>412.0</ele><time>2026-03-24T11:37:39.938Z</time></trkpt><trkpt lat="44.345514" lon="8.3206559"><ele>412.0</ele><time>2026-03-24T11:37:41.938Z</time></trkpt><trkpt lat="44.3454991" lon="8.3207793"><ele>412.0</ele><time>2026-03-24T11:37:43.938Z</time></trkpt><trkpt lat="44.3454668" lon="8.3209186"><ele>412.0</ele><time>2026-03-24T11:37:45.938Z</time></trkpt><trkpt lat="44.3454125" lon="8.3210579"><ele>410.0</ele><time>2026-03-24T11:37:47.938Z</time></trkpt><trkpt lat="44.3453793" lon="8.321135"><ele>408.0</ele><time>2026-03-24T11:37:48.938Z</time></trkpt><trkpt lat="44.3453033" lon="8.3212701"><ele>406.0</ele><time>2026-03-24T11:37:50.938Z</time></trkpt><trkpt lat="44.345223" lon="8.3213983"><ele>404.0</ele><time>2026-03-24T11:37:52.937Z</time></trkpt><trkpt lat="44.3451309" lon="8.3215226"><ele>402.0</ele><time>2026-03-24T11:37:54.939Z</time></trkpt><trkpt lat="44.3450824" lon="8.3215797"><ele>401.0</ele><time>2026-03-24T11:37:55.937Z</time></trkpt><trkpt lat="44.3449826" lon="8.321682"><ele>400.0</ele><time>2026-03-24T11:37:57.938Z</time></trkpt><trkpt lat="44.3449313" lon="8.3217363"><ele>399.0</ele><time>2026-03-24T11:37:58.939Z</time></trkpt><trkpt lat="44.3448772" lon="8.321788"><ele>398.0</ele><time>2026-03-24T11:37:59.939Z</time></trkpt><trkpt lat="44.3447758" lon="8.3218834"><ele>397.0</ele><time>2026-03-24T11:38:01.938Z</time></trkpt><trkpt lat="44.3446728" lon="8.3219762"><ele>397.0</ele><time>2026-03-24T11:38:03.939Z</time></trkpt><trkpt lat="44.3445787" lon="8.3220667"><ele>397.0</ele><time>2026-03-24T11:38:05.936Z</time></trkpt><trkpt lat="44.3444919" lon="8.3221493"><ele>397.0</ele><time>2026-03-24T11:38:07.939Z</time></trkpt><trkpt lat="44.3444121" lon="8.3222259"><ele>397.0</ele><time>2026-03-24T11:38:09.939Z</time></trkpt><trkpt lat="44.3443452" lon="8.3222977"><ele>397.0</ele><time>2026-03-24T11:38:11.938Z</time></trkpt><trkpt lat="44.3442605" lon="8.3223908"><ele>396.0</ele><time>2026-03-24T11:38:13.938Z</time></trkpt><trkpt lat="44.3441703" lon="8.3224849"><ele>395.0</ele><time>2026-03-24T11:38:15.938Z</time></trkpt><trkpt lat="44.3440841" lon="8.322567"><ele>394.0</ele><time>2026-03-24T11:38:17.938Z</time></trkpt><trkpt lat="44.3440013" lon="8.322648"><ele>393.0</ele><time>2026-03-24T11:38:19.938Z</time></trkpt><trkpt lat="44.3439048" lon="8.3227257"><ele>392.0</ele><time>2026-03-24T11:38:21.939Z</time></trkpt><trkpt lat="44.3438166" lon="8.3228048"><ele>392.0</ele><time>2026-03-24T11:38:23.939Z</time></trkpt><trkpt lat="44.343722" lon="8.3229046"><ele>392.0</ele><time>2026-03-24T11:38:25.938Z</time></trkpt><trkpt lat="44.34363" lon="8.3229971"><ele>392.0</ele><time>2026-03-24T11:38:27.937Z</time></trkpt><trkpt lat="44.3435336" lon="8.3230897"><ele>392.0</ele><time>2026-03-24T11:38:29.939Z</time></trkpt><trkpt lat="44.3434436" lon="8.3231855"><ele>392.20000000000005</ele><time>2026-03-24T11:38:31.938Z</time></trkpt><trkpt lat="44.3433545" lon="8.323276"><ele>392.4</ele><time>2026-03-24T11:38:33.937Z</time></trkpt><trkpt lat="44.3432557" lon="8.3233675"><ele>392.6</ele><time>2026-03-24T11:38:35.938Z</time></trkpt><trkpt lat="44.3431656" lon="8.3234577"><ele>392.79999999999995</ele><time>2026-03-24T11:38:37.939Z</time></trkpt><trkpt lat="44.3430703" lon="8.3235325"><ele>393.0</ele><time>2026-03-24T11:38:39.938Z</time></trkpt><trkpt lat="44.3429774" lon="8.3236144"><ele>393.0</ele><time>2026-03-24T11:38:41.938Z</time></trkpt><trkpt lat="44.3428801" lon="8.3236827"><ele>393.0</ele><time>2026-03-24T11:38:43.938Z</time></trkpt><trkpt lat="44.3427719" lon="8.3236887"><ele>393.0</ele><time>2026-03-24T11:38:45.938Z</time></trkpt><trkpt lat="44.3426649" lon="8.3236413"><ele>393.0</ele><time>2026-03-24T11:38:47.938Z</time></trkpt><trkpt lat="44.3425596" lon="8.3235888"><ele>393.0</ele><time>2026-03-24T11:38:49.938Z</time></trkpt><trkpt lat="44.34245" lon="8.3235847"><ele>393.0</ele><time>2026-03-24T11:38:51.939Z</time></trkpt><trkpt lat="44.3423478" lon="8.3236229"><ele>393.0</ele><time>2026-03-24T11:38:53.938Z</time></trkpt><trkpt lat="44.3422532" lon="8.3236824"><ele>393.0</ele><time>2026-03-24T11:38:55.938Z</time></trkpt><trkpt lat="44.3421552" lon="8.3237488"><ele>393.0</ele><time>2026-03-24T11:38:57.936Z</time></trkpt><trkpt lat="44.3420554" lon="8.3238066"><ele>393.0</ele><time>2026-03-24T11:38:59.938Z</time></trkpt><trkpt lat="44.3419626" lon="8.3238741"><ele>391.2</ele><time>2026-03-24T11:39:01.938Z</time></trkpt><trkpt lat="44.3418626" lon="8.3239295"><ele>389.4</ele><time>2026-03-24T11:39:03.938Z</time></trkpt><trkpt lat="44.3417675" lon="8.3240097"><ele>387.59999999999997</ele><time>2026-03-24T11:39:05.938Z</time></trkpt><trkpt lat="44.341681" lon="8.324118"><ele>385.79999999999995</ele><time>2026-03-24T11:39:07.938Z</time></trkpt><trkpt lat="44.3416015" lon="8.3242222"><ele>384.0</ele><time>2026-03-24T11:39:09.937Z</time></trkpt><trkpt lat="44.3414995" lon="8.324294"><ele>384.0</ele><time>2026-03-24T11:39:11.937Z</time></trkpt><trkpt lat="44.3414352" lon="8.3242821"><ele>384.0</ele><time>2026-03-24T11:39:12.938Z</time></trkpt><trkpt lat="44.3413724" lon="8.324237"><ele>384.0</ele><time>2026-03-24T11:39:13.938Z</time></trkpt><trkpt lat="44.3413215" lon="8.3241735"><ele>384.0</ele><time>2026-03-24T11:39:14.938Z</time></trkpt><trkpt lat="44.3412788" lon="8.3241059"><ele>384.0</ele><time>2026-03-24T11:39:15.938Z</time></trkpt><trkpt lat="44.3412411" lon="8.3239458"><ele>384.0</ele><time>2026-03-24T11:39:17.938Z</time></trkpt><trkpt lat="44.3412015" lon="8.3237873"><ele>385.4</ele><time>2026-03-24T11:39:19.939Z</time></trkpt><trkpt lat="44.3411516" lon="8.3236568"><ele>386.79999999999995</ele><time>2026-03-24T11:39:21.938Z</time></trkpt><trkpt lat="44.3410947" lon="8.3235288"><ele>388.20000000000005</ele><time>2026-03-24T11:39:23.937Z</time></trkpt><trkpt lat="44.3410269" lon="8.3234018"><ele>389.6</ele><time>2026-03-24T11:39:25.939Z</time></trkpt><trkpt lat="44.3409469" lon="8.3232778"><ele>391.0</ele><time>2026-03-24T11:39:27.938Z</time></trkpt><trkpt lat="44.3409011" lon="8.3232152"><ele>391.0</ele><time>2026-03-24T11:39:28.938Z</time></trkpt><trkpt lat="44.3408285" lon="8.3230883"><ele>391.0</ele><time>2026-03-24T11:39:30.938Z</time></trkpt><trkpt lat="44.3407499" lon="8.3229543"><ele>391.0</ele><time>2026-03-24T11:39:32.937Z</time></trkpt><trkpt lat="44.3407062" lon="8.3228883"><ele>391.0</ele><time>2026-03-24T11:39:33.938Z</time></trkpt><trkpt lat="44.3406251" lon="8.3227693"><ele>391.0</ele><time>2026-03-24T11:39:35.937Z</time></trkpt><trkpt lat="44.340547" lon="8.3226479"><ele>390.20000000000005</ele><time>2026-03-24T11:39:37.938Z</time></trkpt><trkpt lat="44.340472" lon="8.3225319"><ele>389.40000000000003</ele><time>2026-03-24T11:39:39.938Z</time></trkpt><trkpt lat="44.3403987" lon="8.322407"><ele>388.6</ele><time>2026-03-24T11:39:41.939Z</time></trkpt><trkpt lat="44.3403268" lon="8.3222962"><ele>387.8</ele><time>2026-03-24T11:39:43.938Z</time></trkpt><trkpt lat="44.3402583" lon="8.3221944"><ele>387.0</ele><time>2026-03-24T11:39:45.937Z</time></trkpt><trkpt lat="44.340184" lon="8.3220833"><ele>389.0</ele><time>2026-03-24T11:39:47.938Z</time></trkpt><trkpt lat="44.3401113" lon="8.321983"><ele>391.0</ele><time>2026-03-24T11:39:49.937Z</time></trkpt><trkpt lat="44.3400393" lon="8.3218746"><ele>393.0</ele><time>2026-03-24T11:39:51.938Z</time></trkpt><trkpt lat="44.339963" lon="8.3217769"><ele>395.0</ele><time>2026-03-24T11:39:53.938Z</time></trkpt><trkpt lat="44.3398862" lon="8.3216833"><ele>397.0</ele><time>2026-03-24T11:39:55.939Z</time></trkpt><trkpt lat="44.339793" lon="8.3215994"><ele>398.20000000000005</ele><time>2026-03-24T11:39:57.937Z</time></trkpt><trkpt lat="44.3396896" lon="8.3215459"><ele>399.4</ele><time>2026-03-24T11:39:59.938Z</time></trkpt><trkpt lat="44.3395795" lon="8.3215259"><ele>400.6</ele><time>2026-03-24T11:40:01.939Z</time></trkpt><trkpt lat="44.3394636" lon="8.3215055"><ele>401.79999999999995</ele><time>2026-03-24T11:40:03.938Z</time></trkpt><trkpt lat="44.3393593" lon="8.3214536"><ele>403.0</ele><time>2026-03-24T11:40:05.937Z</time></trkpt><trkpt lat="44.3392651" lon="8.3213946"><ele>403.0</ele><time>2026-03-24T11:40:07.938Z</time></trkpt><trkpt lat="44.3391613" lon="8.3213327"><ele>403.0</ele><time>2026-03-24T11:40:09.938Z</time></trkpt><trkpt lat="44.3390704" lon="8.3212546"><ele>403.0</ele><time>2026-03-24T11:40:11.937Z</time></trkpt><trkpt lat="44.3389737" lon="8.3211919"><ele>403.0</ele><time>2026-03-24T11:40:13.937Z</time></trkpt><trkpt lat="44.3388813" lon="8.3211456"><ele>403.0</ele><time>2026-03-24T11:40:15.938Z</time></trkpt><trkpt lat="44.3388123" lon="8.3211361"><ele>403.4</ele><time>2026-03-24T11:40:17.937Z</time></trkpt><trkpt lat="44.3387493" lon="8.3211517"><ele>403.79999999999995</ele><time>2026-03-24T11:40:19.937Z</time></trkpt><trkpt lat="44.3386569" lon="8.3211931"><ele>404.2</ele><time>2026-03-24T11:40:22.938Z</time></trkpt><trkpt lat="44.3385878" lon="8.321271"><ele>404.6</ele><time>2026-03-24T11:40:24.938Z</time></trkpt><trkpt lat="44.3385049" lon="8.3213644"><ele>405.0</ele><time>2026-03-24T11:40:26.937Z</time></trkpt><trkpt lat="44.3384143" lon="8.3214705"><ele>402.99999999999994</ele><time>2026-03-24T11:40:28.938Z</time></trkpt><trkpt lat="44.3383668" lon="8.3215323"><ele>401.0</ele><time>2026-03-24T11:40:29.938Z</time></trkpt><trkpt lat="44.3383184" lon="8.3215898"><ele>399.0</ele><time>2026-03-24T11:40:30.938Z</time></trkpt><trkpt lat="44.3382687" lon="8.3216472"><ele>397.0</ele><time>2026-03-24T11:40:31.937Z</time></trkpt><trkpt lat="44.3382209" lon="8.3217102"><ele>395.0</ele><time>2026-03-24T11:40:32.938Z</time></trkpt><trkpt lat="44.3381658" lon="8.3217814"><ele>392.99999999999994</ele><time>2026-03-24T11:40:33.938Z</time></trkpt><trkpt lat="44.3381139" lon="8.3218422"><ele>391.0</ele><time>2026-03-24T11:40:34.939Z</time></trkpt><trkpt lat="44.3380672" lon="8.3219099"><ele>391.4285714285714</ele><time>2026-03-24T11:40:35.937Z</time></trkpt><trkpt lat="44.3380217" lon="8.3219801"><ele>391.85714285714283</ele><time>2026-03-24T11:40:36.937Z</time></trkpt><trkpt lat="44.337976" lon="8.3220503"><ele>392.2857142857143</ele><time>2026-03-24T11:40:37.938Z</time></trkpt><trkpt lat="44.3379368" lon="8.3221221"><ele>392.71428571428567</ele><time>2026-03-24T11:40:38.937Z</time></trkpt><trkpt lat="44.337895" lon="8.3221945"><ele>393.14285714285717</ele><time>2026-03-24T11:40:39.938Z</time></trkpt><trkpt lat="44.337856" lon="8.322277"><ele>393.57142857142856</ele><time>2026-03-24T11:40:40.938Z</time></trkpt><trkpt lat="44.3378229" lon="8.3223653"><ele>394.0</ele><time>2026-03-24T11:40:41.937Z</time></trkpt><trkpt lat="44.3377772" lon="8.32254"><ele>394.0</ele><time>2026-03-24T11:40:43.938Z</time></trkpt><trkpt lat="44.3377576" lon="8.3226382"><ele>394.0</ele><time>2026-03-24T11:40:44.937Z</time></trkpt><trkpt lat="44.3377421" lon="8.3227435"><ele>394.0</ele><time>2026-03-24T11:40:45.938Z</time></trkpt><trkpt lat="44.3377305" lon="8.3228485"><ele>394.0</ele><time>2026-03-24T11:40:46.939Z</time></trkpt><trkpt lat="44.3377217" lon="8.322952"><ele>394.0</ele><time>2026-03-24T11:40:47.937Z</time></trkpt><trkpt lat="44.3377226" lon="8.3230585"><ele>394.0</ele><time>2026-03-24T11:40:48.938Z</time></trkpt><trkpt lat="44.3377232" lon="8.3231583"><ele>394.0</ele><time>2026-03-24T11:40:49.938Z</time></trkpt><trkpt lat="44.3377352" lon="8.3232606"><ele>392.50000000000006</ele><time>2026-03-24T11:40:50.938Z</time></trkpt><trkpt lat="44.3377596" lon="8.3233646"><ele>391.0</ele><time>2026-03-24T11:40:51.938Z</time></trkpt><trkpt lat="44.3377821" lon="8.3234682"><ele>389.5</ele><time>2026-03-24T11:40:52.938Z</time></trkpt><trkpt lat="44.3378079" lon="8.3235721"><ele>388.0</ele><time>2026-03-24T11:40:53.938Z</time></trkpt><trkpt lat="44.3378345" lon="8.3236713"><ele>386.50000000000006</ele><time>2026-03-24T11:40:54.938Z</time></trkpt><trkpt lat="44.3378662" lon="8.3237682"><ele>385.0</ele><time>2026-03-24T11:40:55.938Z</time></trkpt><trkpt lat="44.337898" lon="8.3238586"><ele>385.00000000000006</ele><time>2026-03-24T11:40:56.937Z</time></trkpt><trkpt lat="44.3379288" lon="8.3239409"><ele>385.0</ele><time>2026-03-24T11:40:57.938Z</time></trkpt><trkpt lat="44.3379572" lon="8.3240276"><ele>385.0</ele><time>2026-03-24T11:40:58.937Z</time></trkpt><trkpt lat="44.3379813" lon="8.3241155"><ele>385.0</ele><time>2026-03-24T11:40:59.938Z</time></trkpt><trkpt lat="44.338032" lon="8.3242734"><ele>385.00000000000006</ele><time>2026-03-24T11:41:01.938Z</time></trkpt><trkpt lat="44.3380601" lon="8.3243531"><ele>385.0</ele><time>2026-03-24T11:41:02.939Z</time></trkpt><trkpt lat="44.3381093" lon="8.3245045"><ele>384.8</ele><time>2026-03-24T11:41:04.937Z</time></trkpt><trkpt lat="44.3381377" lon="8.3246649"><ele>384.6</ele><time>2026-03-24T11:41:06.937Z</time></trkpt><trkpt lat="44.3380692" lon="8.3247902"><ele>384.4</ele><time>2026-03-24T11:41:08.938Z</time></trkpt><trkpt lat="44.3380085" lon="8.3248211"><ele>384.2</ele><time>2026-03-24T11:41:09.938Z</time></trkpt><trkpt lat="44.3378869" lon="8.3248341"><ele>384.0</ele><time>2026-03-24T11:41:11.937Z</time></trkpt><trkpt lat="44.3378184" lon="8.3248455"><ele>385.0</ele><time>2026-03-24T11:41:12.937Z</time></trkpt><trkpt lat="44.3376946" lon="8.3248585"><ele>386.0</ele><time>2026-03-24T11:41:14.938Z</time></trkpt><trkpt lat="44.3375726" lon="8.3248654"><ele>387.0</ele><time>2026-03-24T11:41:16.938Z</time></trkpt><trkpt lat="44.3375036" lon="8.3248683"><ele>388.0</ele><time>2026-03-24T11:41:17.938Z</time></trkpt><trkpt lat="44.3374404" lon="8.324876"><ele>389.0</ele><time>2026-03-24T11:41:18.938Z</time></trkpt><trkpt lat="44.3373161" lon="8.3248864"><ele>388.99999999999994</ele><time>2026-03-24T11:41:20.937Z</time></trkpt><trkpt lat="44.3372446" lon="8.3248904"><ele>389.0</ele><time>2026-03-24T11:41:21.938Z</time></trkpt><trkpt lat="44.337178" lon="8.3248996"><ele>389.0</ele><time>2026-03-24T11:41:22.938Z</time></trkpt><trkpt lat="44.3371143" lon="8.3249114"><ele>389.0</ele><time>2026-03-24T11:41:23.938Z</time></trkpt><trkpt lat="44.3370478" lon="8.3249167"><ele>388.99999999999994</ele><time>2026-03-24T11:41:24.938Z</time></trkpt><trkpt lat="44.336916" lon="8.3249221"><ele>389.0</ele><time>2026-03-24T11:41:26.938Z</time></trkpt><trkpt lat="44.3368511" lon="8.3249342"><ele>388.6</ele><time>2026-03-24T11:41:27.938Z</time></trkpt><trkpt lat="44.3367248" lon="8.3249944"><ele>388.2</ele><time>2026-03-24T11:41:29.938Z</time></trkpt><trkpt lat="44.3366641" lon="8.325038"><ele>387.8</ele><time>2026-03-24T11:41:30.938Z</time></trkpt><trkpt lat="44.3366078" lon="8.3250782"><ele>387.40000000000003</ele><time>2026-03-24T11:41:31.937Z</time></trkpt><trkpt lat="44.336507" lon="8.3251396"><ele>387.0</ele><time>2026-03-24T11:41:33.937Z</time></trkpt><trkpt lat="44.3364027" lon="8.3252109"><ele>387.20000000000005</ele><time>2026-03-24T11:41:35.938Z</time></trkpt><trkpt lat="44.3363012" lon="8.3252878"><ele>387.4</ele><time>2026-03-24T11:41:37.937Z</time></trkpt><trkpt lat="44.3362111" lon="8.3253653"><ele>387.6</ele><time>2026-03-24T11:41:39.938Z</time></trkpt><trkpt lat="44.3361166" lon="8.3254442"><ele>387.79999999999995</ele><time>2026-03-24T11:41:41.938Z</time></trkpt><trkpt lat="44.3360385" lon="8.3255481"><ele>388.0</ele><time>2026-03-24T11:41:43.938Z</time></trkpt><trkpt lat="44.3359576" lon="8.3256531"><ele>389.2</ele><time>2026-03-24T11:41:45.937Z</time></trkpt><trkpt lat="44.3358883" lon="8.3257384"><ele>390.4</ele><time>2026-03-24T11:41:47.937Z</time></trkpt><trkpt lat="44.3358268" lon="8.3258325"><ele>391.59999999999997</ele><time>2026-03-24T11:41:49.938Z</time></trkpt><trkpt lat="44.3357563" lon="8.3259316"><ele>392.79999999999995</ele><time>2026-03-24T11:41:51.937Z</time></trkpt><trkpt lat="44.3356789" lon="8.3260335"><ele>394.0</ele><time>2026-03-24T11:41:53.936Z</time></trkpt><trkpt lat="44.3355913" lon="8.3261391"><ele>393.0</ele><time>2026-03-24T11:41:55.938Z</time></trkpt><trkpt lat="44.3355128" lon="8.326255"><ele>392.0</ele><time>2026-03-24T11:41:57.938Z</time></trkpt><trkpt lat="44.3354276" lon="8.3263633"><ele>391.0</ele><time>2026-03-24T11:41:59.938Z</time></trkpt><trkpt lat="44.3353437" lon="8.326461"><ele>390.0</ele><time>2026-03-24T11:42:01.938Z</time></trkpt><trkpt lat="44.3352678" lon="8.3265469"><ele>389.0</ele><time>2026-03-24T11:42:03.937Z</time></trkpt><trkpt lat="44.3351683" lon="8.3266216"><ele>389.0</ele><time>2026-03-24T11:42:05.937Z</time></trkpt><trkpt lat="44.3350565" lon="8.3266614"><ele>389.0</ele><time>2026-03-24T11:42:07.936Z</time></trkpt><trkpt lat="44.3349551" lon="8.3266437"><ele>389.0</ele><time>2026-03-24T11:42:09.937Z</time></trkpt><trkpt lat="44.3348631" lon="8.3266174"><ele>389.0</ele><time>2026-03-24T11:42:11.938Z</time></trkpt><trkpt lat="44.3347783" lon="8.3265747"><ele>389.0</ele><time>2026-03-24T11:42:13.936Z</time></trkpt><trkpt lat="44.3346916" lon="8.3265083"><ele>389.0</ele><time>2026-03-24T11:42:15.938Z</time></trkpt><trkpt lat="44.334604" lon="8.3264508"><ele>389.0</ele><time>2026-03-24T11:42:17.938Z</time></trkpt><trkpt lat="44.33451" lon="8.3263908"><ele>389.0</ele><time>2026-03-24T11:42:19.938Z</time></trkpt><trkpt lat="44.3344209" lon="8.3263331"><ele>389.0</ele><time>2026-03-24T11:42:21.936Z</time></trkpt><trkpt lat="44.3343418" lon="8.3262649"><ele>389.0</ele><time>2026-03-24T11:42:23.938Z</time></trkpt><trkpt lat="44.3342575" lon="8.3261932"><ele>389.0</ele><time>2026-03-24T11:42:25.937Z</time></trkpt><trkpt lat="44.3341627" lon="8.326113"><ele>389.0</ele><time>2026-03-24T11:42:27.938Z</time></trkpt><trkpt lat="44.3340647" lon="8.3260368"><ele>389.0</ele><time>2026-03-24T11:42:29.937Z</time></trkpt><trkpt lat="44.333965" lon="8.3259609"><ele>389.0</ele><time>2026-03-24T11:42:31.936Z</time></trkpt><trkpt lat="44.3338746" lon="8.3258865"><ele>389.0</ele><time>2026-03-24T11:42:33.937Z</time></trkpt><trkpt lat="44.3337837" lon="8.3258235"><ele>389.6</ele><time>2026-03-24T11:42:35.937Z</time></trkpt><trkpt lat="44.3336845" lon="8.3257771"><ele>390.2</ele><time>2026-03-24T11:42:37.938Z</time></trkpt><trkpt lat="44.3335803" lon="8.3257525"><ele>390.8</ele><time>2026-03-24T11:42:39.938Z</time></trkpt><trkpt lat="44.3334793" lon="8.3257456"><ele>391.40000000000003</ele><time>2026-03-24T11:42:41.938Z</time></trkpt><trkpt lat="44.3333749" lon="8.3257395"><ele>392.0</ele><time>2026-03-24T11:42:43.937Z</time></trkpt><trkpt lat="44.3332732" lon="8.3257392"><ele>392.0</ele><time>2026-03-24T11:42:45.938Z</time></trkpt><trkpt lat="44.333174" lon="8.3257754"><ele>392.0</ele><time>2026-03-24T11:42:47.938Z</time></trkpt><trkpt lat="44.3330903" lon="8.3258276"><ele>392.0</ele><time>2026-03-24T11:42:49.937Z</time></trkpt><trkpt lat="44.3330062" lon="8.3258953"><ele>392.0</ele><time>2026-03-24T11:42:51.937Z</time></trkpt><trkpt lat="44.3329154" lon="8.3259423"><ele>392.0</ele><time>2026-03-24T11:42:53.938Z</time></trkpt><trkpt lat="44.3328271" lon="8.3259911"><ele>396.6</ele><time>2026-03-24T11:42:55.938Z</time></trkpt><trkpt lat="44.3327381" lon="8.3260501"><ele>401.20000000000005</ele><time>2026-03-24T11:42:57.938Z</time></trkpt><trkpt lat="44.3326478" lon="8.3261257"><ele>405.8</ele><time>2026-03-24T11:42:59.936Z</time></trkpt><trkpt lat="44.3325474" lon="8.3261612"><ele>410.4</ele><time>2026-03-24T11:43:01.937Z</time></trkpt><trkpt lat="44.3324476" lon="8.3262237"><ele>415.0</ele><time>2026-03-24T11:43:03.938Z</time></trkpt><trkpt lat="44.3323476" lon="8.3262869"><ele>415.0</ele><time>2026-03-24T11:43:05.938Z</time></trkpt><trkpt lat="44.3322536" lon="8.3263372"><ele>415.0</ele><time>2026-03-24T11:43:07.938Z</time></trkpt><trkpt lat="44.3321588" lon="8.3263953"><ele>415.0</ele><time>2026-03-24T11:43:09.938Z</time></trkpt><trkpt lat="44.3320645" lon="8.3264545"><ele>415.0</ele><time>2026-03-24T11:43:11.936Z</time></trkpt><trkpt lat="44.3319623" lon="8.3265286"><ele>415.0</ele><time>2026-03-24T11:43:13.938Z</time></trkpt><trkpt lat="44.3318642" lon="8.3266012"><ele>411.4</ele><time>2026-03-24T11:43:15.937Z</time></trkpt><trkpt lat="44.3317637" lon="8.3266629"><ele>407.8</ele><time>2026-03-24T11:43:17.937Z</time></trkpt><trkpt lat="44.3316664" lon="8.3267338"><ele>404.20000000000005</ele><time>2026-03-24T11:43:19.938Z</time></trkpt><trkpt lat="44.3315635" lon="8.326811"><ele>400.6</ele><time>2026-03-24T11:43:21.938Z</time></trkpt><trkpt lat="44.3315064" lon="8.3268503"><ele>397.0</ele><time>2026-03-24T11:43:22.938Z</time></trkpt><trkpt lat="44.3314166" lon="8.3269294"><ele>397.40000000000003</ele><time>2026-03-24T11:43:24.937Z</time></trkpt><trkpt lat="44.3313275" lon="8.3270152"><ele>397.8</ele><time>2026-03-24T11:43:26.936Z</time></trkpt><trkpt lat="44.3312338" lon="8.327094"><ele>398.2</ele><time>2026-03-24T11:43:28.938Z</time></trkpt><trkpt lat="44.3311482" lon="8.3271814"><ele>398.6</ele><time>2026-03-24T11:43:30.936Z</time></trkpt><trkpt lat="44.3310573" lon="8.3272774"><ele>399.0</ele><time>2026-03-24T11:43:32.938Z</time></trkpt><trkpt lat="44.3309665" lon="8.327367"><ele>399.0</ele><time>2026-03-24T11:43:34.937Z</time></trkpt><trkpt lat="44.3308893" lon="8.3274615"><ele>399.0</ele><time>2026-03-24T11:43:36.937Z</time></trkpt><trkpt lat="44.3308141" lon="8.3275435"><ele>399.0</ele><time>2026-03-24T11:43:38.937Z</time></trkpt><trkpt lat="44.330744" lon="8.3276245"><ele>399.0</ele><time>2026-03-24T11:43:40.938Z</time></trkpt><trkpt lat="44.3306715" lon="8.3277116"><ele>399.0</ele><time>2026-03-24T11:43:42.937Z</time></trkpt><trkpt lat="44.3305907" lon="8.3277921"><ele>399.2</ele><time>2026-03-24T11:43:44.936Z</time></trkpt><trkpt lat="44.3305004" lon="8.3278824"><ele>399.4</ele><time>2026-03-24T11:43:46.938Z</time></trkpt><trkpt lat="44.3304165" lon="8.3279699"><ele>399.6</ele><time>2026-03-24T11:43:48.937Z</time></trkpt><trkpt lat="44.3303335" lon="8.3280589"><ele>399.8</ele><time>2026-03-24T11:43:50.937Z</time></trkpt><trkpt lat="44.3302464" lon="8.3281384"><ele>400.0</ele><time>2026-03-24T11:43:52.938Z</time></trkpt><trkpt lat="44.3301632" lon="8.3282385"><ele>400.0</ele><time>2026-03-24T11:43:54.938Z</time></trkpt><trkpt lat="44.3300778" lon="8.3283273"><ele>400.0</ele><time>2026-03-24T11:43:56.938Z</time></trkpt><trkpt lat="44.3299933" lon="8.3283824"><ele>400.0</ele><time>2026-03-24T11:43:58.937Z</time></trkpt><trkpt lat="44.329911" lon="8.3284461"><ele>400.0</ele><time>2026-03-24T11:44:00.936Z</time></trkpt><trkpt lat="44.32983" lon="8.3285097"><ele>400.0</ele><time>2026-03-24T11:44:02.937Z</time></trkpt><trkpt lat="44.3297404" lon="8.3285636"><ele>404.33333333333337</ele><time>2026-03-24T11:44:04.938Z</time></trkpt><trkpt lat="44.3296564" lon="8.3286014"><ele>408.6666666666667</ele><time>2026-03-24T11:44:06.938Z</time></trkpt><trkpt lat="44.3295677" lon="8.3286604"><ele>413.0</ele><time>2026-03-24T11:44:08.936Z</time></trkpt><trkpt lat="44.3294895" lon="8.3287055"><ele>417.33333333333337</ele><time>2026-03-24T11:44:10.938Z</time></trkpt><trkpt lat="44.3294123" lon="8.3287502"><ele>421.6666666666667</ele><time>2026-03-24T11:44:12.938Z</time></trkpt><trkpt lat="44.3293334" lon="8.3287967"><ele>426.0</ele><time>2026-03-24T11:44:14.938Z</time></trkpt><trkpt lat="44.3292533" lon="8.3288427"><ele>426.0</ele><time>2026-03-24T11:44:16.938Z</time></trkpt><trkpt lat="44.3291719" lon="8.3288814"><ele>426.0</ele><time>2026-03-24T11:44:18.937Z</time></trkpt><trkpt lat="44.3290846" lon="8.3289289"><ele>426.0</ele><time>2026-03-24T11:44:20.938Z</time></trkpt><trkpt lat="44.3289963" lon="8.3289814"><ele>426.0</ele><time>2026-03-24T11:44:22.938Z</time></trkpt><trkpt lat="44.3289124" lon="8.3290291"><ele>426.0</ele><time>2026-03-24T11:44:24.937Z</time></trkpt><trkpt lat="44.32883" lon="8.3290815"><ele>422.0</ele><time>2026-03-24T11:44:26.938Z</time></trkpt><trkpt lat="44.3287464" lon="8.3291244"><ele>418.0</ele><time>2026-03-24T11:44:28.937Z</time></trkpt><trkpt lat="44.3286586" lon="8.3291659"><ele>414.0</ele><time>2026-03-24T11:44:30.937Z</time></trkpt><trkpt lat="44.3285684" lon="8.3292014"><ele>410.0</ele><time>2026-03-24T11:44:32.938Z</time></trkpt><trkpt lat="44.3284804" lon="8.3292429"><ele>406.0</ele><time>2026-03-24T11:44:34.936Z</time></trkpt><trkpt lat="44.3283963" lon="8.3292799"><ele>406.00000000000006</ele><time>2026-03-24T11:44:36.938Z</time></trkpt><trkpt lat="44.328305" lon="8.3293052"><ele>406.0</ele><time>2026-03-24T11:44:38.937Z</time></trkpt><trkpt lat="44.3282279" lon="8.3293256"><ele>406.0</ele><time>2026-03-24T11:44:40.938Z</time></trkpt><trkpt lat="44.3281481" lon="8.3293514"><ele>406.0</ele><time>2026-03-24T11:44:42.938Z</time></trkpt><trkpt lat="44.3280666" lon="8.3293916"><ele>406.00000000000006</ele><time>2026-03-24T11:44:44.937Z</time></trkpt><trkpt lat="44.3279824" lon="8.3294396"><ele>406.0</ele><time>2026-03-24T11:44:46.937Z</time></trkpt><trkpt lat="44.327897" lon="8.3294893"><ele>405.0</ele><time>2026-03-24T11:44:48.937Z</time></trkpt><trkpt lat="44.3278032" lon="8.3295424"><ele>404.0</ele><time>2026-03-24T11:44:50.937Z</time></trkpt><trkpt lat="44.3277113" lon="8.3296039"><ele>403.0</ele><time>2026-03-24T11:44:52.937Z</time></trkpt><trkpt lat="44.327629" lon="8.3296723"><ele>402.0</ele><time>2026-03-24T11:44:54.936Z</time></trkpt><trkpt lat="44.3275443" lon="8.329728"><ele>401.0</ele><time>2026-03-24T11:44:56.938Z</time></trkpt><trkpt lat="44.3274584" lon="8.3297739"><ele>400.4</ele><time>2026-03-24T11:44:58.936Z</time></trkpt><trkpt lat="44.3273662" lon="8.3298064"><ele>399.8</ele><time>2026-03-24T11:45:00.938Z</time></trkpt><trkpt lat="44.3272885" lon="8.3298727"><ele>399.2</ele><time>2026-03-24T11:45:02.938Z</time></trkpt><trkpt lat="44.3271953" lon="8.329928"><ele>398.59999999999997</ele><time>2026-03-24T11:45:04.938Z</time></trkpt><trkpt lat="44.3271145" lon="8.3299892"><ele>398.0</ele><time>2026-03-24T11:45:06.938Z</time></trkpt><trkpt lat="44.3270323" lon="8.3300471"><ele>398.0</ele><time>2026-03-24T11:45:08.938Z</time></trkpt><trkpt lat="44.3269469" lon="8.3301055"><ele>398.0</ele><time>2026-03-24T11:45:10.938Z</time></trkpt><trkpt lat="44.3268555" lon="8.3301591"><ele>398.0</ele><time>2026-03-24T11:45:12.937Z</time></trkpt><trkpt lat="44.3267529" lon="8.3301962"><ele>398.0</ele><time>2026-03-24T11:45:14.937Z</time></trkpt><trkpt lat="44.3266544" lon="8.3301674"><ele>398.0</ele><time>2026-03-24T11:45:16.938Z</time></trkpt><trkpt lat="44.3265762" lon="8.3300577"><ele>398.0</ele><time>2026-03-24T11:45:18.938Z</time></trkpt><trkpt lat="44.3265248" lon="8.3299154"><ele>398.0</ele><time>2026-03-24T11:45:20.937Z</time></trkpt><trkpt lat="44.3264994" lon="8.3297807"><ele>398.0</ele><time>2026-03-24T11:45:22.938Z</time></trkpt><trkpt lat="44.3264703" lon="8.3296406"><ele>398.0</ele><time>2026-03-24T11:45:24.937Z</time></trkpt><trkpt lat="44.3264357" lon="8.329504"><ele>398.0</ele><time>2026-03-24T11:45:26.938Z</time></trkpt><trkpt lat="44.3264118" lon="8.3293865"><ele>399.79999999999995</ele><time>2026-03-24T11:45:28.938Z</time></trkpt><trkpt lat="44.3263892" lon="8.3292569"><ele>401.6</ele><time>2026-03-24T11:45:30.938Z</time></trkpt><trkpt lat="44.3263738" lon="8.3291096"><ele>403.4</ele><time>2026-03-24T11:45:32.937Z</time></trkpt><trkpt lat="44.3263691" lon="8.3289612"><ele>405.20000000000005</ele><time>2026-03-24T11:45:34.938Z</time></trkpt><trkpt lat="44.3263588" lon="8.3288067"><ele>407.0</ele><time>2026-03-24T11:45:36.937Z</time></trkpt><trkpt lat="44.3263605" lon="8.3286472"><ele>406.8</ele><time>2026-03-24T11:45:38.937Z</time></trkpt><trkpt lat="44.3263549" lon="8.3285004"><ele>406.6</ele><time>2026-03-24T11:45:40.937Z</time></trkpt><trkpt lat="44.3263524" lon="8.3283719"><ele>406.40000000000003</ele><time>2026-03-24T11:45:42.936Z</time></trkpt><trkpt lat="44.3263478" lon="8.3282401"><ele>406.20000000000005</ele><time>2026-03-24T11:45:44.937Z</time></trkpt><trkpt lat="44.3263354" lon="8.3281034"><ele>406.0</ele><time>2026-03-24T11:45:46.938Z</time></trkpt><trkpt lat="44.3263101" lon="8.3279582"><ele>406.0</ele><time>2026-03-24T11:45:48.937Z</time></trkpt><trkpt lat="44.3262704" lon="8.3278216"><ele>406.0</ele><time>2026-03-24T11:45:50.937Z</time></trkpt><trkpt lat="44.3262051" lon="8.3276922"><ele>406.0</ele><time>2026-03-24T11:45:52.938Z</time></trkpt><trkpt lat="44.3261161" lon="8.3275852"><ele>406.0</ele><time>2026-03-24T11:45:54.938Z</time></trkpt><trkpt lat="44.3260212" lon="8.3274862"><ele>406.0</ele><time>2026-03-24T11:45:56.937Z</time></trkpt><trkpt lat="44.3259276" lon="8.3273932"><ele>406.0</ele><time>2026-03-24T11:45:58.937Z</time></trkpt><trkpt lat="44.3258236" lon="8.3273138"><ele>406.0</ele><time>2026-03-24T11:46:00.938Z</time></trkpt><trkpt lat="44.3257199" lon="8.3272506"><ele>406.0</ele><time>2026-03-24T11:46:02.938Z</time></trkpt><trkpt lat="44.3256267" lon="8.3271963"><ele>406.0</ele><time>2026-03-24T11:46:04.937Z</time></trkpt><trkpt lat="44.3255349" lon="8.3271486"><ele>406.8</ele><time>2026-03-24T11:46:06.937Z</time></trkpt><trkpt lat="44.3254345" lon="8.3271168"><ele>407.6</ele><time>2026-03-24T11:46:08.937Z</time></trkpt><trkpt lat="44.3253353" lon="8.3270833"><ele>408.4</ele><time>2026-03-24T11:46:10.937Z</time></trkpt><trkpt lat="44.325235" lon="8.3270607"><ele>409.2</ele><time>2026-03-24T11:46:12.938Z</time></trkpt><trkpt lat="44.3251287" lon="8.3270461"><ele>410.0</ele><time>2026-03-24T11:46:14.936Z</time></trkpt><trkpt lat="44.3250209" lon="8.3270368"><ele>410.0</ele><time>2026-03-24T11:46:16.937Z</time></trkpt><trkpt lat="44.3249108" lon="8.3270298"><ele>410.0</ele><time>2026-03-24T11:46:18.937Z</time></trkpt><trkpt lat="44.3248053" lon="8.3270113"><ele>410.0</ele><time>2026-03-24T11:46:20.937Z</time></trkpt><trkpt lat="44.3246996" lon="8.3269854"><ele>410.0</ele><time>2026-03-24T11:46:22.937Z</time></trkpt><trkpt lat="44.3246021" lon="8.3269432"><ele>410.0</ele><time>2026-03-24T11:46:24.937Z</time></trkpt><trkpt lat="44.3244997" lon="8.3269145"><ele>412.6</ele><time>2026-03-24T11:46:26.936Z</time></trkpt><trkpt lat="44.3244005" lon="8.3268577"><ele>415.2</ele><time>2026-03-24T11:46:28.937Z</time></trkpt><trkpt lat="44.3243131" lon="8.3267737"><ele>417.79999999999995</ele><time>2026-03-24T11:46:30.937Z</time></trkpt><trkpt lat="44.3242414" lon="8.3266725"><ele>420.4</ele><time>2026-03-24T11:46:32.937Z</time></trkpt><trkpt lat="44.3241932" lon="8.3265565"><ele>423.0</ele><time>2026-03-24T11:46:34.936Z</time></trkpt><trkpt lat="44.3241521" lon="8.3264298"><ele>420.4</ele><time>2026-03-24T11:46:36.937Z</time></trkpt><trkpt lat="44.3241266" lon="8.3263004"><ele>417.79999999999995</ele><time>2026-03-24T11:46:38.938Z</time></trkpt><trkpt lat="44.3241113" lon="8.3261671"><ele>415.2</ele><time>2026-03-24T11:46:40.936Z</time></trkpt><trkpt lat="44.3240991" lon="8.3260322"><ele>412.6</ele><time>2026-03-24T11:46:42.937Z</time></trkpt><trkpt lat="44.3240854" lon="8.3258964"><ele>410.0</ele><time>2026-03-24T11:46:44.937Z</time></trkpt><trkpt lat="44.324062" lon="8.3257701"><ele>410.0</ele><time>2026-03-24T11:46:46.937Z</time></trkpt><trkpt lat="44.3240353" lon="8.3256386"><ele>410.0</ele><time>2026-03-24T11:46:48.937Z</time></trkpt><trkpt lat="44.3240096" lon="8.3254963"><ele>410.0</ele><time>2026-03-24T11:46:50.937Z</time></trkpt><trkpt lat="44.3240065" lon="8.3253628"><ele>410.0</ele><time>2026-03-24T11:46:52.937Z</time></trkpt><trkpt lat="44.3239898" lon="8.3252364"><ele>410.0</ele><time>2026-03-24T11:46:54.937Z</time></trkpt><trkpt lat="44.3239697" lon="8.3250894"><ele>410.2</ele><time>2026-03-24T11:46:56.937Z</time></trkpt><trkpt lat="44.3239549" lon="8.3249601"><ele>410.4</ele><time>2026-03-24T11:46:58.937Z</time></trkpt><trkpt lat="44.323935" lon="8.324833"><ele>410.6</ele><time>2026-03-24T11:47:00.937Z</time></trkpt><trkpt lat="44.3239196" lon="8.3246991"><ele>410.8</ele><time>2026-03-24T11:47:02.936Z</time></trkpt><trkpt lat="44.3238934" lon="8.3245628"><ele>411.0</ele><time>2026-03-24T11:47:04.935Z</time></trkpt><trkpt lat="44.3238606" lon="8.3244247"><ele>411.0</ele><time>2026-03-24T11:47:06.937Z</time></trkpt><trkpt lat="44.3238259" lon="8.3243046"><ele>411.0</ele><time>2026-03-24T11:47:08.936Z</time></trkpt><trkpt lat="44.3237907" lon="8.3241723"><ele>411.0</ele><time>2026-03-24T11:47:10.937Z</time></trkpt><trkpt lat="44.3237316" lon="8.3240734"><ele>411.0</ele><time>2026-03-24T11:47:12.937Z</time></trkpt><trkpt lat="44.3236628" lon="8.3239803"><ele>411.0</ele><time>2026-03-24T11:47:14.937Z</time></trkpt><trkpt lat="44.3235815" lon="8.3239142"><ele>411.0</ele><time>2026-03-24T11:47:16.937Z</time></trkpt><trkpt lat="44.323494" lon="8.3238928"><ele>411.0</ele><time>2026-03-24T11:47:18.937Z</time></trkpt><trkpt lat="44.323402" lon="8.3239061"><ele>411.0</ele><time>2026-03-24T11:47:20.936Z</time></trkpt><trkpt lat="44.3233041" lon="8.3239442"><ele>411.0</ele><time>2026-03-24T11:47:22.936Z</time></trkpt><trkpt lat="44.3232108" lon="8.3239948"><ele>411.0</ele><time>2026-03-24T11:47:24.937Z</time></trkpt><trkpt lat="44.3231278" lon="8.3240542"><ele>411.0</ele><time>2026-03-24T11:47:26.937Z</time></trkpt><trkpt lat="44.3230472" lon="8.3241416"><ele>411.0</ele><time>2026-03-24T11:47:28.938Z</time></trkpt><trkpt lat="44.3229589" lon="8.3242248"><ele>411.0</ele><time>2026-03-24T11:47:30.937Z</time></trkpt><trkpt lat="44.3228744" lon="8.3243043"><ele>411.0</ele><time>2026-03-24T11:47:32.937Z</time></trkpt><trkpt lat="44.322786" lon="8.324385"><ele>411.0</ele><time>2026-03-24T11:47:34.937Z</time></trkpt><trkpt lat="44.3226978" lon="8.3244622"><ele>411.0</ele><time>2026-03-24T11:47:36.937Z</time></trkpt><trkpt lat="44.3226097" lon="8.324523"><ele>411.0</ele><time>2026-03-24T11:47:38.936Z</time></trkpt><trkpt lat="44.3225135" lon="8.3245756"><ele>411.0</ele><time>2026-03-24T11:47:40.938Z</time></trkpt><trkpt lat="44.3224112" lon="8.3245949"><ele>411.0</ele><time>2026-03-24T11:47:42.937Z</time></trkpt><trkpt lat="44.3223087" lon="8.3245808"><ele>411.0</ele><time>2026-03-24T11:47:44.937Z</time></trkpt><trkpt lat="44.3222197" lon="8.3245146"><ele>410.6</ele><time>2026-03-24T11:47:46.937Z</time></trkpt><trkpt lat="44.3221449" lon="8.3244291"><ele>410.20000000000005</ele><time>2026-03-24T11:47:48.937Z</time></trkpt><trkpt lat="44.3220813" lon="8.3243304"><ele>409.79999999999995</ele><time>2026-03-24T11:47:50.938Z</time></trkpt><trkpt lat="44.322021" lon="8.3242281"><ele>409.4</ele><time>2026-03-24T11:47:52.936Z</time></trkpt><trkpt lat="44.321969" lon="8.3241306"><ele>409.0</ele><time>2026-03-24T11:47:54.937Z</time></trkpt><trkpt lat="44.3219123" lon="8.3240455"><ele>409.0</ele><time>2026-03-24T11:47:56.938Z</time></trkpt><trkpt lat="44.3218592" lon="8.3239802"><ele>409.0</ele><time>2026-03-24T11:47:58.936Z</time></trkpt><trkpt lat="44.3217876" lon="8.3239571"><ele>409.0</ele><time>2026-03-24T11:48:02.421Z</time></trkpt><trkpt lat="44.321732" lon="8.3240023"><ele>409.0</ele><time>2026-03-24T11:48:11.937Z</time></trkpt><trkpt lat="44.3217112" lon="8.3241012"><ele>409.0</ele><time>2026-03-24T11:48:15.937Z</time></trkpt><trkpt lat="44.321705" lon="8.324009"><ele>409.0</ele><time>2026-03-24T11:48:21.935Z</time></trkpt><trkpt lat="44.3216993" lon="8.3241054"><ele>409.0</ele><time>2026-03-24T11:48:40.936Z</time></trkpt><trkpt lat="44.3216497" lon="8.3241701"><ele>409.0</ele><time>2026-03-24T11:48:45.938Z</time></trkpt></trkseg></trk></gpx>